<?xml version="1.0" encoding="UTF-8" standalone="no" ?>
<gpx xmlns="http://www.topografix.com/GPX/1/1" xmlns:xsi="http://www.w3.org/2001/XMLSchema-instance" xsi:schemaLocation="http://www.topografix.com/GPX/1/1 http://www.topografix.com/GPX/1/1/gpx.xsd" version="1.1" creator="VisuGPX - https://www.visugpx.com">
  <metadata>
    <name>Pornichet 12/08/2021</name>
    <desc><![CDATA[Sortie VTT jeudi 12 août 2021]]></desc>
  </metadata>
  <trk>
    <name><![CDATA[Pornichet Cyclisme]]></name>
    <trkseg>
      <trkpt lat="47.26383" lon="-2.31548">
        <ele>9</ele>
        <time>2021-08-12T06:49:14.000Z</time>
      </trkpt>
      <trkpt lat="47.26383" lon="-2.31563">
        <ele>8.8</ele>
        <time>2021-08-12T06:49:17.000Z</time>
      </trkpt>
      <trkpt lat="47.26382" lon="-2.31569">
        <ele>0.40000000596046</ele>
        <time>2021-08-12T06:49:18.000Z</time>
      </trkpt>
      <trkpt lat="47.2638" lon="-2.31597">
        <ele>0.40000000596046</ele>
        <time>2021-08-12T06:49:23.000Z</time>
      </trkpt>
      <trkpt lat="47.26376" lon="-2.31631">
        <ele>0.40000000596046</ele>
        <time>2021-08-12T06:49:29.000Z</time>
      </trkpt>
      <trkpt lat="47.26372" lon="-2.31637">
        <ele>0.40000000596046</ele>
        <time>2021-08-12T06:49:31.000Z</time>
      </trkpt>
      <trkpt lat="47.26365" lon="-2.31641">
        <ele>0.40000000596046</ele>
        <time>2021-08-12T06:49:33.000Z</time>
      </trkpt>
      <trkpt lat="47.26346" lon="-2.31653">
        <ele>0.40000000596046</ele>
        <time>2021-08-12T06:49:38.000Z</time>
      </trkpt>
      <trkpt lat="47.26342" lon="-2.31656">
        <ele>0.40000000596046</ele>
        <time>2021-08-12T06:49:39.000Z</time>
      </trkpt>
      <trkpt lat="47.26329" lon="-2.31666">
        <ele>6.8</ele>
        <time>2021-08-12T06:49:42.000Z</time>
      </trkpt>
      <trkpt lat="47.26324" lon="-2.31668">
        <ele>-0.40000000596046</ele>
        <time>2021-08-12T06:49:43.000Z</time>
      </trkpt>
      <trkpt lat="47.2632" lon="-2.3167">
        <ele>-1</ele>
        <time>2021-08-12T06:49:44.000Z</time>
      </trkpt>
      <trkpt lat="47.26313" lon="-2.31674">
        <ele>-1.3999999761581</ele>
        <time>2021-08-12T06:49:45.000Z</time>
      </trkpt>
      <trkpt lat="47.26307" lon="-2.31676">
        <ele>-1.7999999523163</ele>
        <time>2021-08-12T06:49:46.000Z</time>
      </trkpt>
      <trkpt lat="47.26278" lon="-2.3169">
        <ele>-1.7999999523163</ele>
        <time>2021-08-12T06:49:51.000Z</time>
      </trkpt>
      <trkpt lat="47.26269" lon="-2.31696">
        <ele>-2.2000000476837</ele>
        <time>2021-08-12T06:49:53.000Z</time>
      </trkpt>
      <trkpt lat="47.26264" lon="-2.317">
        <ele>-2.5999999046326</ele>
        <time>2021-08-12T06:49:54.000Z</time>
      </trkpt>
      <trkpt lat="47.26262" lon="-2.31705">
        <ele>-3</ele>
        <time>2021-08-12T06:49:55.000Z</time>
      </trkpt>
      <trkpt lat="47.26262" lon="-2.31712">
        <ele>-3.5999999046326</ele>
        <time>2021-08-12T06:49:56.000Z</time>
      </trkpt>
      <trkpt lat="47.26261" lon="-2.31719">
        <ele>-4</ele>
        <time>2021-08-12T06:49:57.000Z</time>
      </trkpt>
      <trkpt lat="47.26262" lon="-2.31739">
        <ele>-4</ele>
        <time>2021-08-12T06:50:00.000Z</time>
      </trkpt>
      <trkpt lat="47.26271" lon="-2.3177">
        <ele>-4</ele>
        <time>2021-08-12T06:50:06.000Z</time>
      </trkpt>
      <trkpt lat="47.26271" lon="-2.31808">
        <ele>-4</ele>
        <time>2021-08-12T06:50:12.000Z</time>
      </trkpt>
      <trkpt lat="47.26272" lon="-2.31822">
        <ele>-4</ele>
        <time>2021-08-12T06:50:14.000Z</time>
      </trkpt>
      <trkpt lat="47.26272" lon="-2.31839">
        <ele>-4</ele>
        <time>2021-08-12T06:50:17.000Z</time>
      </trkpt>
      <trkpt lat="47.26267" lon="-2.3185">
        <ele>-4</ele>
        <time>2021-08-12T06:50:19.000Z</time>
      </trkpt>
      <trkpt lat="47.26264" lon="-2.31853">
        <ele>-4</ele>
        <time>2021-08-12T06:50:20.000Z</time>
      </trkpt>
      <trkpt lat="47.26243" lon="-2.31882">
        <ele>-4</ele>
        <time>2021-08-12T06:50:27.000Z</time>
      </trkpt>
      <trkpt lat="47.26225" lon="-2.31912">
        <ele>-4</ele>
        <time>2021-08-12T06:50:34.000Z</time>
      </trkpt>
      <trkpt lat="47.26216" lon="-2.31931">
        <ele>-4</ele>
        <time>2021-08-12T06:50:38.000Z</time>
      </trkpt>
      <trkpt lat="47.26205" lon="-2.3194">
        <ele>-4</ele>
        <time>2021-08-12T06:50:42.000Z</time>
      </trkpt>
      <trkpt lat="47.26195" lon="-2.31955">
        <ele>-4</ele>
        <time>2021-08-12T06:50:47.000Z</time>
      </trkpt>
      <trkpt lat="47.26185" lon="-2.31969">
        <ele>-4.4000000953674</ele>
        <time>2021-08-12T06:50:51.000Z</time>
      </trkpt>
      <trkpt lat="47.26184" lon="-2.31973">
        <ele>-4.8000001907349</ele>
        <time>2021-08-12T06:50:52.000Z</time>
      </trkpt>
      <trkpt lat="47.26183" lon="-2.31977">
        <ele>-5.1999998092651</ele>
        <time>2021-08-12T06:50:53.000Z</time>
      </trkpt>
      <trkpt lat="47.26182" lon="-2.31981">
        <ele>-5.5999999046326</ele>
        <time>2021-08-12T06:50:54.000Z</time>
      </trkpt>
      <trkpt lat="47.26181" lon="-2.31985">
        <ele>-6</ele>
        <time>2021-08-12T06:50:55.000Z</time>
      </trkpt>
      <trkpt lat="47.2618" lon="-2.31987">
        <ele>-6</ele>
        <time>2021-08-12T06:50:56.000Z</time>
      </trkpt>
      <trkpt lat="47.26178" lon="-2.31988">
        <ele>-6</ele>
        <time>2021-08-12T06:50:57.000Z</time>
      </trkpt>
      <trkpt lat="47.26177" lon="-2.31989">
        <ele>-6</ele>
        <time>2021-08-12T06:50:58.000Z</time>
      </trkpt>
      <trkpt lat="47.26169" lon="-2.31991">
        <ele>-6</ele>
        <time>2021-08-12T06:51:01.000Z</time>
      </trkpt>
      <trkpt lat="47.26166" lon="-2.31991">
        <ele>-6</ele>
        <time>2021-08-12T06:51:02.000Z</time>
      </trkpt>
      <trkpt lat="47.26156" lon="-2.31996">
        <ele>-6</ele>
        <time>2021-08-12T06:51:05.000Z</time>
      </trkpt>
      <trkpt lat="47.26152" lon="-2.32001">
        <ele>-6</ele>
        <time>2021-08-12T06:51:06.000Z</time>
      </trkpt>
      <trkpt lat="47.26144" lon="-2.32024">
        <ele>-6</ele>
        <time>2021-08-12T06:51:10.000Z</time>
      </trkpt>
      <trkpt lat="47.26125" lon="-2.32075">
        <ele>-6</ele>
        <time>2021-08-12T06:51:18.000Z</time>
      </trkpt>
      <trkpt lat="47.26112" lon="-2.32118">
        <ele>-6</ele>
        <time>2021-08-12T06:51:25.000Z</time>
      </trkpt>
      <trkpt lat="47.26099" lon="-2.32153">
        <ele>-6</ele>
        <time>2021-08-12T06:51:31.000Z</time>
      </trkpt>
      <trkpt lat="47.2609" lon="-2.32171">
        <ele>-6</ele>
        <time>2021-08-12T06:51:34.000Z</time>
      </trkpt>
      <trkpt lat="47.26082" lon="-2.32182">
        <ele>-6</ele>
        <time>2021-08-12T06:51:36.000Z</time>
      </trkpt>
      <trkpt lat="47.26062" lon="-2.32207">
        <ele>-6</ele>
        <time>2021-08-12T06:51:41.000Z</time>
      </trkpt>
      <trkpt lat="47.26054" lon="-2.32215">
        <ele>-6</ele>
        <time>2021-08-12T06:51:43.000Z</time>
      </trkpt>
      <trkpt lat="47.2603" lon="-2.32243">
        <ele>-6</ele>
        <time>2021-08-12T06:51:49.000Z</time>
      </trkpt>
      <trkpt lat="47.26014" lon="-2.32261">
        <ele>-5.5999999046326</ele>
        <time>2021-08-12T06:51:53.000Z</time>
      </trkpt>
      <trkpt lat="47.2601" lon="-2.32266">
        <ele>-5.1999998092651</ele>
        <time>2021-08-12T06:51:54.000Z</time>
      </trkpt>
      <trkpt lat="47.26006" lon="-2.32271">
        <ele>-4.8000001907349</ele>
        <time>2021-08-12T06:51:55.000Z</time>
      </trkpt>
      <trkpt lat="47.26002" lon="-2.32276">
        <ele>-4.4000000953674</ele>
        <time>2021-08-12T06:51:56.000Z</time>
      </trkpt>
      <trkpt lat="47.25998" lon="-2.3228">
        <ele>-4</ele>
        <time>2021-08-12T06:51:57.000Z</time>
      </trkpt>
      <trkpt lat="47.25974" lon="-2.32309">
        <ele>-4</ele>
        <time>2021-08-12T06:52:03.000Z</time>
      </trkpt>
      <trkpt lat="47.25943" lon="-2.3235">
        <ele>-4</ele>
        <time>2021-08-12T06:52:11.000Z</time>
      </trkpt>
      <trkpt lat="47.25909" lon="-2.32394">
        <ele>-4</ele>
        <time>2021-08-12T06:52:20.000Z</time>
      </trkpt>
      <trkpt lat="47.25891" lon="-2.32417">
        <ele>-4</ele>
        <time>2021-08-12T06:52:25.000Z</time>
      </trkpt>
      <trkpt lat="47.25889" lon="-2.32421">
        <ele>-4</ele>
        <time>2021-08-12T06:52:26.000Z</time>
      </trkpt>
      <trkpt lat="47.25892" lon="-2.32431">
        <ele>-4</ele>
        <time>2021-08-12T06:52:29.000Z</time>
      </trkpt>
      <trkpt lat="47.25892" lon="-2.32431">
        <ele>-4</ele>
        <time>2021-08-12T06:52:30.000Z</time>
      </trkpt>
      <trkpt lat="47.25899" lon="-2.3244">
        <ele>-4</ele>
        <time>2021-08-12T06:52:33.000Z</time>
      </trkpt>
      <trkpt lat="47.25899" lon="-2.3244">
        <ele>-4</ele>
        <time>2021-08-12T06:52:35.000Z</time>
      </trkpt>
      <trkpt lat="47.2591" lon="-2.32456">
        <ele>-4</ele>
        <time>2021-08-12T06:52:38.000Z</time>
      </trkpt>
      <trkpt lat="47.25932" lon="-2.325">
        <ele>-4</ele>
        <time>2021-08-12T06:52:44.000Z</time>
      </trkpt>
      <trkpt lat="47.25953" lon="-2.32558">
        <ele>-4</ele>
        <time>2021-08-12T06:52:52.000Z</time>
      </trkpt>
      <trkpt lat="47.25965" lon="-2.32602">
        <ele>-4</ele>
        <time>2021-08-12T06:52:58.000Z</time>
      </trkpt>
      <trkpt lat="47.25965" lon="-2.3261">
        <ele>-4</ele>
        <time>2021-08-12T06:52:59.000Z</time>
      </trkpt>
      <trkpt lat="47.25965" lon="-2.32633">
        <ele>-4</ele>
        <time>2021-08-12T06:53:03.000Z</time>
      </trkpt>
      <trkpt lat="47.25967" lon="-2.32638">
        <ele>-4</ele>
        <time>2021-08-12T06:53:05.000Z</time>
      </trkpt>
      <trkpt lat="47.2597" lon="-2.32639">
        <ele>-4</ele>
        <time>2021-08-12T06:53:06.000Z</time>
      </trkpt>
      <trkpt lat="47.25988" lon="-2.32642">
        <ele>-4</ele>
        <time>2021-08-12T06:53:11.000Z</time>
      </trkpt>
      <trkpt lat="47.26005" lon="-2.32643">
        <ele>-3.5999999046326</ele>
        <time>2021-08-12T06:53:15.000Z</time>
      </trkpt>
      <trkpt lat="47.26009" lon="-2.32643">
        <ele>-3.2000000476837</ele>
        <time>2021-08-12T06:53:16.000Z</time>
      </trkpt>
      <trkpt lat="47.26014" lon="-2.32643">
        <ele>-2.7999999523163</ele>
        <time>2021-08-12T06:53:17.000Z</time>
      </trkpt>
      <trkpt lat="47.26019" lon="-2.32643">
        <ele>-2.4000000953674</ele>
        <time>2021-08-12T06:53:18.000Z</time>
      </trkpt>
      <trkpt lat="47.26024" lon="-2.32643">
        <ele>-2</ele>
        <time>2021-08-12T06:53:19.000Z</time>
      </trkpt>
      <trkpt lat="47.26029" lon="-2.32643">
        <ele>-2</ele>
        <time>2021-08-12T06:53:20.000Z</time>
      </trkpt>
      <trkpt lat="47.2606" lon="-2.32639">
        <ele>-2</ele>
        <time>2021-08-12T06:53:27.000Z</time>
      </trkpt>
      <trkpt lat="47.26101" lon="-2.32634">
        <ele>-2</ele>
        <time>2021-08-12T06:53:36.000Z</time>
      </trkpt>
      <trkpt lat="47.26135" lon="-2.32636">
        <ele>-1.6000000238419</ele>
        <time>2021-08-12T06:53:43.000Z</time>
      </trkpt>
      <trkpt lat="47.26139" lon="-2.32637">
        <ele>-1.2000000476837</ele>
        <time>2021-08-12T06:53:44.000Z</time>
      </trkpt>
      <trkpt lat="47.26144" lon="-2.32638">
        <ele>-0.80000001192093</ele>
        <time>2021-08-12T06:53:45.000Z</time>
      </trkpt>
      <trkpt lat="47.26148" lon="-2.3264">
        <ele>-0.40000000596046</ele>
        <time>2021-08-12T06:53:46.000Z</time>
      </trkpt>
      <trkpt lat="47.26153" lon="-2.32642">
        <ele>6.6</ele>
        <time>2021-08-12T06:53:47.000Z</time>
      </trkpt>
      <trkpt lat="47.26167" lon="-2.32648">
        <ele>6.3</ele>
        <time>2021-08-12T06:53:50.000Z</time>
      </trkpt>
      <trkpt lat="47.26198" lon="-2.32674">
        <ele>5.5</ele>
        <time>2021-08-12T06:53:57.000Z</time>
      </trkpt>
      <trkpt lat="47.26227" lon="-2.32719">
        <ele>3.2</ele>
        <time>2021-08-12T06:54:05.000Z</time>
      </trkpt>
      <trkpt lat="47.2626" lon="-2.32772">
        <ele>3.5</ele>
        <time>2021-08-12T06:54:13.000Z</time>
      </trkpt>
      <trkpt lat="47.26278" lon="-2.32815">
        <ele>3</ele>
        <time>2021-08-12T06:54:19.000Z</time>
      </trkpt>
      <trkpt lat="47.26287" lon="-2.32846">
        <ele>-0.40000000596046</ele>
        <time>2021-08-12T06:54:23.000Z</time>
      </trkpt>
      <trkpt lat="47.2629" lon="-2.32853">
        <ele>-0.80000001192093</ele>
        <time>2021-08-12T06:54:24.000Z</time>
      </trkpt>
      <trkpt lat="47.26293" lon="-2.32859">
        <ele>-1.2000000476837</ele>
        <time>2021-08-12T06:54:25.000Z</time>
      </trkpt>
      <trkpt lat="47.26297" lon="-2.32864">
        <ele>-1.6000000238419</ele>
        <time>2021-08-12T06:54:26.000Z</time>
      </trkpt>
      <trkpt lat="47.26301" lon="-2.32867">
        <ele>-2</ele>
        <time>2021-08-12T06:54:27.000Z</time>
      </trkpt>
      <trkpt lat="47.26305" lon="-2.32869">
        <ele>-2</ele>
        <time>2021-08-12T06:54:28.000Z</time>
      </trkpt>
      <trkpt lat="47.26317" lon="-2.32884">
        <ele>-2</ele>
        <time>2021-08-12T06:54:31.000Z</time>
      </trkpt>
      <trkpt lat="47.2632" lon="-2.32891">
        <ele>-2</ele>
        <time>2021-08-12T06:54:32.000Z</time>
      </trkpt>
      <trkpt lat="47.26322" lon="-2.32898">
        <ele>-2</ele>
        <time>2021-08-12T06:54:33.000Z</time>
      </trkpt>
      <trkpt lat="47.26332" lon="-2.32927">
        <ele>-2</ele>
        <time>2021-08-12T06:54:37.000Z</time>
      </trkpt>
      <trkpt lat="47.26337" lon="-2.32939">
        <ele>-2</ele>
        <time>2021-08-12T06:54:39.000Z</time>
      </trkpt>
      <trkpt lat="47.26343" lon="-2.32952">
        <ele>-2</ele>
        <time>2021-08-12T06:54:41.000Z</time>
      </trkpt>
      <trkpt lat="47.26345" lon="-2.32959">
        <ele>-2</ele>
        <time>2021-08-12T06:54:42.000Z</time>
      </trkpt>
      <trkpt lat="47.2635" lon="-2.32972">
        <ele>-2</ele>
        <time>2021-08-12T06:54:44.000Z</time>
      </trkpt>
      <trkpt lat="47.26359" lon="-2.32986">
        <ele>-2</ele>
        <time>2021-08-12T06:54:47.000Z</time>
      </trkpt>
      <trkpt lat="47.26364" lon="-2.33005">
        <ele>-2</ele>
        <time>2021-08-12T06:54:50.000Z</time>
      </trkpt>
      <trkpt lat="47.26365" lon="-2.33012">
        <ele>-2</ele>
        <time>2021-08-12T06:54:51.000Z</time>
      </trkpt>
      <trkpt lat="47.26366" lon="-2.33034">
        <ele>-2</ele>
        <time>2021-08-12T06:54:54.000Z</time>
      </trkpt>
      <trkpt lat="47.26367" lon="-2.33048">
        <ele>-2</ele>
        <time>2021-08-12T06:54:56.000Z</time>
      </trkpt>
      <trkpt lat="47.2637" lon="-2.33104">
        <ele>-2</ele>
        <time>2021-08-12T06:55:04.000Z</time>
      </trkpt>
      <trkpt lat="47.26374" lon="-2.33151">
        <ele>-2</ele>
        <time>2021-08-12T06:55:12.000Z</time>
      </trkpt>
      <trkpt lat="47.26376" lon="-2.3319">
        <ele>-2</ele>
        <time>2021-08-12T06:55:18.000Z</time>
      </trkpt>
      <trkpt lat="47.2638" lon="-2.33247">
        <ele>-2</ele>
        <time>2021-08-12T06:55:26.000Z</time>
      </trkpt>
      <trkpt lat="47.26382" lon="-2.33253">
        <ele>-2</ele>
        <time>2021-08-12T06:55:27.000Z</time>
      </trkpt>
      <trkpt lat="47.26394" lon="-2.3327">
        <ele>-2</ele>
        <time>2021-08-12T06:55:31.000Z</time>
      </trkpt>
      <trkpt lat="47.26415" lon="-2.33271">
        <ele>-2</ele>
        <time>2021-08-12T06:55:35.000Z</time>
      </trkpt>
      <trkpt lat="47.26451" lon="-2.33274">
        <ele>-2</ele>
        <time>2021-08-12T06:55:42.000Z</time>
      </trkpt>
      <trkpt lat="47.26483" lon="-2.3328">
        <ele>-2</ele>
        <time>2021-08-12T06:55:49.000Z</time>
      </trkpt>
      <trkpt lat="47.26502" lon="-2.33282">
        <ele>-2</ele>
        <time>2021-08-12T06:55:54.000Z</time>
      </trkpt>
      <trkpt lat="47.26505" lon="-2.33285">
        <ele>-2</ele>
        <time>2021-08-12T06:55:55.000Z</time>
      </trkpt>
      <trkpt lat="47.26509" lon="-2.33287">
        <ele>-2</ele>
        <time>2021-08-12T06:55:56.000Z</time>
      </trkpt>
      <trkpt lat="47.26518" lon="-2.3329">
        <ele>-2</ele>
        <time>2021-08-12T06:55:58.000Z</time>
      </trkpt>
      <trkpt lat="47.26522" lon="-2.33289">
        <ele>-2</ele>
        <time>2021-08-12T06:55:59.000Z</time>
      </trkpt>
      <trkpt lat="47.26531" lon="-2.33291">
        <ele>-2</ele>
        <time>2021-08-12T06:56:03.000Z</time>
      </trkpt>
      <trkpt lat="47.2654" lon="-2.33299">
        <ele>-2</ele>
        <time>2021-08-12T06:56:07.000Z</time>
      </trkpt>
      <trkpt lat="47.26548" lon="-2.3329">
        <ele>-2</ele>
        <time>2021-08-12T06:56:10.000Z</time>
      </trkpt>
      <trkpt lat="47.26552" lon="-2.33286">
        <ele>-2</ele>
        <time>2021-08-12T06:56:11.000Z</time>
      </trkpt>
      <trkpt lat="47.26559" lon="-2.33278">
        <ele>-2</ele>
        <time>2021-08-12T06:56:13.000Z</time>
      </trkpt>
      <trkpt lat="47.26567" lon="-2.3327">
        <ele>-2</ele>
        <time>2021-08-12T06:56:15.000Z</time>
      </trkpt>
      <trkpt lat="47.26601" lon="-2.33236">
        <ele>-2</ele>
        <time>2021-08-12T06:56:23.000Z</time>
      </trkpt>
      <trkpt lat="47.26609" lon="-2.33227">
        <ele>-1.6000000238419</ele>
        <time>2021-08-12T06:56:25.000Z</time>
      </trkpt>
      <trkpt lat="47.26614" lon="-2.33223">
        <ele>-1.2000000476837</ele>
        <time>2021-08-12T06:56:26.000Z</time>
      </trkpt>
      <trkpt lat="47.26618" lon="-2.33218">
        <ele>-0.80000001192093</ele>
        <time>2021-08-12T06:56:27.000Z</time>
      </trkpt>
      <trkpt lat="47.26622" lon="-2.33214">
        <ele>-0.40000000596046</ele>
        <time>2021-08-12T06:56:28.000Z</time>
      </trkpt>
      <trkpt lat="47.26626" lon="-2.33209">
        <ele>3.8</ele>
        <time>2021-08-12T06:56:29.000Z</time>
      </trkpt>
      <trkpt lat="47.26631" lon="-2.33204">
        <ele>3.8</ele>
        <time>2021-08-12T06:56:30.000Z</time>
      </trkpt>
      <trkpt lat="47.26655" lon="-2.33179">
        <ele>3.5</ele>
        <time>2021-08-12T06:56:36.000Z</time>
      </trkpt>
      <trkpt lat="47.26683" lon="-2.3315">
        <ele>3.8</ele>
        <time>2021-08-12T06:56:43.000Z</time>
      </trkpt>
      <trkpt lat="47.26714" lon="-2.33117">
        <ele>3.8</ele>
        <time>2021-08-12T06:56:51.000Z</time>
      </trkpt>
      <trkpt lat="47.26739" lon="-2.33093">
        <ele>3.7</ele>
        <time>2021-08-12T06:56:57.000Z</time>
      </trkpt>
      <trkpt lat="47.26748" lon="-2.33085">
        <ele>3.9</ele>
        <time>2021-08-12T06:57:01.000Z</time>
      </trkpt>
      <trkpt lat="47.26749" lon="-2.33085">
        <ele>4</ele>
        <time>2021-08-12T06:57:03.000Z</time>
      </trkpt>
      <trkpt lat="47.26751" lon="-2.33088">
        <ele>4.1</ele>
        <time>2021-08-12T06:57:11.000Z</time>
      </trkpt>
      <trkpt lat="47.26754" lon="-2.33091">
        <ele>4.6</ele>
        <time>2021-08-12T06:57:13.000Z</time>
      </trkpt>
      <trkpt lat="47.26759" lon="-2.33104">
        <ele>5.6</ele>
        <time>2021-08-12T06:57:18.000Z</time>
      </trkpt>
      <trkpt lat="47.26763" lon="-2.33122">
        <ele>6.5</ele>
        <time>2021-08-12T06:57:22.000Z</time>
      </trkpt>
      <trkpt lat="47.26763" lon="-2.33128">
        <ele>6.6</ele>
        <time>2021-08-12T06:57:23.000Z</time>
      </trkpt>
      <trkpt lat="47.26759" lon="-2.33148">
        <ele>5.7</ele>
        <time>2021-08-12T06:57:26.000Z</time>
      </trkpt>
      <trkpt lat="47.26745" lon="-2.33202">
        <ele>5.4</ele>
        <time>2021-08-12T06:57:34.000Z</time>
      </trkpt>
      <trkpt lat="47.26733" lon="-2.33252">
        <ele>5.1</ele>
        <time>2021-08-12T06:57:41.000Z</time>
      </trkpt>
      <trkpt lat="47.26732" lon="-2.3326">
        <ele>4.9</ele>
        <time>2021-08-12T06:57:42.000Z</time>
      </trkpt>
      <trkpt lat="47.26732" lon="-2.33284">
        <ele>4.7</ele>
        <time>2021-08-12T06:57:45.000Z</time>
      </trkpt>
      <trkpt lat="47.26733" lon="-2.33292">
        <ele>4.8</ele>
        <time>2021-08-12T06:57:46.000Z</time>
      </trkpt>
      <trkpt lat="47.26744" lon="-2.33331">
        <ele>3.9</ele>
        <time>2021-08-12T06:57:51.000Z</time>
      </trkpt>
      <trkpt lat="47.26757" lon="-2.3338">
        <ele>3.3</ele>
        <time>2021-08-12T06:57:58.000Z</time>
      </trkpt>
      <trkpt lat="47.26761" lon="-2.33431">
        <ele>3.2</ele>
        <time>2021-08-12T06:58:04.000Z</time>
      </trkpt>
      <trkpt lat="47.26773" lon="-2.3351">
        <ele>3.8</ele>
        <time>2021-08-12T06:58:14.000Z</time>
      </trkpt>
      <trkpt lat="47.26779" lon="-2.33563">
        <ele>3.3</ele>
        <time>2021-08-12T06:58:21.000Z</time>
      </trkpt>
      <trkpt lat="47.26785" lon="-2.33569">
        <ele>3.5</ele>
        <time>2021-08-12T06:58:23.000Z</time>
      </trkpt>
      <trkpt lat="47.26798" lon="-2.33567">
        <ele>3.4</ele>
        <time>2021-08-12T06:58:26.000Z</time>
      </trkpt>
      <trkpt lat="47.26802" lon="-2.33565">
        <ele>3.3</ele>
        <time>2021-08-12T06:58:27.000Z</time>
      </trkpt>
      <trkpt lat="47.26836" lon="-2.3355">
        <ele>5</ele>
        <time>2021-08-12T06:58:34.000Z</time>
      </trkpt>
      <trkpt lat="47.26871" lon="-2.33536">
        <ele>5.9</ele>
        <time>2021-08-12T06:58:41.000Z</time>
      </trkpt>
      <trkpt lat="47.26884" lon="-2.33537">
        <ele>0.40000000596046</ele>
        <time>2021-08-12T06:58:44.000Z</time>
      </trkpt>
      <trkpt lat="47.26888" lon="-2.3354">
        <ele>0.80000001192093</ele>
        <time>2021-08-12T06:58:45.000Z</time>
      </trkpt>
      <trkpt lat="47.26892" lon="-2.33543">
        <ele>1.2000000476837</ele>
        <time>2021-08-12T06:58:46.000Z</time>
      </trkpt>
      <trkpt lat="47.26895" lon="-2.33547">
        <ele>1.6000000238419</ele>
        <time>2021-08-12T06:58:47.000Z</time>
      </trkpt>
      <trkpt lat="47.26898" lon="-2.33552">
        <ele>2</ele>
        <time>2021-08-12T06:58:48.000Z</time>
      </trkpt>
      <trkpt lat="47.269" lon="-2.33558">
        <ele>2</ele>
        <time>2021-08-12T06:58:49.000Z</time>
      </trkpt>
      <trkpt lat="47.26902" lon="-2.33563">
        <ele>2</ele>
        <time>2021-08-12T06:58:50.000Z</time>
      </trkpt>
      <trkpt lat="47.26913" lon="-2.33591">
        <ele>2.4000000953674</ele>
        <time>2021-08-12T06:58:55.000Z</time>
      </trkpt>
      <trkpt lat="47.26916" lon="-2.33597">
        <ele>2.7999999523163</ele>
        <time>2021-08-12T06:58:56.000Z</time>
      </trkpt>
      <trkpt lat="47.26918" lon="-2.33603">
        <ele>3.2000000476837</ele>
        <time>2021-08-12T06:58:57.000Z</time>
      </trkpt>
      <trkpt lat="47.2692" lon="-2.33608">
        <ele>3.5999999046326</ele>
        <time>2021-08-12T06:58:58.000Z</time>
      </trkpt>
      <trkpt lat="47.26921" lon="-2.33613">
        <ele>4</ele>
        <time>2021-08-12T06:58:59.000Z</time>
      </trkpt>
      <trkpt lat="47.26926" lon="-2.3363">
        <ele>4</ele>
        <time>2021-08-12T06:59:02.000Z</time>
      </trkpt>
      <trkpt lat="47.26927" lon="-2.33637">
        <ele>4</ele>
        <time>2021-08-12T06:59:03.000Z</time>
      </trkpt>
      <trkpt lat="47.26939" lon="-2.33706">
        <ele>4</ele>
        <time>2021-08-12T06:59:14.000Z</time>
      </trkpt>
      <trkpt lat="47.26941" lon="-2.33724">
        <ele>4.4000000953674</ele>
        <time>2021-08-12T06:59:17.000Z</time>
      </trkpt>
      <trkpt lat="47.2694" lon="-2.33731">
        <ele>4.8000001907349</ele>
        <time>2021-08-12T06:59:18.000Z</time>
      </trkpt>
      <trkpt lat="47.26939" lon="-2.33737">
        <ele>5.4000000953674</ele>
        <time>2021-08-12T06:59:19.000Z</time>
      </trkpt>
      <trkpt lat="47.26938" lon="-2.33744">
        <ele>5.8000001907349</ele>
        <time>2021-08-12T06:59:20.000Z</time>
      </trkpt>
      <trkpt lat="47.26936" lon="-2.33751">
        <ele>6.1999998092651</ele>
        <time>2021-08-12T06:59:21.000Z</time>
      </trkpt>
      <trkpt lat="47.26932" lon="-2.33787">
        <ele>6.1999998092651</ele>
        <time>2021-08-12T06:59:26.000Z</time>
      </trkpt>
      <trkpt lat="47.26939" lon="-2.33811">
        <ele>6.1999998092651</ele>
        <time>2021-08-12T06:59:30.000Z</time>
      </trkpt>
      <trkpt lat="47.26946" lon="-2.33819">
        <ele>6.1999998092651</ele>
        <time>2021-08-12T06:59:32.000Z</time>
      </trkpt>
      <trkpt lat="47.26955" lon="-2.33826">
        <ele>6.1999998092651</ele>
        <time>2021-08-12T06:59:34.000Z</time>
      </trkpt>
      <trkpt lat="47.26973" lon="-2.33836">
        <ele>6.1999998092651</ele>
        <time>2021-08-12T06:59:38.000Z</time>
      </trkpt>
      <trkpt lat="47.26977" lon="-2.33839">
        <ele>6.1999998092651</ele>
        <time>2021-08-12T06:59:39.000Z</time>
      </trkpt>
      <trkpt lat="47.26989" lon="-2.33846">
        <ele>6.5999999046326</ele>
        <time>2021-08-12T06:59:42.000Z</time>
      </trkpt>
      <trkpt lat="47.26993" lon="-2.33848">
        <ele>7</ele>
        <time>2021-08-12T06:59:43.000Z</time>
      </trkpt>
      <trkpt lat="47.26996" lon="-2.3385">
        <ele>7.4000000953674</ele>
        <time>2021-08-12T06:59:44.000Z</time>
      </trkpt>
      <trkpt lat="47.27" lon="-2.33853">
        <ele>7.8000001907349</ele>
        <time>2021-08-12T06:59:45.000Z</time>
      </trkpt>
      <trkpt lat="47.27004" lon="-2.33855">
        <ele>8.1999998092651</ele>
        <time>2021-08-12T06:59:46.000Z</time>
      </trkpt>
      <trkpt lat="47.27008" lon="-2.33857">
        <ele>8.1999998092651</ele>
        <time>2021-08-12T06:59:47.000Z</time>
      </trkpt>
      <trkpt lat="47.27014" lon="-2.33861">
        <ele>8.6000003814697</ele>
        <time>2021-08-12T06:59:49.000Z</time>
      </trkpt>
      <trkpt lat="47.27017" lon="-2.33863">
        <ele>9</ele>
        <time>2021-08-12T06:59:50.000Z</time>
      </trkpt>
      <trkpt lat="47.27021" lon="-2.33865">
        <ele>9.6000003814697</ele>
        <time>2021-08-12T06:59:51.000Z</time>
      </trkpt>
      <trkpt lat="47.27024" lon="-2.33867">
        <ele>10</ele>
        <time>2021-08-12T06:59:52.000Z</time>
      </trkpt>
      <trkpt lat="47.27027" lon="-2.3387">
        <ele>10.39999961853</ele>
        <time>2021-08-12T06:59:53.000Z</time>
      </trkpt>
      <trkpt lat="47.27052" lon="-2.33891">
        <ele>10.39999961853</ele>
        <time>2021-08-12T07:00:00.000Z</time>
      </trkpt>
      <trkpt lat="47.27063" lon="-2.33901">
        <ele>10.39999961853</ele>
        <time>2021-08-12T07:00:03.000Z</time>
      </trkpt>
      <trkpt lat="47.27067" lon="-2.33904">
        <ele>10.800000190735</ele>
        <time>2021-08-12T07:00:04.000Z</time>
      </trkpt>
      <trkpt lat="47.27071" lon="-2.33908">
        <ele>11.199999809265</ele>
        <time>2021-08-12T07:00:05.000Z</time>
      </trkpt>
      <trkpt lat="47.27074" lon="-2.33911">
        <ele>11.60000038147</ele>
        <time>2021-08-12T07:00:06.000Z</time>
      </trkpt>
      <trkpt lat="47.27077" lon="-2.33914">
        <ele>12</ele>
        <time>2021-08-12T07:00:07.000Z</time>
      </trkpt>
      <trkpt lat="47.27081" lon="-2.33918">
        <ele>12.39999961853</ele>
        <time>2021-08-12T07:00:08.000Z</time>
      </trkpt>
      <trkpt lat="47.2709" lon="-2.33926">
        <ele>12.800000190735</ele>
        <time>2021-08-12T07:00:11.000Z</time>
      </trkpt>
      <trkpt lat="47.27093" lon="-2.33929">
        <ele>13.39999961853</ele>
        <time>2021-08-12T07:00:12.000Z</time>
      </trkpt>
      <trkpt lat="47.27096" lon="-2.33931">
        <ele>14.199999809265</ele>
        <time>2021-08-12T07:00:13.000Z</time>
      </trkpt>
      <trkpt lat="47.27099" lon="-2.33934">
        <ele>14.60000038147</ele>
        <time>2021-08-12T07:00:14.000Z</time>
      </trkpt>
      <trkpt lat="47.27114" lon="-2.33948">
        <ele>15</ele>
        <time>2021-08-12T07:00:19.000Z</time>
      </trkpt>
      <trkpt lat="47.27117" lon="-2.3395">
        <ele>15.39999961853</ele>
        <time>2021-08-12T07:00:20.000Z</time>
      </trkpt>
      <trkpt lat="47.2712" lon="-2.33953">
        <ele>15.800000190735</ele>
        <time>2021-08-12T07:00:21.000Z</time>
      </trkpt>
      <trkpt lat="47.27123" lon="-2.33956">
        <ele>16.200000762939</ele>
        <time>2021-08-12T07:00:22.000Z</time>
      </trkpt>
      <trkpt lat="47.27126" lon="-2.33959">
        <ele>16.60000038147</ele>
        <time>2021-08-12T07:00:23.000Z</time>
      </trkpt>
      <trkpt lat="47.27135" lon="-2.33968">
        <ele>16.60000038147</ele>
        <time>2021-08-12T07:00:26.000Z</time>
      </trkpt>
      <trkpt lat="47.27159" lon="-2.33994">
        <ele>16.60000038147</ele>
        <time>2021-08-12T07:00:34.000Z</time>
      </trkpt>
      <trkpt lat="47.27163" lon="-2.33997">
        <ele>17</ele>
        <time>2021-08-12T07:00:35.000Z</time>
      </trkpt>
      <trkpt lat="47.27166" lon="-2.34001">
        <ele>17.39999961853</ele>
        <time>2021-08-12T07:00:36.000Z</time>
      </trkpt>
      <trkpt lat="47.2717" lon="-2.34004">
        <ele>17.799999237061</ele>
        <time>2021-08-12T07:00:37.000Z</time>
      </trkpt>
      <trkpt lat="47.27173" lon="-2.34007">
        <ele>18.799999237061</ele>
        <time>2021-08-12T07:00:38.000Z</time>
      </trkpt>
      <trkpt lat="47.27183" lon="-2.34019">
        <ele>18.799999237061</ele>
        <time>2021-08-12T07:00:41.000Z</time>
      </trkpt>
      <trkpt lat="47.27196" lon="-2.34032">
        <ele>18.799999237061</ele>
        <time>2021-08-12T07:00:45.000Z</time>
      </trkpt>
      <trkpt lat="47.27206" lon="-2.34043">
        <ele>18.799999237061</ele>
        <time>2021-08-12T07:00:48.000Z</time>
      </trkpt>
      <trkpt lat="47.27224" lon="-2.34052">
        <ele>18.799999237061</ele>
        <time>2021-08-12T07:00:53.000Z</time>
      </trkpt>
      <trkpt lat="47.27251" lon="-2.3405">
        <ele>19.200000762939</ele>
        <time>2021-08-12T07:01:00.000Z</time>
      </trkpt>
      <trkpt lat="47.27255" lon="-2.34051">
        <ele>19.60000038147</ele>
        <time>2021-08-12T07:01:01.000Z</time>
      </trkpt>
      <trkpt lat="47.27258" lon="-2.34053">
        <ele>20</ele>
        <time>2021-08-12T07:01:02.000Z</time>
      </trkpt>
      <trkpt lat="47.27261" lon="-2.34055">
        <ele>20.799999237061</ele>
        <time>2021-08-12T07:01:03.000Z</time>
      </trkpt>
      <trkpt lat="47.27265" lon="-2.34059">
        <ele>20.799999237061</ele>
        <time>2021-08-12T07:01:04.000Z</time>
      </trkpt>
      <trkpt lat="47.27277" lon="-2.34074">
        <ele>20.799999237061</ele>
        <time>2021-08-12T07:01:08.000Z</time>
      </trkpt>
      <trkpt lat="47.27279" lon="-2.3408">
        <ele>20.799999237061</ele>
        <time>2021-08-12T07:01:09.000Z</time>
      </trkpt>
      <trkpt lat="47.27284" lon="-2.34102">
        <ele>20.799999237061</ele>
        <time>2021-08-12T07:01:12.000Z</time>
      </trkpt>
      <trkpt lat="47.27286" lon="-2.34109">
        <ele>20.799999237061</ele>
        <time>2021-08-12T07:01:13.000Z</time>
      </trkpt>
      <trkpt lat="47.27288" lon="-2.34115">
        <ele>20.799999237061</ele>
        <time>2021-08-12T07:01:14.000Z</time>
      </trkpt>
      <trkpt lat="47.273" lon="-2.34128">
        <ele>20.799999237061</ele>
        <time>2021-08-12T07:01:17.000Z</time>
      </trkpt>
      <trkpt lat="47.27304" lon="-2.34132">
        <ele>20.799999237061</ele>
        <time>2021-08-12T07:01:18.000Z</time>
      </trkpt>
      <trkpt lat="47.27313" lon="-2.3414">
        <ele>20.799999237061</ele>
        <time>2021-08-12T07:01:20.000Z</time>
      </trkpt>
      <trkpt lat="47.27335" lon="-2.34155">
        <ele>20.799999237061</ele>
        <time>2021-08-12T07:01:25.000Z</time>
      </trkpt>
      <trkpt lat="47.27367" lon="-2.34177">
        <ele>20.799999237061</ele>
        <time>2021-08-12T07:01:32.000Z</time>
      </trkpt>
      <trkpt lat="47.27388" lon="-2.34192">
        <ele>20.799999237061</ele>
        <time>2021-08-12T07:01:37.000Z</time>
      </trkpt>
      <trkpt lat="47.27394" lon="-2.34201">
        <ele>20.799999237061</ele>
        <time>2021-08-12T07:01:39.000Z</time>
      </trkpt>
      <trkpt lat="47.27401" lon="-2.34217">
        <ele>20.799999237061</ele>
        <time>2021-08-12T07:01:42.000Z</time>
      </trkpt>
      <trkpt lat="47.27405" lon="-2.34231">
        <ele>20.799999237061</ele>
        <time>2021-08-12T07:01:45.000Z</time>
      </trkpt>
      <trkpt lat="47.27408" lon="-2.34236">
        <ele>20.799999237061</ele>
        <time>2021-08-12T07:01:48.000Z</time>
      </trkpt>
      <trkpt lat="47.27409" lon="-2.34237">
        <ele>20.799999237061</ele>
        <time>2021-08-12T07:01:49.000Z</time>
      </trkpt>
      <trkpt lat="47.27417" lon="-2.34251">
        <ele>20.799999237061</ele>
        <time>2021-08-12T07:01:54.000Z</time>
      </trkpt>
      <trkpt lat="47.27419" lon="-2.34278">
        <ele>20.799999237061</ele>
        <time>2021-08-12T07:01:58.000Z</time>
      </trkpt>
      <trkpt lat="47.27419" lon="-2.34284">
        <ele>20.799999237061</ele>
        <time>2021-08-12T07:01:59.000Z</time>
      </trkpt>
      <trkpt lat="47.27421" lon="-2.34343">
        <ele>20.799999237061</ele>
        <time>2021-08-12T07:02:08.000Z</time>
      </trkpt>
      <trkpt lat="47.27423" lon="-2.34391">
        <ele>20.799999237061</ele>
        <time>2021-08-12T07:02:15.000Z</time>
      </trkpt>
      <trkpt lat="47.27425" lon="-2.34419">
        <ele>20.799999237061</ele>
        <time>2021-08-12T07:02:19.000Z</time>
      </trkpt>
      <trkpt lat="47.27425" lon="-2.3444">
        <ele>20.799999237061</ele>
        <time>2021-08-12T07:02:22.000Z</time>
      </trkpt>
      <trkpt lat="47.27429" lon="-2.34494">
        <ele>20.799999237061</ele>
        <time>2021-08-12T07:02:30.000Z</time>
      </trkpt>
      <trkpt lat="47.27431" lon="-2.34508">
        <ele>21.200000762939</ele>
        <time>2021-08-12T07:02:32.000Z</time>
      </trkpt>
      <trkpt lat="47.27433" lon="-2.34514">
        <ele>21.60000038147</ele>
        <time>2021-08-12T07:02:33.000Z</time>
      </trkpt>
      <trkpt lat="47.27434" lon="-2.34521">
        <ele>22</ele>
        <time>2021-08-12T07:02:34.000Z</time>
      </trkpt>
      <trkpt lat="47.27436" lon="-2.34526">
        <ele>22.39999961853</ele>
        <time>2021-08-12T07:02:35.000Z</time>
      </trkpt>
      <trkpt lat="47.27438" lon="-2.34532">
        <ele>22.799999237061</ele>
        <time>2021-08-12T07:02:36.000Z</time>
      </trkpt>
      <trkpt lat="47.27441" lon="-2.34544">
        <ele>22.799999237061</ele>
        <time>2021-08-12T07:02:38.000Z</time>
      </trkpt>
      <trkpt lat="47.27454" lon="-2.34589">
        <ele>22.799999237061</ele>
        <time>2021-08-12T07:02:45.000Z</time>
      </trkpt>
      <trkpt lat="47.27459" lon="-2.34654">
        <ele>22.799999237061</ele>
        <time>2021-08-12T07:02:53.000Z</time>
      </trkpt>
      <trkpt lat="47.2746" lon="-2.34722">
        <ele>22.799999237061</ele>
        <time>2021-08-12T07:03:01.000Z</time>
      </trkpt>
      <trkpt lat="47.27461" lon="-2.34778">
        <ele>22.799999237061</ele>
        <time>2021-08-12T07:03:07.000Z</time>
      </trkpt>
      <trkpt lat="47.27462" lon="-2.34807">
        <ele>22.39999961853</ele>
        <time>2021-08-12T07:03:10.000Z</time>
      </trkpt>
      <trkpt lat="47.27462" lon="-2.34817">
        <ele>22</ele>
        <time>2021-08-12T07:03:11.000Z</time>
      </trkpt>
      <trkpt lat="47.27462" lon="-2.34826">
        <ele>21.39999961853</ele>
        <time>2021-08-12T07:03:12.000Z</time>
      </trkpt>
      <trkpt lat="47.27462" lon="-2.34837">
        <ele>21</ele>
        <time>2021-08-12T07:03:13.000Z</time>
      </trkpt>
      <trkpt lat="47.27462" lon="-2.34846">
        <ele>20.60000038147</ele>
        <time>2021-08-12T07:03:14.000Z</time>
      </trkpt>
      <trkpt lat="47.27463" lon="-2.34903">
        <ele>20.200000762939</ele>
        <time>2021-08-12T07:03:20.000Z</time>
      </trkpt>
      <trkpt lat="47.27465" lon="-2.34909">
        <ele>19.799999237061</ele>
        <time>2021-08-12T07:03:21.000Z</time>
      </trkpt>
      <trkpt lat="47.27469" lon="-2.34912">
        <ele>19.200000762939</ele>
        <time>2021-08-12T07:03:22.000Z</time>
      </trkpt>
      <trkpt lat="47.27474" lon="-2.34915">
        <ele>18.799999237061</ele>
        <time>2021-08-12T07:03:23.000Z</time>
      </trkpt>
      <trkpt lat="47.27479" lon="-2.34916">
        <ele>18.39999961853</ele>
        <time>2021-08-12T07:03:24.000Z</time>
      </trkpt>
      <trkpt lat="47.27499" lon="-2.34914">
        <ele>18.39999961853</ele>
        <time>2021-08-12T07:03:28.000Z</time>
      </trkpt>
      <trkpt lat="47.27509" lon="-2.3491">
        <ele>18.39999961853</ele>
        <time>2021-08-12T07:03:30.000Z</time>
      </trkpt>
      <trkpt lat="47.27522" lon="-2.34901">
        <ele>18.799999237061</ele>
        <time>2021-08-12T07:03:33.000Z</time>
      </trkpt>
      <trkpt lat="47.27526" lon="-2.34899">
        <ele>19.39999961853</ele>
        <time>2021-08-12T07:03:34.000Z</time>
      </trkpt>
      <trkpt lat="47.27531" lon="-2.34899">
        <ele>19.799999237061</ele>
        <time>2021-08-12T07:03:35.000Z</time>
      </trkpt>
      <trkpt lat="47.27536" lon="-2.34899">
        <ele>20.200000762939</ele>
        <time>2021-08-12T07:03:36.000Z</time>
      </trkpt>
      <trkpt lat="47.27541" lon="-2.349">
        <ele>20.60000038147</ele>
        <time>2021-08-12T07:03:37.000Z</time>
      </trkpt>
      <trkpt lat="47.27581" lon="-2.34907">
        <ele>20.60000038147</ele>
        <time>2021-08-12T07:03:44.000Z</time>
      </trkpt>
      <trkpt lat="47.27625" lon="-2.34914">
        <ele>20.60000038147</ele>
        <time>2021-08-12T07:03:52.000Z</time>
      </trkpt>
      <trkpt lat="47.27641" lon="-2.34913">
        <ele>20.60000038147</ele>
        <time>2021-08-12T07:03:55.000Z</time>
      </trkpt>
      <trkpt lat="47.27663" lon="-2.34908">
        <ele>20.60000038147</ele>
        <time>2021-08-12T07:03:59.000Z</time>
      </trkpt>
      <trkpt lat="47.27668" lon="-2.34908">
        <ele>20.60000038147</ele>
        <time>2021-08-12T07:04:00.000Z</time>
      </trkpt>
      <trkpt lat="47.27677" lon="-2.34917">
        <ele>20.60000038147</ele>
        <time>2021-08-12T07:04:02.000Z</time>
      </trkpt>
      <trkpt lat="47.27689" lon="-2.34946">
        <ele>20.60000038147</ele>
        <time>2021-08-12T07:04:06.000Z</time>
      </trkpt>
      <trkpt lat="47.2769" lon="-2.34963">
        <ele>20.60000038147</ele>
        <time>2021-08-12T07:04:08.000Z</time>
      </trkpt>
      <trkpt lat="47.27692" lon="-2.34989">
        <ele>20.60000038147</ele>
        <time>2021-08-12T07:04:11.000Z</time>
      </trkpt>
      <trkpt lat="47.27693" lon="-2.35017">
        <ele>20.60000038147</ele>
        <time>2021-08-12T07:04:14.000Z</time>
      </trkpt>
      <trkpt lat="47.27696" lon="-2.35031">
        <ele>20.60000038147</ele>
        <time>2021-08-12T07:04:16.000Z</time>
      </trkpt>
      <trkpt lat="47.277" lon="-2.35034">
        <ele>20.200000762939</ele>
        <time>2021-08-12T07:04:17.000Z</time>
      </trkpt>
      <trkpt lat="47.27705" lon="-2.35035">
        <ele>19.799999237061</ele>
        <time>2021-08-12T07:04:18.000Z</time>
      </trkpt>
      <trkpt lat="47.27711" lon="-2.35034">
        <ele>19.39999961853</ele>
        <time>2021-08-12T07:04:19.000Z</time>
      </trkpt>
      <trkpt lat="47.27716" lon="-2.35032">
        <ele>19</ele>
        <time>2021-08-12T07:04:20.000Z</time>
      </trkpt>
      <trkpt lat="47.27722" lon="-2.35031">
        <ele>18.60000038147</ele>
        <time>2021-08-12T07:04:21.000Z</time>
      </trkpt>
      <trkpt lat="47.27747" lon="-2.35025">
        <ele>18.60000038147</ele>
        <time>2021-08-12T07:04:25.000Z</time>
      </trkpt>
      <trkpt lat="47.27757" lon="-2.35024">
        <ele>18</ele>
        <time>2021-08-12T07:04:27.000Z</time>
      </trkpt>
      <trkpt lat="47.27761" lon="-2.35024">
        <ele>17.60000038147</ele>
        <time>2021-08-12T07:04:28.000Z</time>
      </trkpt>
      <trkpt lat="47.27765" lon="-2.35026">
        <ele>17.200000762939</ele>
        <time>2021-08-12T07:04:29.000Z</time>
      </trkpt>
      <trkpt lat="47.27767" lon="-2.35031">
        <ele>16.799999237061</ele>
        <time>2021-08-12T07:04:30.000Z</time>
      </trkpt>
      <trkpt lat="47.27769" lon="-2.35036">
        <ele>16.39999961853</ele>
        <time>2021-08-12T07:04:31.000Z</time>
      </trkpt>
      <trkpt lat="47.27771" lon="-2.35041">
        <ele>16.39999961853</ele>
        <time>2021-08-12T07:04:32.000Z</time>
      </trkpt>
      <trkpt lat="47.27772" lon="-2.35049">
        <ele>16.39999961853</ele>
        <time>2021-08-12T07:04:33.000Z</time>
      </trkpt>
      <trkpt lat="47.27773" lon="-2.35073">
        <ele>16.39999961853</ele>
        <time>2021-08-12T07:04:36.000Z</time>
      </trkpt>
      <trkpt lat="47.27773" lon="-2.35082">
        <ele>16</ele>
        <time>2021-08-12T07:04:37.000Z</time>
      </trkpt>
      <trkpt lat="47.27774" lon="-2.35091">
        <ele>15.60000038147</ele>
        <time>2021-08-12T07:04:38.000Z</time>
      </trkpt>
      <trkpt lat="47.27774" lon="-2.35101">
        <ele>15.199999809265</ele>
        <time>2021-08-12T07:04:39.000Z</time>
      </trkpt>
      <trkpt lat="47.27774" lon="-2.3511">
        <ele>14.800000190735</ele>
        <time>2021-08-12T07:04:40.000Z</time>
      </trkpt>
      <trkpt lat="47.27775" lon="-2.35119">
        <ele>14.39999961853</ele>
        <time>2021-08-12T07:04:41.000Z</time>
      </trkpt>
      <trkpt lat="47.27776" lon="-2.35147">
        <ele>14.39999961853</ele>
        <time>2021-08-12T07:04:44.000Z</time>
      </trkpt>
      <trkpt lat="47.27782" lon="-2.35235">
        <ele>14.39999961853</ele>
        <time>2021-08-12T07:04:53.000Z</time>
      </trkpt>
      <trkpt lat="47.27783" lon="-2.35245">
        <ele>14.39999961853</ele>
        <time>2021-08-12T07:04:54.000Z</time>
      </trkpt>
      <trkpt lat="47.278" lon="-2.35328">
        <ele>14.39999961853</ele>
        <time>2021-08-12T07:05:03.000Z</time>
      </trkpt>
      <trkpt lat="47.27807" lon="-2.35353">
        <ele>14.39999961853</ele>
        <time>2021-08-12T07:05:06.000Z</time>
      </trkpt>
      <trkpt lat="47.27815" lon="-2.35363">
        <ele>14.39999961853</ele>
        <time>2021-08-12T07:05:08.000Z</time>
      </trkpt>
      <trkpt lat="47.27833" lon="-2.35365">
        <ele>14.39999961853</ele>
        <time>2021-08-12T07:05:11.000Z</time>
      </trkpt>
      <trkpt lat="47.27838" lon="-2.35364">
        <ele>14.39999961853</ele>
        <time>2021-08-12T07:05:12.000Z</time>
      </trkpt>
      <trkpt lat="47.2787" lon="-2.35362">
        <ele>14.39999961853</ele>
        <time>2021-08-12T07:05:18.000Z</time>
      </trkpt>
      <trkpt lat="47.27875" lon="-2.35364">
        <ele>14.39999961853</ele>
        <time>2021-08-12T07:05:19.000Z</time>
      </trkpt>
      <trkpt lat="47.2789" lon="-2.35379">
        <ele>14.39999961853</ele>
        <time>2021-08-12T07:05:23.000Z</time>
      </trkpt>
      <trkpt lat="47.27894" lon="-2.35385">
        <ele>14.39999961853</ele>
        <time>2021-08-12T07:05:24.000Z</time>
      </trkpt>
      <trkpt lat="47.27918" lon="-2.35415">
        <ele>14.39999961853</ele>
        <time>2021-08-12T07:05:30.000Z</time>
      </trkpt>
      <trkpt lat="47.27948" lon="-2.35452">
        <ele>14.39999961853</ele>
        <time>2021-08-12T07:05:37.000Z</time>
      </trkpt>
      <trkpt lat="47.27973" lon="-2.35469">
        <ele>14.39999961853</ele>
        <time>2021-08-12T07:05:42.000Z</time>
      </trkpt>
      <trkpt lat="47.27977" lon="-2.35474">
        <ele>14.39999961853</ele>
        <time>2021-08-12T07:05:43.000Z</time>
      </trkpt>
      <trkpt lat="47.27988" lon="-2.35494">
        <ele>14.39999961853</ele>
        <time>2021-08-12T07:05:46.000Z</time>
      </trkpt>
      <trkpt lat="47.27994" lon="-2.35507">
        <ele>14.39999961853</ele>
        <time>2021-08-12T07:05:48.000Z</time>
      </trkpt>
      <trkpt lat="47.28008" lon="-2.35543">
        <ele>14.39999961853</ele>
        <time>2021-08-12T07:05:54.000Z</time>
      </trkpt>
      <trkpt lat="47.2801" lon="-2.35551">
        <ele>14.39999961853</ele>
        <time>2021-08-12T07:05:56.000Z</time>
      </trkpt>
      <trkpt lat="47.28013" lon="-2.35552">
        <ele>14.800000190735</ele>
        <time>2021-08-12T07:05:57.000Z</time>
      </trkpt>
      <trkpt lat="47.28016" lon="-2.35552">
        <ele>15.199999809265</ele>
        <time>2021-08-12T07:05:58.000Z</time>
      </trkpt>
      <trkpt lat="47.2802" lon="-2.35553">
        <ele>15.60000038147</ele>
        <time>2021-08-12T07:05:59.000Z</time>
      </trkpt>
      <trkpt lat="47.28024" lon="-2.35554">
        <ele>16.39999961853</ele>
        <time>2021-08-12T07:06:00.000Z</time>
      </trkpt>
      <trkpt lat="47.28033" lon="-2.35563">
        <ele>16.39999961853</ele>
        <time>2021-08-12T07:06:03.000Z</time>
      </trkpt>
      <trkpt lat="47.28051" lon="-2.35577">
        <ele>16.39999961853</ele>
        <time>2021-08-12T07:06:09.000Z</time>
      </trkpt>
      <trkpt lat="47.28059" lon="-2.3558">
        <ele>16.799999237061</ele>
        <time>2021-08-12T07:06:12.000Z</time>
      </trkpt>
      <trkpt lat="47.28062" lon="-2.3558">
        <ele>17.200000762939</ele>
        <time>2021-08-12T07:06:13.000Z</time>
      </trkpt>
      <trkpt lat="47.28065" lon="-2.35581">
        <ele>17.60000038147</ele>
        <time>2021-08-12T07:06:14.000Z</time>
      </trkpt>
      <trkpt lat="47.28067" lon="-2.35583">
        <ele>18</ele>
        <time>2021-08-12T07:06:15.000Z</time>
      </trkpt>
      <trkpt lat="47.2807" lon="-2.35586">
        <ele>18.39999961853</ele>
        <time>2021-08-12T07:06:16.000Z</time>
      </trkpt>
      <trkpt lat="47.28083" lon="-2.35607">
        <ele>18.39999961853</ele>
        <time>2021-08-12T07:06:22.000Z</time>
      </trkpt>
      <trkpt lat="47.28091" lon="-2.35619">
        <ele>18.39999961853</ele>
        <time>2021-08-12T07:06:27.000Z</time>
      </trkpt>
      <trkpt lat="47.28091" lon="-2.3562">
        <ele>18.39999961853</ele>
        <time>2021-08-12T07:06:28.000Z</time>
      </trkpt>
      <trkpt lat="47.28091" lon="-2.35618">
        <ele>18.39999961853</ele>
        <time>2021-08-12T07:07:50.000Z</time>
      </trkpt>
      <trkpt lat="47.2809" lon="-2.35616">
        <ele>18.39999961853</ele>
        <time>2021-08-12T07:07:51.000Z</time>
      </trkpt>
      <trkpt lat="47.28084" lon="-2.35607">
        <ele>18.39999961853</ele>
        <time>2021-08-12T07:07:56.000Z</time>
      </trkpt>
      <trkpt lat="47.28082" lon="-2.35608">
        <ele>18.39999961853</ele>
        <time>2021-08-12T07:07:57.000Z</time>
      </trkpt>
      <trkpt lat="47.28081" lon="-2.35619">
        <ele>18.39999961853</ele>
        <time>2021-08-12T07:08:00.000Z</time>
      </trkpt>
      <trkpt lat="47.28083" lon="-2.35623">
        <ele>18.39999961853</ele>
        <time>2021-08-12T07:08:01.000Z</time>
      </trkpt>
      <trkpt lat="47.28085" lon="-2.35632">
        <ele>18.799999237061</ele>
        <time>2021-08-12T07:08:03.000Z</time>
      </trkpt>
      <trkpt lat="47.28086" lon="-2.35636">
        <ele>19.39999961853</ele>
        <time>2021-08-12T07:08:04.000Z</time>
      </trkpt>
      <trkpt lat="47.28086" lon="-2.3564">
        <ele>19.799999237061</ele>
        <time>2021-08-12T07:08:05.000Z</time>
      </trkpt>
      <trkpt lat="47.28087" lon="-2.35644">
        <ele>20.200000762939</ele>
        <time>2021-08-12T07:08:06.000Z</time>
      </trkpt>
      <trkpt lat="47.28087" lon="-2.35648">
        <ele>20.799999237061</ele>
        <time>2021-08-12T07:08:07.000Z</time>
      </trkpt>
      <trkpt lat="47.28088" lon="-2.35652">
        <ele>21.200000762939</ele>
        <time>2021-08-12T07:08:08.000Z</time>
      </trkpt>
      <trkpt lat="47.2809" lon="-2.35656">
        <ele>21.60000038147</ele>
        <time>2021-08-12T07:08:09.000Z</time>
      </trkpt>
      <trkpt lat="47.28092" lon="-2.35659">
        <ele>22</ele>
        <time>2021-08-12T07:08:10.000Z</time>
      </trkpt>
      <trkpt lat="47.28093" lon="-2.35663">
        <ele>22.39999961853</ele>
        <time>2021-08-12T07:08:11.000Z</time>
      </trkpt>
      <trkpt lat="47.28094" lon="-2.35668">
        <ele>22.799999237061</ele>
        <time>2021-08-12T07:08:12.000Z</time>
      </trkpt>
      <trkpt lat="47.28095" lon="-2.35682">
        <ele>23.39999961853</ele>
        <time>2021-08-12T07:08:15.000Z</time>
      </trkpt>
      <trkpt lat="47.28095" lon="-2.35687">
        <ele>23.799999237061</ele>
        <time>2021-08-12T07:08:16.000Z</time>
      </trkpt>
      <trkpt lat="47.28096" lon="-2.3569">
        <ele>24.200000762939</ele>
        <time>2021-08-12T07:08:17.000Z</time>
      </trkpt>
      <trkpt lat="47.28097" lon="-2.35694">
        <ele>24.60000038147</ele>
        <time>2021-08-12T07:08:18.000Z</time>
      </trkpt>
      <trkpt lat="47.28098" lon="-2.35698">
        <ele>25</ele>
        <time>2021-08-12T07:08:19.000Z</time>
      </trkpt>
      <trkpt lat="47.28099" lon="-2.3572">
        <ele>25</ele>
        <time>2021-08-12T07:08:24.000Z</time>
      </trkpt>
      <trkpt lat="47.28094" lon="-2.35749">
        <ele>25</ele>
        <time>2021-08-12T07:08:29.000Z</time>
      </trkpt>
      <trkpt lat="47.28086" lon="-2.35778">
        <ele>25</ele>
        <time>2021-08-12T07:08:34.000Z</time>
      </trkpt>
      <trkpt lat="47.28085" lon="-2.35789">
        <ele>25</ele>
        <time>2021-08-12T07:08:36.000Z</time>
      </trkpt>
      <trkpt lat="47.28085" lon="-2.35795">
        <ele>24.60000038147</ele>
        <time>2021-08-12T07:08:37.000Z</time>
      </trkpt>
      <trkpt lat="47.28086" lon="-2.358">
        <ele>24.200000762939</ele>
        <time>2021-08-12T07:08:38.000Z</time>
      </trkpt>
      <trkpt lat="47.28086" lon="-2.35803">
        <ele>23.799999237061</ele>
        <time>2021-08-12T07:08:39.000Z</time>
      </trkpt>
      <trkpt lat="47.28086" lon="-2.35803">
        <ele>23.200000762939</ele>
        <time>2021-08-12T07:08:40.000Z</time>
      </trkpt>
      <trkpt lat="47.28089" lon="-2.35797">
        <ele>22.799999237061</ele>
        <time>2021-08-12T07:08:42.000Z</time>
      </trkpt>
      <trkpt lat="47.28092" lon="-2.35791">
        <ele>22.39999961853</ele>
        <time>2021-08-12T07:08:43.000Z</time>
      </trkpt>
      <trkpt lat="47.28095" lon="-2.35785">
        <ele>22</ele>
        <time>2021-08-12T07:08:44.000Z</time>
      </trkpt>
      <trkpt lat="47.28097" lon="-2.3578">
        <ele>21.60000038147</ele>
        <time>2021-08-12T07:08:45.000Z</time>
      </trkpt>
      <trkpt lat="47.281" lon="-2.35775">
        <ele>21.200000762939</ele>
        <time>2021-08-12T07:08:46.000Z</time>
      </trkpt>
      <trkpt lat="47.28102" lon="-2.35769">
        <ele>20.799999237061</ele>
        <time>2021-08-12T07:08:47.000Z</time>
      </trkpt>
      <trkpt lat="47.2811" lon="-2.35752">
        <ele>20.799999237061</ele>
        <time>2021-08-12T07:08:51.000Z</time>
      </trkpt>
      <trkpt lat="47.28123" lon="-2.35748">
        <ele>20.799999237061</ele>
        <time>2021-08-12T07:08:56.000Z</time>
      </trkpt>
      <trkpt lat="47.28138" lon="-2.35762">
        <ele>20.799999237061</ele>
        <time>2021-08-12T07:09:01.000Z</time>
      </trkpt>
      <trkpt lat="47.28147" lon="-2.35798">
        <ele>21.200000762939</ele>
        <time>2021-08-12T07:09:07.000Z</time>
      </trkpt>
      <trkpt lat="47.28148" lon="-2.35803">
        <ele>21.60000038147</ele>
        <time>2021-08-12T07:09:08.000Z</time>
      </trkpt>
      <trkpt lat="47.2815" lon="-2.35807">
        <ele>22</ele>
        <time>2021-08-12T07:09:09.000Z</time>
      </trkpt>
      <trkpt lat="47.28152" lon="-2.35811">
        <ele>22.39999961853</ele>
        <time>2021-08-12T07:09:10.000Z</time>
      </trkpt>
      <trkpt lat="47.28155" lon="-2.35814">
        <ele>22.799999237061</ele>
        <time>2021-08-12T07:09:11.000Z</time>
      </trkpt>
      <trkpt lat="47.28161" lon="-2.35817">
        <ele>22.799999237061</ele>
        <time>2021-08-12T07:09:13.000Z</time>
      </trkpt>
      <trkpt lat="47.28178" lon="-2.35819">
        <ele>22.799999237061</ele>
        <time>2021-08-12T07:09:18.000Z</time>
      </trkpt>
      <trkpt lat="47.28192" lon="-2.35841">
        <ele>22.799999237061</ele>
        <time>2021-08-12T07:09:23.000Z</time>
      </trkpt>
      <trkpt lat="47.28196" lon="-2.35868">
        <ele>22.799999237061</ele>
        <time>2021-08-12T07:09:28.000Z</time>
      </trkpt>
      <trkpt lat="47.28201" lon="-2.35897">
        <ele>22.799999237061</ele>
        <time>2021-08-12T07:09:33.000Z</time>
      </trkpt>
      <trkpt lat="47.28192" lon="-2.35926">
        <ele>22.799999237061</ele>
        <time>2021-08-12T07:09:37.000Z</time>
      </trkpt>
      <trkpt lat="47.28184" lon="-2.3594">
        <ele>22.799999237061</ele>
        <time>2021-08-12T07:09:40.000Z</time>
      </trkpt>
      <trkpt lat="47.28179" lon="-2.35951">
        <ele>22.799999237061</ele>
        <time>2021-08-12T07:09:42.000Z</time>
      </trkpt>
      <trkpt lat="47.28178" lon="-2.35956">
        <ele>22.799999237061</ele>
        <time>2021-08-12T07:09:43.000Z</time>
      </trkpt>
      <trkpt lat="47.28182" lon="-2.35971">
        <ele>22.799999237061</ele>
        <time>2021-08-12T07:09:45.000Z</time>
      </trkpt>
      <trkpt lat="47.28188" lon="-2.35986">
        <ele>22.799999237061</ele>
        <time>2021-08-12T07:09:47.000Z</time>
      </trkpt>
      <trkpt lat="47.28191" lon="-2.35994">
        <ele>22.39999961853</ele>
        <time>2021-08-12T07:09:48.000Z</time>
      </trkpt>
      <trkpt lat="47.28194" lon="-2.36002">
        <ele>22</ele>
        <time>2021-08-12T07:09:49.000Z</time>
      </trkpt>
      <trkpt lat="47.28197" lon="-2.3601">
        <ele>21.39999961853</ele>
        <time>2021-08-12T07:09:50.000Z</time>
      </trkpt>
      <trkpt lat="47.28199" lon="-2.36017">
        <ele>21</ele>
        <time>2021-08-12T07:09:51.000Z</time>
      </trkpt>
      <trkpt lat="47.28202" lon="-2.36023">
        <ele>20.60000038147</ele>
        <time>2021-08-12T07:09:52.000Z</time>
      </trkpt>
      <trkpt lat="47.28207" lon="-2.36034">
        <ele>20.60000038147</ele>
        <time>2021-08-12T07:09:54.000Z</time>
      </trkpt>
      <trkpt lat="47.28222" lon="-2.36071">
        <ele>20.60000038147</ele>
        <time>2021-08-12T07:10:00.000Z</time>
      </trkpt>
      <trkpt lat="47.28234" lon="-2.36105">
        <ele>20.60000038147</ele>
        <time>2021-08-12T07:10:06.000Z</time>
      </trkpt>
      <trkpt lat="47.28236" lon="-2.3611">
        <ele>21</ele>
        <time>2021-08-12T07:10:07.000Z</time>
      </trkpt>
      <trkpt lat="47.28239" lon="-2.36117">
        <ele>21.39999961853</ele>
        <time>2021-08-12T07:10:08.000Z</time>
      </trkpt>
      <trkpt lat="47.28242" lon="-2.36123">
        <ele>22</ele>
        <time>2021-08-12T07:10:09.000Z</time>
      </trkpt>
      <trkpt lat="47.28245" lon="-2.36131">
        <ele>22.39999961853</ele>
        <time>2021-08-12T07:10:10.000Z</time>
      </trkpt>
      <trkpt lat="47.28247" lon="-2.36138">
        <ele>22.799999237061</ele>
        <time>2021-08-12T07:10:11.000Z</time>
      </trkpt>
      <trkpt lat="47.2826" lon="-2.36173">
        <ele>22.39999961853</ele>
        <time>2021-08-12T07:10:15.000Z</time>
      </trkpt>
      <trkpt lat="47.28264" lon="-2.36181">
        <ele>22</ele>
        <time>2021-08-12T07:10:16.000Z</time>
      </trkpt>
      <trkpt lat="47.28267" lon="-2.36188">
        <ele>21.60000038147</ele>
        <time>2021-08-12T07:10:17.000Z</time>
      </trkpt>
      <trkpt lat="47.28271" lon="-2.36196">
        <ele>21</ele>
        <time>2021-08-12T07:10:18.000Z</time>
      </trkpt>
      <trkpt lat="47.28275" lon="-2.36205">
        <ele>20.60000038147</ele>
        <time>2021-08-12T07:10:19.000Z</time>
      </trkpt>
      <trkpt lat="47.28281" lon="-2.36221">
        <ele>20.60000038147</ele>
        <time>2021-08-12T07:10:21.000Z</time>
      </trkpt>
      <trkpt lat="47.28287" lon="-2.36233">
        <ele>20.60000038147</ele>
        <time>2021-08-12T07:10:23.000Z</time>
      </trkpt>
      <trkpt lat="47.28295" lon="-2.36239">
        <ele>20.60000038147</ele>
        <time>2021-08-12T07:10:25.000Z</time>
      </trkpt>
      <trkpt lat="47.28303" lon="-2.3624">
        <ele>20.60000038147</ele>
        <time>2021-08-12T07:10:27.000Z</time>
      </trkpt>
      <trkpt lat="47.28313" lon="-2.36242">
        <ele>20.60000038147</ele>
        <time>2021-08-12T07:10:29.000Z</time>
      </trkpt>
      <trkpt lat="47.28335" lon="-2.36251">
        <ele>20.60000038147</ele>
        <time>2021-08-12T07:10:34.000Z</time>
      </trkpt>
      <trkpt lat="47.2834" lon="-2.36253">
        <ele>20.60000038147</ele>
        <time>2021-08-12T07:10:35.000Z</time>
      </trkpt>
      <trkpt lat="47.28344" lon="-2.36253">
        <ele>21</ele>
        <time>2021-08-12T07:10:36.000Z</time>
      </trkpt>
      <trkpt lat="47.28347" lon="-2.36254">
        <ele>21.39999961853</ele>
        <time>2021-08-12T07:10:37.000Z</time>
      </trkpt>
      <trkpt lat="47.2835" lon="-2.36255">
        <ele>22</ele>
        <time>2021-08-12T07:10:38.000Z</time>
      </trkpt>
      <trkpt lat="47.28352" lon="-2.36257">
        <ele>22.39999961853</ele>
        <time>2021-08-12T07:10:39.000Z</time>
      </trkpt>
      <trkpt lat="47.28355" lon="-2.36259">
        <ele>22.799999237061</ele>
        <time>2021-08-12T07:10:40.000Z</time>
      </trkpt>
      <trkpt lat="47.28359" lon="-2.36262">
        <ele>22.799999237061</ele>
        <time>2021-08-12T07:10:43.000Z</time>
      </trkpt>
      <trkpt lat="47.2836" lon="-2.36266">
        <ele>22.799999237061</ele>
        <time>2021-08-12T07:10:47.000Z</time>
      </trkpt>
      <trkpt lat="47.28358" lon="-2.36273">
        <ele>22.799999237061</ele>
        <time>2021-08-12T07:11:23.000Z</time>
      </trkpt>
      <trkpt lat="47.28359" lon="-2.36283">
        <ele>22.799999237061</ele>
        <time>2021-08-12T07:11:28.000Z</time>
      </trkpt>
      <trkpt lat="47.28364" lon="-2.36294">
        <ele>23.200000762939</ele>
        <time>2021-08-12T07:11:32.000Z</time>
      </trkpt>
      <trkpt lat="47.28365" lon="-2.36295">
        <ele>23.60000038147</ele>
        <time>2021-08-12T07:11:33.000Z</time>
      </trkpt>
      <trkpt lat="47.28366" lon="-2.36296">
        <ele>24</ele>
        <time>2021-08-12T07:11:34.000Z</time>
      </trkpt>
      <trkpt lat="47.28367" lon="-2.36298">
        <ele>24.39999961853</ele>
        <time>2021-08-12T07:11:35.000Z</time>
      </trkpt>
      <trkpt lat="47.28368" lon="-2.36298">
        <ele>24.799999237061</ele>
        <time>2021-08-12T07:11:36.000Z</time>
      </trkpt>
      <trkpt lat="47.28372" lon="-2.36303">
        <ele>24.799999237061</ele>
        <time>2021-08-12T07:11:39.000Z</time>
      </trkpt>
      <trkpt lat="47.28382" lon="-2.36321">
        <ele>24.799999237061</ele>
        <time>2021-08-12T07:11:43.000Z</time>
      </trkpt>
      <trkpt lat="47.28385" lon="-2.36324">
        <ele>25.200000762939</ele>
        <time>2021-08-12T07:11:44.000Z</time>
      </trkpt>
      <trkpt lat="47.28387" lon="-2.36326">
        <ele>25.60000038147</ele>
        <time>2021-08-12T07:11:45.000Z</time>
      </trkpt>
      <trkpt lat="47.2839" lon="-2.36329">
        <ele>26</ele>
        <time>2021-08-12T07:11:46.000Z</time>
      </trkpt>
      <trkpt lat="47.28393" lon="-2.36333">
        <ele>26.60000038147</ele>
        <time>2021-08-12T07:11:47.000Z</time>
      </trkpt>
      <trkpt lat="47.28395" lon="-2.36338">
        <ele>27</ele>
        <time>2021-08-12T07:11:48.000Z</time>
      </trkpt>
      <trkpt lat="47.28398" lon="-2.36342">
        <ele>27</ele>
        <time>2021-08-12T07:11:49.000Z</time>
      </trkpt>
      <trkpt lat="47.28418" lon="-2.36363">
        <ele>27</ele>
        <time>2021-08-12T07:11:55.000Z</time>
      </trkpt>
      <trkpt lat="47.2844" lon="-2.36382">
        <ele>27</ele>
        <time>2021-08-12T07:12:00.000Z</time>
      </trkpt>
      <trkpt lat="47.28444" lon="-2.36386">
        <ele>27.39999961853</ele>
        <time>2021-08-12T07:12:01.000Z</time>
      </trkpt>
      <trkpt lat="47.28448" lon="-2.36391">
        <ele>27.799999237061</ele>
        <time>2021-08-12T07:12:02.000Z</time>
      </trkpt>
      <trkpt lat="47.28452" lon="-2.36395">
        <ele>28.200000762939</ele>
        <time>2021-08-12T07:12:03.000Z</time>
      </trkpt>
      <trkpt lat="47.28456" lon="-2.364">
        <ele>28.60000038147</ele>
        <time>2021-08-12T07:12:04.000Z</time>
      </trkpt>
      <trkpt lat="47.28458" lon="-2.36405">
        <ele>29.200000762939</ele>
        <time>2021-08-12T07:12:05.000Z</time>
      </trkpt>
      <trkpt lat="47.28463" lon="-2.3641">
        <ele>29.200000762939</ele>
        <time>2021-08-12T07:12:06.000Z</time>
      </trkpt>
      <trkpt lat="47.28475" lon="-2.36426">
        <ele>29.200000762939</ele>
        <time>2021-08-12T07:12:09.000Z</time>
      </trkpt>
      <trkpt lat="47.28484" lon="-2.36438">
        <ele>29.200000762939</ele>
        <time>2021-08-12T07:12:11.000Z</time>
      </trkpt>
      <trkpt lat="47.28507" lon="-2.36458">
        <ele>29.200000762939</ele>
        <time>2021-08-12T07:12:15.000Z</time>
      </trkpt>
      <trkpt lat="47.28523" lon="-2.36485">
        <ele>29.200000762939</ele>
        <time>2021-08-12T07:12:20.000Z</time>
      </trkpt>
      <trkpt lat="47.28523" lon="-2.36508">
        <ele>29.200000762939</ele>
        <time>2021-08-12T07:12:24.000Z</time>
      </trkpt>
      <trkpt lat="47.2852" lon="-2.36513">
        <ele>29.200000762939</ele>
        <time>2021-08-12T07:12:25.000Z</time>
      </trkpt>
      <trkpt lat="47.2851" lon="-2.36524">
        <ele>29.200000762939</ele>
        <time>2021-08-12T07:12:27.000Z</time>
      </trkpt>
      <trkpt lat="47.28489" lon="-2.36549">
        <ele>28.799999237061</ele>
        <time>2021-08-12T07:12:31.000Z</time>
      </trkpt>
      <trkpt lat="47.28484" lon="-2.36554">
        <ele>28.200000762939</ele>
        <time>2021-08-12T07:12:32.000Z</time>
      </trkpt>
      <trkpt lat="47.2848" lon="-2.3656">
        <ele>27.39999961853</ele>
        <time>2021-08-12T07:12:33.000Z</time>
      </trkpt>
      <trkpt lat="47.28476" lon="-2.36566">
        <ele>27</ele>
        <time>2021-08-12T07:12:34.000Z</time>
      </trkpt>
      <trkpt lat="47.28474" lon="-2.36583">
        <ele>27</ele>
        <time>2021-08-12T07:12:36.000Z</time>
      </trkpt>
      <trkpt lat="47.2848" lon="-2.36605">
        <ele>27</ele>
        <time>2021-08-12T07:12:39.000Z</time>
      </trkpt>
      <trkpt lat="47.28481" lon="-2.36612">
        <ele>27</ele>
        <time>2021-08-12T07:12:40.000Z</time>
      </trkpt>
      <trkpt lat="47.28493" lon="-2.36656">
        <ele>27</ele>
        <time>2021-08-12T07:12:47.000Z</time>
      </trkpt>
      <trkpt lat="47.28495" lon="-2.36661">
        <ele>27</ele>
        <time>2021-08-12T07:12:48.000Z</time>
      </trkpt>
      <trkpt lat="47.28499" lon="-2.36667">
        <ele>26.60000038147</ele>
        <time>2021-08-12T07:12:50.000Z</time>
      </trkpt>
      <trkpt lat="47.28499" lon="-2.36667">
        <ele>26.200000762939</ele>
        <time>2021-08-12T07:12:51.000Z</time>
      </trkpt>
      <trkpt lat="47.28499" lon="-2.36667">
        <ele>25.799999237061</ele>
        <time>2021-08-12T07:12:52.000Z</time>
      </trkpt>
      <trkpt lat="47.285" lon="-2.3667">
        <ele>25</ele>
        <time>2021-08-12T07:13:00.000Z</time>
      </trkpt>
      <trkpt lat="47.28504" lon="-2.36676">
        <ele>25</ele>
        <time>2021-08-12T07:13:02.000Z</time>
      </trkpt>
      <trkpt lat="47.28519" lon="-2.36699">
        <ele>25</ele>
        <time>2021-08-12T07:13:07.000Z</time>
      </trkpt>
      <trkpt lat="47.28538" lon="-2.36739">
        <ele>25</ele>
        <time>2021-08-12T07:13:12.000Z</time>
      </trkpt>
      <trkpt lat="47.28547" lon="-2.36756">
        <ele>24.60000038147</ele>
        <time>2021-08-12T07:13:14.000Z</time>
      </trkpt>
      <trkpt lat="47.28551" lon="-2.36764">
        <ele>24.200000762939</ele>
        <time>2021-08-12T07:13:15.000Z</time>
      </trkpt>
      <trkpt lat="47.28556" lon="-2.36774">
        <ele>23.799999237061</ele>
        <time>2021-08-12T07:13:16.000Z</time>
      </trkpt>
      <trkpt lat="47.28561" lon="-2.36783">
        <ele>23.200000762939</ele>
        <time>2021-08-12T07:13:17.000Z</time>
      </trkpt>
      <trkpt lat="47.28565" lon="-2.36792">
        <ele>22.799999237061</ele>
        <time>2021-08-12T07:13:18.000Z</time>
      </trkpt>
      <trkpt lat="47.28571" lon="-2.36801">
        <ele>22.799999237061</ele>
        <time>2021-08-12T07:13:19.000Z</time>
      </trkpt>
      <trkpt lat="47.28585" lon="-2.36827">
        <ele>22.39999961853</ele>
        <time>2021-08-12T07:13:22.000Z</time>
      </trkpt>
      <trkpt lat="47.28589" lon="-2.36835">
        <ele>21.60000038147</ele>
        <time>2021-08-12T07:13:23.000Z</time>
      </trkpt>
      <trkpt lat="47.28594" lon="-2.36841">
        <ele>21.200000762939</ele>
        <time>2021-08-12T07:13:24.000Z</time>
      </trkpt>
      <trkpt lat="47.28599" lon="-2.36845">
        <ele>20.799999237061</ele>
        <time>2021-08-12T07:13:25.000Z</time>
      </trkpt>
      <trkpt lat="47.28615" lon="-2.36843">
        <ele>20.799999237061</ele>
        <time>2021-08-12T07:13:28.000Z</time>
      </trkpt>
      <trkpt lat="47.28624" lon="-2.36833">
        <ele>20.799999237061</ele>
        <time>2021-08-12T07:13:30.000Z</time>
      </trkpt>
      <trkpt lat="47.28628" lon="-2.36828">
        <ele>20.799999237061</ele>
        <time>2021-08-12T07:13:31.000Z</time>
      </trkpt>
      <trkpt lat="47.28654" lon="-2.36798">
        <ele>20.799999237061</ele>
        <time>2021-08-12T07:13:37.000Z</time>
      </trkpt>
      <trkpt lat="47.28667" lon="-2.36792">
        <ele>20.799999237061</ele>
        <time>2021-08-12T07:13:41.000Z</time>
      </trkpt>
      <trkpt lat="47.28682" lon="-2.36801">
        <ele>20.799999237061</ele>
        <time>2021-08-12T07:13:45.000Z</time>
      </trkpt>
      <trkpt lat="47.28691" lon="-2.36815">
        <ele>20.799999237061</ele>
        <time>2021-08-12T07:13:48.000Z</time>
      </trkpt>
      <trkpt lat="47.28694" lon="-2.36821">
        <ele>20.799999237061</ele>
        <time>2021-08-12T07:13:49.000Z</time>
      </trkpt>
      <trkpt lat="47.28714" lon="-2.3687">
        <ele>20.799999237061</ele>
        <time>2021-08-12T07:13:57.000Z</time>
      </trkpt>
      <trkpt lat="47.28722" lon="-2.36886">
        <ele>20.200000762939</ele>
        <time>2021-08-12T07:14:00.000Z</time>
      </trkpt>
      <trkpt lat="47.28725" lon="-2.36891">
        <ele>19.799999237061</ele>
        <time>2021-08-12T07:14:01.000Z</time>
      </trkpt>
      <trkpt lat="47.28729" lon="-2.36896">
        <ele>19.200000762939</ele>
        <time>2021-08-12T07:14:02.000Z</time>
      </trkpt>
      <trkpt lat="47.28733" lon="-2.36901">
        <ele>18.799999237061</ele>
        <time>2021-08-12T07:14:03.000Z</time>
      </trkpt>
      <trkpt lat="47.28738" lon="-2.36906">
        <ele>18.39999961853</ele>
        <time>2021-08-12T07:14:04.000Z</time>
      </trkpt>
      <trkpt lat="47.28742" lon="-2.3691">
        <ele>17.799999237061</ele>
        <time>2021-08-12T07:14:05.000Z</time>
      </trkpt>
      <trkpt lat="47.28747" lon="-2.36914">
        <ele>17.39999961853</ele>
        <time>2021-08-12T07:14:06.000Z</time>
      </trkpt>
      <trkpt lat="47.2875" lon="-2.36916">
        <ele>17</ele>
        <time>2021-08-12T07:14:07.000Z</time>
      </trkpt>
      <trkpt lat="47.28752" lon="-2.3692">
        <ele>16.60000038147</ele>
        <time>2021-08-12T07:14:08.000Z</time>
      </trkpt>
      <trkpt lat="47.28753" lon="-2.36921">
        <ele>16</ele>
        <time>2021-08-12T07:14:09.000Z</time>
      </trkpt>
      <trkpt lat="47.28754" lon="-2.36928">
        <ele>16</ele>
        <time>2021-08-12T07:14:12.000Z</time>
      </trkpt>
      <trkpt lat="47.28754" lon="-2.36933">
        <ele>16.39999961853</ele>
        <time>2021-08-12T07:14:14.000Z</time>
      </trkpt>
      <trkpt lat="47.28754" lon="-2.36937">
        <ele>17</ele>
        <time>2021-08-12T07:14:15.000Z</time>
      </trkpt>
      <trkpt lat="47.28754" lon="-2.36941">
        <ele>17.39999961853</ele>
        <time>2021-08-12T07:14:16.000Z</time>
      </trkpt>
      <trkpt lat="47.28754" lon="-2.36944">
        <ele>17.799999237061</ele>
        <time>2021-08-12T07:14:17.000Z</time>
      </trkpt>
      <trkpt lat="47.28755" lon="-2.36947">
        <ele>18.200000762939</ele>
        <time>2021-08-12T07:14:18.000Z</time>
      </trkpt>
      <trkpt lat="47.28755" lon="-2.36948">
        <ele>18.60000038147</ele>
        <time>2021-08-12T07:14:20.000Z</time>
      </trkpt>
      <trkpt lat="47.28755" lon="-2.36948">
        <ele>19</ele>
        <time>2021-08-12T07:14:21.000Z</time>
      </trkpt>
      <trkpt lat="47.28755" lon="-2.36948">
        <ele>19.39999961853</ele>
        <time>2021-08-12T07:14:22.000Z</time>
      </trkpt>
      <trkpt lat="47.28755" lon="-2.36948">
        <ele>19.799999237061</ele>
        <time>2021-08-12T07:14:23.000Z</time>
      </trkpt>
      <trkpt lat="47.28756" lon="-2.36949">
        <ele>20.200000762939</ele>
        <time>2021-08-12T07:14:24.000Z</time>
      </trkpt>
      <trkpt lat="47.28763" lon="-2.36971">
        <ele>20.200000762939</ele>
        <time>2021-08-12T07:14:28.000Z</time>
      </trkpt>
      <trkpt lat="47.28772" lon="-2.36987">
        <ele>20.200000762939</ele>
        <time>2021-08-12T07:14:33.000Z</time>
      </trkpt>
      <trkpt lat="47.2878" lon="-2.37012">
        <ele>20.200000762939</ele>
        <time>2021-08-12T07:14:37.000Z</time>
      </trkpt>
      <trkpt lat="47.28784" lon="-2.37024">
        <ele>20.200000762939</ele>
        <time>2021-08-12T07:14:39.000Z</time>
      </trkpt>
      <trkpt lat="47.28791" lon="-2.37045">
        <ele>20.200000762939</ele>
        <time>2021-08-12T07:14:42.000Z</time>
      </trkpt>
      <trkpt lat="47.28799" lon="-2.37079">
        <ele>19.799999237061</ele>
        <time>2021-08-12T07:14:46.000Z</time>
      </trkpt>
      <trkpt lat="47.28801" lon="-2.37087">
        <ele>19.39999961853</ele>
        <time>2021-08-12T07:14:47.000Z</time>
      </trkpt>
      <trkpt lat="47.28802" lon="-2.37094">
        <ele>18.799999237061</ele>
        <time>2021-08-12T07:14:48.000Z</time>
      </trkpt>
      <trkpt lat="47.28804" lon="-2.37099">
        <ele>18.39999961853</ele>
        <time>2021-08-12T07:14:49.000Z</time>
      </trkpt>
      <trkpt lat="47.28806" lon="-2.37103">
        <ele>17.799999237061</ele>
        <time>2021-08-12T07:14:50.000Z</time>
      </trkpt>
      <trkpt lat="47.28808" lon="-2.37106">
        <ele>17.200000762939</ele>
        <time>2021-08-12T07:14:51.000Z</time>
      </trkpt>
      <trkpt lat="47.28811" lon="-2.37106">
        <ele>16.799999237061</ele>
        <time>2021-08-12T07:14:52.000Z</time>
      </trkpt>
      <trkpt lat="47.28814" lon="-2.37107">
        <ele>16.200000762939</ele>
        <time>2021-08-12T07:14:53.000Z</time>
      </trkpt>
      <trkpt lat="47.28817" lon="-2.37107">
        <ele>15.60000038147</ele>
        <time>2021-08-12T07:14:54.000Z</time>
      </trkpt>
      <trkpt lat="47.2882" lon="-2.37106">
        <ele>15</ele>
        <time>2021-08-12T07:14:55.000Z</time>
      </trkpt>
      <trkpt lat="47.28823" lon="-2.37105">
        <ele>14.60000038147</ele>
        <time>2021-08-12T07:14:56.000Z</time>
      </trkpt>
      <trkpt lat="47.28825" lon="-2.37105">
        <ele>14</ele>
        <time>2021-08-12T07:14:57.000Z</time>
      </trkpt>
      <trkpt lat="47.28827" lon="-2.37106">
        <ele>13.39999961853</ele>
        <time>2021-08-12T07:14:58.000Z</time>
      </trkpt>
      <trkpt lat="47.28828" lon="-2.37111">
        <ele>12.800000190735</ele>
        <time>2021-08-12T07:14:59.000Z</time>
      </trkpt>
      <trkpt lat="47.28829" lon="-2.37117">
        <ele>12.199999809265</ele>
        <time>2021-08-12T07:15:00.000Z</time>
      </trkpt>
      <trkpt lat="47.28829" lon="-2.37123">
        <ele>11.39999961853</ele>
        <time>2021-08-12T07:15:01.000Z</time>
      </trkpt>
      <trkpt lat="47.28829" lon="-2.37129">
        <ele>10.800000190735</ele>
        <time>2021-08-12T07:15:02.000Z</time>
      </trkpt>
      <trkpt lat="47.2883" lon="-2.37135">
        <ele>10.800000190735</ele>
        <time>2021-08-12T07:15:03.000Z</time>
      </trkpt>
      <trkpt lat="47.28835" lon="-2.37164">
        <ele>10.800000190735</ele>
        <time>2021-08-12T07:15:08.000Z</time>
      </trkpt>
      <trkpt lat="47.28838" lon="-2.37179">
        <ele>10.800000190735</ele>
        <time>2021-08-12T07:15:10.000Z</time>
      </trkpt>
      <trkpt lat="47.28842" lon="-2.37202">
        <ele>10.800000190735</ele>
        <time>2021-08-12T07:15:13.000Z</time>
      </trkpt>
      <trkpt lat="47.2885" lon="-2.37236">
        <ele>10.39999961853</ele>
        <time>2021-08-12T07:15:19.000Z</time>
      </trkpt>
      <trkpt lat="47.28852" lon="-2.37238">
        <ele>10</ele>
        <time>2021-08-12T07:15:20.000Z</time>
      </trkpt>
      <trkpt lat="47.28854" lon="-2.37239">
        <ele>9.6000003814697</ele>
        <time>2021-08-12T07:15:21.000Z</time>
      </trkpt>
      <trkpt lat="47.28856" lon="-2.37239">
        <ele>9.1999998092651</ele>
        <time>2021-08-12T07:15:22.000Z</time>
      </trkpt>
      <trkpt lat="47.28859" lon="-2.37237">
        <ele>8.8000001907349</ele>
        <time>2021-08-12T07:15:23.000Z</time>
      </trkpt>
      <trkpt lat="47.28871" lon="-2.37232">
        <ele>8.8000001907349</ele>
        <time>2021-08-12T07:15:26.000Z</time>
      </trkpt>
      <trkpt lat="47.28881" lon="-2.37228">
        <ele>8.8000001907349</ele>
        <time>2021-08-12T07:15:28.000Z</time>
      </trkpt>
      <trkpt lat="47.28916" lon="-2.37209">
        <ele>8.8000001907349</ele>
        <time>2021-08-12T07:15:35.000Z</time>
      </trkpt>
      <trkpt lat="47.28932" lon="-2.37204">
        <ele>9.1999998092651</ele>
        <time>2021-08-12T07:15:38.000Z</time>
      </trkpt>
      <trkpt lat="47.28937" lon="-2.37202">
        <ele>9.6000003814697</ele>
        <time>2021-08-12T07:15:39.000Z</time>
      </trkpt>
      <trkpt lat="47.28943" lon="-2.37201">
        <ele>10</ele>
        <time>2021-08-12T07:15:40.000Z</time>
      </trkpt>
      <trkpt lat="47.28948" lon="-2.37199">
        <ele>10.39999961853</ele>
        <time>2021-08-12T07:15:41.000Z</time>
      </trkpt>
      <trkpt lat="47.28953" lon="-2.37197">
        <ele>10.800000190735</ele>
        <time>2021-08-12T07:15:42.000Z</time>
      </trkpt>
      <trkpt lat="47.28967" lon="-2.37189">
        <ele>11.199999809265</ele>
        <time>2021-08-12T07:15:45.000Z</time>
      </trkpt>
      <trkpt lat="47.28971" lon="-2.37186">
        <ele>11.60000038147</ele>
        <time>2021-08-12T07:15:46.000Z</time>
      </trkpt>
      <trkpt lat="47.28975" lon="-2.37183">
        <ele>12.199999809265</ele>
        <time>2021-08-12T07:15:47.000Z</time>
      </trkpt>
      <trkpt lat="47.2898" lon="-2.3718">
        <ele>12.60000038147</ele>
        <time>2021-08-12T07:15:48.000Z</time>
      </trkpt>
      <trkpt lat="47.28984" lon="-2.37177">
        <ele>13</ele>
        <time>2021-08-12T07:15:49.000Z</time>
      </trkpt>
      <trkpt lat="47.28989" lon="-2.37175">
        <ele>13</ele>
        <time>2021-08-12T07:15:50.000Z</time>
      </trkpt>
      <trkpt lat="47.28997" lon="-2.3717">
        <ele>13.39999961853</ele>
        <time>2021-08-12T07:15:52.000Z</time>
      </trkpt>
      <trkpt lat="47.29002" lon="-2.37169">
        <ele>13.800000190735</ele>
        <time>2021-08-12T07:15:53.000Z</time>
      </trkpt>
      <trkpt lat="47.29005" lon="-2.37172">
        <ele>14.199999809265</ele>
        <time>2021-08-12T07:15:54.000Z</time>
      </trkpt>
      <trkpt lat="47.29009" lon="-2.37174">
        <ele>14.60000038147</ele>
        <time>2021-08-12T07:15:55.000Z</time>
      </trkpt>
      <trkpt lat="47.29013" lon="-2.37176">
        <ele>15</ele>
        <time>2021-08-12T07:15:56.000Z</time>
      </trkpt>
      <trkpt lat="47.29017" lon="-2.37179">
        <ele>15.60000038147</ele>
        <time>2021-08-12T07:15:57.000Z</time>
      </trkpt>
      <trkpt lat="47.2902" lon="-2.37184">
        <ele>16</ele>
        <time>2021-08-12T07:15:58.000Z</time>
      </trkpt>
      <trkpt lat="47.29023" lon="-2.37189">
        <ele>16.60000038147</ele>
        <time>2021-08-12T07:15:59.000Z</time>
      </trkpt>
      <trkpt lat="47.29027" lon="-2.37193">
        <ele>17</ele>
        <time>2021-08-12T07:16:00.000Z</time>
      </trkpt>
      <trkpt lat="47.29043" lon="-2.37212">
        <ele>17.39999961853</ele>
        <time>2021-08-12T07:16:05.000Z</time>
      </trkpt>
      <trkpt lat="47.29047" lon="-2.37217">
        <ele>17.799999237061</ele>
        <time>2021-08-12T07:16:06.000Z</time>
      </trkpt>
      <trkpt lat="47.29051" lon="-2.3722">
        <ele>18.200000762939</ele>
        <time>2021-08-12T07:16:07.000Z</time>
      </trkpt>
      <trkpt lat="47.29055" lon="-2.37223">
        <ele>18.799999237061</ele>
        <time>2021-08-12T07:16:08.000Z</time>
      </trkpt>
      <trkpt lat="47.29058" lon="-2.37227">
        <ele>19.200000762939</ele>
        <time>2021-08-12T07:16:09.000Z</time>
      </trkpt>
      <trkpt lat="47.29071" lon="-2.37242">
        <ele>19.200000762939</ele>
        <time>2021-08-12T07:16:13.000Z</time>
      </trkpt>
      <trkpt lat="47.2909" lon="-2.37261">
        <ele>19.60000038147</ele>
        <time>2021-08-12T07:16:18.000Z</time>
      </trkpt>
      <trkpt lat="47.29094" lon="-2.37265">
        <ele>20</ele>
        <time>2021-08-12T07:16:19.000Z</time>
      </trkpt>
      <trkpt lat="47.29098" lon="-2.37268">
        <ele>20.39999961853</ele>
        <time>2021-08-12T07:16:20.000Z</time>
      </trkpt>
      <trkpt lat="47.29102" lon="-2.37272">
        <ele>20.799999237061</ele>
        <time>2021-08-12T07:16:21.000Z</time>
      </trkpt>
      <trkpt lat="47.29105" lon="-2.37276">
        <ele>21.200000762939</ele>
        <time>2021-08-12T07:16:22.000Z</time>
      </trkpt>
      <trkpt lat="47.29128" lon="-2.37298">
        <ele>21.200000762939</ele>
        <time>2021-08-12T07:16:28.000Z</time>
      </trkpt>
      <trkpt lat="47.29156" lon="-2.37335">
        <ele>21.200000762939</ele>
        <time>2021-08-12T07:16:36.000Z</time>
      </trkpt>
      <trkpt lat="47.29158" lon="-2.37342">
        <ele>21.200000762939</ele>
        <time>2021-08-12T07:16:37.000Z</time>
      </trkpt>
      <trkpt lat="47.29169" lon="-2.37367">
        <ele>21.200000762939</ele>
        <time>2021-08-12T07:16:41.000Z</time>
      </trkpt>
      <trkpt lat="47.29175" lon="-2.37378">
        <ele>21.200000762939</ele>
        <time>2021-08-12T07:16:43.000Z</time>
      </trkpt>
      <trkpt lat="47.29185" lon="-2.37395">
        <ele>21.200000762939</ele>
        <time>2021-08-12T07:16:46.000Z</time>
      </trkpt>
      <trkpt lat="47.29216" lon="-2.37446">
        <ele>21.200000762939</ele>
        <time>2021-08-12T07:16:54.000Z</time>
      </trkpt>
      <trkpt lat="47.29247" lon="-2.37496">
        <ele>20.799999237061</ele>
        <time>2021-08-12T07:17:01.000Z</time>
      </trkpt>
      <trkpt lat="47.29251" lon="-2.37502">
        <ele>20.39999961853</ele>
        <time>2021-08-12T07:17:02.000Z</time>
      </trkpt>
      <trkpt lat="47.29257" lon="-2.37508">
        <ele>20</ele>
        <time>2021-08-12T07:17:03.000Z</time>
      </trkpt>
      <trkpt lat="47.29263" lon="-2.37514">
        <ele>19.60000038147</ele>
        <time>2021-08-12T07:17:04.000Z</time>
      </trkpt>
      <trkpt lat="47.29269" lon="-2.3752">
        <ele>19.200000762939</ele>
        <time>2021-08-12T07:17:05.000Z</time>
      </trkpt>
      <trkpt lat="47.29278" lon="-2.37535">
        <ele>19.200000762939</ele>
        <time>2021-08-12T07:17:07.000Z</time>
      </trkpt>
      <trkpt lat="47.2929" lon="-2.37561">
        <ele>19.200000762939</ele>
        <time>2021-08-12T07:17:10.000Z</time>
      </trkpt>
      <trkpt lat="47.29295" lon="-2.37568">
        <ele>19.200000762939</ele>
        <time>2021-08-12T07:17:11.000Z</time>
      </trkpt>
      <trkpt lat="47.29322" lon="-2.37612">
        <ele>19.200000762939</ele>
        <time>2021-08-12T07:17:18.000Z</time>
      </trkpt>
      <trkpt lat="47.29331" lon="-2.37634">
        <ele>19.200000762939</ele>
        <time>2021-08-12T07:17:21.000Z</time>
      </trkpt>
      <trkpt lat="47.29339" lon="-2.37658">
        <ele>19.200000762939</ele>
        <time>2021-08-12T07:17:24.000Z</time>
      </trkpt>
      <trkpt lat="47.2934" lon="-2.37666">
        <ele>19.200000762939</ele>
        <time>2021-08-12T07:17:25.000Z</time>
      </trkpt>
      <trkpt lat="47.29342" lon="-2.37685">
        <ele>19.200000762939</ele>
        <time>2021-08-12T07:17:27.000Z</time>
      </trkpt>
      <trkpt lat="47.29342" lon="-2.37706">
        <ele>19.200000762939</ele>
        <time>2021-08-12T07:17:29.000Z</time>
      </trkpt>
      <trkpt lat="47.29342" lon="-2.37717">
        <ele>18.200000762939</ele>
        <time>2021-08-12T07:17:30.000Z</time>
      </trkpt>
      <trkpt lat="47.29342" lon="-2.37729">
        <ele>17.799999237061</ele>
        <time>2021-08-12T07:17:31.000Z</time>
      </trkpt>
      <trkpt lat="47.29342" lon="-2.37741">
        <ele>17.200000762939</ele>
        <time>2021-08-12T07:17:32.000Z</time>
      </trkpt>
      <trkpt lat="47.29342" lon="-2.37753">
        <ele>16.799999237061</ele>
        <time>2021-08-12T07:17:33.000Z</time>
      </trkpt>
      <trkpt lat="47.29343" lon="-2.37778">
        <ele>16.39999961853</ele>
        <time>2021-08-12T07:17:35.000Z</time>
      </trkpt>
      <trkpt lat="47.29344" lon="-2.37791">
        <ele>15.800000190735</ele>
        <time>2021-08-12T07:17:36.000Z</time>
      </trkpt>
      <trkpt lat="47.29345" lon="-2.37805">
        <ele>15.39999961853</ele>
        <time>2021-08-12T07:17:37.000Z</time>
      </trkpt>
      <trkpt lat="47.29345" lon="-2.3782">
        <ele>15</ele>
        <time>2021-08-12T07:17:38.000Z</time>
      </trkpt>
      <trkpt lat="47.29346" lon="-2.37834">
        <ele>14.60000038147</ele>
        <time>2021-08-12T07:17:39.000Z</time>
      </trkpt>
      <trkpt lat="47.2935" lon="-2.37861">
        <ele>14.199999809265</ele>
        <time>2021-08-12T07:17:41.000Z</time>
      </trkpt>
      <trkpt lat="47.29352" lon="-2.37874">
        <ele>13.800000190735</ele>
        <time>2021-08-12T07:17:42.000Z</time>
      </trkpt>
      <trkpt lat="47.29356" lon="-2.37886">
        <ele>13.39999961853</ele>
        <time>2021-08-12T07:17:43.000Z</time>
      </trkpt>
      <trkpt lat="47.29359" lon="-2.37898">
        <ele>13</ele>
        <time>2021-08-12T07:17:44.000Z</time>
      </trkpt>
      <trkpt lat="47.29363" lon="-2.3791">
        <ele>12.60000038147</ele>
        <time>2021-08-12T07:17:45.000Z</time>
      </trkpt>
      <trkpt lat="47.29371" lon="-2.37934">
        <ele>12.60000038147</ele>
        <time>2021-08-12T07:17:47.000Z</time>
      </trkpt>
      <trkpt lat="47.29382" lon="-2.37967">
        <ele>12</ele>
        <time>2021-08-12T07:17:50.000Z</time>
      </trkpt>
      <trkpt lat="47.29385" lon="-2.37978">
        <ele>11.60000038147</ele>
        <time>2021-08-12T07:17:51.000Z</time>
      </trkpt>
      <trkpt lat="47.29389" lon="-2.37988">
        <ele>11</ele>
        <time>2021-08-12T07:17:52.000Z</time>
      </trkpt>
      <trkpt lat="47.29393" lon="-2.37999">
        <ele>10.60000038147</ele>
        <time>2021-08-12T07:17:53.000Z</time>
      </trkpt>
      <trkpt lat="47.29397" lon="-2.3801">
        <ele>10.199999809265</ele>
        <time>2021-08-12T07:17:54.000Z</time>
      </trkpt>
      <trkpt lat="47.29401" lon="-2.3802">
        <ele>10.199999809265</ele>
        <time>2021-08-12T07:17:55.000Z</time>
      </trkpt>
      <trkpt lat="47.29404" lon="-2.38031">
        <ele>9.6000003814697</ele>
        <time>2021-08-12T07:17:56.000Z</time>
      </trkpt>
      <trkpt lat="47.29408" lon="-2.38042">
        <ele>9.1999998092651</ele>
        <time>2021-08-12T07:17:57.000Z</time>
      </trkpt>
      <trkpt lat="47.29412" lon="-2.38052">
        <ele>8.8000001907349</ele>
        <time>2021-08-12T07:17:58.000Z</time>
      </trkpt>
      <trkpt lat="47.29415" lon="-2.38062">
        <ele>8.3999996185303</ele>
        <time>2021-08-12T07:17:59.000Z</time>
      </trkpt>
      <trkpt lat="47.29419" lon="-2.38072">
        <ele>8</ele>
        <time>2021-08-12T07:18:00.000Z</time>
      </trkpt>
      <trkpt lat="47.29426" lon="-2.38092">
        <ele>8</ele>
        <time>2021-08-12T07:18:02.000Z</time>
      </trkpt>
      <trkpt lat="47.29452" lon="-2.38168">
        <ele>8</ele>
        <time>2021-08-12T07:18:10.000Z</time>
      </trkpt>
      <trkpt lat="47.29457" lon="-2.38219">
        <ele>8</ele>
        <time>2021-08-12T07:18:15.000Z</time>
      </trkpt>
      <trkpt lat="47.2946" lon="-2.38298">
        <ele>8</ele>
        <time>2021-08-12T07:18:23.000Z</time>
      </trkpt>
      <trkpt lat="47.29457" lon="-2.38379">
        <ele>8</ele>
        <time>2021-08-12T07:18:30.000Z</time>
      </trkpt>
      <trkpt lat="47.29461" lon="-2.38468">
        <ele>8</ele>
        <time>2021-08-12T07:18:38.000Z</time>
      </trkpt>
      <trkpt lat="47.29463" lon="-2.38528">
        <ele>8</ele>
        <time>2021-08-12T07:18:44.000Z</time>
      </trkpt>
      <trkpt lat="47.29465" lon="-2.38585">
        <ele>8</ele>
        <time>2021-08-12T07:18:50.000Z</time>
      </trkpt>
      <trkpt lat="47.29466" lon="-2.3866">
        <ele>8</ele>
        <time>2021-08-12T07:18:58.000Z</time>
      </trkpt>
      <trkpt lat="47.29472" lon="-2.38713">
        <ele>8</ele>
        <time>2021-08-12T07:19:04.000Z</time>
      </trkpt>
      <trkpt lat="47.29474" lon="-2.38784">
        <ele>8</ele>
        <time>2021-08-12T07:19:12.000Z</time>
      </trkpt>
      <trkpt lat="47.29478" lon="-2.38835">
        <ele>8</ele>
        <time>2021-08-12T07:19:18.000Z</time>
      </trkpt>
      <trkpt lat="47.29479" lon="-2.38843">
        <ele>8</ele>
        <time>2021-08-12T07:19:19.000Z</time>
      </trkpt>
      <trkpt lat="47.29493" lon="-2.38898">
        <ele>8</ele>
        <time>2021-08-12T07:19:26.000Z</time>
      </trkpt>
      <trkpt lat="47.29515" lon="-2.38949">
        <ele>8</ele>
        <time>2021-08-12T07:19:33.000Z</time>
      </trkpt>
      <trkpt lat="47.29535" lon="-2.38969">
        <ele>8</ele>
        <time>2021-08-12T07:19:37.000Z</time>
      </trkpt>
      <trkpt lat="47.2954" lon="-2.38973">
        <ele>8</ele>
        <time>2021-08-12T07:19:38.000Z</time>
      </trkpt>
      <trkpt lat="47.29574" lon="-2.3899">
        <ele>8</ele>
        <time>2021-08-12T07:19:44.000Z</time>
      </trkpt>
      <trkpt lat="47.29606" lon="-2.39004">
        <ele>8</ele>
        <time>2021-08-12T07:19:50.000Z</time>
      </trkpt>
      <trkpt lat="47.29618" lon="-2.39011">
        <ele>8</ele>
        <time>2021-08-12T07:19:53.000Z</time>
      </trkpt>
      <trkpt lat="47.29624" lon="-2.39021">
        <ele>8</ele>
        <time>2021-08-12T07:19:55.000Z</time>
      </trkpt>
      <trkpt lat="47.29629" lon="-2.39039">
        <ele>8</ele>
        <time>2021-08-12T07:19:58.000Z</time>
      </trkpt>
      <trkpt lat="47.29631" lon="-2.39046">
        <ele>8</ele>
        <time>2021-08-12T07:19:59.000Z</time>
      </trkpt>
      <trkpt lat="47.29632" lon="-2.39084">
        <ele>8</ele>
        <time>2021-08-12T07:20:03.000Z</time>
      </trkpt>
      <trkpt lat="47.29637" lon="-2.39147">
        <ele>8</ele>
        <time>2021-08-12T07:20:09.000Z</time>
      </trkpt>
      <trkpt lat="47.29646" lon="-2.39176">
        <ele>8</ele>
        <time>2021-08-12T07:20:12.000Z</time>
      </trkpt>
      <trkpt lat="47.2965" lon="-2.39183">
        <ele>8</ele>
        <time>2021-08-12T07:20:13.000Z</time>
      </trkpt>
      <trkpt lat="47.29662" lon="-2.39198">
        <ele>8</ele>
        <time>2021-08-12T07:20:16.000Z</time>
      </trkpt>
      <trkpt lat="47.29663" lon="-2.39204">
        <ele>8</ele>
        <time>2021-08-12T07:20:17.000Z</time>
      </trkpt>
      <trkpt lat="47.2966" lon="-2.3922">
        <ele>8</ele>
        <time>2021-08-12T07:20:20.000Z</time>
      </trkpt>
      <trkpt lat="47.29658" lon="-2.39227">
        <ele>8</ele>
        <time>2021-08-12T07:20:21.000Z</time>
      </trkpt>
      <trkpt lat="47.29656" lon="-2.39235">
        <ele>8</ele>
        <time>2021-08-12T07:20:22.000Z</time>
      </trkpt>
      <trkpt lat="47.29652" lon="-2.39255">
        <ele>8</ele>
        <time>2021-08-12T07:20:24.000Z</time>
      </trkpt>
      <trkpt lat="47.29645" lon="-2.39325">
        <ele>8</ele>
        <time>2021-08-12T07:20:31.000Z</time>
      </trkpt>
      <trkpt lat="47.29641" lon="-2.39387">
        <ele>8</ele>
        <time>2021-08-12T07:20:38.000Z</time>
      </trkpt>
      <trkpt lat="47.29639" lon="-2.39395">
        <ele>8</ele>
        <time>2021-08-12T07:20:39.000Z</time>
      </trkpt>
      <trkpt lat="47.29634" lon="-2.39408">
        <ele>8</ele>
        <time>2021-08-12T07:20:41.000Z</time>
      </trkpt>
      <trkpt lat="47.29628" lon="-2.3944">
        <ele>8</ele>
        <time>2021-08-12T07:20:45.000Z</time>
      </trkpt>
      <trkpt lat="47.29616" lon="-2.39458">
        <ele>8</ele>
        <time>2021-08-12T07:20:48.000Z</time>
      </trkpt>
      <trkpt lat="47.29612" lon="-2.39465">
        <ele>8</ele>
        <time>2021-08-12T07:20:49.000Z</time>
      </trkpt>
      <trkpt lat="47.296" lon="-2.39485">
        <ele>7.4000000953674</ele>
        <time>2021-08-12T07:20:52.000Z</time>
      </trkpt>
      <trkpt lat="47.29596" lon="-2.39491">
        <ele>7</ele>
        <time>2021-08-12T07:20:53.000Z</time>
      </trkpt>
      <trkpt lat="47.29591" lon="-2.39496">
        <ele>6.5999999046326</ele>
        <time>2021-08-12T07:20:54.000Z</time>
      </trkpt>
      <trkpt lat="47.29586" lon="-2.39498">
        <ele>6.1999998092651</ele>
        <time>2021-08-12T07:20:55.000Z</time>
      </trkpt>
      <trkpt lat="47.29579" lon="-2.39498">
        <ele>5.8000001907349</ele>
        <time>2021-08-12T07:20:56.000Z</time>
      </trkpt>
      <trkpt lat="47.2957" lon="-2.39493">
        <ele>5.8000001907349</ele>
        <time>2021-08-12T07:20:58.000Z</time>
      </trkpt>
      <trkpt lat="47.29566" lon="-2.39491">
        <ele>5.8000001907349</ele>
        <time>2021-08-12T07:20:59.000Z</time>
      </trkpt>
      <trkpt lat="47.29561" lon="-2.39492">
        <ele>5.8000001907349</ele>
        <time>2021-08-12T07:21:00.000Z</time>
      </trkpt>
      <trkpt lat="47.29555" lon="-2.39501">
        <ele>5.8000001907349</ele>
        <time>2021-08-12T07:21:02.000Z</time>
      </trkpt>
      <trkpt lat="47.29553" lon="-2.39508">
        <ele>5.8000001907349</ele>
        <time>2021-08-12T07:21:05.000Z</time>
      </trkpt>
      <trkpt lat="47.29553" lon="-2.39514">
        <ele>5.8000001907349</ele>
        <time>2021-08-12T07:21:07.000Z</time>
      </trkpt>
      <trkpt lat="47.29554" lon="-2.3952">
        <ele>5.8000001907349</ele>
        <time>2021-08-12T07:21:09.000Z</time>
      </trkpt>
      <trkpt lat="47.29555" lon="-2.39528">
        <ele>6.8000001907349</ele>
        <time>2021-08-12T07:21:12.000Z</time>
      </trkpt>
      <trkpt lat="47.29555" lon="-2.3953">
        <ele>7.1999998092651</ele>
        <time>2021-08-12T07:21:13.000Z</time>
      </trkpt>
      <trkpt lat="47.29555" lon="-2.39533">
        <ele>7.5999999046326</ele>
        <time>2021-08-12T07:21:14.000Z</time>
      </trkpt>
      <trkpt lat="47.29555" lon="-2.39536">
        <ele>8</ele>
        <time>2021-08-12T07:21:15.000Z</time>
      </trkpt>
      <trkpt lat="47.29561" lon="-2.39547">
        <ele>8</ele>
        <time>2021-08-12T07:21:19.000Z</time>
      </trkpt>
      <trkpt lat="47.29564" lon="-2.39546">
        <ele>8.6000003814697</ele>
        <time>2021-08-12T07:21:20.000Z</time>
      </trkpt>
      <trkpt lat="47.29568" lon="-2.39545">
        <ele>9</ele>
        <time>2021-08-12T07:21:21.000Z</time>
      </trkpt>
      <trkpt lat="47.29571" lon="-2.39546">
        <ele>9.3999996185303</ele>
        <time>2021-08-12T07:21:22.000Z</time>
      </trkpt>
      <trkpt lat="47.29575" lon="-2.39547">
        <ele>9.8000001907349</ele>
        <time>2021-08-12T07:21:23.000Z</time>
      </trkpt>
      <trkpt lat="47.29578" lon="-2.39547">
        <ele>10.199999809265</ele>
        <time>2021-08-12T07:21:24.000Z</time>
      </trkpt>
      <trkpt lat="47.29589" lon="-2.39548">
        <ele>10.60000038147</ele>
        <time>2021-08-12T07:21:27.000Z</time>
      </trkpt>
      <trkpt lat="47.29593" lon="-2.39548">
        <ele>11</ele>
        <time>2021-08-12T07:21:28.000Z</time>
      </trkpt>
      <trkpt lat="47.29597" lon="-2.39549">
        <ele>11.60000038147</ele>
        <time>2021-08-12T07:21:29.000Z</time>
      </trkpt>
      <trkpt lat="47.29601" lon="-2.39549">
        <ele>12</ele>
        <time>2021-08-12T07:21:30.000Z</time>
      </trkpt>
      <trkpt lat="47.29606" lon="-2.39549">
        <ele>12.39999961853</ele>
        <time>2021-08-12T07:21:31.000Z</time>
      </trkpt>
      <trkpt lat="47.29621" lon="-2.39551">
        <ele>12.39999961853</ele>
        <time>2021-08-12T07:21:34.000Z</time>
      </trkpt>
      <trkpt lat="47.29623" lon="-2.39556">
        <ele>12.39999961853</ele>
        <time>2021-08-12T07:21:36.000Z</time>
      </trkpt>
      <trkpt lat="47.29621" lon="-2.39559">
        <ele>12</ele>
        <time>2021-08-12T07:21:37.000Z</time>
      </trkpt>
      <trkpt lat="47.29618" lon="-2.3956">
        <ele>11.60000038147</ele>
        <time>2021-08-12T07:21:38.000Z</time>
      </trkpt>
      <trkpt lat="47.29613" lon="-2.39561">
        <ele>11.199999809265</ele>
        <time>2021-08-12T07:21:39.000Z</time>
      </trkpt>
      <trkpt lat="47.2961" lon="-2.39563">
        <ele>10.60000038147</ele>
        <time>2021-08-12T07:21:40.000Z</time>
      </trkpt>
      <trkpt lat="47.29609" lon="-2.39567">
        <ele>10.199999809265</ele>
        <time>2021-08-12T07:21:41.000Z</time>
      </trkpt>
      <trkpt lat="47.29611" lon="-2.39572">
        <ele>10.199999809265</ele>
        <time>2021-08-12T07:21:42.000Z</time>
      </trkpt>
      <trkpt lat="47.29615" lon="-2.39578">
        <ele>9.8000001907349</ele>
        <time>2021-08-12T07:21:44.000Z</time>
      </trkpt>
      <trkpt lat="47.29617" lon="-2.39579">
        <ele>9.3999996185303</ele>
        <time>2021-08-12T07:21:45.000Z</time>
      </trkpt>
      <trkpt lat="47.29621" lon="-2.3958">
        <ele>9</ele>
        <time>2021-08-12T07:21:46.000Z</time>
      </trkpt>
      <trkpt lat="47.29623" lon="-2.39585">
        <ele>8.6000003814697</ele>
        <time>2021-08-12T07:21:47.000Z</time>
      </trkpt>
      <trkpt lat="47.29625" lon="-2.39591">
        <ele>8.1999998092651</ele>
        <time>2021-08-12T07:21:48.000Z</time>
      </trkpt>
      <trkpt lat="47.29626" lon="-2.39597">
        <ele>8.1999998092651</ele>
        <time>2021-08-12T07:21:49.000Z</time>
      </trkpt>
      <trkpt lat="47.29626" lon="-2.39602">
        <ele>8.1999998092651</ele>
        <time>2021-08-12T07:21:50.000Z</time>
      </trkpt>
      <trkpt lat="47.29629" lon="-2.39623">
        <ele>8.1999998092651</ele>
        <time>2021-08-12T07:21:53.000Z</time>
      </trkpt>
      <trkpt lat="47.29627" lon="-2.39643">
        <ele>8.1999998092651</ele>
        <time>2021-08-12T07:21:55.000Z</time>
      </trkpt>
      <trkpt lat="47.29616" lon="-2.39667">
        <ele>8.1999998092651</ele>
        <time>2021-08-12T07:21:58.000Z</time>
      </trkpt>
      <trkpt lat="47.29612" lon="-2.39675">
        <ele>8.1999998092651</ele>
        <time>2021-08-12T07:21:59.000Z</time>
      </trkpt>
      <trkpt lat="47.29588" lon="-2.39718">
        <ele>8.1999998092651</ele>
        <time>2021-08-12T07:22:04.000Z</time>
      </trkpt>
      <trkpt lat="47.29583" lon="-2.39726">
        <ele>8.1999998092651</ele>
        <time>2021-08-12T07:22:05.000Z</time>
      </trkpt>
      <trkpt lat="47.29551" lon="-2.39797">
        <ele>8.1999998092651</ele>
        <time>2021-08-12T07:22:13.000Z</time>
      </trkpt>
      <trkpt lat="47.29527" lon="-2.39847">
        <ele>8.1999998092651</ele>
        <time>2021-08-12T07:22:19.000Z</time>
      </trkpt>
      <trkpt lat="47.29506" lon="-2.3989">
        <ele>8.1999998092651</ele>
        <time>2021-08-12T07:22:25.000Z</time>
      </trkpt>
      <trkpt lat="47.29494" lon="-2.39904">
        <ele>8.1999998092651</ele>
        <time>2021-08-12T07:22:28.000Z</time>
      </trkpt>
      <trkpt lat="47.29489" lon="-2.3991">
        <ele>8.1999998092651</ele>
        <time>2021-08-12T07:22:30.000Z</time>
      </trkpt>
      <trkpt lat="47.29487" lon="-2.39912">
        <ele>8.1999998092651</ele>
        <time>2021-08-12T07:22:34.000Z</time>
      </trkpt>
      <trkpt lat="47.29487" lon="-2.39914">
        <ele>8.1999998092651</ele>
        <time>2021-08-12T07:22:41.000Z</time>
      </trkpt>
      <trkpt lat="47.29485" lon="-2.39921">
        <ele>8.1999998092651</ele>
        <time>2021-08-12T07:22:43.000Z</time>
      </trkpt>
      <trkpt lat="47.29478" lon="-2.39943">
        <ele>8.1999998092651</ele>
        <time>2021-08-12T07:22:47.000Z</time>
      </trkpt>
      <trkpt lat="47.29463" lon="-2.39983">
        <ele>8.1999998092651</ele>
        <time>2021-08-12T07:22:52.000Z</time>
      </trkpt>
      <trkpt lat="47.29461" lon="-2.39993">
        <ele>8.1999998092651</ele>
        <time>2021-08-12T07:22:53.000Z</time>
      </trkpt>
      <trkpt lat="47.29459" lon="-2.40024">
        <ele>8.1999998092651</ele>
        <time>2021-08-12T07:22:56.000Z</time>
      </trkpt>
      <trkpt lat="47.2946" lon="-2.40077">
        <ele>8.1999998092651</ele>
        <time>2021-08-12T07:23:01.000Z</time>
      </trkpt>
      <trkpt lat="47.29459" lon="-2.40098">
        <ele>8.1999998092651</ele>
        <time>2021-08-12T07:23:03.000Z</time>
      </trkpt>
      <trkpt lat="47.29454" lon="-2.40129">
        <ele>8.1999998092651</ele>
        <time>2021-08-12T07:23:06.000Z</time>
      </trkpt>
      <trkpt lat="47.29452" lon="-2.40171">
        <ele>8.1999998092651</ele>
        <time>2021-08-12T07:23:10.000Z</time>
      </trkpt>
      <trkpt lat="47.2945" lon="-2.40182">
        <ele>8.1999998092651</ele>
        <time>2021-08-12T07:23:11.000Z</time>
      </trkpt>
      <trkpt lat="47.29442" lon="-2.4022">
        <ele>8.1999998092651</ele>
        <time>2021-08-12T07:23:15.000Z</time>
      </trkpt>
      <trkpt lat="47.29432" lon="-2.40221">
        <ele>8.1999998092651</ele>
        <time>2021-08-12T07:23:17.000Z</time>
      </trkpt>
      <trkpt lat="47.29416" lon="-2.40224">
        <ele>8.1999998092651</ele>
        <time>2021-08-12T07:23:20.000Z</time>
      </trkpt>
      <trkpt lat="47.29399" lon="-2.40233">
        <ele>8.1999998092651</ele>
        <time>2021-08-12T07:23:23.000Z</time>
      </trkpt>
      <trkpt lat="47.29393" lon="-2.40237">
        <ele>8.1999998092651</ele>
        <time>2021-08-12T07:23:24.000Z</time>
      </trkpt>
      <trkpt lat="47.29364" lon="-2.4026">
        <ele>8.1999998092651</ele>
        <time>2021-08-12T07:23:29.000Z</time>
      </trkpt>
      <trkpt lat="47.29358" lon="-2.40266">
        <ele>8.1999998092651</ele>
        <time>2021-08-12T07:23:30.000Z</time>
      </trkpt>
      <trkpt lat="47.29346" lon="-2.40277">
        <ele>8.1999998092651</ele>
        <time>2021-08-12T07:23:32.000Z</time>
      </trkpt>
      <trkpt lat="47.29328" lon="-2.40294">
        <ele>8.1999998092651</ele>
        <time>2021-08-12T07:23:35.000Z</time>
      </trkpt>
      <trkpt lat="47.29323" lon="-2.40301">
        <ele>8.1999998092651</ele>
        <time>2021-08-12T07:23:36.000Z</time>
      </trkpt>
      <trkpt lat="47.29307" lon="-2.4032">
        <ele>8.1999998092651</ele>
        <time>2021-08-12T07:23:39.000Z</time>
      </trkpt>
      <trkpt lat="47.29287" lon="-2.40341">
        <ele>8.1999998092651</ele>
        <time>2021-08-12T07:23:43.000Z</time>
      </trkpt>
      <trkpt lat="47.29285" lon="-2.4035">
        <ele>8.1999998092651</ele>
        <time>2021-08-12T07:23:44.000Z</time>
      </trkpt>
      <trkpt lat="47.29287" lon="-2.40368">
        <ele>8.1999998092651</ele>
        <time>2021-08-12T07:23:46.000Z</time>
      </trkpt>
      <trkpt lat="47.29299" lon="-2.40392">
        <ele>8.1999998092651</ele>
        <time>2021-08-12T07:23:49.000Z</time>
      </trkpt>
      <trkpt lat="47.29303" lon="-2.404">
        <ele>7.8000001907349</ele>
        <time>2021-08-12T07:23:50.000Z</time>
      </trkpt>
      <trkpt lat="47.29307" lon="-2.40408">
        <ele>7.4000000953674</ele>
        <time>2021-08-12T07:23:51.000Z</time>
      </trkpt>
      <trkpt lat="47.29307" lon="-2.40418">
        <ele>7</ele>
        <time>2021-08-12T07:23:52.000Z</time>
      </trkpt>
      <trkpt lat="47.29303" lon="-2.40425">
        <ele>6.5999999046326</ele>
        <time>2021-08-12T07:23:53.000Z</time>
      </trkpt>
      <trkpt lat="47.293" lon="-2.40433">
        <ele>6.1999998092651</ele>
        <time>2021-08-12T07:23:54.000Z</time>
      </trkpt>
      <trkpt lat="47.2929" lon="-2.40458">
        <ele>6.1999998092651</ele>
        <time>2021-08-12T07:23:57.000Z</time>
      </trkpt>
      <trkpt lat="47.29286" lon="-2.40464">
        <ele>6.1999998092651</ele>
        <time>2021-08-12T07:23:58.000Z</time>
      </trkpt>
      <trkpt lat="47.29267" lon="-2.40474">
        <ele>6.1999998092651</ele>
        <time>2021-08-12T07:24:01.000Z</time>
      </trkpt>
      <trkpt lat="47.29241" lon="-2.40485">
        <ele>6.1999998092651</ele>
        <time>2021-08-12T07:24:05.000Z</time>
      </trkpt>
      <trkpt lat="47.292" lon="-2.40511">
        <ele>6.1999998092651</ele>
        <time>2021-08-12T07:24:12.000Z</time>
      </trkpt>
      <trkpt lat="47.29172" lon="-2.4052">
        <ele>6.1999998092651</ele>
        <time>2021-08-12T07:24:17.000Z</time>
      </trkpt>
      <trkpt lat="47.29164" lon="-2.40507">
        <ele>6.1999998092651</ele>
        <time>2021-08-12T07:24:19.000Z</time>
      </trkpt>
      <trkpt lat="47.29155" lon="-2.40488">
        <ele>6.1999998092651</ele>
        <time>2021-08-12T07:24:22.000Z</time>
      </trkpt>
      <trkpt lat="47.2914" lon="-2.40484">
        <ele>6.1999998092651</ele>
        <time>2021-08-12T07:24:25.000Z</time>
      </trkpt>
      <trkpt lat="47.29123" lon="-2.40494">
        <ele>6.1999998092651</ele>
        <time>2021-08-12T07:24:28.000Z</time>
      </trkpt>
      <trkpt lat="47.29117" lon="-2.40498">
        <ele>6.1999998092651</ele>
        <time>2021-08-12T07:24:29.000Z</time>
      </trkpt>
      <trkpt lat="47.29112" lon="-2.40503">
        <ele>6.1999998092651</ele>
        <time>2021-08-12T07:24:30.000Z</time>
      </trkpt>
      <trkpt lat="47.29101" lon="-2.40527">
        <ele>6.1999998092651</ele>
        <time>2021-08-12T07:24:33.000Z</time>
      </trkpt>
      <trkpt lat="47.29106" lon="-2.40553">
        <ele>6.1999998092651</ele>
        <time>2021-08-12T07:24:36.000Z</time>
      </trkpt>
      <trkpt lat="47.2912" lon="-2.40569">
        <ele>6.1999998092651</ele>
        <time>2021-08-12T07:24:39.000Z</time>
      </trkpt>
      <trkpt lat="47.29129" lon="-2.40583">
        <ele>6.1999998092651</ele>
        <time>2021-08-12T07:24:41.000Z</time>
      </trkpt>
      <trkpt lat="47.29137" lon="-2.40598">
        <ele>6.1999998092651</ele>
        <time>2021-08-12T07:24:43.000Z</time>
      </trkpt>
      <trkpt lat="47.2914" lon="-2.40606">
        <ele>6.1999998092651</ele>
        <time>2021-08-12T07:24:44.000Z</time>
      </trkpt>
      <trkpt lat="47.29143" lon="-2.4064">
        <ele>6.1999998092651</ele>
        <time>2021-08-12T07:24:48.000Z</time>
      </trkpt>
      <trkpt lat="47.29145" lon="-2.40646">
        <ele>6.1999998092651</ele>
        <time>2021-08-12T07:24:49.000Z</time>
      </trkpt>
      <trkpt lat="47.29155" lon="-2.40647">
        <ele>6.1999998092651</ele>
        <time>2021-08-12T07:24:51.000Z</time>
      </trkpt>
      <trkpt lat="47.29169" lon="-2.40636">
        <ele>6.1999998092651</ele>
        <time>2021-08-12T07:24:54.000Z</time>
      </trkpt>
      <trkpt lat="47.29204" lon="-2.40613">
        <ele>6.1999998092651</ele>
        <time>2021-08-12T07:25:01.000Z</time>
      </trkpt>
      <trkpt lat="47.29215" lon="-2.40623">
        <ele>6.1999998092651</ele>
        <time>2021-08-12T07:25:03.000Z</time>
      </trkpt>
      <trkpt lat="47.29231" lon="-2.40653">
        <ele>6.1999998092651</ele>
        <time>2021-08-12T07:25:07.000Z</time>
      </trkpt>
      <trkpt lat="47.29233" lon="-2.40661">
        <ele>6.1999998092651</ele>
        <time>2021-08-12T07:25:08.000Z</time>
      </trkpt>
      <trkpt lat="47.29234" lon="-2.40687">
        <ele>6.1999998092651</ele>
        <time>2021-08-12T07:25:11.000Z</time>
      </trkpt>
      <trkpt lat="47.29228" lon="-2.40702">
        <ele>6.1999998092651</ele>
        <time>2021-08-12T07:25:13.000Z</time>
      </trkpt>
      <trkpt lat="47.29225" lon="-2.40709">
        <ele>6.1999998092651</ele>
        <time>2021-08-12T07:25:14.000Z</time>
      </trkpt>
      <trkpt lat="47.29202" lon="-2.40743">
        <ele>6.1999998092651</ele>
        <time>2021-08-12T07:25:19.000Z</time>
      </trkpt>
      <trkpt lat="47.29197" lon="-2.40752">
        <ele>6.1999998092651</ele>
        <time>2021-08-12T07:25:20.000Z</time>
      </trkpt>
      <trkpt lat="47.29189" lon="-2.40769">
        <ele>6.1999998092651</ele>
        <time>2021-08-12T07:25:22.000Z</time>
      </trkpt>
      <trkpt lat="47.29186" lon="-2.40777">
        <ele>6.1999998092651</ele>
        <time>2021-08-12T07:25:23.000Z</time>
      </trkpt>
      <trkpt lat="47.29173" lon="-2.40813">
        <ele>6.1999998092651</ele>
        <time>2021-08-12T07:25:27.000Z</time>
      </trkpt>
      <trkpt lat="47.29171" lon="-2.40834">
        <ele>6.1999998092651</ele>
        <time>2021-08-12T07:25:29.000Z</time>
      </trkpt>
      <trkpt lat="47.29174" lon="-2.40863">
        <ele>6.1999998092651</ele>
        <time>2021-08-12T07:25:32.000Z</time>
      </trkpt>
      <trkpt lat="47.29171" lon="-2.40874">
        <ele>6.1999998092651</ele>
        <time>2021-08-12T07:25:33.000Z</time>
      </trkpt>
      <trkpt lat="47.29162" lon="-2.40911">
        <ele>6.1999998092651</ele>
        <time>2021-08-12T07:25:37.000Z</time>
      </trkpt>
      <trkpt lat="47.29162" lon="-2.40931">
        <ele>6.1999998092651</ele>
        <time>2021-08-12T07:25:39.000Z</time>
      </trkpt>
      <trkpt lat="47.29171" lon="-2.40947">
        <ele>6.1999998092651</ele>
        <time>2021-08-12T07:25:41.000Z</time>
      </trkpt>
      <trkpt lat="47.29184" lon="-2.40952">
        <ele>6.1999998092651</ele>
        <time>2021-08-12T07:25:43.000Z</time>
      </trkpt>
      <trkpt lat="47.29191" lon="-2.40952">
        <ele>6.1999998092651</ele>
        <time>2021-08-12T07:25:44.000Z</time>
      </trkpt>
      <trkpt lat="47.29205" lon="-2.40956">
        <ele>6.1999998092651</ele>
        <time>2021-08-12T07:25:46.000Z</time>
      </trkpt>
      <trkpt lat="47.29215" lon="-2.40969">
        <ele>6.1999998092651</ele>
        <time>2021-08-12T07:25:48.000Z</time>
      </trkpt>
      <trkpt lat="47.29226" lon="-2.40996">
        <ele>6.1999998092651</ele>
        <time>2021-08-12T07:25:51.000Z</time>
      </trkpt>
      <trkpt lat="47.29243" lon="-2.41029">
        <ele>6.1999998092651</ele>
        <time>2021-08-12T07:25:55.000Z</time>
      </trkpt>
      <trkpt lat="47.29248" lon="-2.41034">
        <ele>6.1999998092651</ele>
        <time>2021-08-12T07:25:56.000Z</time>
      </trkpt>
      <trkpt lat="47.29257" lon="-2.41058">
        <ele>6.1999998092651</ele>
        <time>2021-08-12T07:25:59.000Z</time>
      </trkpt>
      <trkpt lat="47.29253" lon="-2.41065">
        <ele>6.1999998092651</ele>
        <time>2021-08-12T07:26:00.000Z</time>
      </trkpt>
      <trkpt lat="47.29249" lon="-2.41072">
        <ele>6.1999998092651</ele>
        <time>2021-08-12T07:26:01.000Z</time>
      </trkpt>
      <trkpt lat="47.29248" lon="-2.41082">
        <ele>6.1999998092651</ele>
        <time>2021-08-12T07:26:02.000Z</time>
      </trkpt>
      <trkpt lat="47.29249" lon="-2.4109">
        <ele>6.1999998092651</ele>
        <time>2021-08-12T07:26:03.000Z</time>
      </trkpt>
      <trkpt lat="47.29261" lon="-2.41112">
        <ele>6.1999998092651</ele>
        <time>2021-08-12T07:26:06.000Z</time>
      </trkpt>
      <trkpt lat="47.29287" lon="-2.41145">
        <ele>6.1999998092651</ele>
        <time>2021-08-12T07:26:11.000Z</time>
      </trkpt>
      <trkpt lat="47.29292" lon="-2.41154">
        <ele>6.1999998092651</ele>
        <time>2021-08-12T07:26:12.000Z</time>
      </trkpt>
      <trkpt lat="47.29302" lon="-2.41179">
        <ele>6.1999998092651</ele>
        <time>2021-08-12T07:26:15.000Z</time>
      </trkpt>
      <trkpt lat="47.29305" lon="-2.41187">
        <ele>6.1999998092651</ele>
        <time>2021-08-12T07:26:16.000Z</time>
      </trkpt>
      <trkpt lat="47.29309" lon="-2.41195">
        <ele>6.1999998092651</ele>
        <time>2021-08-12T07:26:17.000Z</time>
      </trkpt>
      <trkpt lat="47.29321" lon="-2.4121">
        <ele>6.1999998092651</ele>
        <time>2021-08-12T07:26:19.000Z</time>
      </trkpt>
      <trkpt lat="47.29354" lon="-2.41251">
        <ele>6.1999998092651</ele>
        <time>2021-08-12T07:26:25.000Z</time>
      </trkpt>
      <trkpt lat="47.29357" lon="-2.41261">
        <ele>6.1999998092651</ele>
        <time>2021-08-12T07:26:26.000Z</time>
      </trkpt>
      <trkpt lat="47.29361" lon="-2.41299">
        <ele>6.1999998092651</ele>
        <time>2021-08-12T07:26:30.000Z</time>
      </trkpt>
      <trkpt lat="47.29359" lon="-2.41315">
        <ele>6.1999998092651</ele>
        <time>2021-08-12T07:26:32.000Z</time>
      </trkpt>
      <trkpt lat="47.29352" lon="-2.41331">
        <ele>6.1999998092651</ele>
        <time>2021-08-12T07:26:34.000Z</time>
      </trkpt>
      <trkpt lat="47.29353" lon="-2.41357">
        <ele>6.1999998092651</ele>
        <time>2021-08-12T07:26:37.000Z</time>
      </trkpt>
      <trkpt lat="47.2936" lon="-2.41372">
        <ele>6.1999998092651</ele>
        <time>2021-08-12T07:26:39.000Z</time>
      </trkpt>
      <trkpt lat="47.29364" lon="-2.41378">
        <ele>6.1999998092651</ele>
        <time>2021-08-12T07:26:40.000Z</time>
      </trkpt>
      <trkpt lat="47.29369" lon="-2.41384">
        <ele>6.1999998092651</ele>
        <time>2021-08-12T07:26:41.000Z</time>
      </trkpt>
      <trkpt lat="47.29393" lon="-2.41429">
        <ele>6.1999998092651</ele>
        <time>2021-08-12T07:26:47.000Z</time>
      </trkpt>
      <trkpt lat="47.29413" lon="-2.41466">
        <ele>6.1999998092651</ele>
        <time>2021-08-12T07:26:52.000Z</time>
      </trkpt>
      <trkpt lat="47.29428" lon="-2.41484">
        <ele>6.1999998092651</ele>
        <time>2021-08-12T07:26:55.000Z</time>
      </trkpt>
      <trkpt lat="47.29439" lon="-2.41491">
        <ele>6.1999998092651</ele>
        <time>2021-08-12T07:26:57.000Z</time>
      </trkpt>
      <trkpt lat="47.29462" lon="-2.4149">
        <ele>6.1999998092651</ele>
        <time>2021-08-12T07:27:01.000Z</time>
      </trkpt>
      <trkpt lat="47.29469" lon="-2.41489">
        <ele>6.1999998092651</ele>
        <time>2021-08-12T07:27:02.000Z</time>
      </trkpt>
      <trkpt lat="47.29481" lon="-2.41491">
        <ele>6.1999998092651</ele>
        <time>2021-08-12T07:27:04.000Z</time>
      </trkpt>
      <trkpt lat="47.29504" lon="-2.41484">
        <ele>6.1999998092651</ele>
        <time>2021-08-12T07:27:08.000Z</time>
      </trkpt>
      <trkpt lat="47.29522" lon="-2.41489">
        <ele>6.1999998092651</ele>
        <time>2021-08-12T07:27:11.000Z</time>
      </trkpt>
      <trkpt lat="47.29538" lon="-2.41516">
        <ele>6.1999998092651</ele>
        <time>2021-08-12T07:27:15.000Z</time>
      </trkpt>
      <trkpt lat="47.29543" lon="-2.41531">
        <ele>6.1999998092651</ele>
        <time>2021-08-12T07:27:17.000Z</time>
      </trkpt>
      <trkpt lat="47.29544" lon="-2.41547">
        <ele>6.1999998092651</ele>
        <time>2021-08-12T07:27:19.000Z</time>
      </trkpt>
      <trkpt lat="47.29539" lon="-2.41563">
        <ele>6.1999998092651</ele>
        <time>2021-08-12T07:27:21.000Z</time>
      </trkpt>
      <trkpt lat="47.29533" lon="-2.41581">
        <ele>6.1999998092651</ele>
        <time>2021-08-12T07:27:23.000Z</time>
      </trkpt>
      <trkpt lat="47.29531" lon="-2.4159">
        <ele>6.1999998092651</ele>
        <time>2021-08-12T07:27:24.000Z</time>
      </trkpt>
      <trkpt lat="47.29529" lon="-2.41618">
        <ele>6.1999998092651</ele>
        <time>2021-08-12T07:27:27.000Z</time>
      </trkpt>
      <trkpt lat="47.29533" lon="-2.41645">
        <ele>6.5999999046326</ele>
        <time>2021-08-12T07:27:30.000Z</time>
      </trkpt>
      <trkpt lat="47.29535" lon="-2.41654">
        <ele>7</ele>
        <time>2021-08-12T07:27:31.000Z</time>
      </trkpt>
      <trkpt lat="47.29537" lon="-2.41662">
        <ele>7.4000000953674</ele>
        <time>2021-08-12T07:27:32.000Z</time>
      </trkpt>
      <trkpt lat="47.2954" lon="-2.4167">
        <ele>7.8000001907349</ele>
        <time>2021-08-12T07:27:33.000Z</time>
      </trkpt>
      <trkpt lat="47.29543" lon="-2.41678">
        <ele>8.1999998092651</ele>
        <time>2021-08-12T07:27:34.000Z</time>
      </trkpt>
      <trkpt lat="47.29554" lon="-2.41701">
        <ele>8.1999998092651</ele>
        <time>2021-08-12T07:27:37.000Z</time>
      </trkpt>
      <trkpt lat="47.29558" lon="-2.41707">
        <ele>8.1999998092651</ele>
        <time>2021-08-12T07:27:38.000Z</time>
      </trkpt>
      <trkpt lat="47.29577" lon="-2.41717">
        <ele>8.1999998092651</ele>
        <time>2021-08-12T07:27:41.000Z</time>
      </trkpt>
      <trkpt lat="47.29583" lon="-2.4172">
        <ele>8.1999998092651</ele>
        <time>2021-08-12T07:27:42.000Z</time>
      </trkpt>
      <trkpt lat="47.29589" lon="-2.41725">
        <ele>8.1999998092651</ele>
        <time>2021-08-12T07:27:43.000Z</time>
      </trkpt>
      <trkpt lat="47.29612" lon="-2.41746">
        <ele>8.1999998092651</ele>
        <time>2021-08-12T07:27:47.000Z</time>
      </trkpt>
      <trkpt lat="47.29635" lon="-2.41781">
        <ele>8.1999998092651</ele>
        <time>2021-08-12T07:27:52.000Z</time>
      </trkpt>
      <trkpt lat="47.2964" lon="-2.41806">
        <ele>8.1999998092651</ele>
        <time>2021-08-12T07:27:55.000Z</time>
      </trkpt>
      <trkpt lat="47.2965" lon="-2.41828">
        <ele>8.1999998092651</ele>
        <time>2021-08-12T07:27:58.000Z</time>
      </trkpt>
      <trkpt lat="47.29668" lon="-2.41828">
        <ele>8.1999998092651</ele>
        <time>2021-08-12T07:28:01.000Z</time>
      </trkpt>
      <trkpt lat="47.29687" lon="-2.41824">
        <ele>8.1999998092651</ele>
        <time>2021-08-12T07:28:04.000Z</time>
      </trkpt>
      <trkpt lat="47.29694" lon="-2.41822">
        <ele>8.1999998092651</ele>
        <time>2021-08-12T07:28:05.000Z</time>
      </trkpt>
      <trkpt lat="47.297" lon="-2.41819">
        <ele>8.1999998092651</ele>
        <time>2021-08-12T07:28:06.000Z</time>
      </trkpt>
      <trkpt lat="47.29712" lon="-2.41802">
        <ele>8.1999998092651</ele>
        <time>2021-08-12T07:28:09.000Z</time>
      </trkpt>
      <trkpt lat="47.29722" lon="-2.41784">
        <ele>8.1999998092651</ele>
        <time>2021-08-12T07:28:12.000Z</time>
      </trkpt>
      <trkpt lat="47.29727" lon="-2.41776">
        <ele>8.1999998092651</ele>
        <time>2021-08-12T07:28:14.000Z</time>
      </trkpt>
      <trkpt lat="47.29752" lon="-2.41754">
        <ele>8.1999998092651</ele>
        <time>2021-08-12T07:28:22.000Z</time>
      </trkpt>
      <trkpt lat="47.29764" lon="-2.41748">
        <ele>8.1999998092651</ele>
        <time>2021-08-12T07:28:27.000Z</time>
      </trkpt>
      <trkpt lat="47.29766" lon="-2.41748">
        <ele>8.1999998092651</ele>
        <time>2021-08-12T07:28:30.000Z</time>
      </trkpt>
      <trkpt lat="47.29766" lon="-2.41749">
        <ele>8.1999998092651</ele>
        <time>2021-08-12T07:28:52.000Z</time>
      </trkpt>
      <trkpt lat="47.29771" lon="-2.41761">
        <ele>8.1999998092651</ele>
        <time>2021-08-12T07:28:57.000Z</time>
      </trkpt>
      <trkpt lat="47.29774" lon="-2.41776">
        <ele>8.1999998092651</ele>
        <time>2021-08-12T07:29:00.000Z</time>
      </trkpt>
      <trkpt lat="47.29774" lon="-2.41783">
        <ele>8.1999998092651</ele>
        <time>2021-08-12T07:29:01.000Z</time>
      </trkpt>
      <trkpt lat="47.29775" lon="-2.41803">
        <ele>8.1999998092651</ele>
        <time>2021-08-12T07:29:04.000Z</time>
      </trkpt>
      <trkpt lat="47.29777" lon="-2.41827">
        <ele>8.1999998092651</ele>
        <time>2021-08-12T07:29:08.000Z</time>
      </trkpt>
      <trkpt lat="47.29789" lon="-2.41826">
        <ele>8.1999998092651</ele>
        <time>2021-08-12T07:29:11.000Z</time>
      </trkpt>
      <trkpt lat="47.29798" lon="-2.41817">
        <ele>8.1999998092651</ele>
        <time>2021-08-12T07:29:13.000Z</time>
      </trkpt>
      <trkpt lat="47.29812" lon="-2.41804">
        <ele>8.1999998092651</ele>
        <time>2021-08-12T07:29:16.000Z</time>
      </trkpt>
      <trkpt lat="47.29827" lon="-2.41788">
        <ele>8.1999998092651</ele>
        <time>2021-08-12T07:29:19.000Z</time>
      </trkpt>
      <trkpt lat="47.29836" lon="-2.41775">
        <ele>8.1999998092651</ele>
        <time>2021-08-12T07:29:21.000Z</time>
      </trkpt>
      <trkpt lat="47.29845" lon="-2.41764">
        <ele>8.1999998092651</ele>
        <time>2021-08-12T07:29:23.000Z</time>
      </trkpt>
      <trkpt lat="47.29857" lon="-2.41759">
        <ele>8.1999998092651</ele>
        <time>2021-08-12T07:29:25.000Z</time>
      </trkpt>
      <trkpt lat="47.29876" lon="-2.41764">
        <ele>8.1999998092651</ele>
        <time>2021-08-12T07:29:28.000Z</time>
      </trkpt>
      <trkpt lat="47.29899" lon="-2.41763">
        <ele>8.1999998092651</ele>
        <time>2021-08-12T07:29:32.000Z</time>
      </trkpt>
      <trkpt lat="47.29924" lon="-2.41739">
        <ele>8.1999998092651</ele>
        <time>2021-08-12T07:29:37.000Z</time>
      </trkpt>
      <trkpt lat="47.29934" lon="-2.4173">
        <ele>8.1999998092651</ele>
        <time>2021-08-12T07:29:39.000Z</time>
      </trkpt>
      <trkpt lat="47.29942" lon="-2.41717">
        <ele>8.1999998092651</ele>
        <time>2021-08-12T07:29:41.000Z</time>
      </trkpt>
      <trkpt lat="47.29947" lon="-2.41683">
        <ele>8.1999998092651</ele>
        <time>2021-08-12T07:29:45.000Z</time>
      </trkpt>
      <trkpt lat="47.29942" lon="-2.41668">
        <ele>8.1999998092651</ele>
        <time>2021-08-12T07:29:47.000Z</time>
      </trkpt>
      <trkpt lat="47.29937" lon="-2.41644">
        <ele>8.1999998092651</ele>
        <time>2021-08-12T07:29:50.000Z</time>
      </trkpt>
      <trkpt lat="47.29934" lon="-2.41628">
        <ele>8.1999998092651</ele>
        <time>2021-08-12T07:29:52.000Z</time>
      </trkpt>
      <trkpt lat="47.29934" lon="-2.41616">
        <ele>8.1999998092651</ele>
        <time>2021-08-12T07:29:54.000Z</time>
      </trkpt>
      <trkpt lat="47.29935" lon="-2.41604">
        <ele>8.1999998092651</ele>
        <time>2021-08-12T07:29:56.000Z</time>
      </trkpt>
      <trkpt lat="47.29931" lon="-2.41586">
        <ele>8.1999998092651</ele>
        <time>2021-08-12T07:29:59.000Z</time>
      </trkpt>
      <trkpt lat="47.29928" lon="-2.41569">
        <ele>8.1999998092651</ele>
        <time>2021-08-12T07:30:02.000Z</time>
      </trkpt>
      <trkpt lat="47.29927" lon="-2.41557">
        <ele>8.1999998092651</ele>
        <time>2021-08-12T07:30:04.000Z</time>
      </trkpt>
      <trkpt lat="47.29927" lon="-2.4155">
        <ele>8.1999998092651</ele>
        <time>2021-08-12T07:30:05.000Z</time>
      </trkpt>
      <trkpt lat="47.29937" lon="-2.41527">
        <ele>8.1999998092651</ele>
        <time>2021-08-12T07:30:09.000Z</time>
      </trkpt>
      <trkpt lat="47.29952" lon="-2.41524">
        <ele>8.1999998092651</ele>
        <time>2021-08-12T07:30:12.000Z</time>
      </trkpt>
      <trkpt lat="47.29995" lon="-2.41521">
        <ele>8.1999998092651</ele>
        <time>2021-08-12T07:30:19.000Z</time>
      </trkpt>
      <trkpt lat="47.30032" lon="-2.41508">
        <ele>8.1999998092651</ele>
        <time>2021-08-12T07:30:25.000Z</time>
      </trkpt>
      <trkpt lat="47.3007" lon="-2.41486">
        <ele>8.1999998092651</ele>
        <time>2021-08-12T07:30:32.000Z</time>
      </trkpt>
      <trkpt lat="47.30114" lon="-2.4146">
        <ele>8.1999998092651</ele>
        <time>2021-08-12T07:30:40.000Z</time>
      </trkpt>
      <trkpt lat="47.30136" lon="-2.41444">
        <ele>8.1999998092651</ele>
        <time>2021-08-12T07:30:44.000Z</time>
      </trkpt>
      <trkpt lat="47.30144" lon="-2.41431">
        <ele>8.1999998092651</ele>
        <time>2021-08-12T07:30:46.000Z</time>
      </trkpt>
      <trkpt lat="47.30167" lon="-2.41377">
        <ele>8.1999998092651</ele>
        <time>2021-08-12T07:30:53.000Z</time>
      </trkpt>
      <trkpt lat="47.30199" lon="-2.41303">
        <ele>8.1999998092651</ele>
        <time>2021-08-12T07:31:03.000Z</time>
      </trkpt>
      <trkpt lat="47.30211" lon="-2.41285">
        <ele>8.1999998092651</ele>
        <time>2021-08-12T07:31:06.000Z</time>
      </trkpt>
      <trkpt lat="47.3022" lon="-2.41274">
        <ele>8.1999998092651</ele>
        <time>2021-08-12T07:31:08.000Z</time>
      </trkpt>
      <trkpt lat="47.30251" lon="-2.41233">
        <ele>8.1999998092651</ele>
        <time>2021-08-12T07:31:15.000Z</time>
      </trkpt>
      <trkpt lat="47.30272" lon="-2.4119">
        <ele>8.1999998092651</ele>
        <time>2021-08-12T07:31:21.000Z</time>
      </trkpt>
      <trkpt lat="47.30294" lon="-2.41145">
        <ele>8.1999998092651</ele>
        <time>2021-08-12T07:31:27.000Z</time>
      </trkpt>
      <trkpt lat="47.30301" lon="-2.41135">
        <ele>8.1999998092651</ele>
        <time>2021-08-12T07:31:29.000Z</time>
      </trkpt>
      <trkpt lat="47.30311" lon="-2.41131">
        <ele>8.1999998092651</ele>
        <time>2021-08-12T07:31:31.000Z</time>
      </trkpt>
      <trkpt lat="47.30334" lon="-2.41141">
        <ele>8.1999998092651</ele>
        <time>2021-08-12T07:31:35.000Z</time>
      </trkpt>
      <trkpt lat="47.30348" lon="-2.41147">
        <ele>8.1999998092651</ele>
        <time>2021-08-12T07:31:37.000Z</time>
      </trkpt>
      <trkpt lat="47.30369" lon="-2.41155">
        <ele>8.1999998092651</ele>
        <time>2021-08-12T07:31:40.000Z</time>
      </trkpt>
      <trkpt lat="47.30377" lon="-2.41157">
        <ele>8.1999998092651</ele>
        <time>2021-08-12T07:31:41.000Z</time>
      </trkpt>
      <trkpt lat="47.30398" lon="-2.41157">
        <ele>8.1999998092651</ele>
        <time>2021-08-12T07:31:44.000Z</time>
      </trkpt>
      <trkpt lat="47.30413" lon="-2.41155">
        <ele>8.1999998092651</ele>
        <time>2021-08-12T07:31:46.000Z</time>
      </trkpt>
      <trkpt lat="47.30433" lon="-2.41156">
        <ele>8.1999998092651</ele>
        <time>2021-08-12T07:31:49.000Z</time>
      </trkpt>
      <trkpt lat="47.30455" lon="-2.41176">
        <ele>8.1999998092651</ele>
        <time>2021-08-12T07:31:53.000Z</time>
      </trkpt>
      <trkpt lat="47.30461" lon="-2.41204">
        <ele>8.1999998092651</ele>
        <time>2021-08-12T07:31:56.000Z</time>
      </trkpt>
      <trkpt lat="47.30471" lon="-2.4128">
        <ele>8.1999998092651</ele>
        <time>2021-08-12T07:32:03.000Z</time>
      </trkpt>
      <trkpt lat="47.30489" lon="-2.41363">
        <ele>8.1999998092651</ele>
        <time>2021-08-12T07:32:11.000Z</time>
      </trkpt>
      <trkpt lat="47.30501" lon="-2.41425">
        <ele>8.1999998092651</ele>
        <time>2021-08-12T07:32:17.000Z</time>
      </trkpt>
      <trkpt lat="47.30505" lon="-2.41446">
        <ele>8.1999998092651</ele>
        <time>2021-08-12T07:32:19.000Z</time>
      </trkpt>
      <trkpt lat="47.30502" lon="-2.41464">
        <ele>8.1999998092651</ele>
        <time>2021-08-12T07:32:21.000Z</time>
      </trkpt>
      <trkpt lat="47.30496" lon="-2.41482">
        <ele>8.1999998092651</ele>
        <time>2021-08-12T07:32:23.000Z</time>
      </trkpt>
      <trkpt lat="47.30492" lon="-2.41491">
        <ele>8.1999998092651</ele>
        <time>2021-08-12T07:32:24.000Z</time>
      </trkpt>
      <trkpt lat="47.30488" lon="-2.41499">
        <ele>8.1999998092651</ele>
        <time>2021-08-12T07:32:25.000Z</time>
      </trkpt>
      <trkpt lat="47.30487" lon="-2.41531">
        <ele>8.1999998092651</ele>
        <time>2021-08-12T07:32:28.000Z</time>
      </trkpt>
      <trkpt lat="47.30495" lon="-2.41563">
        <ele>8.1999998092651</ele>
        <time>2021-08-12T07:32:31.000Z</time>
      </trkpt>
      <trkpt lat="47.30498" lon="-2.41573">
        <ele>8.1999998092651</ele>
        <time>2021-08-12T07:32:32.000Z</time>
      </trkpt>
      <trkpt lat="47.30501" lon="-2.41583">
        <ele>8.1999998092651</ele>
        <time>2021-08-12T07:32:33.000Z</time>
      </trkpt>
      <trkpt lat="47.30505" lon="-2.41614">
        <ele>8.1999998092651</ele>
        <time>2021-08-12T07:32:36.000Z</time>
      </trkpt>
      <trkpt lat="47.30513" lon="-2.41656">
        <ele>8.1999998092651</ele>
        <time>2021-08-12T07:32:40.000Z</time>
      </trkpt>
      <trkpt lat="47.30516" lon="-2.41666">
        <ele>8.1999998092651</ele>
        <time>2021-08-12T07:32:41.000Z</time>
      </trkpt>
      <trkpt lat="47.3053" lon="-2.4169">
        <ele>8.1999998092651</ele>
        <time>2021-08-12T07:32:44.000Z</time>
      </trkpt>
      <trkpt lat="47.30535" lon="-2.41697">
        <ele>8.1999998092651</ele>
        <time>2021-08-12T07:32:45.000Z</time>
      </trkpt>
      <trkpt lat="47.30572" lon="-2.4175">
        <ele>8.1999998092651</ele>
        <time>2021-08-12T07:32:52.000Z</time>
      </trkpt>
      <trkpt lat="47.30594" lon="-2.41807">
        <ele>8.1999998092651</ele>
        <time>2021-08-12T07:32:58.000Z</time>
      </trkpt>
      <trkpt lat="47.30618" lon="-2.41861">
        <ele>8.1999998092651</ele>
        <time>2021-08-12T07:33:04.000Z</time>
      </trkpt>
      <trkpt lat="47.3064" lon="-2.41917">
        <ele>8.1999998092651</ele>
        <time>2021-08-12T07:33:10.000Z</time>
      </trkpt>
      <trkpt lat="47.30654" lon="-2.41969">
        <ele>8.1999998092651</ele>
        <time>2021-08-12T07:33:15.000Z</time>
      </trkpt>
      <trkpt lat="47.30658" lon="-2.41978">
        <ele>8.1999998092651</ele>
        <time>2021-08-12T07:33:16.000Z</time>
      </trkpt>
      <trkpt lat="47.3068" lon="-2.42009">
        <ele>8.1999998092651</ele>
        <time>2021-08-12T07:33:20.000Z</time>
      </trkpt>
      <trkpt lat="47.3071" lon="-2.42042">
        <ele>8.1999998092651</ele>
        <time>2021-08-12T07:33:25.000Z</time>
      </trkpt>
      <trkpt lat="47.30723" lon="-2.42053">
        <ele>8.1999998092651</ele>
        <time>2021-08-12T07:33:27.000Z</time>
      </trkpt>
      <trkpt lat="47.3074" lon="-2.42071">
        <ele>8.1999998092651</ele>
        <time>2021-08-12T07:33:30.000Z</time>
      </trkpt>
      <trkpt lat="47.3075" lon="-2.42088">
        <ele>8.1999998092651</ele>
        <time>2021-08-12T07:33:32.000Z</time>
      </trkpt>
      <trkpt lat="47.30772" lon="-2.4213">
        <ele>8.1999998092651</ele>
        <time>2021-08-12T07:33:37.000Z</time>
      </trkpt>
      <trkpt lat="47.30803" lon="-2.42189">
        <ele>8.1999998092651</ele>
        <time>2021-08-12T07:33:44.000Z</time>
      </trkpt>
      <trkpt lat="47.30808" lon="-2.42196">
        <ele>8.1999998092651</ele>
        <time>2021-08-12T07:33:45.000Z</time>
      </trkpt>
      <trkpt lat="47.30825" lon="-2.4221">
        <ele>8.1999998092651</ele>
        <time>2021-08-12T07:33:48.000Z</time>
      </trkpt>
      <trkpt lat="47.30844" lon="-2.42212">
        <ele>8.1999998092651</ele>
        <time>2021-08-12T07:33:51.000Z</time>
      </trkpt>
      <trkpt lat="47.3085" lon="-2.42212">
        <ele>8.1999998092651</ele>
        <time>2021-08-12T07:33:52.000Z</time>
      </trkpt>
      <trkpt lat="47.30867" lon="-2.42205">
        <ele>8.1999998092651</ele>
        <time>2021-08-12T07:33:55.000Z</time>
      </trkpt>
      <trkpt lat="47.30882" lon="-2.42215">
        <ele>8.1999998092651</ele>
        <time>2021-08-12T07:33:58.000Z</time>
      </trkpt>
      <trkpt lat="47.30886" lon="-2.42221">
        <ele>8.1999998092651</ele>
        <time>2021-08-12T07:33:59.000Z</time>
      </trkpt>
      <trkpt lat="47.30908" lon="-2.42248">
        <ele>8.1999998092651</ele>
        <time>2021-08-12T07:34:04.000Z</time>
      </trkpt>
      <trkpt lat="47.30913" lon="-2.42251">
        <ele>8.1999998092651</ele>
        <time>2021-08-12T07:34:05.000Z</time>
      </trkpt>
      <trkpt lat="47.30929" lon="-2.4226">
        <ele>8.1999998092651</ele>
        <time>2021-08-12T07:34:08.000Z</time>
      </trkpt>
      <trkpt lat="47.30944" lon="-2.42274">
        <ele>8.1999998092651</ele>
        <time>2021-08-12T07:34:11.000Z</time>
      </trkpt>
      <trkpt lat="47.30953" lon="-2.42296">
        <ele>8.1999998092651</ele>
        <time>2021-08-12T07:34:14.000Z</time>
      </trkpt>
      <trkpt lat="47.30957" lon="-2.42314">
        <ele>8.1999998092651</ele>
        <time>2021-08-12T07:34:16.000Z</time>
      </trkpt>
      <trkpt lat="47.30962" lon="-2.42349">
        <ele>8.1999998092651</ele>
        <time>2021-08-12T07:34:20.000Z</time>
      </trkpt>
      <trkpt lat="47.30979" lon="-2.42429">
        <ele>8.1999998092651</ele>
        <time>2021-08-12T07:34:29.000Z</time>
      </trkpt>
      <trkpt lat="47.30993" lon="-2.42491">
        <ele>8.1999998092651</ele>
        <time>2021-08-12T07:34:36.000Z</time>
      </trkpt>
      <trkpt lat="47.31009" lon="-2.42554">
        <ele>8.1999998092651</ele>
        <time>2021-08-12T07:34:43.000Z</time>
      </trkpt>
      <trkpt lat="47.31016" lon="-2.42584">
        <ele>8.8000001907349</ele>
        <time>2021-08-12T07:34:46.000Z</time>
      </trkpt>
      <trkpt lat="47.31018" lon="-2.42594">
        <ele>9.1999998092651</ele>
        <time>2021-08-12T07:34:47.000Z</time>
      </trkpt>
      <trkpt lat="47.3102" lon="-2.42603">
        <ele>10</ele>
        <time>2021-08-12T07:34:48.000Z</time>
      </trkpt>
      <trkpt lat="47.31023" lon="-2.42613">
        <ele>10.39999961853</ele>
        <time>2021-08-12T07:34:49.000Z</time>
      </trkpt>
      <trkpt lat="47.31027" lon="-2.42631">
        <ele>10.39999961853</ele>
        <time>2021-08-12T07:34:51.000Z</time>
      </trkpt>
      <trkpt lat="47.31043" lon="-2.42696">
        <ele>10.39999961853</ele>
        <time>2021-08-12T07:34:58.000Z</time>
      </trkpt>
      <trkpt lat="47.31048" lon="-2.42721">
        <ele>10.39999961853</ele>
        <time>2021-08-12T07:35:01.000Z</time>
      </trkpt>
      <trkpt lat="47.31046" lon="-2.42738">
        <ele>10.39999961853</ele>
        <time>2021-08-12T07:35:03.000Z</time>
      </trkpt>
      <trkpt lat="47.31036" lon="-2.4275">
        <ele>10.39999961853</ele>
        <time>2021-08-12T07:35:05.000Z</time>
      </trkpt>
      <trkpt lat="47.31007" lon="-2.42758">
        <ele>10.39999961853</ele>
        <time>2021-08-12T07:35:09.000Z</time>
      </trkpt>
      <trkpt lat="47.30953" lon="-2.42765">
        <ele>10.39999961853</ele>
        <time>2021-08-12T07:35:16.000Z</time>
      </trkpt>
      <trkpt lat="47.30894" lon="-2.42772">
        <ele>10.39999961853</ele>
        <time>2021-08-12T07:35:24.000Z</time>
      </trkpt>
      <trkpt lat="47.30886" lon="-2.42773">
        <ele>10.39999961853</ele>
        <time>2021-08-12T07:35:25.000Z</time>
      </trkpt>
      <trkpt lat="47.30824" lon="-2.42781">
        <ele>10.39999961853</ele>
        <time>2021-08-12T07:35:33.000Z</time>
      </trkpt>
      <trkpt lat="47.30817" lon="-2.42782">
        <ele>10.39999961853</ele>
        <time>2021-08-12T07:35:34.000Z</time>
      </trkpt>
      <trkpt lat="47.30761" lon="-2.42789">
        <ele>10.39999961853</ele>
        <time>2021-08-12T07:35:41.000Z</time>
      </trkpt>
      <trkpt lat="47.30738" lon="-2.42794">
        <ele>10.39999961853</ele>
        <time>2021-08-12T07:35:44.000Z</time>
      </trkpt>
      <trkpt lat="47.30722" lon="-2.42804">
        <ele>10.39999961853</ele>
        <time>2021-08-12T07:35:46.000Z</time>
      </trkpt>
      <trkpt lat="47.30708" lon="-2.42816">
        <ele>10.39999961853</ele>
        <time>2021-08-12T07:35:48.000Z</time>
      </trkpt>
      <trkpt lat="47.30693" lon="-2.4283">
        <ele>10.39999961853</ele>
        <time>2021-08-12T07:35:50.000Z</time>
      </trkpt>
      <trkpt lat="47.30686" lon="-2.42836">
        <ele>10.39999961853</ele>
        <time>2021-08-12T07:35:51.000Z</time>
      </trkpt>
      <trkpt lat="47.30633" lon="-2.4288">
        <ele>10.39999961853</ele>
        <time>2021-08-12T07:35:58.000Z</time>
      </trkpt>
      <trkpt lat="47.30579" lon="-2.42925">
        <ele>10.39999961853</ele>
        <time>2021-08-12T07:36:05.000Z</time>
      </trkpt>
      <trkpt lat="47.30533" lon="-2.42963">
        <ele>10.39999961853</ele>
        <time>2021-08-12T07:36:11.000Z</time>
      </trkpt>
      <trkpt lat="47.30518" lon="-2.42975">
        <ele>10</ele>
        <time>2021-08-12T07:36:13.000Z</time>
      </trkpt>
      <trkpt lat="47.3051" lon="-2.42981">
        <ele>9.6000003814697</ele>
        <time>2021-08-12T07:36:14.000Z</time>
      </trkpt>
      <trkpt lat="47.30503" lon="-2.42988">
        <ele>9.1999998092651</ele>
        <time>2021-08-12T07:36:15.000Z</time>
      </trkpt>
      <trkpt lat="47.30495" lon="-2.42994">
        <ele>8.8000001907349</ele>
        <time>2021-08-12T07:36:16.000Z</time>
      </trkpt>
      <trkpt lat="47.30488" lon="-2.43001">
        <ele>8.3999996185303</ele>
        <time>2021-08-12T07:36:17.000Z</time>
      </trkpt>
      <trkpt lat="47.30438" lon="-2.43043">
        <ele>8.3999996185303</ele>
        <time>2021-08-12T07:36:24.000Z</time>
      </trkpt>
      <trkpt lat="47.30431" lon="-2.43048">
        <ele>8.3999996185303</ele>
        <time>2021-08-12T07:36:25.000Z</time>
      </trkpt>
      <trkpt lat="47.30401" lon="-2.43061">
        <ele>8.3999996185303</ele>
        <time>2021-08-12T07:36:29.000Z</time>
      </trkpt>
      <trkpt lat="47.30346" lon="-2.43071">
        <ele>8.3999996185303</ele>
        <time>2021-08-12T07:36:36.000Z</time>
      </trkpt>
      <trkpt lat="47.30303" lon="-2.43076">
        <ele>8.3999996185303</ele>
        <time>2021-08-12T07:36:42.000Z</time>
      </trkpt>
      <trkpt lat="47.30291" lon="-2.43076">
        <ele>8.3999996185303</ele>
        <time>2021-08-12T07:36:44.000Z</time>
      </trkpt>
      <trkpt lat="47.3028" lon="-2.43071">
        <ele>8.3999996185303</ele>
        <time>2021-08-12T07:36:46.000Z</time>
      </trkpt>
      <trkpt lat="47.30271" lon="-2.43065">
        <ele>8.3999996185303</ele>
        <time>2021-08-12T07:36:48.000Z</time>
      </trkpt>
      <trkpt lat="47.30264" lon="-2.43067">
        <ele>8.3999996185303</ele>
        <time>2021-08-12T07:36:50.000Z</time>
      </trkpt>
      <trkpt lat="47.30258" lon="-2.43077">
        <ele>8.3999996185303</ele>
        <time>2021-08-12T07:36:53.000Z</time>
      </trkpt>
      <trkpt lat="47.30261" lon="-2.43092">
        <ele>8.3999996185303</ele>
        <time>2021-08-12T07:36:57.000Z</time>
      </trkpt>
      <trkpt lat="47.30267" lon="-2.43094">
        <ele>8.3999996185303</ele>
        <time>2021-08-12T07:37:01.000Z</time>
      </trkpt>
      <trkpt lat="47.30268" lon="-2.43096">
        <ele>8.3999996185303</ele>
        <time>2021-08-12T07:37:05.000Z</time>
      </trkpt>
      <trkpt lat="47.30272" lon="-2.431">
        <ele>8.3999996185303</ele>
        <time>2021-08-12T07:37:08.000Z</time>
      </trkpt>
      <trkpt lat="47.30274" lon="-2.43103">
        <ele>8.3999996185303</ele>
        <time>2021-08-12T07:37:09.000Z</time>
      </trkpt>
      <trkpt lat="47.30273" lon="-2.43115">
        <ele>8.3999996185303</ele>
        <time>2021-08-12T07:37:12.000Z</time>
      </trkpt>
      <trkpt lat="47.30274" lon="-2.43135">
        <ele>8.3999996185303</ele>
        <time>2021-08-12T07:37:18.000Z</time>
      </trkpt>
      <trkpt lat="47.3028" lon="-2.43152">
        <ele>8.3999996185303</ele>
        <time>2021-08-12T07:37:24.000Z</time>
      </trkpt>
      <trkpt lat="47.30284" lon="-2.43157">
        <ele>8.3999996185303</ele>
        <time>2021-08-12T07:37:27.000Z</time>
      </trkpt>
      <trkpt lat="47.30285" lon="-2.43157">
        <ele>8.3999996185303</ele>
        <time>2021-08-12T07:37:28.000Z</time>
      </trkpt>
      <trkpt lat="47.30285" lon="-2.43157">
        <ele>8.3999996185303</ele>
        <time>2021-08-12T07:37:29.000Z</time>
      </trkpt>
      <trkpt lat="47.30288" lon="-2.43157">
        <ele>8.3999996185303</ele>
        <time>2021-08-12T07:38:04.000Z</time>
      </trkpt>
      <trkpt lat="47.30291" lon="-2.43156">
        <ele>8.3999996185303</ele>
        <time>2021-08-12T07:38:06.000Z</time>
      </trkpt>
      <trkpt lat="47.30303" lon="-2.43154">
        <ele>8.3999996185303</ele>
        <time>2021-08-12T07:38:10.000Z</time>
      </trkpt>
      <trkpt lat="47.30314" lon="-2.43163">
        <ele>8.3999996185303</ele>
        <time>2021-08-12T07:38:13.000Z</time>
      </trkpt>
      <trkpt lat="47.30319" lon="-2.43167">
        <ele>8.3999996185303</ele>
        <time>2021-08-12T07:38:14.000Z</time>
      </trkpt>
      <trkpt lat="47.30327" lon="-2.43178">
        <ele>8.3999996185303</ele>
        <time>2021-08-12T07:38:16.000Z</time>
      </trkpt>
      <trkpt lat="47.30338" lon="-2.43196">
        <ele>8.3999996185303</ele>
        <time>2021-08-12T07:38:19.000Z</time>
      </trkpt>
      <trkpt lat="47.30358" lon="-2.43227">
        <ele>8.3999996185303</ele>
        <time>2021-08-12T07:38:24.000Z</time>
      </trkpt>
      <trkpt lat="47.30368" lon="-2.43236">
        <ele>8.3999996185303</ele>
        <time>2021-08-12T07:38:26.000Z</time>
      </trkpt>
      <trkpt lat="47.30385" lon="-2.43243">
        <ele>8.3999996185303</ele>
        <time>2021-08-12T07:38:29.000Z</time>
      </trkpt>
      <trkpt lat="47.3039" lon="-2.43247">
        <ele>8.3999996185303</ele>
        <time>2021-08-12T07:38:30.000Z</time>
      </trkpt>
      <trkpt lat="47.304" lon="-2.4327">
        <ele>8.3999996185303</ele>
        <time>2021-08-12T07:38:33.000Z</time>
      </trkpt>
      <trkpt lat="47.30407" lon="-2.43296">
        <ele>8.3999996185303</ele>
        <time>2021-08-12T07:38:36.000Z</time>
      </trkpt>
      <trkpt lat="47.30413" lon="-2.43323">
        <ele>8.3999996185303</ele>
        <time>2021-08-12T07:38:39.000Z</time>
      </trkpt>
      <trkpt lat="47.30423" lon="-2.43389">
        <ele>8.3999996185303</ele>
        <time>2021-08-12T07:38:47.000Z</time>
      </trkpt>
      <trkpt lat="47.3043" lon="-2.43419">
        <ele>8.3999996185303</ele>
        <time>2021-08-12T07:38:51.000Z</time>
      </trkpt>
      <trkpt lat="47.30433" lon="-2.43424">
        <ele>8.3999996185303</ele>
        <time>2021-08-12T07:38:52.000Z</time>
      </trkpt>
      <trkpt lat="47.30445" lon="-2.43427">
        <ele>8.3999996185303</ele>
        <time>2021-08-12T07:38:55.000Z</time>
      </trkpt>
      <trkpt lat="47.30454" lon="-2.43421">
        <ele>8.3999996185303</ele>
        <time>2021-08-12T07:38:57.000Z</time>
      </trkpt>
      <trkpt lat="47.30465" lon="-2.43416">
        <ele>8.3999996185303</ele>
        <time>2021-08-12T07:38:59.000Z</time>
      </trkpt>
      <trkpt lat="47.30476" lon="-2.43412">
        <ele>8.3999996185303</ele>
        <time>2021-08-12T07:39:01.000Z</time>
      </trkpt>
      <trkpt lat="47.30489" lon="-2.43412">
        <ele>8.3999996185303</ele>
        <time>2021-08-12T07:39:03.000Z</time>
      </trkpt>
      <trkpt lat="47.30528" lon="-2.43416">
        <ele>8.3999996185303</ele>
        <time>2021-08-12T07:39:09.000Z</time>
      </trkpt>
      <trkpt lat="47.3058" lon="-2.43419">
        <ele>8.3999996185303</ele>
        <time>2021-08-12T07:39:17.000Z</time>
      </trkpt>
      <trkpt lat="47.30625" lon="-2.43407">
        <ele>8.3999996185303</ele>
        <time>2021-08-12T07:39:24.000Z</time>
      </trkpt>
      <trkpt lat="47.30677" lon="-2.43394">
        <ele>8.3999996185303</ele>
        <time>2021-08-12T07:39:32.000Z</time>
      </trkpt>
      <trkpt lat="47.30722" lon="-2.43389">
        <ele>8.3999996185303</ele>
        <time>2021-08-12T07:39:39.000Z</time>
      </trkpt>
      <trkpt lat="47.30768" lon="-2.43388">
        <ele>8.3999996185303</ele>
        <time>2021-08-12T07:39:46.000Z</time>
      </trkpt>
      <trkpt lat="47.30807" lon="-2.43388">
        <ele>8.3999996185303</ele>
        <time>2021-08-12T07:39:52.000Z</time>
      </trkpt>
      <trkpt lat="47.30814" lon="-2.43387">
        <ele>8.3999996185303</ele>
        <time>2021-08-12T07:39:53.000Z</time>
      </trkpt>
      <trkpt lat="47.30858" lon="-2.43369">
        <ele>8.3999996185303</ele>
        <time>2021-08-12T07:40:00.000Z</time>
      </trkpt>
      <trkpt lat="47.30907" lon="-2.43346">
        <ele>8.3999996185303</ele>
        <time>2021-08-12T07:40:08.000Z</time>
      </trkpt>
      <trkpt lat="47.30948" lon="-2.43328">
        <ele>8.3999996185303</ele>
        <time>2021-08-12T07:40:15.000Z</time>
      </trkpt>
      <trkpt lat="47.30994" lon="-2.43308">
        <ele>8.3999996185303</ele>
        <time>2021-08-12T07:40:23.000Z</time>
      </trkpt>
      <trkpt lat="47.31025" lon="-2.43279">
        <ele>8.3999996185303</ele>
        <time>2021-08-12T07:40:29.000Z</time>
      </trkpt>
      <trkpt lat="47.3105" lon="-2.43245">
        <ele>8.3999996185303</ele>
        <time>2021-08-12T07:40:35.000Z</time>
      </trkpt>
      <trkpt lat="47.31059" lon="-2.43234">
        <ele>8.3999996185303</ele>
        <time>2021-08-12T07:40:37.000Z</time>
      </trkpt>
      <trkpt lat="47.31074" lon="-2.4322">
        <ele>8.3999996185303</ele>
        <time>2021-08-12T07:40:40.000Z</time>
      </trkpt>
      <trkpt lat="47.31079" lon="-2.43217">
        <ele>8.3999996185303</ele>
        <time>2021-08-12T07:40:41.000Z</time>
      </trkpt>
      <trkpt lat="47.31088" lon="-2.4321">
        <ele>8.3999996185303</ele>
        <time>2021-08-12T07:40:43.000Z</time>
      </trkpt>
      <trkpt lat="47.31093" lon="-2.43206">
        <ele>8.3999996185303</ele>
        <time>2021-08-12T07:40:44.000Z</time>
      </trkpt>
      <trkpt lat="47.31106" lon="-2.43197">
        <ele>8.3999996185303</ele>
        <time>2021-08-12T07:40:47.000Z</time>
      </trkpt>
      <trkpt lat="47.31116" lon="-2.43197">
        <ele>8.3999996185303</ele>
        <time>2021-08-12T07:40:49.000Z</time>
      </trkpt>
      <trkpt lat="47.3113" lon="-2.4321">
        <ele>8.3999996185303</ele>
        <time>2021-08-12T07:40:52.000Z</time>
      </trkpt>
      <trkpt lat="47.31138" lon="-2.43222">
        <ele>8.3999996185303</ele>
        <time>2021-08-12T07:40:54.000Z</time>
      </trkpt>
      <trkpt lat="47.31151" lon="-2.43242">
        <ele>9.1999998092651</ele>
        <time>2021-08-12T07:40:57.000Z</time>
      </trkpt>
      <trkpt lat="47.31156" lon="-2.43249">
        <ele>9.6000003814697</ele>
        <time>2021-08-12T07:40:58.000Z</time>
      </trkpt>
      <trkpt lat="47.3116" lon="-2.43256">
        <ele>10</ele>
        <time>2021-08-12T07:40:59.000Z</time>
      </trkpt>
      <trkpt lat="47.31165" lon="-2.43264">
        <ele>10.39999961853</ele>
        <time>2021-08-12T07:41:00.000Z</time>
      </trkpt>
      <trkpt lat="47.31194" lon="-2.43318">
        <ele>10.39999961853</ele>
        <time>2021-08-12T07:41:07.000Z</time>
      </trkpt>
      <trkpt lat="47.31205" lon="-2.43364">
        <ele>10.39999961853</ele>
        <time>2021-08-12T07:41:12.000Z</time>
      </trkpt>
      <trkpt lat="47.31214" lon="-2.4343">
        <ele>10.39999961853</ele>
        <time>2021-08-12T07:41:19.000Z</time>
      </trkpt>
      <trkpt lat="47.31225" lon="-2.43513">
        <ele>10.39999961853</ele>
        <time>2021-08-12T07:41:28.000Z</time>
      </trkpt>
      <trkpt lat="47.31229" lon="-2.43541">
        <ele>10.39999961853</ele>
        <time>2021-08-12T07:41:31.000Z</time>
      </trkpt>
      <trkpt lat="47.31242" lon="-2.43627">
        <ele>10.39999961853</ele>
        <time>2021-08-12T07:41:40.000Z</time>
      </trkpt>
      <trkpt lat="47.31245" lon="-2.43646">
        <ele>10.39999961853</ele>
        <time>2021-08-12T07:41:42.000Z</time>
      </trkpt>
      <trkpt lat="47.31263" lon="-2.43712">
        <ele>10.39999961853</ele>
        <time>2021-08-12T07:41:49.000Z</time>
      </trkpt>
      <trkpt lat="47.31292" lon="-2.4379">
        <ele>10.39999961853</ele>
        <time>2021-08-12T07:41:58.000Z</time>
      </trkpt>
      <trkpt lat="47.313" lon="-2.43806">
        <ele>10.39999961853</ele>
        <time>2021-08-12T07:42:00.000Z</time>
      </trkpt>
      <trkpt lat="47.31313" lon="-2.43823">
        <ele>10.39999961853</ele>
        <time>2021-08-12T07:42:03.000Z</time>
      </trkpt>
      <trkpt lat="47.31327" lon="-2.43841">
        <ele>10.39999961853</ele>
        <time>2021-08-12T07:42:06.000Z</time>
      </trkpt>
      <trkpt lat="47.31333" lon="-2.43857">
        <ele>10.39999961853</ele>
        <time>2021-08-12T07:42:08.000Z</time>
      </trkpt>
      <trkpt lat="47.3136" lon="-2.43927">
        <ele>10.39999961853</ele>
        <time>2021-08-12T07:42:17.000Z</time>
      </trkpt>
      <trkpt lat="47.31363" lon="-2.43935">
        <ele>10.39999961853</ele>
        <time>2021-08-12T07:42:18.000Z</time>
      </trkpt>
      <trkpt lat="47.31386" lon="-2.43981">
        <ele>10.39999961853</ele>
        <time>2021-08-12T07:42:24.000Z</time>
      </trkpt>
      <trkpt lat="47.3142" lon="-2.44025">
        <ele>10.39999961853</ele>
        <time>2021-08-12T07:42:31.000Z</time>
      </trkpt>
      <trkpt lat="47.3145" lon="-2.44062">
        <ele>10.39999961853</ele>
        <time>2021-08-12T07:42:37.000Z</time>
      </trkpt>
      <trkpt lat="47.31495" lon="-2.44119">
        <ele>10.39999961853</ele>
        <time>2021-08-12T07:42:46.000Z</time>
      </trkpt>
      <trkpt lat="47.315" lon="-2.44125">
        <ele>10.39999961853</ele>
        <time>2021-08-12T07:42:47.000Z</time>
      </trkpt>
      <trkpt lat="47.31531" lon="-2.44174">
        <ele>10.39999961853</ele>
        <time>2021-08-12T07:42:54.000Z</time>
      </trkpt>
      <trkpt lat="47.31549" lon="-2.44228">
        <ele>10.39999961853</ele>
        <time>2021-08-12T07:43:00.000Z</time>
      </trkpt>
      <trkpt lat="47.31561" lon="-2.44302">
        <ele>10.39999961853</ele>
        <time>2021-08-12T07:43:07.000Z</time>
      </trkpt>
      <trkpt lat="47.31564" lon="-2.44323">
        <ele>10</ele>
        <time>2021-08-12T07:43:09.000Z</time>
      </trkpt>
      <trkpt lat="47.31565" lon="-2.44333">
        <ele>9.6000003814697</ele>
        <time>2021-08-12T07:43:10.000Z</time>
      </trkpt>
      <trkpt lat="47.31567" lon="-2.44343">
        <ele>9.1999998092651</ele>
        <time>2021-08-12T07:43:11.000Z</time>
      </trkpt>
      <trkpt lat="47.31569" lon="-2.44352">
        <ele>8.8000001907349</ele>
        <time>2021-08-12T07:43:12.000Z</time>
      </trkpt>
      <trkpt lat="47.3157" lon="-2.44363">
        <ele>8.3999996185303</ele>
        <time>2021-08-12T07:43:13.000Z</time>
      </trkpt>
      <trkpt lat="47.31572" lon="-2.44373">
        <ele>8.3999996185303</ele>
        <time>2021-08-12T07:43:14.000Z</time>
      </trkpt>
      <trkpt lat="47.31586" lon="-2.44455">
        <ele>8.3999996185303</ele>
        <time>2021-08-12T07:43:22.000Z</time>
      </trkpt>
      <trkpt lat="47.31597" lon="-2.44508">
        <ele>8.3999996185303</ele>
        <time>2021-08-12T07:43:28.000Z</time>
      </trkpt>
      <trkpt lat="47.31614" lon="-2.44544">
        <ele>8.3999996185303</ele>
        <time>2021-08-12T07:43:33.000Z</time>
      </trkpt>
      <trkpt lat="47.31646" lon="-2.44597">
        <ele>8.3999996185303</ele>
        <time>2021-08-12T07:43:41.000Z</time>
      </trkpt>
      <trkpt lat="47.31671" lon="-2.44652">
        <ele>8.3999996185303</ele>
        <time>2021-08-12T07:43:48.000Z</time>
      </trkpt>
      <trkpt lat="47.31696" lon="-2.44714">
        <ele>8.3999996185303</ele>
        <time>2021-08-12T07:43:56.000Z</time>
      </trkpt>
      <trkpt lat="47.31724" lon="-2.44781">
        <ele>8.3999996185303</ele>
        <time>2021-08-12T07:44:05.000Z</time>
      </trkpt>
      <trkpt lat="47.31737" lon="-2.44786">
        <ele>8.3999996185303</ele>
        <time>2021-08-12T07:44:08.000Z</time>
      </trkpt>
      <trkpt lat="47.3175" lon="-2.44775">
        <ele>8.3999996185303</ele>
        <time>2021-08-12T07:44:11.000Z</time>
      </trkpt>
      <trkpt lat="47.31754" lon="-2.44771">
        <ele>8.3999996185303</ele>
        <time>2021-08-12T07:44:12.000Z</time>
      </trkpt>
      <trkpt lat="47.31774" lon="-2.44755">
        <ele>8.3999996185303</ele>
        <time>2021-08-12T07:44:16.000Z</time>
      </trkpt>
      <trkpt lat="47.31809" lon="-2.44731">
        <ele>8.8000001907349</ele>
        <time>2021-08-12T07:44:22.000Z</time>
      </trkpt>
      <trkpt lat="47.31815" lon="-2.44728">
        <ele>9.1999998092651</ele>
        <time>2021-08-12T07:44:23.000Z</time>
      </trkpt>
      <trkpt lat="47.31821" lon="-2.44724">
        <ele>9.6000003814697</ele>
        <time>2021-08-12T07:44:24.000Z</time>
      </trkpt>
      <trkpt lat="47.31827" lon="-2.44719">
        <ele>10</ele>
        <time>2021-08-12T07:44:25.000Z</time>
      </trkpt>
      <trkpt lat="47.31832" lon="-2.44714">
        <ele>10.60000038147</ele>
        <time>2021-08-12T07:44:26.000Z</time>
      </trkpt>
      <trkpt lat="47.31837" lon="-2.44709">
        <ele>10.60000038147</ele>
        <time>2021-08-12T07:44:27.000Z</time>
      </trkpt>
      <trkpt lat="47.31853" lon="-2.44684">
        <ele>10.60000038147</ele>
        <time>2021-08-12T07:44:31.000Z</time>
      </trkpt>
      <trkpt lat="47.3186" lon="-2.44669">
        <ele>10.60000038147</ele>
        <time>2021-08-12T07:44:33.000Z</time>
      </trkpt>
      <trkpt lat="47.31884" lon="-2.44605">
        <ele>10.60000038147</ele>
        <time>2021-08-12T07:44:41.000Z</time>
      </trkpt>
      <trkpt lat="47.31909" lon="-2.44542">
        <ele>10.60000038147</ele>
        <time>2021-08-12T07:44:49.000Z</time>
      </trkpt>
      <trkpt lat="47.31932" lon="-2.44485">
        <ele>10.60000038147</ele>
        <time>2021-08-12T07:44:56.000Z</time>
      </trkpt>
      <trkpt lat="47.31959" lon="-2.44419">
        <ele>10.60000038147</ele>
        <time>2021-08-12T07:45:04.000Z</time>
      </trkpt>
      <trkpt lat="47.31973" lon="-2.4438">
        <ele>10.60000038147</ele>
        <time>2021-08-12T07:45:09.000Z</time>
      </trkpt>
      <trkpt lat="47.31991" lon="-2.4435">
        <ele>11</ele>
        <time>2021-08-12T07:45:14.000Z</time>
      </trkpt>
      <trkpt lat="47.31995" lon="-2.44345">
        <ele>11.39999961853</ele>
        <time>2021-08-12T07:45:15.000Z</time>
      </trkpt>
      <trkpt lat="47.31999" lon="-2.44339">
        <ele>11.800000190735</ele>
        <time>2021-08-12T07:45:16.000Z</time>
      </trkpt>
      <trkpt lat="47.32003" lon="-2.44333">
        <ele>12.199999809265</ele>
        <time>2021-08-12T07:45:17.000Z</time>
      </trkpt>
      <trkpt lat="47.32007" lon="-2.44328">
        <ele>12.60000038147</ele>
        <time>2021-08-12T07:45:18.000Z</time>
      </trkpt>
      <trkpt lat="47.32028" lon="-2.44293">
        <ele>13</ele>
        <time>2021-08-12T07:45:24.000Z</time>
      </trkpt>
      <trkpt lat="47.32031" lon="-2.44287">
        <ele>13.39999961853</ele>
        <time>2021-08-12T07:45:25.000Z</time>
      </trkpt>
      <trkpt lat="47.32034" lon="-2.44282">
        <ele>13.800000190735</ele>
        <time>2021-08-12T07:45:26.000Z</time>
      </trkpt>
      <trkpt lat="47.32038" lon="-2.44276">
        <ele>14.199999809265</ele>
        <time>2021-08-12T07:45:27.000Z</time>
      </trkpt>
      <trkpt lat="47.32041" lon="-2.44271">
        <ele>14.60000038147</ele>
        <time>2021-08-12T07:45:28.000Z</time>
      </trkpt>
      <trkpt lat="47.32045" lon="-2.44266">
        <ele>15</ele>
        <time>2021-08-12T07:45:29.000Z</time>
      </trkpt>
      <trkpt lat="47.32048" lon="-2.4426">
        <ele>15.39999961853</ele>
        <time>2021-08-12T07:45:30.000Z</time>
      </trkpt>
      <trkpt lat="47.32052" lon="-2.44256">
        <ele>15.800000190735</ele>
        <time>2021-08-12T07:45:31.000Z</time>
      </trkpt>
      <trkpt lat="47.32055" lon="-2.4425">
        <ele>16.39999961853</ele>
        <time>2021-08-12T07:45:32.000Z</time>
      </trkpt>
      <trkpt lat="47.32059" lon="-2.44245">
        <ele>16.799999237061</ele>
        <time>2021-08-12T07:45:33.000Z</time>
      </trkpt>
      <trkpt lat="47.32069" lon="-2.44231">
        <ele>17.200000762939</ele>
        <time>2021-08-12T07:45:36.000Z</time>
      </trkpt>
      <trkpt lat="47.32072" lon="-2.44226">
        <ele>17.60000038147</ele>
        <time>2021-08-12T07:45:37.000Z</time>
      </trkpt>
      <trkpt lat="47.32075" lon="-2.44222">
        <ele>18</ele>
        <time>2021-08-12T07:45:38.000Z</time>
      </trkpt>
      <trkpt lat="47.32078" lon="-2.44217">
        <ele>18.39999961853</ele>
        <time>2021-08-12T07:45:39.000Z</time>
      </trkpt>
      <trkpt lat="47.32082" lon="-2.44213">
        <ele>19</ele>
        <time>2021-08-12T07:45:40.000Z</time>
      </trkpt>
      <trkpt lat="47.32089" lon="-2.44206">
        <ele>19</ele>
        <time>2021-08-12T07:45:42.000Z</time>
      </trkpt>
      <trkpt lat="47.32092" lon="-2.44202">
        <ele>19.39999961853</ele>
        <time>2021-08-12T07:45:43.000Z</time>
      </trkpt>
      <trkpt lat="47.32095" lon="-2.44198">
        <ele>19.799999237061</ele>
        <time>2021-08-12T07:45:44.000Z</time>
      </trkpt>
      <trkpt lat="47.32098" lon="-2.44193">
        <ele>20.200000762939</ele>
        <time>2021-08-12T07:45:45.000Z</time>
      </trkpt>
      <trkpt lat="47.32102" lon="-2.4419">
        <ele>20.60000038147</ele>
        <time>2021-08-12T07:45:46.000Z</time>
      </trkpt>
      <trkpt lat="47.32105" lon="-2.44186">
        <ele>21</ele>
        <time>2021-08-12T07:45:47.000Z</time>
      </trkpt>
      <trkpt lat="47.32114" lon="-2.44174">
        <ele>21</ele>
        <time>2021-08-12T07:45:50.000Z</time>
      </trkpt>
      <trkpt lat="47.32117" lon="-2.4417">
        <ele>21.39999961853</ele>
        <time>2021-08-12T07:45:51.000Z</time>
      </trkpt>
      <trkpt lat="47.3212" lon="-2.44166">
        <ele>21.799999237061</ele>
        <time>2021-08-12T07:45:52.000Z</time>
      </trkpt>
      <trkpt lat="47.32123" lon="-2.44163">
        <ele>22.39999961853</ele>
        <time>2021-08-12T07:45:53.000Z</time>
      </trkpt>
      <trkpt lat="47.32126" lon="-2.44159">
        <ele>23.200000762939</ele>
        <time>2021-08-12T07:45:54.000Z</time>
      </trkpt>
      <trkpt lat="47.32135" lon="-2.44149">
        <ele>23.200000762939</ele>
        <time>2021-08-12T07:45:57.000Z</time>
      </trkpt>
      <trkpt lat="47.32137" lon="-2.44146">
        <ele>23.60000038147</ele>
        <time>2021-08-12T07:45:58.000Z</time>
      </trkpt>
      <trkpt lat="47.3214" lon="-2.44143">
        <ele>24</ele>
        <time>2021-08-12T07:45:59.000Z</time>
      </trkpt>
      <trkpt lat="47.32142" lon="-2.4414">
        <ele>24.39999961853</ele>
        <time>2021-08-12T07:46:00.000Z</time>
      </trkpt>
      <trkpt lat="47.32144" lon="-2.44138">
        <ele>25</ele>
        <time>2021-08-12T07:46:01.000Z</time>
      </trkpt>
      <trkpt lat="47.32147" lon="-2.44135">
        <ele>25.39999961853</ele>
        <time>2021-08-12T07:46:02.000Z</time>
      </trkpt>
      <trkpt lat="47.3215" lon="-2.44132">
        <ele>25.39999961853</ele>
        <time>2021-08-12T07:46:03.000Z</time>
      </trkpt>
      <trkpt lat="47.32158" lon="-2.44123">
        <ele>25.799999237061</ele>
        <time>2021-08-12T07:46:06.000Z</time>
      </trkpt>
      <trkpt lat="47.32161" lon="-2.44119">
        <ele>26.200000762939</ele>
        <time>2021-08-12T07:46:07.000Z</time>
      </trkpt>
      <trkpt lat="47.32163" lon="-2.44115">
        <ele>26.60000038147</ele>
        <time>2021-08-12T07:46:08.000Z</time>
      </trkpt>
      <trkpt lat="47.32165" lon="-2.44111">
        <ele>27</ele>
        <time>2021-08-12T07:46:09.000Z</time>
      </trkpt>
      <trkpt lat="47.32168" lon="-2.44107">
        <ele>27.39999961853</ele>
        <time>2021-08-12T07:46:10.000Z</time>
      </trkpt>
      <trkpt lat="47.32179" lon="-2.44095">
        <ele>27.799999237061</ele>
        <time>2021-08-12T07:46:14.000Z</time>
      </trkpt>
      <trkpt lat="47.32182" lon="-2.44092">
        <ele>28.200000762939</ele>
        <time>2021-08-12T07:46:15.000Z</time>
      </trkpt>
      <trkpt lat="47.32185" lon="-2.44089">
        <ele>28.60000038147</ele>
        <time>2021-08-12T07:46:16.000Z</time>
      </trkpt>
      <trkpt lat="47.32188" lon="-2.44086">
        <ele>29.200000762939</ele>
        <time>2021-08-12T07:46:17.000Z</time>
      </trkpt>
      <trkpt lat="47.32191" lon="-2.44083">
        <ele>29.60000038147</ele>
        <time>2021-08-12T07:46:18.000Z</time>
      </trkpt>
      <trkpt lat="47.32196" lon="-2.44077">
        <ele>29.60000038147</ele>
        <time>2021-08-12T07:46:20.000Z</time>
      </trkpt>
      <trkpt lat="47.32208" lon="-2.44068">
        <ele>30</ele>
        <time>2021-08-12T07:46:24.000Z</time>
      </trkpt>
      <trkpt lat="47.32211" lon="-2.44066">
        <ele>30.39999961853</ele>
        <time>2021-08-12T07:46:25.000Z</time>
      </trkpt>
      <trkpt lat="47.32214" lon="-2.44063">
        <ele>30.799999237061</ele>
        <time>2021-08-12T07:46:26.000Z</time>
      </trkpt>
      <trkpt lat="47.32217" lon="-2.44061">
        <ele>31.200000762939</ele>
        <time>2021-08-12T07:46:27.000Z</time>
      </trkpt>
      <trkpt lat="47.3222" lon="-2.44059">
        <ele>31.799999237061</ele>
        <time>2021-08-12T07:46:28.000Z</time>
      </trkpt>
      <trkpt lat="47.32229" lon="-2.44055">
        <ele>31.799999237061</ele>
        <time>2021-08-12T07:46:31.000Z</time>
      </trkpt>
      <trkpt lat="47.32241" lon="-2.4405">
        <ele>32.200000762939</ele>
        <time>2021-08-12T07:46:35.000Z</time>
      </trkpt>
      <trkpt lat="47.32243" lon="-2.44049">
        <ele>32.599998474121</ele>
        <time>2021-08-12T07:46:36.000Z</time>
      </trkpt>
      <trkpt lat="47.32247" lon="-2.44048">
        <ele>33</ele>
        <time>2021-08-12T07:46:37.000Z</time>
      </trkpt>
      <trkpt lat="47.3225" lon="-2.44047">
        <ele>33.400001525879</ele>
        <time>2021-08-12T07:46:38.000Z</time>
      </trkpt>
      <trkpt lat="47.32254" lon="-2.44046">
        <ele>33.799999237061</ele>
        <time>2021-08-12T07:46:39.000Z</time>
      </trkpt>
      <trkpt lat="47.32274" lon="-2.44049">
        <ele>33.799999237061</ele>
        <time>2021-08-12T07:46:44.000Z</time>
      </trkpt>
      <trkpt lat="47.32293" lon="-2.44054">
        <ele>33.799999237061</ele>
        <time>2021-08-12T07:46:50.000Z</time>
      </trkpt>
      <trkpt lat="47.32312" lon="-2.44063">
        <ele>34.200000762939</ele>
        <time>2021-08-12T07:46:55.000Z</time>
      </trkpt>
      <trkpt lat="47.32316" lon="-2.44064">
        <ele>34.599998474121</ele>
        <time>2021-08-12T07:46:56.000Z</time>
      </trkpt>
      <trkpt lat="47.3232" lon="-2.44065">
        <ele>35</ele>
        <time>2021-08-12T07:46:57.000Z</time>
      </trkpt>
      <trkpt lat="47.32323" lon="-2.44066">
        <ele>35.400001525879</ele>
        <time>2021-08-12T07:46:58.000Z</time>
      </trkpt>
      <trkpt lat="47.32327" lon="-2.44067">
        <ele>35.799999237061</ele>
        <time>2021-08-12T07:46:59.000Z</time>
      </trkpt>
      <trkpt lat="47.32338" lon="-2.44068">
        <ele>35.799999237061</ele>
        <time>2021-08-12T07:47:02.000Z</time>
      </trkpt>
      <trkpt lat="47.32355" lon="-2.44072">
        <ele>36.200000762939</ele>
        <time>2021-08-12T07:47:07.000Z</time>
      </trkpt>
      <trkpt lat="47.32359" lon="-2.44071">
        <ele>36.799999237061</ele>
        <time>2021-08-12T07:47:08.000Z</time>
      </trkpt>
      <trkpt lat="47.32363" lon="-2.4407">
        <ele>37.200000762939</ele>
        <time>2021-08-12T07:47:09.000Z</time>
      </trkpt>
      <trkpt lat="47.32367" lon="-2.44069">
        <ele>37.599998474121</ele>
        <time>2021-08-12T07:47:10.000Z</time>
      </trkpt>
      <trkpt lat="47.32371" lon="-2.44067">
        <ele>38</ele>
        <time>2021-08-12T07:47:11.000Z</time>
      </trkpt>
      <trkpt lat="47.32382" lon="-2.44063">
        <ele>38</ele>
        <time>2021-08-12T07:47:14.000Z</time>
      </trkpt>
      <trkpt lat="47.3241" lon="-2.44046">
        <ele>38.400001525879</ele>
        <time>2021-08-12T07:47:22.000Z</time>
      </trkpt>
      <trkpt lat="47.32414" lon="-2.44044">
        <ele>38.799999237061</ele>
        <time>2021-08-12T07:47:23.000Z</time>
      </trkpt>
      <trkpt lat="47.32417" lon="-2.44042">
        <ele>39.200000762939</ele>
        <time>2021-08-12T07:47:24.000Z</time>
      </trkpt>
      <trkpt lat="47.3242" lon="-2.4404">
        <ele>39.799999237061</ele>
        <time>2021-08-12T07:47:25.000Z</time>
      </trkpt>
      <trkpt lat="47.32424" lon="-2.44037">
        <ele>40.200000762939</ele>
        <time>2021-08-12T07:47:26.000Z</time>
      </trkpt>
      <trkpt lat="47.32434" lon="-2.4403">
        <ele>40.200000762939</ele>
        <time>2021-08-12T07:47:29.000Z</time>
      </trkpt>
      <trkpt lat="47.3245" lon="-2.4402">
        <ele>40.599998474121</ele>
        <time>2021-08-12T07:47:33.000Z</time>
      </trkpt>
      <trkpt lat="47.32453" lon="-2.44017">
        <ele>41</ele>
        <time>2021-08-12T07:47:34.000Z</time>
      </trkpt>
      <trkpt lat="47.32457" lon="-2.44014">
        <ele>41.400001525879</ele>
        <time>2021-08-12T07:47:35.000Z</time>
      </trkpt>
      <trkpt lat="47.32461" lon="-2.44012">
        <ele>41.799999237061</ele>
        <time>2021-08-12T07:47:36.000Z</time>
      </trkpt>
      <trkpt lat="47.32465" lon="-2.44009">
        <ele>42.200000762939</ele>
        <time>2021-08-12T07:47:37.000Z</time>
      </trkpt>
      <trkpt lat="47.32487" lon="-2.43995">
        <ele>42.200000762939</ele>
        <time>2021-08-12T07:47:43.000Z</time>
      </trkpt>
      <trkpt lat="47.32507" lon="-2.43984">
        <ele>42.200000762939</ele>
        <time>2021-08-12T07:47:50.000Z</time>
      </trkpt>
      <trkpt lat="47.32512" lon="-2.43983">
        <ele>42.200000762939</ele>
        <time>2021-08-12T07:47:53.000Z</time>
      </trkpt>
      <trkpt lat="47.32514" lon="-2.43987">
        <ele>42.200000762939</ele>
        <time>2021-08-12T07:47:55.000Z</time>
      </trkpt>
      <trkpt lat="47.32515" lon="-2.43993">
        <ele>42.200000762939</ele>
        <time>2021-08-12T07:48:00.000Z</time>
      </trkpt>
      <trkpt lat="47.32517" lon="-2.44">
        <ele>42.200000762939</ele>
        <time>2021-08-12T07:49:16.000Z</time>
      </trkpt>
      <trkpt lat="47.32525" lon="-2.44012">
        <ele>42.200000762939</ele>
        <time>2021-08-12T07:49:21.000Z</time>
      </trkpt>
      <trkpt lat="47.32536" lon="-2.44019">
        <ele>42.200000762939</ele>
        <time>2021-08-12T07:49:25.000Z</time>
      </trkpt>
      <trkpt lat="47.32559" lon="-2.44031">
        <ele>42.200000762939</ele>
        <time>2021-08-12T07:49:32.000Z</time>
      </trkpt>
      <trkpt lat="47.32573" lon="-2.44041">
        <ele>42.599998474121</ele>
        <time>2021-08-12T07:49:38.000Z</time>
      </trkpt>
      <trkpt lat="47.32571" lon="-2.44045">
        <ele>43</ele>
        <time>2021-08-12T07:49:39.000Z</time>
      </trkpt>
      <trkpt lat="47.3257" lon="-2.44048">
        <ele>43.400001525879</ele>
        <time>2021-08-12T07:49:40.000Z</time>
      </trkpt>
      <trkpt lat="47.32568" lon="-2.44053">
        <ele>43.799999237061</ele>
        <time>2021-08-12T07:49:41.000Z</time>
      </trkpt>
      <trkpt lat="47.32566" lon="-2.44057">
        <ele>44.200000762939</ele>
        <time>2021-08-12T07:49:42.000Z</time>
      </trkpt>
      <trkpt lat="47.32554" lon="-2.44094">
        <ele>44.200000762939</ele>
        <time>2021-08-12T07:49:48.000Z</time>
      </trkpt>
      <trkpt lat="47.32542" lon="-2.44139">
        <ele>44.200000762939</ele>
        <time>2021-08-12T07:49:54.000Z</time>
      </trkpt>
      <trkpt lat="47.32528" lon="-2.44185">
        <ele>44.200000762939</ele>
        <time>2021-08-12T07:50:00.000Z</time>
      </trkpt>
      <trkpt lat="47.32527" lon="-2.442">
        <ele>44.200000762939</ele>
        <time>2021-08-12T07:50:02.000Z</time>
      </trkpt>
      <trkpt lat="47.32529" lon="-2.44208">
        <ele>44.200000762939</ele>
        <time>2021-08-12T07:50:03.000Z</time>
      </trkpt>
      <trkpt lat="47.32539" lon="-2.44231">
        <ele>44.200000762939</ele>
        <time>2021-08-12T07:50:07.000Z</time>
      </trkpt>
      <trkpt lat="47.32554" lon="-2.44257">
        <ele>44.200000762939</ele>
        <time>2021-08-12T07:50:12.000Z</time>
      </trkpt>
      <trkpt lat="47.32556" lon="-2.44263">
        <ele>44.200000762939</ele>
        <time>2021-08-12T07:50:13.000Z</time>
      </trkpt>
      <trkpt lat="47.32561" lon="-2.44287">
        <ele>44.200000762939</ele>
        <time>2021-08-12T07:50:16.000Z</time>
      </trkpt>
      <trkpt lat="47.32563" lon="-2.44295">
        <ele>44.200000762939</ele>
        <time>2021-08-12T07:50:17.000Z</time>
      </trkpt>
      <trkpt lat="47.32565" lon="-2.44302">
        <ele>44.200000762939</ele>
        <time>2021-08-12T07:50:18.000Z</time>
      </trkpt>
      <trkpt lat="47.32573" lon="-2.44322">
        <ele>44.200000762939</ele>
        <time>2021-08-12T07:50:21.000Z</time>
      </trkpt>
      <trkpt lat="47.32588" lon="-2.44362">
        <ele>44.200000762939</ele>
        <time>2021-08-12T07:50:27.000Z</time>
      </trkpt>
      <trkpt lat="47.32592" lon="-2.44368">
        <ele>44.200000762939</ele>
        <time>2021-08-12T07:50:28.000Z</time>
      </trkpt>
      <trkpt lat="47.32604" lon="-2.44384">
        <ele>44.200000762939</ele>
        <time>2021-08-12T07:50:31.000Z</time>
      </trkpt>
      <trkpt lat="47.3261" lon="-2.44392">
        <ele>44.200000762939</ele>
        <time>2021-08-12T07:50:33.000Z</time>
      </trkpt>
      <trkpt lat="47.32616" lon="-2.44402">
        <ele>44.200000762939</ele>
        <time>2021-08-12T07:50:35.000Z</time>
      </trkpt>
      <trkpt lat="47.32622" lon="-2.44414">
        <ele>44.200000762939</ele>
        <time>2021-08-12T07:50:37.000Z</time>
      </trkpt>
      <trkpt lat="47.32648" lon="-2.44463">
        <ele>44.200000762939</ele>
        <time>2021-08-12T07:50:44.000Z</time>
      </trkpt>
      <trkpt lat="47.32657" lon="-2.44486">
        <ele>44.200000762939</ele>
        <time>2021-08-12T07:50:47.000Z</time>
      </trkpt>
      <trkpt lat="47.32664" lon="-2.44494">
        <ele>44.200000762939</ele>
        <time>2021-08-12T07:50:49.000Z</time>
      </trkpt>
      <trkpt lat="47.32668" lon="-2.44496">
        <ele>45</ele>
        <time>2021-08-12T07:50:50.000Z</time>
      </trkpt>
      <trkpt lat="47.32669" lon="-2.44499">
        <ele>45.400001525879</ele>
        <time>2021-08-12T07:50:51.000Z</time>
      </trkpt>
      <trkpt lat="47.32669" lon="-2.44502">
        <ele>45.799999237061</ele>
        <time>2021-08-12T07:50:52.000Z</time>
      </trkpt>
      <trkpt lat="47.32668" lon="-2.44505">
        <ele>46.200000762939</ele>
        <time>2021-08-12T07:50:53.000Z</time>
      </trkpt>
      <trkpt lat="47.32663" lon="-2.44516">
        <ele>46.200000762939</ele>
        <time>2021-08-12T07:50:56.000Z</time>
      </trkpt>
      <trkpt lat="47.32658" lon="-2.44525">
        <ele>46.200000762939</ele>
        <time>2021-08-12T07:50:58.000Z</time>
      </trkpt>
      <trkpt lat="47.32651" lon="-2.44537">
        <ele>46.200000762939</ele>
        <time>2021-08-12T07:51:00.000Z</time>
      </trkpt>
      <trkpt lat="47.32648" lon="-2.44544">
        <ele>46.200000762939</ele>
        <time>2021-08-12T07:51:01.000Z</time>
      </trkpt>
      <trkpt lat="47.32633" lon="-2.44573">
        <ele>46.200000762939</ele>
        <time>2021-08-12T07:51:05.000Z</time>
      </trkpt>
      <trkpt lat="47.32616" lon="-2.446">
        <ele>45.799999237061</ele>
        <time>2021-08-12T07:51:09.000Z</time>
      </trkpt>
      <trkpt lat="47.32612" lon="-2.44605">
        <ele>45.400001525879</ele>
        <time>2021-08-12T07:51:10.000Z</time>
      </trkpt>
      <trkpt lat="47.32609" lon="-2.44612">
        <ele>45</ele>
        <time>2021-08-12T07:51:11.000Z</time>
      </trkpt>
      <trkpt lat="47.32605" lon="-2.44618">
        <ele>44.599998474121</ele>
        <time>2021-08-12T07:51:12.000Z</time>
      </trkpt>
      <trkpt lat="47.32601" lon="-2.44625">
        <ele>44.200000762939</ele>
        <time>2021-08-12T07:51:13.000Z</time>
      </trkpt>
      <trkpt lat="47.32596" lon="-2.44632">
        <ele>44.200000762939</ele>
        <time>2021-08-12T07:51:14.000Z</time>
      </trkpt>
      <trkpt lat="47.32587" lon="-2.44644">
        <ele>44.200000762939</ele>
        <time>2021-08-12T07:51:16.000Z</time>
      </trkpt>
      <trkpt lat="47.32582" lon="-2.4465">
        <ele>43.799999237061</ele>
        <time>2021-08-12T07:51:17.000Z</time>
      </trkpt>
      <trkpt lat="47.32577" lon="-2.44656">
        <ele>43.400001525879</ele>
        <time>2021-08-12T07:51:18.000Z</time>
      </trkpt>
      <trkpt lat="47.32572" lon="-2.44662">
        <ele>42.799999237061</ele>
        <time>2021-08-12T07:51:19.000Z</time>
      </trkpt>
      <trkpt lat="47.32567" lon="-2.44669">
        <ele>42.400001525879</ele>
        <time>2021-08-12T07:51:20.000Z</time>
      </trkpt>
      <trkpt lat="47.32562" lon="-2.44676">
        <ele>42</ele>
        <time>2021-08-12T07:51:21.000Z</time>
      </trkpt>
      <trkpt lat="47.32557" lon="-2.44683">
        <ele>42</ele>
        <time>2021-08-12T07:51:22.000Z</time>
      </trkpt>
      <trkpt lat="47.32546" lon="-2.44696">
        <ele>41.599998474121</ele>
        <time>2021-08-12T07:51:24.000Z</time>
      </trkpt>
      <trkpt lat="47.32541" lon="-2.44704">
        <ele>41.200000762939</ele>
        <time>2021-08-12T07:51:25.000Z</time>
      </trkpt>
      <trkpt lat="47.32536" lon="-2.44712">
        <ele>40.799999237061</ele>
        <time>2021-08-12T07:51:26.000Z</time>
      </trkpt>
      <trkpt lat="47.32532" lon="-2.44719">
        <ele>40.200000762939</ele>
        <time>2021-08-12T07:51:27.000Z</time>
      </trkpt>
      <trkpt lat="47.32529" lon="-2.44726">
        <ele>39.799999237061</ele>
        <time>2021-08-12T07:51:28.000Z</time>
      </trkpt>
      <trkpt lat="47.32527" lon="-2.44734">
        <ele>39.200000762939</ele>
        <time>2021-08-12T07:51:29.000Z</time>
      </trkpt>
      <trkpt lat="47.32525" lon="-2.44741">
        <ele>38.599998474121</ele>
        <time>2021-08-12T07:51:30.000Z</time>
      </trkpt>
      <trkpt lat="47.32521" lon="-2.44745">
        <ele>38</ele>
        <time>2021-08-12T07:51:31.000Z</time>
      </trkpt>
      <trkpt lat="47.32517" lon="-2.44748">
        <ele>37.400001525879</ele>
        <time>2021-08-12T07:51:32.000Z</time>
      </trkpt>
      <trkpt lat="47.32502" lon="-2.44757">
        <ele>37</ele>
        <time>2021-08-12T07:51:35.000Z</time>
      </trkpt>
      <trkpt lat="47.32496" lon="-2.44762">
        <ele>36.599998474121</ele>
        <time>2021-08-12T07:51:36.000Z</time>
      </trkpt>
      <trkpt lat="47.3249" lon="-2.44767">
        <ele>36.200000762939</ele>
        <time>2021-08-12T07:51:37.000Z</time>
      </trkpt>
      <trkpt lat="47.32483" lon="-2.44773">
        <ele>35.799999237061</ele>
        <time>2021-08-12T07:51:38.000Z</time>
      </trkpt>
      <trkpt lat="47.32476" lon="-2.44778">
        <ele>35.400001525879</ele>
        <time>2021-08-12T07:51:39.000Z</time>
      </trkpt>
      <trkpt lat="47.32461" lon="-2.44788">
        <ele>35</ele>
        <time>2021-08-12T07:51:41.000Z</time>
      </trkpt>
      <trkpt lat="47.32453" lon="-2.44793">
        <ele>34.400001525879</ele>
        <time>2021-08-12T07:51:42.000Z</time>
      </trkpt>
      <trkpt lat="47.32445" lon="-2.44799">
        <ele>34</ele>
        <time>2021-08-12T07:51:43.000Z</time>
      </trkpt>
      <trkpt lat="47.32437" lon="-2.44805">
        <ele>33.599998474121</ele>
        <time>2021-08-12T07:51:44.000Z</time>
      </trkpt>
      <trkpt lat="47.32429" lon="-2.44811">
        <ele>33.200000762939</ele>
        <time>2021-08-12T07:51:45.000Z</time>
      </trkpt>
      <trkpt lat="47.32404" lon="-2.44827">
        <ele>32.799999237061</ele>
        <time>2021-08-12T07:51:48.000Z</time>
      </trkpt>
      <trkpt lat="47.32396" lon="-2.44832">
        <ele>32.200000762939</ele>
        <time>2021-08-12T07:51:49.000Z</time>
      </trkpt>
      <trkpt lat="47.32387" lon="-2.44838">
        <ele>31.799999237061</ele>
        <time>2021-08-12T07:51:50.000Z</time>
      </trkpt>
      <trkpt lat="47.32379" lon="-2.44844">
        <ele>31.39999961853</ele>
        <time>2021-08-12T07:51:51.000Z</time>
      </trkpt>
      <trkpt lat="47.32371" lon="-2.44851">
        <ele>31</ele>
        <time>2021-08-12T07:51:52.000Z</time>
      </trkpt>
      <trkpt lat="47.32357" lon="-2.44863">
        <ele>31</ele>
        <time>2021-08-12T07:51:54.000Z</time>
      </trkpt>
      <trkpt lat="47.32351" lon="-2.44869">
        <ele>30.60000038147</ele>
        <time>2021-08-12T07:51:55.000Z</time>
      </trkpt>
      <trkpt lat="47.32346" lon="-2.44876">
        <ele>30.200000762939</ele>
        <time>2021-08-12T07:51:56.000Z</time>
      </trkpt>
      <trkpt lat="47.32341" lon="-2.44882">
        <ele>29.799999237061</ele>
        <time>2021-08-12T07:51:57.000Z</time>
      </trkpt>
      <trkpt lat="47.32336" lon="-2.44888">
        <ele>29.200000762939</ele>
        <time>2021-08-12T07:51:58.000Z</time>
      </trkpt>
      <trkpt lat="47.32331" lon="-2.44894">
        <ele>28.799999237061</ele>
        <time>2021-08-12T07:51:59.000Z</time>
      </trkpt>
      <trkpt lat="47.32294" lon="-2.44941">
        <ele>28.799999237061</ele>
        <time>2021-08-12T07:52:06.000Z</time>
      </trkpt>
      <trkpt lat="47.3226" lon="-2.4498">
        <ele>28.39999961853</ele>
        <time>2021-08-12T07:52:12.000Z</time>
      </trkpt>
      <trkpt lat="47.32253" lon="-2.44987">
        <ele>28</ele>
        <time>2021-08-12T07:52:13.000Z</time>
      </trkpt>
      <trkpt lat="47.32247" lon="-2.44994">
        <ele>27.60000038147</ele>
        <time>2021-08-12T07:52:14.000Z</time>
      </trkpt>
      <trkpt lat="47.3224" lon="-2.45003">
        <ele>27.200000762939</ele>
        <time>2021-08-12T07:52:15.000Z</time>
      </trkpt>
      <trkpt lat="47.32234" lon="-2.45011">
        <ele>26.799999237061</ele>
        <time>2021-08-12T07:52:16.000Z</time>
      </trkpt>
      <trkpt lat="47.32228" lon="-2.45018">
        <ele>26.200000762939</ele>
        <time>2021-08-12T07:52:17.000Z</time>
      </trkpt>
      <trkpt lat="47.32222" lon="-2.45024">
        <ele>25.60000038147</ele>
        <time>2021-08-12T07:52:18.000Z</time>
      </trkpt>
      <trkpt lat="47.32218" lon="-2.45029">
        <ele>24.799999237061</ele>
        <time>2021-08-12T07:52:19.000Z</time>
      </trkpt>
      <trkpt lat="47.32216" lon="-2.45034">
        <ele>24</ele>
        <time>2021-08-12T07:52:20.000Z</time>
      </trkpt>
      <trkpt lat="47.32216" lon="-2.45039">
        <ele>23.200000762939</ele>
        <time>2021-08-12T07:52:21.000Z</time>
      </trkpt>
      <trkpt lat="47.32218" lon="-2.45045">
        <ele>22.39999961853</ele>
        <time>2021-08-12T07:52:22.000Z</time>
      </trkpt>
      <trkpt lat="47.3222" lon="-2.45051">
        <ele>21.60000038147</ele>
        <time>2021-08-12T07:52:23.000Z</time>
      </trkpt>
      <trkpt lat="47.32223" lon="-2.45057">
        <ele>20.799999237061</ele>
        <time>2021-08-12T07:52:24.000Z</time>
      </trkpt>
      <trkpt lat="47.32226" lon="-2.45063">
        <ele>20</ele>
        <time>2021-08-12T07:52:25.000Z</time>
      </trkpt>
      <trkpt lat="47.3223" lon="-2.4507">
        <ele>19.200000762939</ele>
        <time>2021-08-12T07:52:26.000Z</time>
      </trkpt>
      <trkpt lat="47.32243" lon="-2.45097">
        <ele>19.200000762939</ele>
        <time>2021-08-12T07:52:30.000Z</time>
      </trkpt>
      <trkpt lat="47.32261" lon="-2.45149">
        <ele>19.200000762939</ele>
        <time>2021-08-12T07:52:36.000Z</time>
      </trkpt>
      <trkpt lat="47.32274" lon="-2.45197">
        <ele>18.799999237061</ele>
        <time>2021-08-12T07:52:41.000Z</time>
      </trkpt>
      <trkpt lat="47.32278" lon="-2.45207">
        <ele>18.39999961853</ele>
        <time>2021-08-12T07:52:42.000Z</time>
      </trkpt>
      <trkpt lat="47.32282" lon="-2.45218">
        <ele>18</ele>
        <time>2021-08-12T07:52:43.000Z</time>
      </trkpt>
      <trkpt lat="47.32285" lon="-2.45228">
        <ele>17.60000038147</ele>
        <time>2021-08-12T07:52:44.000Z</time>
      </trkpt>
      <trkpt lat="47.32289" lon="-2.45237">
        <ele>17</ele>
        <time>2021-08-12T07:52:45.000Z</time>
      </trkpt>
      <trkpt lat="47.32293" lon="-2.45246">
        <ele>17</ele>
        <time>2021-08-12T07:52:46.000Z</time>
      </trkpt>
      <trkpt lat="47.32303" lon="-2.45273">
        <ele>17</ele>
        <time>2021-08-12T07:52:50.000Z</time>
      </trkpt>
      <trkpt lat="47.32314" lon="-2.45312">
        <ele>17</ele>
        <time>2021-08-12T07:52:56.000Z</time>
      </trkpt>
      <trkpt lat="47.32314" lon="-2.45318">
        <ele>17</ele>
        <time>2021-08-12T07:52:57.000Z</time>
      </trkpt>
      <trkpt lat="47.32315" lon="-2.45331">
        <ele>17</ele>
        <time>2021-08-12T07:52:59.000Z</time>
      </trkpt>
      <trkpt lat="47.32316" lon="-2.45346">
        <ele>17</ele>
        <time>2021-08-12T07:53:01.000Z</time>
      </trkpt>
      <trkpt lat="47.3232" lon="-2.45387">
        <ele>17</ele>
        <time>2021-08-12T07:53:06.000Z</time>
      </trkpt>
      <trkpt lat="47.3232" lon="-2.45394">
        <ele>17</ele>
        <time>2021-08-12T07:53:07.000Z</time>
      </trkpt>
      <trkpt lat="47.32318" lon="-2.45401">
        <ele>16.60000038147</ele>
        <time>2021-08-12T07:53:08.000Z</time>
      </trkpt>
      <trkpt lat="47.32315" lon="-2.45407">
        <ele>16.200000762939</ele>
        <time>2021-08-12T07:53:09.000Z</time>
      </trkpt>
      <trkpt lat="47.32314" lon="-2.45415">
        <ele>15.800000190735</ele>
        <time>2021-08-12T07:53:10.000Z</time>
      </trkpt>
      <trkpt lat="47.32315" lon="-2.45423">
        <ele>15.199999809265</ele>
        <time>2021-08-12T07:53:11.000Z</time>
      </trkpt>
      <trkpt lat="47.32317" lon="-2.45431">
        <ele>14.800000190735</ele>
        <time>2021-08-12T07:53:12.000Z</time>
      </trkpt>
      <trkpt lat="47.32321" lon="-2.45438">
        <ele>14.800000190735</ele>
        <time>2021-08-12T07:53:13.000Z</time>
      </trkpt>
      <trkpt lat="47.32329" lon="-2.45451">
        <ele>14.800000190735</ele>
        <time>2021-08-12T07:53:15.000Z</time>
      </trkpt>
      <trkpt lat="47.32342" lon="-2.45472">
        <ele>14.800000190735</ele>
        <time>2021-08-12T07:53:18.000Z</time>
      </trkpt>
      <trkpt lat="47.32374" lon="-2.45519">
        <ele>14.800000190735</ele>
        <time>2021-08-12T07:53:25.000Z</time>
      </trkpt>
      <trkpt lat="47.32396" lon="-2.45562">
        <ele>14.800000190735</ele>
        <time>2021-08-12T07:53:31.000Z</time>
      </trkpt>
      <trkpt lat="47.32411" lon="-2.45587">
        <ele>14.800000190735</ele>
        <time>2021-08-12T07:53:36.000Z</time>
      </trkpt>
      <trkpt lat="47.32425" lon="-2.45625">
        <ele>14.800000190735</ele>
        <time>2021-08-12T07:53:41.000Z</time>
      </trkpt>
      <trkpt lat="47.32433" lon="-2.4564">
        <ele>14.800000190735</ele>
        <time>2021-08-12T07:53:43.000Z</time>
      </trkpt>
      <trkpt lat="47.32447" lon="-2.45661">
        <ele>14.800000190735</ele>
        <time>2021-08-12T07:53:46.000Z</time>
      </trkpt>
      <trkpt lat="47.32475" lon="-2.45708">
        <ele>14.800000190735</ele>
        <time>2021-08-12T07:53:52.000Z</time>
      </trkpt>
      <trkpt lat="47.32511" lon="-2.45768">
        <ele>14.800000190735</ele>
        <time>2021-08-12T07:54:00.000Z</time>
      </trkpt>
      <trkpt lat="47.32515" lon="-2.45775">
        <ele>14.39999961853</ele>
        <time>2021-08-12T07:54:01.000Z</time>
      </trkpt>
      <trkpt lat="47.32519" lon="-2.45782">
        <ele>14</ele>
        <time>2021-08-12T07:54:02.000Z</time>
      </trkpt>
      <trkpt lat="47.32522" lon="-2.45788">
        <ele>13.39999961853</ele>
        <time>2021-08-12T07:54:03.000Z</time>
      </trkpt>
      <trkpt lat="47.32526" lon="-2.45794">
        <ele>13</ele>
        <time>2021-08-12T07:54:04.000Z</time>
      </trkpt>
      <trkpt lat="47.3253" lon="-2.458">
        <ele>12.60000038147</ele>
        <time>2021-08-12T07:54:05.000Z</time>
      </trkpt>
      <trkpt lat="47.32534" lon="-2.45806">
        <ele>12.60000038147</ele>
        <time>2021-08-12T07:54:06.000Z</time>
      </trkpt>
      <trkpt lat="47.32541" lon="-2.45818">
        <ele>12.60000038147</ele>
        <time>2021-08-12T07:54:08.000Z</time>
      </trkpt>
      <trkpt lat="47.32556" lon="-2.45839">
        <ele>12.60000038147</ele>
        <time>2021-08-12T07:54:12.000Z</time>
      </trkpt>
      <trkpt lat="47.32577" lon="-2.45876">
        <ele>12.60000038147</ele>
        <time>2021-08-12T07:54:18.000Z</time>
      </trkpt>
      <trkpt lat="47.32588" lon="-2.45891">
        <ele>13</ele>
        <time>2021-08-12T07:54:21.000Z</time>
      </trkpt>
      <trkpt lat="47.32592" lon="-2.45896">
        <ele>13.39999961853</ele>
        <time>2021-08-12T07:54:22.000Z</time>
      </trkpt>
      <trkpt lat="47.32596" lon="-2.45901">
        <ele>13.800000190735</ele>
        <time>2021-08-12T07:54:23.000Z</time>
      </trkpt>
      <trkpt lat="47.326" lon="-2.45906">
        <ele>14.199999809265</ele>
        <time>2021-08-12T07:54:24.000Z</time>
      </trkpt>
      <trkpt lat="47.32604" lon="-2.45911">
        <ele>14.60000038147</ele>
        <time>2021-08-12T07:54:25.000Z</time>
      </trkpt>
      <trkpt lat="47.32611" lon="-2.45922">
        <ele>14.60000038147</ele>
        <time>2021-08-12T07:54:27.000Z</time>
      </trkpt>
      <trkpt lat="47.32626" lon="-2.45944">
        <ele>14.60000038147</ele>
        <time>2021-08-12T07:54:31.000Z</time>
      </trkpt>
      <trkpt lat="47.32628" lon="-2.45951">
        <ele>14.60000038147</ele>
        <time>2021-08-12T07:54:32.000Z</time>
      </trkpt>
      <trkpt lat="47.32641" lon="-2.45971">
        <ele>14.60000038147</ele>
        <time>2021-08-12T07:54:36.000Z</time>
      </trkpt>
      <trkpt lat="47.32661" lon="-2.45987">
        <ele>14.60000038147</ele>
        <time>2021-08-12T07:54:41.000Z</time>
      </trkpt>
      <trkpt lat="47.32673" lon="-2.45995">
        <ele>14.60000038147</ele>
        <time>2021-08-12T07:54:44.000Z</time>
      </trkpt>
      <trkpt lat="47.3268" lon="-2.46001">
        <ele>14.60000038147</ele>
        <time>2021-08-12T07:54:46.000Z</time>
      </trkpt>
      <trkpt lat="47.32694" lon="-2.46019">
        <ele>14.60000038147</ele>
        <time>2021-08-12T07:54:51.000Z</time>
      </trkpt>
      <trkpt lat="47.32713" lon="-2.46045">
        <ele>14.60000038147</ele>
        <time>2021-08-12T07:54:58.000Z</time>
      </trkpt>
      <trkpt lat="47.32728" lon="-2.46061">
        <ele>14.60000038147</ele>
        <time>2021-08-12T07:55:04.000Z</time>
      </trkpt>
      <trkpt lat="47.3274" lon="-2.46074">
        <ele>15</ele>
        <time>2021-08-12T07:55:09.000Z</time>
      </trkpt>
      <trkpt lat="47.32742" lon="-2.46077">
        <ele>15.39999961853</ele>
        <time>2021-08-12T07:55:10.000Z</time>
      </trkpt>
      <trkpt lat="47.32745" lon="-2.46081">
        <ele>15.800000190735</ele>
        <time>2021-08-12T07:55:11.000Z</time>
      </trkpt>
      <trkpt lat="47.32748" lon="-2.46086">
        <ele>16.39999961853</ele>
        <time>2021-08-12T07:55:12.000Z</time>
      </trkpt>
      <trkpt lat="47.3275" lon="-2.46091">
        <ele>16.799999237061</ele>
        <time>2021-08-12T07:55:13.000Z</time>
      </trkpt>
      <trkpt lat="47.32764" lon="-2.46112">
        <ele>16.799999237061</ele>
        <time>2021-08-12T07:55:18.000Z</time>
      </trkpt>
      <trkpt lat="47.32769" lon="-2.46128">
        <ele>16.799999237061</ele>
        <time>2021-08-12T07:55:22.000Z</time>
      </trkpt>
      <trkpt lat="47.32771" lon="-2.46135">
        <ele>17.60000038147</ele>
        <time>2021-08-12T07:55:23.000Z</time>
      </trkpt>
      <trkpt lat="47.32773" lon="-2.4614">
        <ele>18</ele>
        <time>2021-08-12T07:55:24.000Z</time>
      </trkpt>
      <trkpt lat="47.32775" lon="-2.46145">
        <ele>18.39999961853</ele>
        <time>2021-08-12T07:55:25.000Z</time>
      </trkpt>
      <trkpt lat="47.32777" lon="-2.46149">
        <ele>18.799999237061</ele>
        <time>2021-08-12T07:55:26.000Z</time>
      </trkpt>
      <trkpt lat="47.32791" lon="-2.4617">
        <ele>18.799999237061</ele>
        <time>2021-08-12T07:55:31.000Z</time>
      </trkpt>
      <trkpt lat="47.32807" lon="-2.46187">
        <ele>19.200000762939</ele>
        <time>2021-08-12T07:55:36.000Z</time>
      </trkpt>
      <trkpt lat="47.32811" lon="-2.46191">
        <ele>19.799999237061</ele>
        <time>2021-08-12T07:55:37.000Z</time>
      </trkpt>
      <trkpt lat="47.32815" lon="-2.46193">
        <ele>20.200000762939</ele>
        <time>2021-08-12T07:55:38.000Z</time>
      </trkpt>
      <trkpt lat="47.3282" lon="-2.46195">
        <ele>20.60000038147</ele>
        <time>2021-08-12T07:55:39.000Z</time>
      </trkpt>
      <trkpt lat="47.32824" lon="-2.46194">
        <ele>21</ele>
        <time>2021-08-12T07:55:40.000Z</time>
      </trkpt>
      <trkpt lat="47.32828" lon="-2.46191">
        <ele>21</ele>
        <time>2021-08-12T07:55:41.000Z</time>
      </trkpt>
      <trkpt lat="47.32849" lon="-2.46178">
        <ele>21.799999237061</ele>
        <time>2021-08-12T07:55:47.000Z</time>
      </trkpt>
      <trkpt lat="47.32853" lon="-2.46176">
        <ele>22.200000762939</ele>
        <time>2021-08-12T07:55:48.000Z</time>
      </trkpt>
      <trkpt lat="47.32856" lon="-2.46174">
        <ele>22.60000038147</ele>
        <time>2021-08-12T07:55:49.000Z</time>
      </trkpt>
      <trkpt lat="47.3286" lon="-2.46171">
        <ele>23.200000762939</ele>
        <time>2021-08-12T07:55:50.000Z</time>
      </trkpt>
      <trkpt lat="47.32869" lon="-2.46165">
        <ele>23.60000038147</ele>
        <time>2021-08-12T07:55:53.000Z</time>
      </trkpt>
      <trkpt lat="47.32872" lon="-2.46163">
        <ele>24</ele>
        <time>2021-08-12T07:55:54.000Z</time>
      </trkpt>
      <trkpt lat="47.32876" lon="-2.46161">
        <ele>24.39999961853</ele>
        <time>2021-08-12T07:55:55.000Z</time>
      </trkpt>
      <trkpt lat="47.32879" lon="-2.46159">
        <ele>24.799999237061</ele>
        <time>2021-08-12T07:55:56.000Z</time>
      </trkpt>
      <trkpt lat="47.32882" lon="-2.46157">
        <ele>25.39999961853</ele>
        <time>2021-08-12T07:55:57.000Z</time>
      </trkpt>
      <trkpt lat="47.32897" lon="-2.46151">
        <ele>25.799999237061</ele>
        <time>2021-08-12T07:56:02.000Z</time>
      </trkpt>
      <trkpt lat="47.329" lon="-2.46152">
        <ele>26.200000762939</ele>
        <time>2021-08-12T07:56:03.000Z</time>
      </trkpt>
      <trkpt lat="47.32903" lon="-2.46153">
        <ele>26.60000038147</ele>
        <time>2021-08-12T07:56:04.000Z</time>
      </trkpt>
      <trkpt lat="47.32905" lon="-2.46156">
        <ele>27</ele>
        <time>2021-08-12T07:56:05.000Z</time>
      </trkpt>
      <trkpt lat="47.32908" lon="-2.4616">
        <ele>27.39999961853</ele>
        <time>2021-08-12T07:56:06.000Z</time>
      </trkpt>
      <trkpt lat="47.32909" lon="-2.46164">
        <ele>27.39999961853</ele>
        <time>2021-08-12T07:56:07.000Z</time>
      </trkpt>
      <trkpt lat="47.32917" lon="-2.46193">
        <ele>27.39999961853</ele>
        <time>2021-08-12T07:56:13.000Z</time>
      </trkpt>
      <trkpt lat="47.32928" lon="-2.46225">
        <ele>27.39999961853</ele>
        <time>2021-08-12T07:56:20.000Z</time>
      </trkpt>
      <trkpt lat="47.32931" lon="-2.46235">
        <ele>27.39999961853</ele>
        <time>2021-08-12T07:56:25.000Z</time>
      </trkpt>
      <trkpt lat="47.32934" lon="-2.46247">
        <ele>27.39999961853</ele>
        <time>2021-08-12T07:56:32.000Z</time>
      </trkpt>
      <trkpt lat="47.32939" lon="-2.46265">
        <ele>27.39999961853</ele>
        <time>2021-08-12T07:56:41.000Z</time>
      </trkpt>
      <trkpt lat="47.32942" lon="-2.46284">
        <ele>27.39999961853</ele>
        <time>2021-08-12T07:56:48.000Z</time>
      </trkpt>
      <trkpt lat="47.32948" lon="-2.4631">
        <ele>27.39999961853</ele>
        <time>2021-08-12T07:56:53.000Z</time>
      </trkpt>
      <trkpt lat="47.32959" lon="-2.46349">
        <ele>27</ele>
        <time>2021-08-12T07:56:58.000Z</time>
      </trkpt>
      <trkpt lat="47.32962" lon="-2.46359">
        <ele>26.39999961853</ele>
        <time>2021-08-12T07:56:59.000Z</time>
      </trkpt>
      <trkpt lat="47.32964" lon="-2.46371">
        <ele>26</ele>
        <time>2021-08-12T07:57:00.000Z</time>
      </trkpt>
      <trkpt lat="47.32965" lon="-2.46382">
        <ele>25</ele>
        <time>2021-08-12T07:57:01.000Z</time>
      </trkpt>
      <trkpt lat="47.32966" lon="-2.46393">
        <ele>24.60000038147</ele>
        <time>2021-08-12T07:57:02.000Z</time>
      </trkpt>
      <trkpt lat="47.32966" lon="-2.46405">
        <ele>24.200000762939</ele>
        <time>2021-08-12T07:57:03.000Z</time>
      </trkpt>
      <trkpt lat="47.32966" lon="-2.46417">
        <ele>23.799999237061</ele>
        <time>2021-08-12T07:57:04.000Z</time>
      </trkpt>
      <trkpt lat="47.32966" lon="-2.4643">
        <ele>23.200000762939</ele>
        <time>2021-08-12T07:57:05.000Z</time>
      </trkpt>
      <trkpt lat="47.32965" lon="-2.46442">
        <ele>22.60000038147</ele>
        <time>2021-08-12T07:57:06.000Z</time>
      </trkpt>
      <trkpt lat="47.32965" lon="-2.46456">
        <ele>22</ele>
        <time>2021-08-12T07:57:07.000Z</time>
      </trkpt>
      <trkpt lat="47.32964" lon="-2.46469">
        <ele>21.39999961853</ele>
        <time>2021-08-12T07:57:08.000Z</time>
      </trkpt>
      <trkpt lat="47.32964" lon="-2.46484">
        <ele>20.799999237061</ele>
        <time>2021-08-12T07:57:09.000Z</time>
      </trkpt>
      <trkpt lat="47.32963" lon="-2.465">
        <ele>20.200000762939</ele>
        <time>2021-08-12T07:57:10.000Z</time>
      </trkpt>
      <trkpt lat="47.32962" lon="-2.46515">
        <ele>19.60000038147</ele>
        <time>2021-08-12T07:57:11.000Z</time>
      </trkpt>
      <trkpt lat="47.32961" lon="-2.46529">
        <ele>18.799999237061</ele>
        <time>2021-08-12T07:57:12.000Z</time>
      </trkpt>
      <trkpt lat="47.32959" lon="-2.46541">
        <ele>18.200000762939</ele>
        <time>2021-08-12T07:57:13.000Z</time>
      </trkpt>
      <trkpt lat="47.32959" lon="-2.46552">
        <ele>17.60000038147</ele>
        <time>2021-08-12T07:57:14.000Z</time>
      </trkpt>
      <trkpt lat="47.3296" lon="-2.4656">
        <ele>16.799999237061</ele>
        <time>2021-08-12T07:57:15.000Z</time>
      </trkpt>
      <trkpt lat="47.32963" lon="-2.46568">
        <ele>16</ele>
        <time>2021-08-12T07:57:16.000Z</time>
      </trkpt>
      <trkpt lat="47.32967" lon="-2.46571">
        <ele>15.199999809265</ele>
        <time>2021-08-12T07:57:17.000Z</time>
      </trkpt>
      <trkpt lat="47.32971" lon="-2.4657">
        <ele>14.39999961853</ele>
        <time>2021-08-12T07:57:18.000Z</time>
      </trkpt>
      <trkpt lat="47.32974" lon="-2.46569">
        <ele>13.60000038147</ele>
        <time>2021-08-12T07:57:19.000Z</time>
      </trkpt>
      <trkpt lat="47.32983" lon="-2.46562">
        <ele>13.60000038147</ele>
        <time>2021-08-12T07:57:22.000Z</time>
      </trkpt>
      <trkpt lat="47.32991" lon="-2.46556">
        <ele>14</ele>
        <time>2021-08-12T07:57:24.000Z</time>
      </trkpt>
      <trkpt lat="47.32995" lon="-2.46554">
        <ele>14.39999961853</ele>
        <time>2021-08-12T07:57:25.000Z</time>
      </trkpt>
      <trkpt lat="47.33" lon="-2.46551">
        <ele>15.199999809265</ele>
        <time>2021-08-12T07:57:26.000Z</time>
      </trkpt>
      <trkpt lat="47.33004" lon="-2.46548">
        <ele>15.60000038147</ele>
        <time>2021-08-12T07:57:27.000Z</time>
      </trkpt>
      <trkpt lat="47.33013" lon="-2.46544">
        <ele>16</ele>
        <time>2021-08-12T07:57:29.000Z</time>
      </trkpt>
      <trkpt lat="47.33018" lon="-2.46542">
        <ele>16.39999961853</ele>
        <time>2021-08-12T07:57:30.000Z</time>
      </trkpt>
      <trkpt lat="47.33022" lon="-2.4654">
        <ele>16.799999237061</ele>
        <time>2021-08-12T07:57:31.000Z</time>
      </trkpt>
      <trkpt lat="47.33027" lon="-2.4654">
        <ele>17.200000762939</ele>
        <time>2021-08-12T07:57:32.000Z</time>
      </trkpt>
      <trkpt lat="47.33031" lon="-2.46539">
        <ele>17.60000038147</ele>
        <time>2021-08-12T07:57:33.000Z</time>
      </trkpt>
      <trkpt lat="47.33036" lon="-2.46539">
        <ele>17.60000038147</ele>
        <time>2021-08-12T07:57:34.000Z</time>
      </trkpt>
      <trkpt lat="47.33063" lon="-2.46531">
        <ele>18</ele>
        <time>2021-08-12T07:57:40.000Z</time>
      </trkpt>
      <trkpt lat="47.33067" lon="-2.46528">
        <ele>18.60000038147</ele>
        <time>2021-08-12T07:57:41.000Z</time>
      </trkpt>
      <trkpt lat="47.33071" lon="-2.46527">
        <ele>19</ele>
        <time>2021-08-12T07:57:42.000Z</time>
      </trkpt>
      <trkpt lat="47.33075" lon="-2.46526">
        <ele>19.39999961853</ele>
        <time>2021-08-12T07:57:43.000Z</time>
      </trkpt>
      <trkpt lat="47.33079" lon="-2.46524">
        <ele>19.799999237061</ele>
        <time>2021-08-12T07:57:44.000Z</time>
      </trkpt>
      <trkpt lat="47.3309" lon="-2.46519">
        <ele>19.799999237061</ele>
        <time>2021-08-12T07:57:47.000Z</time>
      </trkpt>
      <trkpt lat="47.33093" lon="-2.46517">
        <ele>20.200000762939</ele>
        <time>2021-08-12T07:57:48.000Z</time>
      </trkpt>
      <trkpt lat="47.33096" lon="-2.46515">
        <ele>20.60000038147</ele>
        <time>2021-08-12T07:57:49.000Z</time>
      </trkpt>
      <trkpt lat="47.33098" lon="-2.46514">
        <ele>21</ele>
        <time>2021-08-12T07:57:50.000Z</time>
      </trkpt>
      <trkpt lat="47.33101" lon="-2.46513">
        <ele>22</ele>
        <time>2021-08-12T07:57:51.000Z</time>
      </trkpt>
      <trkpt lat="47.33103" lon="-2.46512">
        <ele>22</ele>
        <time>2021-08-12T07:57:52.000Z</time>
      </trkpt>
      <trkpt lat="47.3311" lon="-2.46507">
        <ele>22.39999961853</ele>
        <time>2021-08-12T07:57:55.000Z</time>
      </trkpt>
      <trkpt lat="47.33112" lon="-2.46506">
        <ele>22.799999237061</ele>
        <time>2021-08-12T07:57:56.000Z</time>
      </trkpt>
      <trkpt lat="47.33114" lon="-2.46505">
        <ele>23.200000762939</ele>
        <time>2021-08-12T07:57:57.000Z</time>
      </trkpt>
      <trkpt lat="47.33117" lon="-2.46503">
        <ele>23.60000038147</ele>
        <time>2021-08-12T07:57:58.000Z</time>
      </trkpt>
      <trkpt lat="47.3312" lon="-2.46502">
        <ele>24</ele>
        <time>2021-08-12T07:57:59.000Z</time>
      </trkpt>
      <trkpt lat="47.33136" lon="-2.46499">
        <ele>24</ele>
        <time>2021-08-12T07:58:05.000Z</time>
      </trkpt>
      <trkpt lat="47.33149" lon="-2.46496">
        <ele>24</ele>
        <time>2021-08-12T07:58:10.000Z</time>
      </trkpt>
      <trkpt lat="47.33157" lon="-2.46494">
        <ele>24.39999961853</ele>
        <time>2021-08-12T07:58:13.000Z</time>
      </trkpt>
      <trkpt lat="47.33159" lon="-2.46493">
        <ele>25</ele>
        <time>2021-08-12T07:58:14.000Z</time>
      </trkpt>
      <trkpt lat="47.33162" lon="-2.46493">
        <ele>25.799999237061</ele>
        <time>2021-08-12T07:58:15.000Z</time>
      </trkpt>
      <trkpt lat="47.33164" lon="-2.46492">
        <ele>26.200000762939</ele>
        <time>2021-08-12T07:58:16.000Z</time>
      </trkpt>
      <trkpt lat="47.33166" lon="-2.4649">
        <ele>26.200000762939</ele>
        <time>2021-08-12T07:58:17.000Z</time>
      </trkpt>
      <trkpt lat="47.33179" lon="-2.46482">
        <ele>26.200000762939</ele>
        <time>2021-08-12T07:58:23.000Z</time>
      </trkpt>
      <trkpt lat="47.33185" lon="-2.46479">
        <ele>26.60000038147</ele>
        <time>2021-08-12T07:58:27.000Z</time>
      </trkpt>
      <trkpt lat="47.33187" lon="-2.46479">
        <ele>27</ele>
        <time>2021-08-12T07:58:28.000Z</time>
      </trkpt>
      <trkpt lat="47.33188" lon="-2.46478">
        <ele>27.39999961853</ele>
        <time>2021-08-12T07:58:29.000Z</time>
      </trkpt>
      <trkpt lat="47.3319" lon="-2.46477">
        <ele>28</ele>
        <time>2021-08-12T07:58:30.000Z</time>
      </trkpt>
      <trkpt lat="47.33191" lon="-2.46476">
        <ele>28.39999961853</ele>
        <time>2021-08-12T07:58:31.000Z</time>
      </trkpt>
      <trkpt lat="47.33199" lon="-2.46475">
        <ele>28.39999961853</ele>
        <time>2021-08-12T07:58:38.000Z</time>
      </trkpt>
      <trkpt lat="47.33202" lon="-2.46475">
        <ele>29.200000762939</ele>
        <time>2021-08-12T07:58:40.000Z</time>
      </trkpt>
      <trkpt lat="47.33204" lon="-2.46476">
        <ele>29.60000038147</ele>
        <time>2021-08-12T07:58:41.000Z</time>
      </trkpt>
      <trkpt lat="47.33206" lon="-2.46476">
        <ele>30</ele>
        <time>2021-08-12T07:58:42.000Z</time>
      </trkpt>
      <trkpt lat="47.33208" lon="-2.46475">
        <ele>30.39999961853</ele>
        <time>2021-08-12T07:58:43.000Z</time>
      </trkpt>
      <trkpt lat="47.3321" lon="-2.46474">
        <ele>30.39999961853</ele>
        <time>2021-08-12T07:58:44.000Z</time>
      </trkpt>
      <trkpt lat="47.33219" lon="-2.4647">
        <ele>30.799999237061</ele>
        <time>2021-08-12T07:58:49.000Z</time>
      </trkpt>
      <trkpt lat="47.33221" lon="-2.46469">
        <ele>31.200000762939</ele>
        <time>2021-08-12T07:58:50.000Z</time>
      </trkpt>
      <trkpt lat="47.33223" lon="-2.46467">
        <ele>31.60000038147</ele>
        <time>2021-08-12T07:58:51.000Z</time>
      </trkpt>
      <trkpt lat="47.33225" lon="-2.46464">
        <ele>32</ele>
        <time>2021-08-12T07:58:52.000Z</time>
      </trkpt>
      <trkpt lat="47.33226" lon="-2.46461">
        <ele>32.400001525879</ele>
        <time>2021-08-12T07:58:53.000Z</time>
      </trkpt>
      <trkpt lat="47.33229" lon="-2.46456">
        <ele>32.400001525879</ele>
        <time>2021-08-12T07:58:55.000Z</time>
      </trkpt>
      <trkpt lat="47.33239" lon="-2.46439">
        <ele>32.400001525879</ele>
        <time>2021-08-12T07:59:02.000Z</time>
      </trkpt>
      <trkpt lat="47.33242" lon="-2.46435">
        <ele>32.799999237061</ele>
        <time>2021-08-12T07:59:04.000Z</time>
      </trkpt>
      <trkpt lat="47.33243" lon="-2.46434">
        <ele>33.200000762939</ele>
        <time>2021-08-12T07:59:05.000Z</time>
      </trkpt>
      <trkpt lat="47.33245" lon="-2.46434">
        <ele>33.599998474121</ele>
        <time>2021-08-12T07:59:06.000Z</time>
      </trkpt>
      <trkpt lat="47.33247" lon="-2.46433">
        <ele>34</ele>
        <time>2021-08-12T07:59:07.000Z</time>
      </trkpt>
      <trkpt lat="47.33249" lon="-2.46432">
        <ele>34.400001525879</ele>
        <time>2021-08-12T07:59:08.000Z</time>
      </trkpt>
      <trkpt lat="47.33261" lon="-2.4643">
        <ele>34.400001525879</ele>
        <time>2021-08-12T07:59:14.000Z</time>
      </trkpt>
      <trkpt lat="47.33274" lon="-2.46438">
        <ele>34.400001525879</ele>
        <time>2021-08-12T07:59:20.000Z</time>
      </trkpt>
      <trkpt lat="47.33281" lon="-2.46456">
        <ele>34.400001525879</ele>
        <time>2021-08-12T07:59:27.000Z</time>
      </trkpt>
      <trkpt lat="47.33285" lon="-2.46468">
        <ele>34.400001525879</ele>
        <time>2021-08-12T07:59:33.000Z</time>
      </trkpt>
      <trkpt lat="47.33286" lon="-2.46488">
        <ele>34.400001525879</ele>
        <time>2021-08-12T07:59:39.000Z</time>
      </trkpt>
      <trkpt lat="47.33291" lon="-2.46521">
        <ele>34.400001525879</ele>
        <time>2021-08-12T07:59:44.000Z</time>
      </trkpt>
      <trkpt lat="47.33296" lon="-2.46571">
        <ele>34.400001525879</ele>
        <time>2021-08-12T07:59:50.000Z</time>
      </trkpt>
      <trkpt lat="47.33302" lon="-2.46591">
        <ele>34.400001525879</ele>
        <time>2021-08-12T07:59:53.000Z</time>
      </trkpt>
      <trkpt lat="47.33309" lon="-2.46602">
        <ele>34.400001525879</ele>
        <time>2021-08-12T07:59:55.000Z</time>
      </trkpt>
      <trkpt lat="47.33316" lon="-2.46611">
        <ele>34.400001525879</ele>
        <time>2021-08-12T07:59:57.000Z</time>
      </trkpt>
      <trkpt lat="47.33329" lon="-2.46629">
        <ele>34</ele>
        <time>2021-08-12T08:00:01.000Z</time>
      </trkpt>
      <trkpt lat="47.33332" lon="-2.46635">
        <ele>33.599998474121</ele>
        <time>2021-08-12T08:00:02.000Z</time>
      </trkpt>
      <trkpt lat="47.33332" lon="-2.4664">
        <ele>33.200000762939</ele>
        <time>2021-08-12T08:00:03.000Z</time>
      </trkpt>
      <trkpt lat="47.33331" lon="-2.46643">
        <ele>32.799999237061</ele>
        <time>2021-08-12T08:00:04.000Z</time>
      </trkpt>
      <trkpt lat="47.3333" lon="-2.46646">
        <ele>32.400001525879</ele>
        <time>2021-08-12T08:00:05.000Z</time>
      </trkpt>
      <trkpt lat="47.33329" lon="-2.4665">
        <ele>32.400001525879</ele>
        <time>2021-08-12T08:00:06.000Z</time>
      </trkpt>
      <trkpt lat="47.3333" lon="-2.46656">
        <ele>32.400001525879</ele>
        <time>2021-08-12T08:00:08.000Z</time>
      </trkpt>
      <trkpt lat="47.33338" lon="-2.46656">
        <ele>32.400001525879</ele>
        <time>2021-08-12T08:00:12.000Z</time>
      </trkpt>
      <trkpt lat="47.33352" lon="-2.46653">
        <ele>32.400001525879</ele>
        <time>2021-08-12T08:00:17.000Z</time>
      </trkpt>
      <trkpt lat="47.33373" lon="-2.46643">
        <ele>32.400001525879</ele>
        <time>2021-08-12T08:00:24.000Z</time>
      </trkpt>
      <trkpt lat="47.33383" lon="-2.4663">
        <ele>32.400001525879</ele>
        <time>2021-08-12T08:00:29.000Z</time>
      </trkpt>
      <trkpt lat="47.33395" lon="-2.46616">
        <ele>32.400001525879</ele>
        <time>2021-08-12T08:00:34.000Z</time>
      </trkpt>
      <trkpt lat="47.33398" lon="-2.46614">
        <ele>32.799999237061</ele>
        <time>2021-08-12T08:00:35.000Z</time>
      </trkpt>
      <trkpt lat="47.334" lon="-2.46611">
        <ele>33.200000762939</ele>
        <time>2021-08-12T08:00:36.000Z</time>
      </trkpt>
      <trkpt lat="47.33402" lon="-2.4661">
        <ele>33.599998474121</ele>
        <time>2021-08-12T08:00:37.000Z</time>
      </trkpt>
      <trkpt lat="47.33404" lon="-2.46607">
        <ele>34.200000762939</ele>
        <time>2021-08-12T08:00:38.000Z</time>
      </trkpt>
      <trkpt lat="47.33406" lon="-2.46605">
        <ele>34.599998474121</ele>
        <time>2021-08-12T08:00:39.000Z</time>
      </trkpt>
      <trkpt lat="47.33409" lon="-2.46602">
        <ele>34.599998474121</ele>
        <time>2021-08-12T08:00:41.000Z</time>
      </trkpt>
      <trkpt lat="47.33415" lon="-2.46596">
        <ele>35</ele>
        <time>2021-08-12T08:00:44.000Z</time>
      </trkpt>
      <trkpt lat="47.33418" lon="-2.46595">
        <ele>35.400001525879</ele>
        <time>2021-08-12T08:00:45.000Z</time>
      </trkpt>
      <trkpt lat="47.33421" lon="-2.46593">
        <ele>35.799999237061</ele>
        <time>2021-08-12T08:00:46.000Z</time>
      </trkpt>
      <trkpt lat="47.33424" lon="-2.46592">
        <ele>36.200000762939</ele>
        <time>2021-08-12T08:00:47.000Z</time>
      </trkpt>
      <trkpt lat="47.33427" lon="-2.4659">
        <ele>36.599998474121</ele>
        <time>2021-08-12T08:00:48.000Z</time>
      </trkpt>
      <trkpt lat="47.33443" lon="-2.46578">
        <ele>37</ele>
        <time>2021-08-12T08:00:54.000Z</time>
      </trkpt>
      <trkpt lat="47.33446" lon="-2.46576">
        <ele>37.400001525879</ele>
        <time>2021-08-12T08:00:55.000Z</time>
      </trkpt>
      <trkpt lat="47.33448" lon="-2.46573">
        <ele>37.799999237061</ele>
        <time>2021-08-12T08:00:56.000Z</time>
      </trkpt>
      <trkpt lat="47.33449" lon="-2.46571">
        <ele>38.200000762939</ele>
        <time>2021-08-12T08:00:57.000Z</time>
      </trkpt>
      <trkpt lat="47.33451" lon="-2.4657">
        <ele>38.599998474121</ele>
        <time>2021-08-12T08:00:58.000Z</time>
      </trkpt>
      <trkpt lat="47.33459" lon="-2.46562">
        <ele>38.599998474121</ele>
        <time>2021-08-12T08:01:03.000Z</time>
      </trkpt>
      <trkpt lat="47.33464" lon="-2.46553">
        <ele>39.200000762939</ele>
        <time>2021-08-12T08:01:07.000Z</time>
      </trkpt>
      <trkpt lat="47.33466" lon="-2.46552">
        <ele>40</ele>
        <time>2021-08-12T08:01:08.000Z</time>
      </trkpt>
      <trkpt lat="47.33468" lon="-2.4655">
        <ele>40.400001525879</ele>
        <time>2021-08-12T08:01:09.000Z</time>
      </trkpt>
      <trkpt lat="47.3347" lon="-2.46548">
        <ele>40.799999237061</ele>
        <time>2021-08-12T08:01:10.000Z</time>
      </trkpt>
      <trkpt lat="47.33479" lon="-2.46535">
        <ele>40.799999237061</ele>
        <time>2021-08-12T08:01:15.000Z</time>
      </trkpt>
      <trkpt lat="47.33493" lon="-2.46519">
        <ele>40.799999237061</ele>
        <time>2021-08-12T08:01:22.000Z</time>
      </trkpt>
      <trkpt lat="47.33503" lon="-2.46508">
        <ele>41.200000762939</ele>
        <time>2021-08-12T08:01:27.000Z</time>
      </trkpt>
      <trkpt lat="47.33506" lon="-2.46505">
        <ele>41.599998474121</ele>
        <time>2021-08-12T08:01:28.000Z</time>
      </trkpt>
      <trkpt lat="47.33507" lon="-2.46503">
        <ele>42</ele>
        <time>2021-08-12T08:01:29.000Z</time>
      </trkpt>
      <trkpt lat="47.33509" lon="-2.46501">
        <ele>42.799999237061</ele>
        <time>2021-08-12T08:01:30.000Z</time>
      </trkpt>
      <trkpt lat="47.33521" lon="-2.46489">
        <ele>43.200000762939</ele>
        <time>2021-08-12T08:01:36.000Z</time>
      </trkpt>
      <trkpt lat="47.33523" lon="-2.46488">
        <ele>43.599998474121</ele>
        <time>2021-08-12T08:01:37.000Z</time>
      </trkpt>
      <trkpt lat="47.33525" lon="-2.46488">
        <ele>44</ele>
        <time>2021-08-12T08:01:38.000Z</time>
      </trkpt>
      <trkpt lat="47.33527" lon="-2.46489">
        <ele>44.400001525879</ele>
        <time>2021-08-12T08:01:39.000Z</time>
      </trkpt>
      <trkpt lat="47.33528" lon="-2.46489">
        <ele>44.799999237061</ele>
        <time>2021-08-12T08:01:40.000Z</time>
      </trkpt>
      <trkpt lat="47.33532" lon="-2.46489">
        <ele>44.799999237061</ele>
        <time>2021-08-12T08:01:42.000Z</time>
      </trkpt>
      <trkpt lat="47.33538" lon="-2.46491">
        <ele>44.799999237061</ele>
        <time>2021-08-12T08:01:45.000Z</time>
      </trkpt>
      <trkpt lat="47.33541" lon="-2.46499">
        <ele>44.799999237061</ele>
        <time>2021-08-12T08:01:47.000Z</time>
      </trkpt>
      <trkpt lat="47.33544" lon="-2.46512">
        <ele>44.799999237061</ele>
        <time>2021-08-12T08:01:49.000Z</time>
      </trkpt>
      <trkpt lat="47.33549" lon="-2.46545">
        <ele>44.799999237061</ele>
        <time>2021-08-12T08:01:53.000Z</time>
      </trkpt>
      <trkpt lat="47.33558" lon="-2.46582">
        <ele>44.400001525879</ele>
        <time>2021-08-12T08:01:58.000Z</time>
      </trkpt>
      <trkpt lat="47.3356" lon="-2.46588">
        <ele>44</ele>
        <time>2021-08-12T08:01:59.000Z</time>
      </trkpt>
      <trkpt lat="47.33563" lon="-2.46592">
        <ele>43.599998474121</ele>
        <time>2021-08-12T08:02:00.000Z</time>
      </trkpt>
      <trkpt lat="47.33566" lon="-2.46595">
        <ele>43.200000762939</ele>
        <time>2021-08-12T08:02:01.000Z</time>
      </trkpt>
      <trkpt lat="47.33569" lon="-2.46599">
        <ele>42.799999237061</ele>
        <time>2021-08-12T08:02:02.000Z</time>
      </trkpt>
      <trkpt lat="47.33579" lon="-2.46622">
        <ele>42.799999237061</ele>
        <time>2021-08-12T08:02:06.000Z</time>
      </trkpt>
      <trkpt lat="47.33581" lon="-2.46628">
        <ele>42.799999237061</ele>
        <time>2021-08-12T08:02:07.000Z</time>
      </trkpt>
      <trkpt lat="47.33597" lon="-2.46671">
        <ele>42.799999237061</ele>
        <time>2021-08-12T08:02:13.000Z</time>
      </trkpt>
      <trkpt lat="47.33614" lon="-2.46718">
        <ele>42.799999237061</ele>
        <time>2021-08-12T08:02:20.000Z</time>
      </trkpt>
      <trkpt lat="47.33621" lon="-2.46744">
        <ele>42.799999237061</ele>
        <time>2021-08-12T08:02:24.000Z</time>
      </trkpt>
      <trkpt lat="47.3362" lon="-2.4675">
        <ele>42.799999237061</ele>
        <time>2021-08-12T08:02:25.000Z</time>
      </trkpt>
      <trkpt lat="47.33608" lon="-2.46763">
        <ele>42.799999237061</ele>
        <time>2021-08-12T08:02:28.000Z</time>
      </trkpt>
      <trkpt lat="47.33592" lon="-2.46777">
        <ele>42.799999237061</ele>
        <time>2021-08-12T08:02:31.000Z</time>
      </trkpt>
      <trkpt lat="47.33581" lon="-2.4679">
        <ele>42.400001525879</ele>
        <time>2021-08-12T08:02:33.000Z</time>
      </trkpt>
      <trkpt lat="47.33576" lon="-2.46798">
        <ele>41.799999237061</ele>
        <time>2021-08-12T08:02:34.000Z</time>
      </trkpt>
      <trkpt lat="47.3357" lon="-2.46804">
        <ele>41.400001525879</ele>
        <time>2021-08-12T08:02:35.000Z</time>
      </trkpt>
      <trkpt lat="47.33565" lon="-2.4681">
        <ele>41</ele>
        <time>2021-08-12T08:02:36.000Z</time>
      </trkpt>
      <trkpt lat="47.33559" lon="-2.46816">
        <ele>40.400001525879</ele>
        <time>2021-08-12T08:02:37.000Z</time>
      </trkpt>
      <trkpt lat="47.33552" lon="-2.46822">
        <ele>39.799999237061</ele>
        <time>2021-08-12T08:02:38.000Z</time>
      </trkpt>
      <trkpt lat="47.33547" lon="-2.46828">
        <ele>39.400001525879</ele>
        <time>2021-08-12T08:02:39.000Z</time>
      </trkpt>
      <trkpt lat="47.33541" lon="-2.46834">
        <ele>38.799999237061</ele>
        <time>2021-08-12T08:02:40.000Z</time>
      </trkpt>
      <trkpt lat="47.33537" lon="-2.46839">
        <ele>38.200000762939</ele>
        <time>2021-08-12T08:02:41.000Z</time>
      </trkpt>
      <trkpt lat="47.33534" lon="-2.46845">
        <ele>37.599998474121</ele>
        <time>2021-08-12T08:02:42.000Z</time>
      </trkpt>
      <trkpt lat="47.33533" lon="-2.46851">
        <ele>37</ele>
        <time>2021-08-12T08:02:43.000Z</time>
      </trkpt>
      <trkpt lat="47.33533" lon="-2.46858">
        <ele>36</ele>
        <time>2021-08-12T08:02:44.000Z</time>
      </trkpt>
      <trkpt lat="47.33533" lon="-2.46865">
        <ele>35.400001525879</ele>
        <time>2021-08-12T08:02:45.000Z</time>
      </trkpt>
      <trkpt lat="47.33533" lon="-2.46872">
        <ele>35</ele>
        <time>2021-08-12T08:02:46.000Z</time>
      </trkpt>
      <trkpt lat="47.33532" lon="-2.46878">
        <ele>34.400001525879</ele>
        <time>2021-08-12T08:02:47.000Z</time>
      </trkpt>
      <trkpt lat="47.33529" lon="-2.46882">
        <ele>33.799999237061</ele>
        <time>2021-08-12T08:02:48.000Z</time>
      </trkpt>
      <trkpt lat="47.33521" lon="-2.46891">
        <ele>33.400001525879</ele>
        <time>2021-08-12T08:02:50.000Z</time>
      </trkpt>
      <trkpt lat="47.33517" lon="-2.46896">
        <ele>33</ele>
        <time>2021-08-12T08:02:51.000Z</time>
      </trkpt>
      <trkpt lat="47.33513" lon="-2.469">
        <ele>32.599998474121</ele>
        <time>2021-08-12T08:02:52.000Z</time>
      </trkpt>
      <trkpt lat="47.33508" lon="-2.46904">
        <ele>32.200000762939</ele>
        <time>2021-08-12T08:02:53.000Z</time>
      </trkpt>
      <trkpt lat="47.33503" lon="-2.46909">
        <ele>31.799999237061</ele>
        <time>2021-08-12T08:02:54.000Z</time>
      </trkpt>
      <trkpt lat="47.33494" lon="-2.46917">
        <ele>31.799999237061</ele>
        <time>2021-08-12T08:02:56.000Z</time>
      </trkpt>
      <trkpt lat="47.33485" lon="-2.46924">
        <ele>31.799999237061</ele>
        <time>2021-08-12T08:02:58.000Z</time>
      </trkpt>
      <trkpt lat="47.33477" lon="-2.46934">
        <ele>31.200000762939</ele>
        <time>2021-08-12T08:03:00.000Z</time>
      </trkpt>
      <trkpt lat="47.33473" lon="-2.4694">
        <ele>30.799999237061</ele>
        <time>2021-08-12T08:03:01.000Z</time>
      </trkpt>
      <trkpt lat="47.33469" lon="-2.46946">
        <ele>30.200000762939</ele>
        <time>2021-08-12T08:03:02.000Z</time>
      </trkpt>
      <trkpt lat="47.33466" lon="-2.46951">
        <ele>29.799999237061</ele>
        <time>2021-08-12T08:03:03.000Z</time>
      </trkpt>
      <trkpt lat="47.33463" lon="-2.46956">
        <ele>29.200000762939</ele>
        <time>2021-08-12T08:03:04.000Z</time>
      </trkpt>
      <trkpt lat="47.33442" lon="-2.46988">
        <ele>29.200000762939</ele>
        <time>2021-08-12T08:03:10.000Z</time>
      </trkpt>
      <trkpt lat="47.33427" lon="-2.4701">
        <ele>28.799999237061</ele>
        <time>2021-08-12T08:03:14.000Z</time>
      </trkpt>
      <trkpt lat="47.33423" lon="-2.47016">
        <ele>28.39999961853</ele>
        <time>2021-08-12T08:03:15.000Z</time>
      </trkpt>
      <trkpt lat="47.33419" lon="-2.47023">
        <ele>28</ele>
        <time>2021-08-12T08:03:16.000Z</time>
      </trkpt>
      <trkpt lat="47.33415" lon="-2.4703">
        <ele>27.60000038147</ele>
        <time>2021-08-12T08:03:17.000Z</time>
      </trkpt>
      <trkpt lat="47.33411" lon="-2.47037">
        <ele>27.200000762939</ele>
        <time>2021-08-12T08:03:18.000Z</time>
      </trkpt>
      <trkpt lat="47.33395" lon="-2.47083">
        <ele>27.200000762939</ele>
        <time>2021-08-12T08:03:24.000Z</time>
      </trkpt>
      <trkpt lat="47.33393" lon="-2.47092">
        <ele>27.200000762939</ele>
        <time>2021-08-12T08:03:25.000Z</time>
      </trkpt>
      <trkpt lat="47.33388" lon="-2.47125">
        <ele>27.200000762939</ele>
        <time>2021-08-12T08:03:29.000Z</time>
      </trkpt>
      <trkpt lat="47.3338" lon="-2.47145">
        <ele>26.799999237061</ele>
        <time>2021-08-12T08:03:32.000Z</time>
      </trkpt>
      <trkpt lat="47.33377" lon="-2.47151">
        <ele>26.39999961853</ele>
        <time>2021-08-12T08:03:33.000Z</time>
      </trkpt>
      <trkpt lat="47.33374" lon="-2.47157">
        <ele>26</ele>
        <time>2021-08-12T08:03:34.000Z</time>
      </trkpt>
      <trkpt lat="47.33371" lon="-2.47163">
        <ele>25.200000762939</ele>
        <time>2021-08-12T08:03:35.000Z</time>
      </trkpt>
      <trkpt lat="47.3337" lon="-2.47169">
        <ele>25.200000762939</ele>
        <time>2021-08-12T08:03:36.000Z</time>
      </trkpt>
      <trkpt lat="47.33374" lon="-2.47198">
        <ele>25.200000762939</ele>
        <time>2021-08-12T08:03:40.000Z</time>
      </trkpt>
      <trkpt lat="47.33383" lon="-2.47256">
        <ele>25.200000762939</ele>
        <time>2021-08-12T08:03:47.000Z</time>
      </trkpt>
      <trkpt lat="47.33389" lon="-2.47319">
        <ele>25.200000762939</ele>
        <time>2021-08-12T08:03:54.000Z</time>
      </trkpt>
      <trkpt lat="47.33397" lon="-2.47359">
        <ele>25.200000762939</ele>
        <time>2021-08-12T08:03:59.000Z</time>
      </trkpt>
      <trkpt lat="47.33417" lon="-2.47436">
        <ele>25.200000762939</ele>
        <time>2021-08-12T08:04:08.000Z</time>
      </trkpt>
      <trkpt lat="47.3343" lon="-2.47486">
        <ele>25.200000762939</ele>
        <time>2021-08-12T08:04:14.000Z</time>
      </trkpt>
      <trkpt lat="47.33449" lon="-2.47538">
        <ele>25.200000762939</ele>
        <time>2021-08-12T08:04:21.000Z</time>
      </trkpt>
      <trkpt lat="47.33471" lon="-2.47583">
        <ele>25.200000762939</ele>
        <time>2021-08-12T08:04:27.000Z</time>
      </trkpt>
      <trkpt lat="47.33484" lon="-2.47604">
        <ele>25.200000762939</ele>
        <time>2021-08-12T08:04:30.000Z</time>
      </trkpt>
      <trkpt lat="47.33493" lon="-2.47615">
        <ele>25.200000762939</ele>
        <time>2021-08-12T08:04:32.000Z</time>
      </trkpt>
      <trkpt lat="47.33507" lon="-2.47631">
        <ele>25.200000762939</ele>
        <time>2021-08-12T08:04:35.000Z</time>
      </trkpt>
      <trkpt lat="47.33514" lon="-2.47644">
        <ele>25.200000762939</ele>
        <time>2021-08-12T08:04:37.000Z</time>
      </trkpt>
      <trkpt lat="47.33527" lon="-2.47671">
        <ele>25.200000762939</ele>
        <time>2021-08-12T08:04:41.000Z</time>
      </trkpt>
      <trkpt lat="47.33536" lon="-2.4768">
        <ele>25.200000762939</ele>
        <time>2021-08-12T08:04:43.000Z</time>
      </trkpt>
      <trkpt lat="47.33563" lon="-2.477">
        <ele>25.60000038147</ele>
        <time>2021-08-12T08:04:49.000Z</time>
      </trkpt>
      <trkpt lat="47.33568" lon="-2.47703">
        <ele>26</ele>
        <time>2021-08-12T08:04:50.000Z</time>
      </trkpt>
      <trkpt lat="47.33572" lon="-2.47705">
        <ele>26.39999961853</ele>
        <time>2021-08-12T08:04:51.000Z</time>
      </trkpt>
      <trkpt lat="47.33577" lon="-2.47707">
        <ele>26.799999237061</ele>
        <time>2021-08-12T08:04:52.000Z</time>
      </trkpt>
      <trkpt lat="47.33581" lon="-2.47707">
        <ele>27.39999961853</ele>
        <time>2021-08-12T08:04:53.000Z</time>
      </trkpt>
      <trkpt lat="47.33586" lon="-2.47706">
        <ele>27.39999961853</ele>
        <time>2021-08-12T08:04:54.000Z</time>
      </trkpt>
      <trkpt lat="47.336" lon="-2.47692">
        <ele>27.39999961853</ele>
        <time>2021-08-12T08:04:57.000Z</time>
      </trkpt>
      <trkpt lat="47.33604" lon="-2.47687">
        <ele>27.39999961853</ele>
        <time>2021-08-12T08:04:58.000Z</time>
      </trkpt>
      <trkpt lat="47.33612" lon="-2.47678">
        <ele>27.39999961853</ele>
        <time>2021-08-12T08:05:00.000Z</time>
      </trkpt>
      <trkpt lat="47.33629" lon="-2.47663">
        <ele>27.39999961853</ele>
        <time>2021-08-12T08:05:04.000Z</time>
      </trkpt>
      <trkpt lat="47.33663" lon="-2.47638">
        <ele>27.39999961853</ele>
        <time>2021-08-12T08:05:12.000Z</time>
      </trkpt>
      <trkpt lat="47.33688" lon="-2.47623">
        <ele>27.39999961853</ele>
        <time>2021-08-12T08:05:18.000Z</time>
      </trkpt>
      <trkpt lat="47.33702" lon="-2.4762">
        <ele>27.39999961853</ele>
        <time>2021-08-12T08:05:21.000Z</time>
      </trkpt>
      <trkpt lat="47.33716" lon="-2.4762">
        <ele>27.39999961853</ele>
        <time>2021-08-12T08:05:24.000Z</time>
      </trkpt>
      <trkpt lat="47.33734" lon="-2.47624">
        <ele>27.39999961853</ele>
        <time>2021-08-12T08:05:28.000Z</time>
      </trkpt>
      <trkpt lat="47.33743" lon="-2.47631">
        <ele>27.39999961853</ele>
        <time>2021-08-12T08:05:30.000Z</time>
      </trkpt>
      <trkpt lat="47.33751" lon="-2.4764">
        <ele>27.39999961853</ele>
        <time>2021-08-12T08:05:32.000Z</time>
      </trkpt>
      <trkpt lat="47.33762" lon="-2.47656">
        <ele>27.39999961853</ele>
        <time>2021-08-12T08:05:35.000Z</time>
      </trkpt>
      <trkpt lat="47.33771" lon="-2.47676">
        <ele>27.39999961853</ele>
        <time>2021-08-12T08:05:38.000Z</time>
      </trkpt>
      <trkpt lat="47.3378" lon="-2.47688">
        <ele>27.39999961853</ele>
        <time>2021-08-12T08:05:40.000Z</time>
      </trkpt>
      <trkpt lat="47.33804" lon="-2.47721">
        <ele>27.39999961853</ele>
        <time>2021-08-12T08:05:45.000Z</time>
      </trkpt>
      <trkpt lat="47.33814" lon="-2.47732">
        <ele>27.39999961853</ele>
        <time>2021-08-12T08:05:47.000Z</time>
      </trkpt>
      <trkpt lat="47.33829" lon="-2.47749">
        <ele>26.799999237061</ele>
        <time>2021-08-12T08:05:50.000Z</time>
      </trkpt>
      <trkpt lat="47.33834" lon="-2.47755">
        <ele>26.39999961853</ele>
        <time>2021-08-12T08:05:51.000Z</time>
      </trkpt>
      <trkpt lat="47.33838" lon="-2.47761">
        <ele>26</ele>
        <time>2021-08-12T08:05:52.000Z</time>
      </trkpt>
      <trkpt lat="47.33842" lon="-2.47766">
        <ele>25.60000038147</ele>
        <time>2021-08-12T08:05:53.000Z</time>
      </trkpt>
      <trkpt lat="47.33845" lon="-2.4777">
        <ele>25.200000762939</ele>
        <time>2021-08-12T08:05:54.000Z</time>
      </trkpt>
      <trkpt lat="47.3385" lon="-2.47777">
        <ele>25.200000762939</ele>
        <time>2021-08-12T08:05:58.000Z</time>
      </trkpt>
      <trkpt lat="47.33851" lon="-2.47779">
        <ele>24.799999237061</ele>
        <time>2021-08-12T08:05:59.000Z</time>
      </trkpt>
      <trkpt lat="47.33852" lon="-2.47781">
        <ele>24.39999961853</ele>
        <time>2021-08-12T08:06:00.000Z</time>
      </trkpt>
      <trkpt lat="47.33853" lon="-2.47784">
        <ele>24</ele>
        <time>2021-08-12T08:06:01.000Z</time>
      </trkpt>
      <trkpt lat="47.33853" lon="-2.47787">
        <ele>23.60000038147</ele>
        <time>2021-08-12T08:06:02.000Z</time>
      </trkpt>
      <trkpt lat="47.33852" lon="-2.47791">
        <ele>23</ele>
        <time>2021-08-12T08:06:03.000Z</time>
      </trkpt>
      <trkpt lat="47.33848" lon="-2.47805">
        <ele>23</ele>
        <time>2021-08-12T08:06:06.000Z</time>
      </trkpt>
      <trkpt lat="47.33844" lon="-2.47815">
        <ele>23</ele>
        <time>2021-08-12T08:06:08.000Z</time>
      </trkpt>
      <trkpt lat="47.33824" lon="-2.47846">
        <ele>23</ele>
        <time>2021-08-12T08:06:14.000Z</time>
      </trkpt>
      <trkpt lat="47.33796" lon="-2.47894">
        <ele>23</ele>
        <time>2021-08-12T08:06:22.000Z</time>
      </trkpt>
      <trkpt lat="47.33775" lon="-2.47937">
        <ele>23</ele>
        <time>2021-08-12T08:06:28.000Z</time>
      </trkpt>
      <trkpt lat="47.33772" lon="-2.47946">
        <ele>22.60000038147</ele>
        <time>2021-08-12T08:06:29.000Z</time>
      </trkpt>
      <trkpt lat="47.33769" lon="-2.47954">
        <ele>22.200000762939</ele>
        <time>2021-08-12T08:06:30.000Z</time>
      </trkpt>
      <trkpt lat="47.33766" lon="-2.47963">
        <ele>21.799999237061</ele>
        <time>2021-08-12T08:06:31.000Z</time>
      </trkpt>
      <trkpt lat="47.33763" lon="-2.47971">
        <ele>21.39999961853</ele>
        <time>2021-08-12T08:06:32.000Z</time>
      </trkpt>
      <trkpt lat="47.33761" lon="-2.47979">
        <ele>21</ele>
        <time>2021-08-12T08:06:33.000Z</time>
      </trkpt>
      <trkpt lat="47.33757" lon="-2.47997">
        <ele>21</ele>
        <time>2021-08-12T08:06:35.000Z</time>
      </trkpt>
      <trkpt lat="47.33746" lon="-2.48055">
        <ele>21</ele>
        <time>2021-08-12T08:06:42.000Z</time>
      </trkpt>
      <trkpt lat="47.33737" lon="-2.48112">
        <ele>21</ele>
        <time>2021-08-12T08:06:48.000Z</time>
      </trkpt>
      <trkpt lat="47.33735" lon="-2.48122">
        <ele>20.60000038147</ele>
        <time>2021-08-12T08:06:49.000Z</time>
      </trkpt>
      <trkpt lat="47.33734" lon="-2.48133">
        <ele>20</ele>
        <time>2021-08-12T08:06:50.000Z</time>
      </trkpt>
      <trkpt lat="47.33733" lon="-2.48143">
        <ele>19.60000038147</ele>
        <time>2021-08-12T08:06:51.000Z</time>
      </trkpt>
      <trkpt lat="47.33732" lon="-2.48153">
        <ele>19.200000762939</ele>
        <time>2021-08-12T08:06:52.000Z</time>
      </trkpt>
      <trkpt lat="47.33731" lon="-2.48163">
        <ele>18.60000038147</ele>
        <time>2021-08-12T08:06:53.000Z</time>
      </trkpt>
      <trkpt lat="47.33731" lon="-2.48173">
        <ele>18.60000038147</ele>
        <time>2021-08-12T08:06:54.000Z</time>
      </trkpt>
      <trkpt lat="47.33728" lon="-2.48211">
        <ele>18.200000762939</ele>
        <time>2021-08-12T08:06:58.000Z</time>
      </trkpt>
      <trkpt lat="47.33727" lon="-2.4822">
        <ele>17.799999237061</ele>
        <time>2021-08-12T08:06:59.000Z</time>
      </trkpt>
      <trkpt lat="47.33727" lon="-2.48229">
        <ele>17.39999961853</ele>
        <time>2021-08-12T08:07:00.000Z</time>
      </trkpt>
      <trkpt lat="47.33726" lon="-2.48237">
        <ele>17</ele>
        <time>2021-08-12T08:07:01.000Z</time>
      </trkpt>
      <trkpt lat="47.33726" lon="-2.48246">
        <ele>16.60000038147</ele>
        <time>2021-08-12T08:07:02.000Z</time>
      </trkpt>
      <trkpt lat="47.33724" lon="-2.48309">
        <ele>16.60000038147</ele>
        <time>2021-08-12T08:07:09.000Z</time>
      </trkpt>
      <trkpt lat="47.33725" lon="-2.48316">
        <ele>16.60000038147</ele>
        <time>2021-08-12T08:07:10.000Z</time>
      </trkpt>
      <trkpt lat="47.33727" lon="-2.48325">
        <ele>16.200000762939</ele>
        <time>2021-08-12T08:07:12.000Z</time>
      </trkpt>
      <trkpt lat="47.33729" lon="-2.48326">
        <ele>15.60000038147</ele>
        <time>2021-08-12T08:07:13.000Z</time>
      </trkpt>
      <trkpt lat="47.33731" lon="-2.48325">
        <ele>15.199999809265</ele>
        <time>2021-08-12T08:07:14.000Z</time>
      </trkpt>
      <trkpt lat="47.33734" lon="-2.48323">
        <ele>14.800000190735</ele>
        <time>2021-08-12T08:07:15.000Z</time>
      </trkpt>
      <trkpt lat="47.33736" lon="-2.48322">
        <ele>14.39999961853</ele>
        <time>2021-08-12T08:07:16.000Z</time>
      </trkpt>
      <trkpt lat="47.33748" lon="-2.48316">
        <ele>14.39999961853</ele>
        <time>2021-08-12T08:07:20.000Z</time>
      </trkpt>
      <trkpt lat="47.33763" lon="-2.48306">
        <ele>14.39999961853</ele>
        <time>2021-08-12T08:07:24.000Z</time>
      </trkpt>
      <trkpt lat="47.33767" lon="-2.48303">
        <ele>14.39999961853</ele>
        <time>2021-08-12T08:07:25.000Z</time>
      </trkpt>
      <trkpt lat="47.33785" lon="-2.48294">
        <ele>14.800000190735</ele>
        <time>2021-08-12T08:07:29.000Z</time>
      </trkpt>
      <trkpt lat="47.33789" lon="-2.48291">
        <ele>15.39999961853</ele>
        <time>2021-08-12T08:07:30.000Z</time>
      </trkpt>
      <trkpt lat="47.33794" lon="-2.48288">
        <ele>15.800000190735</ele>
        <time>2021-08-12T08:07:31.000Z</time>
      </trkpt>
      <trkpt lat="47.33799" lon="-2.48285">
        <ele>16.200000762939</ele>
        <time>2021-08-12T08:07:32.000Z</time>
      </trkpt>
      <trkpt lat="47.33804" lon="-2.48283">
        <ele>16.60000038147</ele>
        <time>2021-08-12T08:07:33.000Z</time>
      </trkpt>
      <trkpt lat="47.3381" lon="-2.4828">
        <ele>16.60000038147</ele>
        <time>2021-08-12T08:07:34.000Z</time>
      </trkpt>
      <trkpt lat="47.33826" lon="-2.48276">
        <ele>17</ele>
        <time>2021-08-12T08:07:37.000Z</time>
      </trkpt>
      <trkpt lat="47.33831" lon="-2.48275">
        <ele>17.39999961853</ele>
        <time>2021-08-12T08:07:38.000Z</time>
      </trkpt>
      <trkpt lat="47.33837" lon="-2.48273">
        <ele>17.799999237061</ele>
        <time>2021-08-12T08:07:39.000Z</time>
      </trkpt>
      <trkpt lat="47.33843" lon="-2.48271">
        <ele>18.200000762939</ele>
        <time>2021-08-12T08:07:40.000Z</time>
      </trkpt>
      <trkpt lat="47.33849" lon="-2.48269">
        <ele>18.60000038147</ele>
        <time>2021-08-12T08:07:41.000Z</time>
      </trkpt>
      <trkpt lat="47.33872" lon="-2.48262">
        <ele>18.60000038147</ele>
        <time>2021-08-12T08:07:45.000Z</time>
      </trkpt>
      <trkpt lat="47.33912" lon="-2.48242">
        <ele>18.60000038147</ele>
        <time>2021-08-12T08:07:52.000Z</time>
      </trkpt>
      <trkpt lat="47.33957" lon="-2.48217">
        <ele>18.60000038147</ele>
        <time>2021-08-12T08:08:00.000Z</time>
      </trkpt>
      <trkpt lat="47.3398" lon="-2.48219">
        <ele>18.60000038147</ele>
        <time>2021-08-12T08:08:04.000Z</time>
      </trkpt>
      <trkpt lat="47.34022" lon="-2.48233">
        <ele>18.60000038147</ele>
        <time>2021-08-12T08:08:11.000Z</time>
      </trkpt>
      <trkpt lat="47.34065" lon="-2.48246">
        <ele>18.60000038147</ele>
        <time>2021-08-12T08:08:18.000Z</time>
      </trkpt>
      <trkpt lat="47.34117" lon="-2.48261">
        <ele>18.60000038147</ele>
        <time>2021-08-12T08:08:26.000Z</time>
      </trkpt>
      <trkpt lat="47.34155" lon="-2.48278">
        <ele>18.60000038147</ele>
        <time>2021-08-12T08:08:32.000Z</time>
      </trkpt>
      <trkpt lat="47.34161" lon="-2.48283">
        <ele>18.60000038147</ele>
        <time>2021-08-12T08:08:33.000Z</time>
      </trkpt>
      <trkpt lat="47.34178" lon="-2.48304">
        <ele>18.60000038147</ele>
        <time>2021-08-12T08:08:36.000Z</time>
      </trkpt>
      <trkpt lat="47.3422" lon="-2.48357">
        <ele>18.60000038147</ele>
        <time>2021-08-12T08:08:43.000Z</time>
      </trkpt>
      <trkpt lat="47.34226" lon="-2.48363">
        <ele>18.60000038147</ele>
        <time>2021-08-12T08:08:44.000Z</time>
      </trkpt>
      <trkpt lat="47.34252" lon="-2.48377">
        <ele>18.60000038147</ele>
        <time>2021-08-12T08:08:48.000Z</time>
      </trkpt>
      <trkpt lat="47.34266" lon="-2.4838">
        <ele>18.60000038147</ele>
        <time>2021-08-12T08:08:50.000Z</time>
      </trkpt>
      <trkpt lat="47.34279" lon="-2.4838">
        <ele>18.60000038147</ele>
        <time>2021-08-12T08:08:52.000Z</time>
      </trkpt>
      <trkpt lat="47.34286" lon="-2.4838">
        <ele>18.60000038147</ele>
        <time>2021-08-12T08:08:53.000Z</time>
      </trkpt>
      <trkpt lat="47.34292" lon="-2.48378">
        <ele>18.60000038147</ele>
        <time>2021-08-12T08:08:54.000Z</time>
      </trkpt>
      <trkpt lat="47.34315" lon="-2.48371">
        <ele>19</ele>
        <time>2021-08-12T08:08:58.000Z</time>
      </trkpt>
      <trkpt lat="47.34321" lon="-2.48371">
        <ele>19.60000038147</ele>
        <time>2021-08-12T08:08:59.000Z</time>
      </trkpt>
      <trkpt lat="47.34327" lon="-2.48372">
        <ele>20</ele>
        <time>2021-08-12T08:09:00.000Z</time>
      </trkpt>
      <trkpt lat="47.34333" lon="-2.48373">
        <ele>20.39999961853</ele>
        <time>2021-08-12T08:09:01.000Z</time>
      </trkpt>
      <trkpt lat="47.34338" lon="-2.48374">
        <ele>20.799999237061</ele>
        <time>2021-08-12T08:09:02.000Z</time>
      </trkpt>
      <trkpt lat="47.34343" lon="-2.48375">
        <ele>20.799999237061</ele>
        <time>2021-08-12T08:09:03.000Z</time>
      </trkpt>
      <trkpt lat="47.34348" lon="-2.48377">
        <ele>20.799999237061</ele>
        <time>2021-08-12T08:09:04.000Z</time>
      </trkpt>
      <trkpt lat="47.34357" lon="-2.48387">
        <ele>20.799999237061</ele>
        <time>2021-08-12T08:09:07.000Z</time>
      </trkpt>
      <trkpt lat="47.34359" lon="-2.48392">
        <ele>20.799999237061</ele>
        <time>2021-08-12T08:09:08.000Z</time>
      </trkpt>
      <trkpt lat="47.34361" lon="-2.48398">
        <ele>20.799999237061</ele>
        <time>2021-08-12T08:09:09.000Z</time>
      </trkpt>
      <trkpt lat="47.34366" lon="-2.48417">
        <ele>20.799999237061</ele>
        <time>2021-08-12T08:09:12.000Z</time>
      </trkpt>
      <trkpt lat="47.34382" lon="-2.48471">
        <ele>20.799999237061</ele>
        <time>2021-08-12T08:09:20.000Z</time>
      </trkpt>
      <trkpt lat="47.34396" lon="-2.48515">
        <ele>20.799999237061</ele>
        <time>2021-08-12T08:09:27.000Z</time>
      </trkpt>
      <trkpt lat="47.3441" lon="-2.48562">
        <ele>20.799999237061</ele>
        <time>2021-08-12T08:09:34.000Z</time>
      </trkpt>
      <trkpt lat="47.34426" lon="-2.48613">
        <ele>20.799999237061</ele>
        <time>2021-08-12T08:09:41.000Z</time>
      </trkpt>
      <trkpt lat="47.34444" lon="-2.48668">
        <ele>20.799999237061</ele>
        <time>2021-08-12T08:09:48.000Z</time>
      </trkpt>
      <trkpt lat="47.34471" lon="-2.48739">
        <ele>20.799999237061</ele>
        <time>2021-08-12T08:09:57.000Z</time>
      </trkpt>
      <trkpt lat="47.34474" lon="-2.48746">
        <ele>20.799999237061</ele>
        <time>2021-08-12T08:09:58.000Z</time>
      </trkpt>
      <trkpt lat="47.34501" lon="-2.48789">
        <ele>20.799999237061</ele>
        <time>2021-08-12T08:10:05.000Z</time>
      </trkpt>
      <trkpt lat="47.34516" lon="-2.48809">
        <ele>20.799999237061</ele>
        <time>2021-08-12T08:10:09.000Z</time>
      </trkpt>
      <trkpt lat="47.34524" lon="-2.48813">
        <ele>20.799999237061</ele>
        <time>2021-08-12T08:10:11.000Z</time>
      </trkpt>
      <trkpt lat="47.34535" lon="-2.48829">
        <ele>20.799999237061</ele>
        <time>2021-08-12T08:10:14.000Z</time>
      </trkpt>
      <trkpt lat="47.34538" lon="-2.48836">
        <ele>20.799999237061</ele>
        <time>2021-08-12T08:10:15.000Z</time>
      </trkpt>
      <trkpt lat="47.34558" lon="-2.48876">
        <ele>20.799999237061</ele>
        <time>2021-08-12T08:10:20.000Z</time>
      </trkpt>
      <trkpt lat="47.34595" lon="-2.48935">
        <ele>20.799999237061</ele>
        <time>2021-08-12T08:10:28.000Z</time>
      </trkpt>
      <trkpt lat="47.34618" lon="-2.48969">
        <ele>20.799999237061</ele>
        <time>2021-08-12T08:10:33.000Z</time>
      </trkpt>
      <trkpt lat="47.34626" lon="-2.48983">
        <ele>20.799999237061</ele>
        <time>2021-08-12T08:10:35.000Z</time>
      </trkpt>
      <trkpt lat="47.34652" lon="-2.49034">
        <ele>20.799999237061</ele>
        <time>2021-08-12T08:10:42.000Z</time>
      </trkpt>
      <trkpt lat="47.34675" lon="-2.49102">
        <ele>20.799999237061</ele>
        <time>2021-08-12T08:10:50.000Z</time>
      </trkpt>
      <trkpt lat="47.34702" lon="-2.49182">
        <ele>20.39999961853</ele>
        <time>2021-08-12T08:10:59.000Z</time>
      </trkpt>
      <trkpt lat="47.34705" lon="-2.49189">
        <ele>19.799999237061</ele>
        <time>2021-08-12T08:11:00.000Z</time>
      </trkpt>
      <trkpt lat="47.34708" lon="-2.49196">
        <ele>19.39999961853</ele>
        <time>2021-08-12T08:11:01.000Z</time>
      </trkpt>
      <trkpt lat="47.34712" lon="-2.49203">
        <ele>19</ele>
        <time>2021-08-12T08:11:02.000Z</time>
      </trkpt>
      <trkpt lat="47.34716" lon="-2.49208">
        <ele>18.60000038147</ele>
        <time>2021-08-12T08:11:03.000Z</time>
      </trkpt>
      <trkpt lat="47.3472" lon="-2.49212">
        <ele>18.60000038147</ele>
        <time>2021-08-12T08:11:04.000Z</time>
      </trkpt>
      <trkpt lat="47.34735" lon="-2.49204">
        <ele>18.60000038147</ele>
        <time>2021-08-12T08:11:07.000Z</time>
      </trkpt>
      <trkpt lat="47.34746" lon="-2.49189">
        <ele>18.60000038147</ele>
        <time>2021-08-12T08:11:10.000Z</time>
      </trkpt>
      <trkpt lat="47.3475" lon="-2.49185">
        <ele>18.60000038147</ele>
        <time>2021-08-12T08:11:11.000Z</time>
      </trkpt>
      <trkpt lat="47.34753" lon="-2.49181">
        <ele>19</ele>
        <time>2021-08-12T08:11:12.000Z</time>
      </trkpt>
      <trkpt lat="47.34757" lon="-2.49177">
        <ele>19.39999961853</ele>
        <time>2021-08-12T08:11:13.000Z</time>
      </trkpt>
      <trkpt lat="47.3476" lon="-2.49173">
        <ele>19.799999237061</ele>
        <time>2021-08-12T08:11:14.000Z</time>
      </trkpt>
      <trkpt lat="47.34763" lon="-2.4917">
        <ele>20.200000762939</ele>
        <time>2021-08-12T08:11:15.000Z</time>
      </trkpt>
      <trkpt lat="47.34767" lon="-2.49166">
        <ele>20.60000038147</ele>
        <time>2021-08-12T08:11:16.000Z</time>
      </trkpt>
      <trkpt lat="47.34773" lon="-2.49159">
        <ele>21</ele>
        <time>2021-08-12T08:11:18.000Z</time>
      </trkpt>
      <trkpt lat="47.34776" lon="-2.49155">
        <ele>21.39999961853</ele>
        <time>2021-08-12T08:11:19.000Z</time>
      </trkpt>
      <trkpt lat="47.34779" lon="-2.49152">
        <ele>22</ele>
        <time>2021-08-12T08:11:20.000Z</time>
      </trkpt>
      <trkpt lat="47.34782" lon="-2.49149">
        <ele>22.39999961853</ele>
        <time>2021-08-12T08:11:21.000Z</time>
      </trkpt>
      <trkpt lat="47.34785" lon="-2.49145">
        <ele>22.799999237061</ele>
        <time>2021-08-12T08:11:22.000Z</time>
      </trkpt>
      <trkpt lat="47.34791" lon="-2.49139">
        <ele>23.200000762939</ele>
        <time>2021-08-12T08:11:24.000Z</time>
      </trkpt>
      <trkpt lat="47.34793" lon="-2.49135">
        <ele>23.60000038147</ele>
        <time>2021-08-12T08:11:25.000Z</time>
      </trkpt>
      <trkpt lat="47.34795" lon="-2.49131">
        <ele>24</ele>
        <time>2021-08-12T08:11:26.000Z</time>
      </trkpt>
      <trkpt lat="47.34796" lon="-2.49127">
        <ele>24.39999961853</ele>
        <time>2021-08-12T08:11:27.000Z</time>
      </trkpt>
      <trkpt lat="47.34798" lon="-2.49122">
        <ele>24.799999237061</ele>
        <time>2021-08-12T08:11:28.000Z</time>
      </trkpt>
      <trkpt lat="47.34802" lon="-2.49115">
        <ele>24.799999237061</ele>
        <time>2021-08-12T08:11:30.000Z</time>
      </trkpt>
      <trkpt lat="47.34809" lon="-2.49103">
        <ele>25.200000762939</ele>
        <time>2021-08-12T08:11:33.000Z</time>
      </trkpt>
      <trkpt lat="47.34811" lon="-2.491">
        <ele>25.60000038147</ele>
        <time>2021-08-12T08:11:34.000Z</time>
      </trkpt>
      <trkpt lat="47.34812" lon="-2.49097">
        <ele>26.200000762939</ele>
        <time>2021-08-12T08:11:35.000Z</time>
      </trkpt>
      <trkpt lat="47.34814" lon="-2.49093">
        <ele>26.60000038147</ele>
        <time>2021-08-12T08:11:36.000Z</time>
      </trkpt>
      <trkpt lat="47.34816" lon="-2.4909">
        <ele>27</ele>
        <time>2021-08-12T08:11:37.000Z</time>
      </trkpt>
      <trkpt lat="47.34824" lon="-2.4908">
        <ele>27</ele>
        <time>2021-08-12T08:11:41.000Z</time>
      </trkpt>
      <trkpt lat="47.34827" lon="-2.49078">
        <ele>27.39999961853</ele>
        <time>2021-08-12T08:11:42.000Z</time>
      </trkpt>
      <trkpt lat="47.3483" lon="-2.49076">
        <ele>28</ele>
        <time>2021-08-12T08:11:43.000Z</time>
      </trkpt>
      <trkpt lat="47.34832" lon="-2.49075">
        <ele>28.39999961853</ele>
        <time>2021-08-12T08:11:44.000Z</time>
      </trkpt>
      <trkpt lat="47.34834" lon="-2.49073">
        <ele>28.799999237061</ele>
        <time>2021-08-12T08:11:45.000Z</time>
      </trkpt>
      <trkpt lat="47.34837" lon="-2.49072">
        <ele>29.200000762939</ele>
        <time>2021-08-12T08:11:46.000Z</time>
      </trkpt>
      <trkpt lat="47.34846" lon="-2.49068">
        <ele>29.60000038147</ele>
        <time>2021-08-12T08:11:50.000Z</time>
      </trkpt>
      <trkpt lat="47.34849" lon="-2.49066">
        <ele>30.200000762939</ele>
        <time>2021-08-12T08:11:51.000Z</time>
      </trkpt>
      <trkpt lat="47.34852" lon="-2.49065">
        <ele>30.60000038147</ele>
        <time>2021-08-12T08:11:52.000Z</time>
      </trkpt>
      <trkpt lat="47.34855" lon="-2.49062">
        <ele>31</ele>
        <time>2021-08-12T08:11:53.000Z</time>
      </trkpt>
      <trkpt lat="47.34857" lon="-2.49059">
        <ele>31.39999961853</ele>
        <time>2021-08-12T08:11:54.000Z</time>
      </trkpt>
      <trkpt lat="47.34861" lon="-2.49052">
        <ele>31.39999961853</ele>
        <time>2021-08-12T08:11:56.000Z</time>
      </trkpt>
      <trkpt lat="47.34863" lon="-2.49032">
        <ele>31.39999961853</ele>
        <time>2021-08-12T08:12:01.000Z</time>
      </trkpt>
      <trkpt lat="47.34861" lon="-2.49004">
        <ele>31.39999961853</ele>
        <time>2021-08-12T08:12:07.000Z</time>
      </trkpt>
      <trkpt lat="47.34857" lon="-2.48984">
        <ele>31.799999237061</ele>
        <time>2021-08-12T08:12:12.000Z</time>
      </trkpt>
      <trkpt lat="47.34857" lon="-2.48981">
        <ele>32.799999237061</ele>
        <time>2021-08-12T08:12:13.000Z</time>
      </trkpt>
      <trkpt lat="47.34856" lon="-2.48978">
        <ele>33.200000762939</ele>
        <time>2021-08-12T08:12:14.000Z</time>
      </trkpt>
      <trkpt lat="47.34856" lon="-2.48975">
        <ele>33.599998474121</ele>
        <time>2021-08-12T08:12:15.000Z</time>
      </trkpt>
      <trkpt lat="47.34857" lon="-2.48962">
        <ele>33.599998474121</ele>
        <time>2021-08-12T08:12:20.000Z</time>
      </trkpt>
      <trkpt lat="47.34863" lon="-2.48955">
        <ele>33.599998474121</ele>
        <time>2021-08-12T08:12:24.000Z</time>
      </trkpt>
      <trkpt lat="47.34865" lon="-2.48956">
        <ele>33.599998474121</ele>
        <time>2021-08-12T08:12:25.000Z</time>
      </trkpt>
      <trkpt lat="47.34867" lon="-2.48959">
        <ele>33.599998474121</ele>
        <time>2021-08-12T08:12:28.000Z</time>
      </trkpt>
      <trkpt lat="47.34868" lon="-2.48963">
        <ele>33.599998474121</ele>
        <time>2021-08-12T08:13:16.000Z</time>
      </trkpt>
      <trkpt lat="47.34869" lon="-2.48964">
        <ele>33.599998474121</ele>
        <time>2021-08-12T08:13:17.000Z</time>
      </trkpt>
      <trkpt lat="47.34875" lon="-2.48978">
        <ele>33.599998474121</ele>
        <time>2021-08-12T08:13:23.000Z</time>
      </trkpt>
      <trkpt lat="47.34887" lon="-2.49001">
        <ele>33.599998474121</ele>
        <time>2021-08-12T08:13:29.000Z</time>
      </trkpt>
      <trkpt lat="47.34901" lon="-2.49024">
        <ele>33.599998474121</ele>
        <time>2021-08-12T08:13:35.000Z</time>
      </trkpt>
      <trkpt lat="47.34916" lon="-2.49019">
        <ele>33.599998474121</ele>
        <time>2021-08-12T08:13:39.000Z</time>
      </trkpt>
      <trkpt lat="47.34937" lon="-2.49015">
        <ele>33.599998474121</ele>
        <time>2021-08-12T08:13:45.000Z</time>
      </trkpt>
      <trkpt lat="47.34949" lon="-2.49018">
        <ele>33.599998474121</ele>
        <time>2021-08-12T08:13:50.000Z</time>
      </trkpt>
      <trkpt lat="47.34951" lon="-2.49019">
        <ele>33.200000762939</ele>
        <time>2021-08-12T08:13:51.000Z</time>
      </trkpt>
      <trkpt lat="47.34953" lon="-2.49019">
        <ele>32.799999237061</ele>
        <time>2021-08-12T08:13:52.000Z</time>
      </trkpt>
      <trkpt lat="47.34955" lon="-2.4902">
        <ele>32.200000762939</ele>
        <time>2021-08-12T08:13:53.000Z</time>
      </trkpt>
      <trkpt lat="47.34956" lon="-2.4902">
        <ele>31.799999237061</ele>
        <time>2021-08-12T08:13:54.000Z</time>
      </trkpt>
      <trkpt lat="47.34958" lon="-2.49022">
        <ele>31.39999961853</ele>
        <time>2021-08-12T08:13:55.000Z</time>
      </trkpt>
      <trkpt lat="47.34962" lon="-2.49034">
        <ele>31.39999961853</ele>
        <time>2021-08-12T08:13:59.000Z</time>
      </trkpt>
      <trkpt lat="47.34964" lon="-2.49038">
        <ele>31.39999961853</ele>
        <time>2021-08-12T08:14:00.000Z</time>
      </trkpt>
      <trkpt lat="47.34964" lon="-2.49041">
        <ele>31</ele>
        <time>2021-08-12T08:14:01.000Z</time>
      </trkpt>
      <trkpt lat="47.34965" lon="-2.49044">
        <ele>30.60000038147</ele>
        <time>2021-08-12T08:14:02.000Z</time>
      </trkpt>
      <trkpt lat="47.34966" lon="-2.49046">
        <ele>30.200000762939</ele>
        <time>2021-08-12T08:14:03.000Z</time>
      </trkpt>
      <trkpt lat="47.34967" lon="-2.49047">
        <ele>29.60000038147</ele>
        <time>2021-08-12T08:14:04.000Z</time>
      </trkpt>
      <trkpt lat="47.34967" lon="-2.49048">
        <ele>29.200000762939</ele>
        <time>2021-08-12T08:14:05.000Z</time>
      </trkpt>
      <trkpt lat="47.34967" lon="-2.49049">
        <ele>29.200000762939</ele>
        <time>2021-08-12T08:14:06.000Z</time>
      </trkpt>
      <trkpt lat="47.34969" lon="-2.49052">
        <ele>29.200000762939</ele>
        <time>2021-08-12T08:14:25.000Z</time>
      </trkpt>
      <trkpt lat="47.3497" lon="-2.49054">
        <ele>29.200000762939</ele>
        <time>2021-08-12T08:14:26.000Z</time>
      </trkpt>
      <trkpt lat="47.34974" lon="-2.49065">
        <ele>28.799999237061</ele>
        <time>2021-08-12T08:14:31.000Z</time>
      </trkpt>
      <trkpt lat="47.34974" lon="-2.49068">
        <ele>28.39999961853</ele>
        <time>2021-08-12T08:14:32.000Z</time>
      </trkpt>
      <trkpt lat="47.34974" lon="-2.49071">
        <ele>28</ele>
        <time>2021-08-12T08:14:33.000Z</time>
      </trkpt>
      <trkpt lat="47.34975" lon="-2.49075">
        <ele>27.39999961853</ele>
        <time>2021-08-12T08:14:34.000Z</time>
      </trkpt>
      <trkpt lat="47.34974" lon="-2.49081">
        <ele>27</ele>
        <time>2021-08-12T08:14:35.000Z</time>
      </trkpt>
      <trkpt lat="47.34972" lon="-2.49086">
        <ele>26.60000038147</ele>
        <time>2021-08-12T08:14:36.000Z</time>
      </trkpt>
      <trkpt lat="47.3497" lon="-2.49091">
        <ele>26</ele>
        <time>2021-08-12T08:14:37.000Z</time>
      </trkpt>
      <trkpt lat="47.34968" lon="-2.49096">
        <ele>25.60000038147</ele>
        <time>2021-08-12T08:14:38.000Z</time>
      </trkpt>
      <trkpt lat="47.34964" lon="-2.49101">
        <ele>25</ele>
        <time>2021-08-12T08:14:39.000Z</time>
      </trkpt>
      <trkpt lat="47.3496" lon="-2.49106">
        <ele>24.60000038147</ele>
        <time>2021-08-12T08:14:40.000Z</time>
      </trkpt>
      <trkpt lat="47.34956" lon="-2.49111">
        <ele>24.200000762939</ele>
        <time>2021-08-12T08:14:41.000Z</time>
      </trkpt>
      <trkpt lat="47.34953" lon="-2.49115">
        <ele>23.799999237061</ele>
        <time>2021-08-12T08:14:42.000Z</time>
      </trkpt>
      <trkpt lat="47.34949" lon="-2.49119">
        <ele>23.39999961853</ele>
        <time>2021-08-12T08:14:43.000Z</time>
      </trkpt>
      <trkpt lat="47.34946" lon="-2.49123">
        <ele>23</ele>
        <time>2021-08-12T08:14:44.000Z</time>
      </trkpt>
      <trkpt lat="47.34943" lon="-2.49125">
        <ele>22.60000038147</ele>
        <time>2021-08-12T08:14:45.000Z</time>
      </trkpt>
      <trkpt lat="47.34939" lon="-2.49132">
        <ele>22.60000038147</ele>
        <time>2021-08-12T08:14:47.000Z</time>
      </trkpt>
      <trkpt lat="47.34938" lon="-2.49136">
        <ele>22.60000038147</ele>
        <time>2021-08-12T08:14:48.000Z</time>
      </trkpt>
      <trkpt lat="47.34938" lon="-2.49141">
        <ele>22.200000762939</ele>
        <time>2021-08-12T08:14:49.000Z</time>
      </trkpt>
      <trkpt lat="47.34939" lon="-2.49146">
        <ele>21.60000038147</ele>
        <time>2021-08-12T08:14:50.000Z</time>
      </trkpt>
      <trkpt lat="47.3494" lon="-2.4915">
        <ele>21.200000762939</ele>
        <time>2021-08-12T08:14:51.000Z</time>
      </trkpt>
      <trkpt lat="47.34941" lon="-2.49154">
        <ele>20.799999237061</ele>
        <time>2021-08-12T08:14:52.000Z</time>
      </trkpt>
      <trkpt lat="47.34942" lon="-2.49159">
        <ele>20.39999961853</ele>
        <time>2021-08-12T08:14:53.000Z</time>
      </trkpt>
      <trkpt lat="47.34943" lon="-2.49162">
        <ele>20.39999961853</ele>
        <time>2021-08-12T08:14:54.000Z</time>
      </trkpt>
      <trkpt lat="47.3495" lon="-2.4918">
        <ele>20.39999961853</ele>
        <time>2021-08-12T08:15:00.000Z</time>
      </trkpt>
      <trkpt lat="47.34954" lon="-2.49182">
        <ele>20.39999961853</ele>
        <time>2021-08-12T08:15:04.000Z</time>
      </trkpt>
      <trkpt lat="47.34954" lon="-2.49189">
        <ele>20.39999961853</ele>
        <time>2021-08-12T08:15:08.000Z</time>
      </trkpt>
      <trkpt lat="47.34954" lon="-2.49194">
        <ele>20.39999961853</ele>
        <time>2021-08-12T08:15:09.000Z</time>
      </trkpt>
      <trkpt lat="47.34953" lon="-2.49198">
        <ele>20.799999237061</ele>
        <time>2021-08-12T08:15:10.000Z</time>
      </trkpt>
      <trkpt lat="47.34953" lon="-2.49201">
        <ele>21.200000762939</ele>
        <time>2021-08-12T08:15:11.000Z</time>
      </trkpt>
      <trkpt lat="47.34953" lon="-2.49204">
        <ele>21.60000038147</ele>
        <time>2021-08-12T08:15:12.000Z</time>
      </trkpt>
      <trkpt lat="47.34953" lon="-2.49207">
        <ele>22.200000762939</ele>
        <time>2021-08-12T08:15:13.000Z</time>
      </trkpt>
      <trkpt lat="47.34953" lon="-2.49209">
        <ele>22.60000038147</ele>
        <time>2021-08-12T08:15:14.000Z</time>
      </trkpt>
      <trkpt lat="47.34952" lon="-2.49211">
        <ele>22.60000038147</ele>
        <time>2021-08-12T08:15:15.000Z</time>
      </trkpt>
      <trkpt lat="47.34951" lon="-2.49214">
        <ele>23</ele>
        <time>2021-08-12T08:15:16.000Z</time>
      </trkpt>
      <trkpt lat="47.34951" lon="-2.49216">
        <ele>23.39999961853</ele>
        <time>2021-08-12T08:15:17.000Z</time>
      </trkpt>
      <trkpt lat="47.3495" lon="-2.49219">
        <ele>23.799999237061</ele>
        <time>2021-08-12T08:15:18.000Z</time>
      </trkpt>
      <trkpt lat="47.3495" lon="-2.49222">
        <ele>24.200000762939</ele>
        <time>2021-08-12T08:15:19.000Z</time>
      </trkpt>
      <trkpt lat="47.3495" lon="-2.49225">
        <ele>24.60000038147</ele>
        <time>2021-08-12T08:15:20.000Z</time>
      </trkpt>
      <trkpt lat="47.34951" lon="-2.49231">
        <ele>24.60000038147</ele>
        <time>2021-08-12T08:15:22.000Z</time>
      </trkpt>
      <trkpt lat="47.34951" lon="-2.49233">
        <ele>25.200000762939</ele>
        <time>2021-08-12T08:15:23.000Z</time>
      </trkpt>
      <trkpt lat="47.34951" lon="-2.49236">
        <ele>25.60000038147</ele>
        <time>2021-08-12T08:15:24.000Z</time>
      </trkpt>
      <trkpt lat="47.34951" lon="-2.49238">
        <ele>26</ele>
        <time>2021-08-12T08:15:25.000Z</time>
      </trkpt>
      <trkpt lat="47.34951" lon="-2.49241">
        <ele>26.39999961853</ele>
        <time>2021-08-12T08:15:26.000Z</time>
      </trkpt>
      <trkpt lat="47.34951" lon="-2.49243">
        <ele>26.799999237061</ele>
        <time>2021-08-12T08:15:27.000Z</time>
      </trkpt>
      <trkpt lat="47.34951" lon="-2.49246">
        <ele>26.799999237061</ele>
        <time>2021-08-12T08:15:28.000Z</time>
      </trkpt>
      <trkpt lat="47.34951" lon="-2.49251">
        <ele>27.200000762939</ele>
        <time>2021-08-12T08:15:30.000Z</time>
      </trkpt>
      <trkpt lat="47.34952" lon="-2.49252">
        <ele>27.60000038147</ele>
        <time>2021-08-12T08:15:31.000Z</time>
      </trkpt>
      <trkpt lat="47.34952" lon="-2.49254">
        <ele>28</ele>
        <time>2021-08-12T08:15:32.000Z</time>
      </trkpt>
      <trkpt lat="47.34953" lon="-2.49254">
        <ele>28.60000038147</ele>
        <time>2021-08-12T08:15:33.000Z</time>
      </trkpt>
      <trkpt lat="47.34953" lon="-2.49255">
        <ele>29</ele>
        <time>2021-08-12T08:15:34.000Z</time>
      </trkpt>
      <trkpt lat="47.34953" lon="-2.49263">
        <ele>29</ele>
        <time>2021-08-12T08:15:39.000Z</time>
      </trkpt>
      <trkpt lat="47.34953" lon="-2.49266">
        <ele>29</ele>
        <time>2021-08-12T08:15:41.000Z</time>
      </trkpt>
      <trkpt lat="47.34954" lon="-2.49268">
        <ele>29</ele>
        <time>2021-08-12T08:15:43.000Z</time>
      </trkpt>
      <trkpt lat="47.34955" lon="-2.49271">
        <ele>29</ele>
        <time>2021-08-12T08:15:47.000Z</time>
      </trkpt>
      <trkpt lat="47.34956" lon="-2.49278">
        <ele>29</ele>
        <time>2021-08-12T08:15:49.000Z</time>
      </trkpt>
      <trkpt lat="47.34957" lon="-2.49286">
        <ele>29.39999961853</ele>
        <time>2021-08-12T08:15:52.000Z</time>
      </trkpt>
      <trkpt lat="47.34958" lon="-2.49289">
        <ele>29.799999237061</ele>
        <time>2021-08-12T08:15:53.000Z</time>
      </trkpt>
      <trkpt lat="47.34959" lon="-2.49292">
        <ele>30.200000762939</ele>
        <time>2021-08-12T08:15:54.000Z</time>
      </trkpt>
      <trkpt lat="47.34959" lon="-2.49295">
        <ele>30.60000038147</ele>
        <time>2021-08-12T08:15:55.000Z</time>
      </trkpt>
      <trkpt lat="47.34959" lon="-2.49298">
        <ele>31</ele>
        <time>2021-08-12T08:15:56.000Z</time>
      </trkpt>
      <trkpt lat="47.34957" lon="-2.49318">
        <ele>31</ele>
        <time>2021-08-12T08:16:01.000Z</time>
      </trkpt>
      <trkpt lat="47.34948" lon="-2.49341">
        <ele>31</ele>
        <time>2021-08-12T08:16:06.000Z</time>
      </trkpt>
      <trkpt lat="47.34947" lon="-2.49347">
        <ele>31</ele>
        <time>2021-08-12T08:16:07.000Z</time>
      </trkpt>
      <trkpt lat="47.34947" lon="-2.49367">
        <ele>31</ele>
        <time>2021-08-12T08:16:10.000Z</time>
      </trkpt>
      <trkpt lat="47.34949" lon="-2.49392">
        <ele>31</ele>
        <time>2021-08-12T08:16:13.000Z</time>
      </trkpt>
      <trkpt lat="47.34952" lon="-2.49405">
        <ele>31</ele>
        <time>2021-08-12T08:16:15.000Z</time>
      </trkpt>
      <trkpt lat="47.34954" lon="-2.49412">
        <ele>31</ele>
        <time>2021-08-12T08:16:18.000Z</time>
      </trkpt>
      <trkpt lat="47.34954" lon="-2.49412">
        <ele>31</ele>
        <time>2021-08-12T08:16:19.000Z</time>
      </trkpt>
      <trkpt lat="47.34955" lon="-2.49416">
        <ele>29</ele>
        <time>2021-08-12T08:16:36.000Z</time>
      </trkpt>
      <trkpt lat="47.34954" lon="-2.4942">
        <ele>29</ele>
        <time>2021-08-12T08:16:37.000Z</time>
      </trkpt>
      <trkpt lat="47.34947" lon="-2.49433">
        <ele>29</ele>
        <time>2021-08-12T08:16:40.000Z</time>
      </trkpt>
      <trkpt lat="47.34944" lon="-2.49439">
        <ele>29</ele>
        <time>2021-08-12T08:16:41.000Z</time>
      </trkpt>
      <trkpt lat="47.3494" lon="-2.49445">
        <ele>29</ele>
        <time>2021-08-12T08:16:42.000Z</time>
      </trkpt>
      <trkpt lat="47.34932" lon="-2.49469">
        <ele>29</ele>
        <time>2021-08-12T08:16:45.000Z</time>
      </trkpt>
      <trkpt lat="47.3493" lon="-2.49478">
        <ele>28.60000038147</ele>
        <time>2021-08-12T08:16:46.000Z</time>
      </trkpt>
      <trkpt lat="47.34928" lon="-2.49487">
        <ele>28.200000762939</ele>
        <time>2021-08-12T08:16:47.000Z</time>
      </trkpt>
      <trkpt lat="47.34928" lon="-2.49495">
        <ele>27.799999237061</ele>
        <time>2021-08-12T08:16:48.000Z</time>
      </trkpt>
      <trkpt lat="47.34928" lon="-2.49502">
        <ele>27.39999961853</ele>
        <time>2021-08-12T08:16:49.000Z</time>
      </trkpt>
      <trkpt lat="47.34928" lon="-2.49506">
        <ele>26.799999237061</ele>
        <time>2021-08-12T08:16:50.000Z</time>
      </trkpt>
      <trkpt lat="47.34928" lon="-2.49509">
        <ele>26.39999961853</ele>
        <time>2021-08-12T08:16:51.000Z</time>
      </trkpt>
      <trkpt lat="47.34927" lon="-2.49511">
        <ele>25.799999237061</ele>
        <time>2021-08-12T08:16:52.000Z</time>
      </trkpt>
      <trkpt lat="47.34926" lon="-2.49512">
        <ele>25.39999961853</ele>
        <time>2021-08-12T08:16:53.000Z</time>
      </trkpt>
      <trkpt lat="47.34924" lon="-2.49514">
        <ele>24.799999237061</ele>
        <time>2021-08-12T08:16:54.000Z</time>
      </trkpt>
      <trkpt lat="47.34921" lon="-2.49515">
        <ele>24.799999237061</ele>
        <time>2021-08-12T08:16:56.000Z</time>
      </trkpt>
      <trkpt lat="47.34919" lon="-2.49517">
        <ele>24.799999237061</ele>
        <time>2021-08-12T08:16:57.000Z</time>
      </trkpt>
      <trkpt lat="47.34909" lon="-2.49531">
        <ele>24.39999961853</ele>
        <time>2021-08-12T08:17:01.000Z</time>
      </trkpt>
      <trkpt lat="47.34905" lon="-2.49535">
        <ele>24</ele>
        <time>2021-08-12T08:17:02.000Z</time>
      </trkpt>
      <trkpt lat="47.34902" lon="-2.4954">
        <ele>23.60000038147</ele>
        <time>2021-08-12T08:17:03.000Z</time>
      </trkpt>
      <trkpt lat="47.34899" lon="-2.49544">
        <ele>23.200000762939</ele>
        <time>2021-08-12T08:17:04.000Z</time>
      </trkpt>
      <trkpt lat="47.34897" lon="-2.49549">
        <ele>22.799999237061</ele>
        <time>2021-08-12T08:17:05.000Z</time>
      </trkpt>
      <trkpt lat="47.34893" lon="-2.49554">
        <ele>22.799999237061</ele>
        <time>2021-08-12T08:17:06.000Z</time>
      </trkpt>
      <trkpt lat="47.34889" lon="-2.49558">
        <ele>22.39999961853</ele>
        <time>2021-08-12T08:17:07.000Z</time>
      </trkpt>
      <trkpt lat="47.34884" lon="-2.49562">
        <ele>22</ele>
        <time>2021-08-12T08:17:08.000Z</time>
      </trkpt>
      <trkpt lat="47.34879" lon="-2.49566">
        <ele>21.60000038147</ele>
        <time>2021-08-12T08:17:09.000Z</time>
      </trkpt>
      <trkpt lat="47.34873" lon="-2.49571">
        <ele>20.60000038147</ele>
        <time>2021-08-12T08:17:10.000Z</time>
      </trkpt>
      <trkpt lat="47.34854" lon="-2.49584">
        <ele>20.60000038147</ele>
        <time>2021-08-12T08:17:13.000Z</time>
      </trkpt>
      <trkpt lat="47.34848" lon="-2.49589">
        <ele>20.200000762939</ele>
        <time>2021-08-12T08:17:14.000Z</time>
      </trkpt>
      <trkpt lat="47.34842" lon="-2.49595">
        <ele>19.60000038147</ele>
        <time>2021-08-12T08:17:15.000Z</time>
      </trkpt>
      <trkpt lat="47.34835" lon="-2.49601">
        <ele>19.200000762939</ele>
        <time>2021-08-12T08:17:16.000Z</time>
      </trkpt>
      <trkpt lat="47.34828" lon="-2.49607">
        <ele>18.60000038147</ele>
        <time>2021-08-12T08:17:17.000Z</time>
      </trkpt>
      <trkpt lat="47.34822" lon="-2.49614">
        <ele>18.200000762939</ele>
        <time>2021-08-12T08:17:18.000Z</time>
      </trkpt>
      <trkpt lat="47.34801" lon="-2.49633">
        <ele>17.799999237061</ele>
        <time>2021-08-12T08:17:21.000Z</time>
      </trkpt>
      <trkpt lat="47.34796" lon="-2.49639">
        <ele>17.39999961853</ele>
        <time>2021-08-12T08:17:22.000Z</time>
      </trkpt>
      <trkpt lat="47.3479" lon="-2.49645">
        <ele>17</ele>
        <time>2021-08-12T08:17:23.000Z</time>
      </trkpt>
      <trkpt lat="47.34785" lon="-2.49651">
        <ele>16.39999961853</ele>
        <time>2021-08-12T08:17:24.000Z</time>
      </trkpt>
      <trkpt lat="47.34781" lon="-2.49655">
        <ele>16</ele>
        <time>2021-08-12T08:17:25.000Z</time>
      </trkpt>
      <trkpt lat="47.34774" lon="-2.49664">
        <ele>15.60000038147</ele>
        <time>2021-08-12T08:17:27.000Z</time>
      </trkpt>
      <trkpt lat="47.34771" lon="-2.49668">
        <ele>15.199999809265</ele>
        <time>2021-08-12T08:17:28.000Z</time>
      </trkpt>
      <trkpt lat="47.34769" lon="-2.49672">
        <ele>14.800000190735</ele>
        <time>2021-08-12T08:17:29.000Z</time>
      </trkpt>
      <trkpt lat="47.34766" lon="-2.49677">
        <ele>14.39999961853</ele>
        <time>2021-08-12T08:17:30.000Z</time>
      </trkpt>
      <trkpt lat="47.34763" lon="-2.49682">
        <ele>14</ele>
        <time>2021-08-12T08:17:31.000Z</time>
      </trkpt>
      <trkpt lat="47.34758" lon="-2.49693">
        <ele>14</ele>
        <time>2021-08-12T08:17:33.000Z</time>
      </trkpt>
      <trkpt lat="47.34754" lon="-2.49697">
        <ele>14</ele>
        <time>2021-08-12T08:17:34.000Z</time>
      </trkpt>
      <trkpt lat="47.34749" lon="-2.49699">
        <ele>14</ele>
        <time>2021-08-12T08:17:35.000Z</time>
      </trkpt>
      <trkpt lat="47.34739" lon="-2.49699">
        <ele>14</ele>
        <time>2021-08-12T08:17:37.000Z</time>
      </trkpt>
      <trkpt lat="47.34735" lon="-2.497">
        <ele>14</ele>
        <time>2021-08-12T08:17:38.000Z</time>
      </trkpt>
      <trkpt lat="47.34721" lon="-2.49709">
        <ele>14</ele>
        <time>2021-08-12T08:17:41.000Z</time>
      </trkpt>
      <trkpt lat="47.34716" lon="-2.49714">
        <ele>14</ele>
        <time>2021-08-12T08:17:42.000Z</time>
      </trkpt>
      <trkpt lat="47.34702" lon="-2.4973">
        <ele>14</ele>
        <time>2021-08-12T08:17:45.000Z</time>
      </trkpt>
      <trkpt lat="47.34699" lon="-2.49737">
        <ele>14</ele>
        <time>2021-08-12T08:17:46.000Z</time>
      </trkpt>
      <trkpt lat="47.34688" lon="-2.49768">
        <ele>14</ele>
        <time>2021-08-12T08:17:50.000Z</time>
      </trkpt>
      <trkpt lat="47.34684" lon="-2.49774">
        <ele>14</ele>
        <time>2021-08-12T08:17:51.000Z</time>
      </trkpt>
      <trkpt lat="47.34668" lon="-2.49786">
        <ele>14</ele>
        <time>2021-08-12T08:17:54.000Z</time>
      </trkpt>
      <trkpt lat="47.34662" lon="-2.4979">
        <ele>14</ele>
        <time>2021-08-12T08:17:55.000Z</time>
      </trkpt>
      <trkpt lat="47.34644" lon="-2.498">
        <ele>13.60000038147</ele>
        <time>2021-08-12T08:17:58.000Z</time>
      </trkpt>
      <trkpt lat="47.34637" lon="-2.49803">
        <ele>13.199999809265</ele>
        <time>2021-08-12T08:17:59.000Z</time>
      </trkpt>
      <trkpt lat="47.34631" lon="-2.49805">
        <ele>12.39999961853</ele>
        <time>2021-08-12T08:18:00.000Z</time>
      </trkpt>
      <trkpt lat="47.34624" lon="-2.49808">
        <ele>12</ele>
        <time>2021-08-12T08:18:01.000Z</time>
      </trkpt>
      <trkpt lat="47.34569" lon="-2.49829">
        <ele>12</ele>
        <time>2021-08-12T08:18:10.000Z</time>
      </trkpt>
      <trkpt lat="47.34548" lon="-2.49839">
        <ele>12</ele>
        <time>2021-08-12T08:18:14.000Z</time>
      </trkpt>
      <trkpt lat="47.34538" lon="-2.4985">
        <ele>12</ele>
        <time>2021-08-12T08:18:16.000Z</time>
      </trkpt>
      <trkpt lat="47.34531" lon="-2.49864">
        <ele>12</ele>
        <time>2021-08-12T08:18:18.000Z</time>
      </trkpt>
      <trkpt lat="47.34519" lon="-2.49883">
        <ele>12</ele>
        <time>2021-08-12T08:18:21.000Z</time>
      </trkpt>
      <trkpt lat="47.3451" lon="-2.49894">
        <ele>12</ele>
        <time>2021-08-12T08:18:23.000Z</time>
      </trkpt>
      <trkpt lat="47.34494" lon="-2.4991">
        <ele>12</ele>
        <time>2021-08-12T08:18:26.000Z</time>
      </trkpt>
      <trkpt lat="47.34459" lon="-2.49944">
        <ele>12</ele>
        <time>2021-08-12T08:18:33.000Z</time>
      </trkpt>
      <trkpt lat="47.34455" lon="-2.49949">
        <ele>12</ele>
        <time>2021-08-12T08:18:34.000Z</time>
      </trkpt>
      <trkpt lat="47.34448" lon="-2.49973">
        <ele>12</ele>
        <time>2021-08-12T08:18:37.000Z</time>
      </trkpt>
      <trkpt lat="47.34444" lon="-2.49999">
        <ele>12</ele>
        <time>2021-08-12T08:18:40.000Z</time>
      </trkpt>
      <trkpt lat="47.34442" lon="-2.50025">
        <ele>12</ele>
        <time>2021-08-12T08:18:43.000Z</time>
      </trkpt>
      <trkpt lat="47.34436" lon="-2.50083">
        <ele>12</ele>
        <time>2021-08-12T08:18:50.000Z</time>
      </trkpt>
      <trkpt lat="47.34434" lon="-2.50091">
        <ele>12</ele>
        <time>2021-08-12T08:18:51.000Z</time>
      </trkpt>
      <trkpt lat="47.34426" lon="-2.50115">
        <ele>12</ele>
        <time>2021-08-12T08:18:54.000Z</time>
      </trkpt>
      <trkpt lat="47.34418" lon="-2.50129">
        <ele>12</ele>
        <time>2021-08-12T08:18:56.000Z</time>
      </trkpt>
      <trkpt lat="47.34401" lon="-2.50157">
        <ele>12</ele>
        <time>2021-08-12T08:19:00.000Z</time>
      </trkpt>
      <trkpt lat="47.34378" lon="-2.50199">
        <ele>12</ele>
        <time>2021-08-12T08:19:06.000Z</time>
      </trkpt>
      <trkpt lat="47.34375" lon="-2.50204">
        <ele>11.60000038147</ele>
        <time>2021-08-12T08:19:07.000Z</time>
      </trkpt>
      <trkpt lat="47.34372" lon="-2.50208">
        <ele>11.199999809265</ele>
        <time>2021-08-12T08:19:08.000Z</time>
      </trkpt>
      <trkpt lat="47.34369" lon="-2.5021">
        <ele>10.800000190735</ele>
        <time>2021-08-12T08:19:09.000Z</time>
      </trkpt>
      <trkpt lat="47.34365" lon="-2.50211">
        <ele>10.39999961853</ele>
        <time>2021-08-12T08:19:10.000Z</time>
      </trkpt>
      <trkpt lat="47.34361" lon="-2.50211">
        <ele>10</ele>
        <time>2021-08-12T08:19:11.000Z</time>
      </trkpt>
      <trkpt lat="47.34352" lon="-2.50204">
        <ele>10</ele>
        <time>2021-08-12T08:19:13.000Z</time>
      </trkpt>
      <trkpt lat="47.34348" lon="-2.502">
        <ele>10</ele>
        <time>2021-08-12T08:19:14.000Z</time>
      </trkpt>
      <trkpt lat="47.34332" lon="-2.50189">
        <ele>10</ele>
        <time>2021-08-12T08:19:17.000Z</time>
      </trkpt>
      <trkpt lat="47.34326" lon="-2.50186">
        <ele>10</ele>
        <time>2021-08-12T08:19:18.000Z</time>
      </trkpt>
      <trkpt lat="47.3431" lon="-2.50176">
        <ele>10</ele>
        <time>2021-08-12T08:19:21.000Z</time>
      </trkpt>
      <trkpt lat="47.34302" lon="-2.50163">
        <ele>10</ele>
        <time>2021-08-12T08:19:23.000Z</time>
      </trkpt>
      <trkpt lat="47.34293" lon="-2.50129">
        <ele>10</ele>
        <time>2021-08-12T08:19:27.000Z</time>
      </trkpt>
      <trkpt lat="47.34292" lon="-2.5012">
        <ele>10</ele>
        <time>2021-08-12T08:19:28.000Z</time>
      </trkpt>
      <trkpt lat="47.34289" lon="-2.50084">
        <ele>10</ele>
        <time>2021-08-12T08:19:32.000Z</time>
      </trkpt>
      <trkpt lat="47.34287" lon="-2.50066">
        <ele>10</ele>
        <time>2021-08-12T08:19:34.000Z</time>
      </trkpt>
      <trkpt lat="47.34286" lon="-2.50058">
        <ele>10</ele>
        <time>2021-08-12T08:19:35.000Z</time>
      </trkpt>
      <trkpt lat="47.34285" lon="-2.50049">
        <ele>10</ele>
        <time>2021-08-12T08:19:36.000Z</time>
      </trkpt>
      <trkpt lat="47.3428" lon="-2.50033">
        <ele>10</ele>
        <time>2021-08-12T08:19:38.000Z</time>
      </trkpt>
      <trkpt lat="47.34276" lon="-2.50025">
        <ele>10</ele>
        <time>2021-08-12T08:19:39.000Z</time>
      </trkpt>
      <trkpt lat="47.34254" lon="-2.50006">
        <ele>10</ele>
        <time>2021-08-12T08:19:44.000Z</time>
      </trkpt>
      <trkpt lat="47.34242" lon="-2.50002">
        <ele>10</ele>
        <time>2021-08-12T08:19:46.000Z</time>
      </trkpt>
      <trkpt lat="47.34217" lon="-2.49993">
        <ele>10</ele>
        <time>2021-08-12T08:19:50.000Z</time>
      </trkpt>
      <trkpt lat="47.34189" lon="-2.49982">
        <ele>10</ele>
        <time>2021-08-12T08:19:56.000Z</time>
      </trkpt>
      <trkpt lat="47.34185" lon="-2.49975">
        <ele>10</ele>
        <time>2021-08-12T08:19:58.000Z</time>
      </trkpt>
      <trkpt lat="47.34183" lon="-2.49969">
        <ele>10</ele>
        <time>2021-08-12T08:19:59.000Z</time>
      </trkpt>
      <trkpt lat="47.34172" lon="-2.49939">
        <ele>10</ele>
        <time>2021-08-12T08:20:03.000Z</time>
      </trkpt>
      <trkpt lat="47.34151" lon="-2.49897">
        <ele>10</ele>
        <time>2021-08-12T08:20:09.000Z</time>
      </trkpt>
      <trkpt lat="47.34123" lon="-2.49854">
        <ele>10</ele>
        <time>2021-08-12T08:20:16.000Z</time>
      </trkpt>
      <trkpt lat="47.34109" lon="-2.49837">
        <ele>10</ele>
        <time>2021-08-12T08:20:19.000Z</time>
      </trkpt>
      <trkpt lat="47.34098" lon="-2.4983">
        <ele>10</ele>
        <time>2021-08-12T08:20:21.000Z</time>
      </trkpt>
      <trkpt lat="47.34073" lon="-2.49827">
        <ele>10</ele>
        <time>2021-08-12T08:20:25.000Z</time>
      </trkpt>
      <trkpt lat="47.3404" lon="-2.49829">
        <ele>10</ele>
        <time>2021-08-12T08:20:31.000Z</time>
      </trkpt>
      <trkpt lat="47.34033" lon="-2.49829">
        <ele>10</ele>
        <time>2021-08-12T08:20:34.000Z</time>
      </trkpt>
      <trkpt lat="47.34023" lon="-2.49828">
        <ele>10</ele>
        <time>2021-08-12T08:20:41.000Z</time>
      </trkpt>
      <trkpt lat="47.34013" lon="-2.49828">
        <ele>10</ele>
        <time>2021-08-12T08:20:47.000Z</time>
      </trkpt>
      <trkpt lat="47.33997" lon="-2.49826">
        <ele>10</ele>
        <time>2021-08-12T08:20:54.000Z</time>
      </trkpt>
      <trkpt lat="47.33976" lon="-2.49824">
        <ele>10</ele>
        <time>2021-08-12T08:21:01.000Z</time>
      </trkpt>
      <trkpt lat="47.33958" lon="-2.4982">
        <ele>10</ele>
        <time>2021-08-12T08:21:06.000Z</time>
      </trkpt>
      <trkpt lat="47.33945" lon="-2.49829">
        <ele>10</ele>
        <time>2021-08-12T08:21:10.000Z</time>
      </trkpt>
      <trkpt lat="47.33922" lon="-2.49855">
        <ele>10</ele>
        <time>2021-08-12T08:21:18.000Z</time>
      </trkpt>
      <trkpt lat="47.33917" lon="-2.49859">
        <ele>10</ele>
        <time>2021-08-12T08:21:20.000Z</time>
      </trkpt>
      <trkpt lat="47.33913" lon="-2.49858">
        <ele>10</ele>
        <time>2021-08-12T08:21:22.000Z</time>
      </trkpt>
      <trkpt lat="47.33904" lon="-2.49864">
        <ele>10</ele>
        <time>2021-08-12T08:21:26.000Z</time>
      </trkpt>
      <trkpt lat="47.33901" lon="-2.49872">
        <ele>9.6000003814697</ele>
        <time>2021-08-12T08:21:28.000Z</time>
      </trkpt>
      <trkpt lat="47.33899" lon="-2.49876">
        <ele>9.1999998092651</ele>
        <time>2021-08-12T08:21:29.000Z</time>
      </trkpt>
      <trkpt lat="47.33898" lon="-2.49881">
        <ele>8.6000003814697</ele>
        <time>2021-08-12T08:21:30.000Z</time>
      </trkpt>
      <trkpt lat="47.33897" lon="-2.49886">
        <ele>8.1999998092651</ele>
        <time>2021-08-12T08:21:31.000Z</time>
      </trkpt>
      <trkpt lat="47.33896" lon="-2.49891">
        <ele>7.8000001907349</ele>
        <time>2021-08-12T08:21:32.000Z</time>
      </trkpt>
      <trkpt lat="47.33889" lon="-2.49913">
        <ele>7.8000001907349</ele>
        <time>2021-08-12T08:21:37.000Z</time>
      </trkpt>
      <trkpt lat="47.33882" lon="-2.49927">
        <ele>7.8000001907349</ele>
        <time>2021-08-12T08:21:40.000Z</time>
      </trkpt>
      <trkpt lat="47.33877" lon="-2.49938">
        <ele>7.8000001907349</ele>
        <time>2021-08-12T08:21:42.000Z</time>
      </trkpt>
      <trkpt lat="47.33872" lon="-2.49949">
        <ele>7.8000001907349</ele>
        <time>2021-08-12T08:21:44.000Z</time>
      </trkpt>
      <trkpt lat="47.33864" lon="-2.49962">
        <ele>7.8000001907349</ele>
        <time>2021-08-12T08:21:47.000Z</time>
      </trkpt>
      <trkpt lat="47.3386" lon="-2.49961">
        <ele>7.8000001907349</ele>
        <time>2021-08-12T08:21:48.000Z</time>
      </trkpt>
      <trkpt lat="47.33841" lon="-2.49953">
        <ele>7.8000001907349</ele>
        <time>2021-08-12T08:21:52.000Z</time>
      </trkpt>
      <trkpt lat="47.33816" lon="-2.49952">
        <ele>7.8000001907349</ele>
        <time>2021-08-12T08:21:57.000Z</time>
      </trkpt>
      <trkpt lat="47.33803" lon="-2.49942">
        <ele>7.8000001907349</ele>
        <time>2021-08-12T08:22:00.000Z</time>
      </trkpt>
      <trkpt lat="47.33801" lon="-2.49937">
        <ele>8.1999998092651</ele>
        <time>2021-08-12T08:22:01.000Z</time>
      </trkpt>
      <trkpt lat="47.33798" lon="-2.4993">
        <ele>8.8000001907349</ele>
        <time>2021-08-12T08:22:02.000Z</time>
      </trkpt>
      <trkpt lat="47.33796" lon="-2.49923">
        <ele>9.1999998092651</ele>
        <time>2021-08-12T08:22:03.000Z</time>
      </trkpt>
      <trkpt lat="47.33795" lon="-2.49917">
        <ele>9.6000003814697</ele>
        <time>2021-08-12T08:22:04.000Z</time>
      </trkpt>
      <trkpt lat="47.33792" lon="-2.4991">
        <ele>10</ele>
        <time>2021-08-12T08:22:05.000Z</time>
      </trkpt>
      <trkpt lat="47.33788" lon="-2.49889">
        <ele>10</ele>
        <time>2021-08-12T08:22:08.000Z</time>
      </trkpt>
      <trkpt lat="47.33782" lon="-2.49864">
        <ele>10</ele>
        <time>2021-08-12T08:22:12.000Z</time>
      </trkpt>
      <trkpt lat="47.33782" lon="-2.49832">
        <ele>10</ele>
        <time>2021-08-12T08:22:18.000Z</time>
      </trkpt>
      <trkpt lat="47.33782" lon="-2.49813">
        <ele>10</ele>
        <time>2021-08-12T08:22:22.000Z</time>
      </trkpt>
      <trkpt lat="47.3378" lon="-2.49809">
        <ele>10</ele>
        <time>2021-08-12T08:22:23.000Z</time>
      </trkpt>
      <trkpt lat="47.33772" lon="-2.49798">
        <ele>10</ele>
        <time>2021-08-12T08:22:26.000Z</time>
      </trkpt>
      <trkpt lat="47.33766" lon="-2.49789">
        <ele>10</ele>
        <time>2021-08-12T08:22:28.000Z</time>
      </trkpt>
      <trkpt lat="47.33757" lon="-2.49775">
        <ele>10</ele>
        <time>2021-08-12T08:22:31.000Z</time>
      </trkpt>
      <trkpt lat="47.3375" lon="-2.49769">
        <ele>10</ele>
        <time>2021-08-12T08:22:33.000Z</time>
      </trkpt>
      <trkpt lat="47.33748" lon="-2.49756">
        <ele>10</ele>
        <time>2021-08-12T08:22:36.000Z</time>
      </trkpt>
      <trkpt lat="47.33759" lon="-2.4974">
        <ele>10</ele>
        <time>2021-08-12T08:22:40.000Z</time>
      </trkpt>
      <trkpt lat="47.33774" lon="-2.49714">
        <ele>10</ele>
        <time>2021-08-12T08:22:46.000Z</time>
      </trkpt>
      <trkpt lat="47.33775" lon="-2.49708">
        <ele>10</ele>
        <time>2021-08-12T08:22:47.000Z</time>
      </trkpt>
      <trkpt lat="47.33784" lon="-2.49676">
        <ele>10</ele>
        <time>2021-08-12T08:22:53.000Z</time>
      </trkpt>
      <trkpt lat="47.33781" lon="-2.49659">
        <ele>10</ele>
        <time>2021-08-12T08:22:56.000Z</time>
      </trkpt>
      <trkpt lat="47.33777" lon="-2.49647">
        <ele>10</ele>
        <time>2021-08-12T08:22:58.000Z</time>
      </trkpt>
      <trkpt lat="47.33767" lon="-2.49637">
        <ele>10</ele>
        <time>2021-08-12T08:23:01.000Z</time>
      </trkpt>
      <trkpt lat="47.33762" lon="-2.49636">
        <ele>10</ele>
        <time>2021-08-12T08:23:02.000Z</time>
      </trkpt>
      <trkpt lat="47.33751" lon="-2.4963">
        <ele>10</ele>
        <time>2021-08-12T08:23:05.000Z</time>
      </trkpt>
      <trkpt lat="47.33748" lon="-2.49626">
        <ele>10</ele>
        <time>2021-08-12T08:23:06.000Z</time>
      </trkpt>
      <trkpt lat="47.3374" lon="-2.49604">
        <ele>10</ele>
        <time>2021-08-12T08:23:11.000Z</time>
      </trkpt>
      <trkpt lat="47.33747" lon="-2.49588">
        <ele>10</ele>
        <time>2021-08-12T08:23:15.000Z</time>
      </trkpt>
      <trkpt lat="47.33753" lon="-2.49567">
        <ele>10</ele>
        <time>2021-08-12T08:23:19.000Z</time>
      </trkpt>
      <trkpt lat="47.33748" lon="-2.49543">
        <ele>10</ele>
        <time>2021-08-12T08:23:23.000Z</time>
      </trkpt>
      <trkpt lat="47.33746" lon="-2.49537">
        <ele>10</ele>
        <time>2021-08-12T08:23:24.000Z</time>
      </trkpt>
      <trkpt lat="47.33741" lon="-2.49514">
        <ele>10</ele>
        <time>2021-08-12T08:23:28.000Z</time>
      </trkpt>
      <trkpt lat="47.33737" lon="-2.49483">
        <ele>10</ele>
        <time>2021-08-12T08:23:33.000Z</time>
      </trkpt>
      <trkpt lat="47.33736" lon="-2.49478">
        <ele>10</ele>
        <time>2021-08-12T08:23:34.000Z</time>
      </trkpt>
      <trkpt lat="47.33727" lon="-2.49464">
        <ele>10</ele>
        <time>2021-08-12T08:23:38.000Z</time>
      </trkpt>
      <trkpt lat="47.3371" lon="-2.49462">
        <ele>10</ele>
        <time>2021-08-12T08:23:42.000Z</time>
      </trkpt>
      <trkpt lat="47.33706" lon="-2.49462">
        <ele>10</ele>
        <time>2021-08-12T08:23:43.000Z</time>
      </trkpt>
      <trkpt lat="47.3369" lon="-2.4945">
        <ele>10</ele>
        <time>2021-08-12T08:23:48.000Z</time>
      </trkpt>
      <trkpt lat="47.33673" lon="-2.49416">
        <ele>10</ele>
        <time>2021-08-12T08:23:55.000Z</time>
      </trkpt>
      <trkpt lat="47.33672" lon="-2.4941">
        <ele>10</ele>
        <time>2021-08-12T08:23:56.000Z</time>
      </trkpt>
      <trkpt lat="47.33665" lon="-2.49389">
        <ele>10</ele>
        <time>2021-08-12T08:24:00.000Z</time>
      </trkpt>
      <trkpt lat="47.33656" lon="-2.49365">
        <ele>10</ele>
        <time>2021-08-12T08:24:05.000Z</time>
      </trkpt>
      <trkpt lat="47.33651" lon="-2.49347">
        <ele>10</ele>
        <time>2021-08-12T08:24:09.000Z</time>
      </trkpt>
      <trkpt lat="47.33653" lon="-2.49345">
        <ele>10</ele>
        <time>2021-08-12T08:24:10.000Z</time>
      </trkpt>
      <trkpt lat="47.33662" lon="-2.49339">
        <ele>10</ele>
        <time>2021-08-12T08:24:13.000Z</time>
      </trkpt>
      <trkpt lat="47.33666" lon="-2.49338">
        <ele>10</ele>
        <time>2021-08-12T08:24:14.000Z</time>
      </trkpt>
      <trkpt lat="47.33677" lon="-2.49323">
        <ele>10</ele>
        <time>2021-08-12T08:24:18.000Z</time>
      </trkpt>
      <trkpt lat="47.33678" lon="-2.49303">
        <ele>10</ele>
        <time>2021-08-12T08:24:22.000Z</time>
      </trkpt>
      <trkpt lat="47.33679" lon="-2.49293">
        <ele>10</ele>
        <time>2021-08-12T08:24:25.000Z</time>
      </trkpt>
      <trkpt lat="47.33682" lon="-2.49287">
        <ele>10</ele>
        <time>2021-08-12T08:24:27.000Z</time>
      </trkpt>
      <trkpt lat="47.3368" lon="-2.49276">
        <ele>10</ele>
        <time>2021-08-12T08:24:30.000Z</time>
      </trkpt>
      <trkpt lat="47.33676" lon="-2.49271">
        <ele>10</ele>
        <time>2021-08-12T08:24:32.000Z</time>
      </trkpt>
      <trkpt lat="47.33666" lon="-2.49262">
        <ele>10</ele>
        <time>2021-08-12T08:24:36.000Z</time>
      </trkpt>
      <trkpt lat="47.33647" lon="-2.49251">
        <ele>10</ele>
        <time>2021-08-12T08:24:42.000Z</time>
      </trkpt>
      <trkpt lat="47.33633" lon="-2.49238">
        <ele>10</ele>
        <time>2021-08-12T08:24:47.000Z</time>
      </trkpt>
      <trkpt lat="47.33632" lon="-2.49235">
        <ele>10</ele>
        <time>2021-08-12T08:24:48.000Z</time>
      </trkpt>
      <trkpt lat="47.33631" lon="-2.49227">
        <ele>10</ele>
        <time>2021-08-12T08:24:50.000Z</time>
      </trkpt>
      <trkpt lat="47.33634" lon="-2.49217">
        <ele>10</ele>
        <time>2021-08-12T08:24:53.000Z</time>
      </trkpt>
      <trkpt lat="47.33635" lon="-2.49213">
        <ele>10</ele>
        <time>2021-08-12T08:24:54.000Z</time>
      </trkpt>
      <trkpt lat="47.33635" lon="-2.49205">
        <ele>10</ele>
        <time>2021-08-12T08:24:57.000Z</time>
      </trkpt>
      <trkpt lat="47.33632" lon="-2.49198">
        <ele>10</ele>
        <time>2021-08-12T08:24:59.000Z</time>
      </trkpt>
      <trkpt lat="47.3362" lon="-2.49188">
        <ele>10</ele>
        <time>2021-08-12T08:25:04.000Z</time>
      </trkpt>
      <trkpt lat="47.33614" lon="-2.49187">
        <ele>10</ele>
        <time>2021-08-12T08:25:06.000Z</time>
      </trkpt>
      <trkpt lat="47.33601" lon="-2.49182">
        <ele>10</ele>
        <time>2021-08-12T08:25:10.000Z</time>
      </trkpt>
      <trkpt lat="47.33586" lon="-2.49165">
        <ele>10</ele>
        <time>2021-08-12T08:25:16.000Z</time>
      </trkpt>
      <trkpt lat="47.33584" lon="-2.49152">
        <ele>10</ele>
        <time>2021-08-12T08:25:19.000Z</time>
      </trkpt>
      <trkpt lat="47.33585" lon="-2.49147">
        <ele>10</ele>
        <time>2021-08-12T08:25:20.000Z</time>
      </trkpt>
      <trkpt lat="47.33583" lon="-2.4913">
        <ele>10</ele>
        <time>2021-08-12T08:25:24.000Z</time>
      </trkpt>
      <trkpt lat="47.33573" lon="-2.49106">
        <ele>10</ele>
        <time>2021-08-12T08:25:31.000Z</time>
      </trkpt>
      <trkpt lat="47.33561" lon="-2.49095">
        <ele>10</ele>
        <time>2021-08-12T08:25:37.000Z</time>
      </trkpt>
      <trkpt lat="47.33559" lon="-2.49096">
        <ele>10</ele>
        <time>2021-08-12T08:25:38.000Z</time>
      </trkpt>
      <trkpt lat="47.33555" lon="-2.49101">
        <ele>10</ele>
        <time>2021-08-12T08:25:40.000Z</time>
      </trkpt>
      <trkpt lat="47.33545" lon="-2.49119">
        <ele>10</ele>
        <time>2021-08-12T08:25:45.000Z</time>
      </trkpt>
      <trkpt lat="47.3353" lon="-2.49132">
        <ele>10</ele>
        <time>2021-08-12T08:25:50.000Z</time>
      </trkpt>
      <trkpt lat="47.33524" lon="-2.49116">
        <ele>10</ele>
        <time>2021-08-12T08:25:53.000Z</time>
      </trkpt>
      <trkpt lat="47.33507" lon="-2.49079">
        <ele>10</ele>
        <time>2021-08-12T08:26:00.000Z</time>
      </trkpt>
      <trkpt lat="47.33495" lon="-2.49062">
        <ele>10</ele>
        <time>2021-08-12T08:26:04.000Z</time>
      </trkpt>
      <trkpt lat="47.3349" lon="-2.49056">
        <ele>10</ele>
        <time>2021-08-12T08:26:06.000Z</time>
      </trkpt>
      <trkpt lat="47.33488" lon="-2.49053">
        <ele>10</ele>
        <time>2021-08-12T08:26:09.000Z</time>
      </trkpt>
      <trkpt lat="47.3349" lon="-2.49057">
        <ele>10</ele>
        <time>2021-08-12T08:26:29.000Z</time>
      </trkpt>
      <trkpt lat="47.33493" lon="-2.49062">
        <ele>10</ele>
        <time>2021-08-12T08:26:32.000Z</time>
      </trkpt>
      <trkpt lat="47.33497" lon="-2.49066">
        <ele>9.6000003814697</ele>
        <time>2021-08-12T08:26:34.000Z</time>
      </trkpt>
      <trkpt lat="47.33499" lon="-2.49069">
        <ele>9.1999998092651</ele>
        <time>2021-08-12T08:26:35.000Z</time>
      </trkpt>
      <trkpt lat="47.33501" lon="-2.49072">
        <ele>8.8000001907349</ele>
        <time>2021-08-12T08:26:36.000Z</time>
      </trkpt>
      <trkpt lat="47.33503" lon="-2.49074">
        <ele>8.3999996185303</ele>
        <time>2021-08-12T08:26:37.000Z</time>
      </trkpt>
      <trkpt lat="47.33505" lon="-2.49077">
        <ele>8</ele>
        <time>2021-08-12T08:26:38.000Z</time>
      </trkpt>
      <trkpt lat="47.33514" lon="-2.49095">
        <ele>8</ele>
        <time>2021-08-12T08:26:43.000Z</time>
      </trkpt>
      <trkpt lat="47.33527" lon="-2.49129">
        <ele>8</ele>
        <time>2021-08-12T08:26:52.000Z</time>
      </trkpt>
      <trkpt lat="47.33526" lon="-2.49131">
        <ele>8</ele>
        <time>2021-08-12T08:26:53.000Z</time>
      </trkpt>
      <trkpt lat="47.33524" lon="-2.49134">
        <ele>8</ele>
        <time>2021-08-12T08:26:56.000Z</time>
      </trkpt>
      <trkpt lat="47.33524" lon="-2.49134">
        <ele>8</ele>
        <time>2021-08-12T08:26:57.000Z</time>
      </trkpt>
      <trkpt lat="47.3353" lon="-2.49134">
        <ele>8</ele>
        <time>2021-08-12T08:27:10.000Z</time>
      </trkpt>
      <trkpt lat="47.33534" lon="-2.49132">
        <ele>8</ele>
        <time>2021-08-12T08:27:12.000Z</time>
      </trkpt>
      <trkpt lat="47.33537" lon="-2.49129">
        <ele>8</ele>
        <time>2021-08-12T08:27:14.000Z</time>
      </trkpt>
      <trkpt lat="47.33544" lon="-2.49119">
        <ele>8</ele>
        <time>2021-08-12T08:27:18.000Z</time>
      </trkpt>
      <trkpt lat="47.33559" lon="-2.49093">
        <ele>8</ele>
        <time>2021-08-12T08:27:24.000Z</time>
      </trkpt>
      <trkpt lat="47.33561" lon="-2.49088">
        <ele>8</ele>
        <time>2021-08-12T08:27:25.000Z</time>
      </trkpt>
      <trkpt lat="47.33571" lon="-2.49067">
        <ele>8</ele>
        <time>2021-08-12T08:27:29.000Z</time>
      </trkpt>
      <trkpt lat="47.33581" lon="-2.49055">
        <ele>8</ele>
        <time>2021-08-12T08:27:32.000Z</time>
      </trkpt>
      <trkpt lat="47.3359" lon="-2.49045">
        <ele>8</ele>
        <time>2021-08-12T08:27:35.000Z</time>
      </trkpt>
      <trkpt lat="47.33597" lon="-2.49038">
        <ele>8</ele>
        <time>2021-08-12T08:27:37.000Z</time>
      </trkpt>
      <trkpt lat="47.33608" lon="-2.49028">
        <ele>8</ele>
        <time>2021-08-12T08:27:40.000Z</time>
      </trkpt>
      <trkpt lat="47.3362" lon="-2.49003">
        <ele>8.3999996185303</ele>
        <time>2021-08-12T08:27:45.000Z</time>
      </trkpt>
      <trkpt lat="47.33621" lon="-2.48997">
        <ele>8.8000001907349</ele>
        <time>2021-08-12T08:27:46.000Z</time>
      </trkpt>
      <trkpt lat="47.33622" lon="-2.4899">
        <ele>9.1999998092651</ele>
        <time>2021-08-12T08:27:47.000Z</time>
      </trkpt>
      <trkpt lat="47.33624" lon="-2.48982">
        <ele>9.6000003814697</ele>
        <time>2021-08-12T08:27:48.000Z</time>
      </trkpt>
      <trkpt lat="47.33625" lon="-2.48975">
        <ele>10</ele>
        <time>2021-08-12T08:27:49.000Z</time>
      </trkpt>
      <trkpt lat="47.33627" lon="-2.48968">
        <ele>10</ele>
        <time>2021-08-12T08:27:50.000Z</time>
      </trkpt>
      <trkpt lat="47.33634" lon="-2.48943">
        <ele>10</ele>
        <time>2021-08-12T08:27:54.000Z</time>
      </trkpt>
      <trkpt lat="47.33635" lon="-2.4893">
        <ele>10</ele>
        <time>2021-08-12T08:27:56.000Z</time>
      </trkpt>
      <trkpt lat="47.33628" lon="-2.48912">
        <ele>10</ele>
        <time>2021-08-12T08:27:59.000Z</time>
      </trkpt>
      <trkpt lat="47.33611" lon="-2.48896">
        <ele>10</ele>
        <time>2021-08-12T08:28:03.000Z</time>
      </trkpt>
      <trkpt lat="47.33601" lon="-2.48891">
        <ele>10</ele>
        <time>2021-08-12T08:28:05.000Z</time>
      </trkpt>
      <trkpt lat="47.33587" lon="-2.4888">
        <ele>10</ele>
        <time>2021-08-12T08:28:08.000Z</time>
      </trkpt>
      <trkpt lat="47.33583" lon="-2.48875">
        <ele>10</ele>
        <time>2021-08-12T08:28:09.000Z</time>
      </trkpt>
      <trkpt lat="47.33574" lon="-2.48867">
        <ele>10</ele>
        <time>2021-08-12T08:28:11.000Z</time>
      </trkpt>
      <trkpt lat="47.33563" lon="-2.48856">
        <ele>10</ele>
        <time>2021-08-12T08:28:14.000Z</time>
      </trkpt>
      <trkpt lat="47.3356" lon="-2.48851">
        <ele>10</ele>
        <time>2021-08-12T08:28:15.000Z</time>
      </trkpt>
      <trkpt lat="47.3355" lon="-2.48836">
        <ele>10</ele>
        <time>2021-08-12T08:28:18.000Z</time>
      </trkpt>
      <trkpt lat="47.33543" lon="-2.4882">
        <ele>10</ele>
        <time>2021-08-12T08:28:21.000Z</time>
      </trkpt>
      <trkpt lat="47.33524" lon="-2.48779">
        <ele>10</ele>
        <time>2021-08-12T08:28:28.000Z</time>
      </trkpt>
      <trkpt lat="47.33519" lon="-2.48766">
        <ele>10</ele>
        <time>2021-08-12T08:28:30.000Z</time>
      </trkpt>
      <trkpt lat="47.3351" lon="-2.48751">
        <ele>10</ele>
        <time>2021-08-12T08:28:33.000Z</time>
      </trkpt>
      <trkpt lat="47.33499" lon="-2.48726">
        <ele>10</ele>
        <time>2021-08-12T08:28:37.000Z</time>
      </trkpt>
      <trkpt lat="47.33488" lon="-2.48696">
        <ele>10</ele>
        <time>2021-08-12T08:28:43.000Z</time>
      </trkpt>
      <trkpt lat="47.33482" lon="-2.48693">
        <ele>10</ele>
        <time>2021-08-12T08:28:45.000Z</time>
      </trkpt>
      <trkpt lat="47.33478" lon="-2.48694">
        <ele>10</ele>
        <time>2021-08-12T08:28:46.000Z</time>
      </trkpt>
      <trkpt lat="47.33468" lon="-2.48708">
        <ele>10</ele>
        <time>2021-08-12T08:28:49.000Z</time>
      </trkpt>
      <trkpt lat="47.33444" lon="-2.48739">
        <ele>10</ele>
        <time>2021-08-12T08:28:55.000Z</time>
      </trkpt>
      <trkpt lat="47.3343" lon="-2.48757">
        <ele>10</ele>
        <time>2021-08-12T08:28:59.000Z</time>
      </trkpt>
      <trkpt lat="47.33422" lon="-2.48767">
        <ele>10</ele>
        <time>2021-08-12T08:29:01.000Z</time>
      </trkpt>
      <trkpt lat="47.33385" lon="-2.48814">
        <ele>10</ele>
        <time>2021-08-12T08:29:10.000Z</time>
      </trkpt>
      <trkpt lat="47.33376" lon="-2.48823">
        <ele>10</ele>
        <time>2021-08-12T08:29:12.000Z</time>
      </trkpt>
      <trkpt lat="47.33361" lon="-2.48832">
        <ele>10</ele>
        <time>2021-08-12T08:29:15.000Z</time>
      </trkpt>
      <trkpt lat="47.33338" lon="-2.48833">
        <ele>10</ele>
        <time>2021-08-12T08:29:19.000Z</time>
      </trkpt>
      <trkpt lat="47.33332" lon="-2.48832">
        <ele>10</ele>
        <time>2021-08-12T08:29:20.000Z</time>
      </trkpt>
      <trkpt lat="47.33304" lon="-2.48832">
        <ele>10</ele>
        <time>2021-08-12T08:29:25.000Z</time>
      </trkpt>
      <trkpt lat="47.33293" lon="-2.48837">
        <ele>10</ele>
        <time>2021-08-12T08:29:27.000Z</time>
      </trkpt>
      <trkpt lat="47.33276" lon="-2.48852">
        <ele>10</ele>
        <time>2021-08-12T08:29:31.000Z</time>
      </trkpt>
      <trkpt lat="47.33272" lon="-2.48856">
        <ele>10</ele>
        <time>2021-08-12T08:29:32.000Z</time>
      </trkpt>
      <trkpt lat="47.33252" lon="-2.48884">
        <ele>10</ele>
        <time>2021-08-12T08:29:38.000Z</time>
      </trkpt>
      <trkpt lat="47.33252" lon="-2.48892">
        <ele>10</ele>
        <time>2021-08-12T08:29:39.000Z</time>
      </trkpt>
      <trkpt lat="47.33256" lon="-2.48917">
        <ele>10</ele>
        <time>2021-08-12T08:29:42.000Z</time>
      </trkpt>
      <trkpt lat="47.33272" lon="-2.48989">
        <ele>10</ele>
        <time>2021-08-12T08:29:51.000Z</time>
      </trkpt>
      <trkpt lat="47.33292" lon="-2.49054">
        <ele>10</ele>
        <time>2021-08-12T08:29:59.000Z</time>
      </trkpt>
      <trkpt lat="47.33315" lon="-2.49094">
        <ele>10</ele>
        <time>2021-08-12T08:30:05.000Z</time>
      </trkpt>
      <trkpt lat="47.33353" lon="-2.49151">
        <ele>10</ele>
        <time>2021-08-12T08:30:14.000Z</time>
      </trkpt>
      <trkpt lat="47.33376" lon="-2.49202">
        <ele>10</ele>
        <time>2021-08-12T08:30:21.000Z</time>
      </trkpt>
      <trkpt lat="47.33383" lon="-2.49235">
        <ele>10</ele>
        <time>2021-08-12T08:30:25.000Z</time>
      </trkpt>
      <trkpt lat="47.33384" lon="-2.49244">
        <ele>10</ele>
        <time>2021-08-12T08:30:26.000Z</time>
      </trkpt>
      <trkpt lat="47.3339" lon="-2.49281">
        <ele>10</ele>
        <time>2021-08-12T08:30:30.000Z</time>
      </trkpt>
      <trkpt lat="47.33396" lon="-2.49298">
        <ele>10</ele>
        <time>2021-08-12T08:30:32.000Z</time>
      </trkpt>
      <trkpt lat="47.33414" lon="-2.49343">
        <ele>10</ele>
        <time>2021-08-12T08:30:38.000Z</time>
      </trkpt>
      <trkpt lat="47.3342" lon="-2.49372">
        <ele>10</ele>
        <time>2021-08-12T08:30:41.000Z</time>
      </trkpt>
      <trkpt lat="47.33422" lon="-2.49393">
        <ele>10</ele>
        <time>2021-08-12T08:30:43.000Z</time>
      </trkpt>
      <trkpt lat="47.33434" lon="-2.49477">
        <ele>10</ele>
        <time>2021-08-12T08:30:51.000Z</time>
      </trkpt>
      <trkpt lat="47.3344" lon="-2.49535">
        <ele>10</ele>
        <time>2021-08-12T08:30:57.000Z</time>
      </trkpt>
      <trkpt lat="47.33451" lon="-2.49621">
        <ele>10</ele>
        <time>2021-08-12T08:31:05.000Z</time>
      </trkpt>
      <trkpt lat="47.33464" lon="-2.4967">
        <ele>10</ele>
        <time>2021-08-12T08:31:10.000Z</time>
      </trkpt>
      <trkpt lat="47.33493" lon="-2.49742">
        <ele>10</ele>
        <time>2021-08-12T08:31:18.000Z</time>
      </trkpt>
      <trkpt lat="47.33498" lon="-2.49752">
        <ele>10</ele>
        <time>2021-08-12T08:31:19.000Z</time>
      </trkpt>
      <trkpt lat="47.33528" lon="-2.49826">
        <ele>10</ele>
        <time>2021-08-12T08:31:27.000Z</time>
      </trkpt>
      <trkpt lat="47.33553" lon="-2.49896">
        <ele>10</ele>
        <time>2021-08-12T08:31:34.000Z</time>
      </trkpt>
      <trkpt lat="47.33556" lon="-2.49907">
        <ele>10</ele>
        <time>2021-08-12T08:31:35.000Z</time>
      </trkpt>
      <trkpt lat="47.33583" lon="-2.49986">
        <ele>10</ele>
        <time>2021-08-12T08:31:43.000Z</time>
      </trkpt>
      <trkpt lat="47.33594" lon="-2.50016">
        <ele>10</ele>
        <time>2021-08-12T08:31:46.000Z</time>
      </trkpt>
      <trkpt lat="47.33613" lon="-2.50067">
        <ele>10</ele>
        <time>2021-08-12T08:31:52.000Z</time>
      </trkpt>
      <trkpt lat="47.33625" lon="-2.50097">
        <ele>10</ele>
        <time>2021-08-12T08:31:57.000Z</time>
      </trkpt>
      <trkpt lat="47.33618" lon="-2.50107">
        <ele>10</ele>
        <time>2021-08-12T08:32:00.000Z</time>
      </trkpt>
      <trkpt lat="47.33613" lon="-2.501">
        <ele>10</ele>
        <time>2021-08-12T08:32:03.000Z</time>
      </trkpt>
      <trkpt lat="47.33608" lon="-2.50095">
        <ele>10</ele>
        <time>2021-08-12T08:32:05.000Z</time>
      </trkpt>
      <trkpt lat="47.336" lon="-2.50088">
        <ele>10</ele>
        <time>2021-08-12T08:32:07.000Z</time>
      </trkpt>
      <trkpt lat="47.33572" lon="-2.50068">
        <ele>10</ele>
        <time>2021-08-12T08:32:13.000Z</time>
      </trkpt>
      <trkpt lat="47.33541" lon="-2.50036">
        <ele>10</ele>
        <time>2021-08-12T08:32:20.000Z</time>
      </trkpt>
      <trkpt lat="47.33536" lon="-2.5003">
        <ele>10</ele>
        <time>2021-08-12T08:32:21.000Z</time>
      </trkpt>
      <trkpt lat="47.33528" lon="-2.50017">
        <ele>10</ele>
        <time>2021-08-12T08:32:23.000Z</time>
      </trkpt>
      <trkpt lat="47.33519" lon="-2.50004">
        <ele>10</ele>
        <time>2021-08-12T08:32:25.000Z</time>
      </trkpt>
      <trkpt lat="47.33514" lon="-2.49999">
        <ele>10</ele>
        <time>2021-08-12T08:32:26.000Z</time>
      </trkpt>
      <trkpt lat="47.33503" lon="-2.49993">
        <ele>10</ele>
        <time>2021-08-12T08:32:28.000Z</time>
      </trkpt>
      <trkpt lat="47.33479" lon="-2.49994">
        <ele>10</ele>
        <time>2021-08-12T08:32:32.000Z</time>
      </trkpt>
      <trkpt lat="47.33469" lon="-2.49996">
        <ele>10</ele>
        <time>2021-08-12T08:32:34.000Z</time>
      </trkpt>
      <trkpt lat="47.33459" lon="-2.49999">
        <ele>10</ele>
        <time>2021-08-12T08:32:36.000Z</time>
      </trkpt>
      <trkpt lat="47.33448" lon="-2.49997">
        <ele>10</ele>
        <time>2021-08-12T08:32:38.000Z</time>
      </trkpt>
      <trkpt lat="47.3343" lon="-2.4999">
        <ele>10</ele>
        <time>2021-08-12T08:32:42.000Z</time>
      </trkpt>
      <trkpt lat="47.33421" lon="-2.49982">
        <ele>10</ele>
        <time>2021-08-12T08:32:44.000Z</time>
      </trkpt>
      <trkpt lat="47.33412" lon="-2.49974">
        <ele>10</ele>
        <time>2021-08-12T08:32:46.000Z</time>
      </trkpt>
      <trkpt lat="47.33392" lon="-2.49963">
        <ele>10</ele>
        <time>2021-08-12T08:32:50.000Z</time>
      </trkpt>
      <trkpt lat="47.33362" lon="-2.4994">
        <ele>10</ele>
        <time>2021-08-12T08:32:56.000Z</time>
      </trkpt>
      <trkpt lat="47.33342" lon="-2.4992">
        <ele>10</ele>
        <time>2021-08-12T08:33:00.000Z</time>
      </trkpt>
      <trkpt lat="47.33332" lon="-2.4991">
        <ele>10</ele>
        <time>2021-08-12T08:33:02.000Z</time>
      </trkpt>
      <trkpt lat="47.33293" lon="-2.49871">
        <ele>10</ele>
        <time>2021-08-12T08:33:10.000Z</time>
      </trkpt>
      <trkpt lat="47.3326" lon="-2.49837">
        <ele>10</ele>
        <time>2021-08-12T08:33:17.000Z</time>
      </trkpt>
      <trkpt lat="47.33237" lon="-2.49811">
        <ele>10</ele>
        <time>2021-08-12T08:33:22.000Z</time>
      </trkpt>
      <trkpt lat="47.33204" lon="-2.49779">
        <ele>10</ele>
        <time>2021-08-12T08:33:29.000Z</time>
      </trkpt>
      <trkpt lat="47.33181" lon="-2.49753">
        <ele>10</ele>
        <time>2021-08-12T08:33:34.000Z</time>
      </trkpt>
      <trkpt lat="47.33151" lon="-2.49724">
        <ele>10</ele>
        <time>2021-08-12T08:33:40.000Z</time>
      </trkpt>
      <trkpt lat="47.33119" lon="-2.49702">
        <ele>10</ele>
        <time>2021-08-12T08:33:46.000Z</time>
      </trkpt>
      <trkpt lat="47.3308" lon="-2.49681">
        <ele>10</ele>
        <time>2021-08-12T08:33:53.000Z</time>
      </trkpt>
      <trkpt lat="47.33036" lon="-2.49663">
        <ele>10</ele>
        <time>2021-08-12T08:34:01.000Z</time>
      </trkpt>
      <trkpt lat="47.33025" lon="-2.49658">
        <ele>10</ele>
        <time>2021-08-12T08:34:03.000Z</time>
      </trkpt>
      <trkpt lat="47.33011" lon="-2.49648">
        <ele>10</ele>
        <time>2021-08-12T08:34:06.000Z</time>
      </trkpt>
      <trkpt lat="47.32986" lon="-2.49648">
        <ele>10</ele>
        <time>2021-08-12T08:34:11.000Z</time>
      </trkpt>
      <trkpt lat="47.32974" lon="-2.49641">
        <ele>10</ele>
        <time>2021-08-12T08:34:14.000Z</time>
      </trkpt>
      <trkpt lat="47.32966" lon="-2.49633">
        <ele>10</ele>
        <time>2021-08-12T08:34:16.000Z</time>
      </trkpt>
      <trkpt lat="47.32959" lon="-2.49624">
        <ele>10</ele>
        <time>2021-08-12T08:34:18.000Z</time>
      </trkpt>
      <trkpt lat="47.32953" lon="-2.49613">
        <ele>10</ele>
        <time>2021-08-12T08:34:20.000Z</time>
      </trkpt>
      <trkpt lat="47.32949" lon="-2.49609">
        <ele>10</ele>
        <time>2021-08-12T08:34:21.000Z</time>
      </trkpt>
      <trkpt lat="47.32936" lon="-2.49601">
        <ele>10</ele>
        <time>2021-08-12T08:34:24.000Z</time>
      </trkpt>
      <trkpt lat="47.32927" lon="-2.49601">
        <ele>10</ele>
        <time>2021-08-12T08:34:26.000Z</time>
      </trkpt>
      <trkpt lat="47.32918" lon="-2.49601">
        <ele>10</ele>
        <time>2021-08-12T08:34:28.000Z</time>
      </trkpt>
      <trkpt lat="47.32909" lon="-2.496">
        <ele>10</ele>
        <time>2021-08-12T08:34:30.000Z</time>
      </trkpt>
      <trkpt lat="47.32896" lon="-2.49596">
        <ele>10</ele>
        <time>2021-08-12T08:34:33.000Z</time>
      </trkpt>
      <trkpt lat="47.32891" lon="-2.49595">
        <ele>10</ele>
        <time>2021-08-12T08:34:34.000Z</time>
      </trkpt>
      <trkpt lat="47.32876" lon="-2.49591">
        <ele>10</ele>
        <time>2021-08-12T08:34:37.000Z</time>
      </trkpt>
      <trkpt lat="47.32871" lon="-2.49587">
        <ele>10</ele>
        <time>2021-08-12T08:34:38.000Z</time>
      </trkpt>
      <trkpt lat="47.32856" lon="-2.49569">
        <ele>10</ele>
        <time>2021-08-12T08:34:42.000Z</time>
      </trkpt>
      <trkpt lat="47.32853" lon="-2.49564">
        <ele>10</ele>
        <time>2021-08-12T08:34:43.000Z</time>
      </trkpt>
      <trkpt lat="47.32836" lon="-2.49538">
        <ele>10</ele>
        <time>2021-08-12T08:34:48.000Z</time>
      </trkpt>
      <trkpt lat="47.3282" lon="-2.4951">
        <ele>10</ele>
        <time>2021-08-12T08:34:53.000Z</time>
      </trkpt>
      <trkpt lat="47.32818" lon="-2.49505">
        <ele>10</ele>
        <time>2021-08-12T08:34:54.000Z</time>
      </trkpt>
      <trkpt lat="47.32816" lon="-2.495">
        <ele>10</ele>
        <time>2021-08-12T08:34:57.000Z</time>
      </trkpt>
      <trkpt lat="47.3281" lon="-2.49482">
        <ele>10</ele>
        <time>2021-08-12T08:35:03.000Z</time>
      </trkpt>
      <trkpt lat="47.32802" lon="-2.49463">
        <ele>10</ele>
        <time>2021-08-12T08:35:09.000Z</time>
      </trkpt>
      <trkpt lat="47.32785" lon="-2.4945">
        <ele>10</ele>
        <time>2021-08-12T08:35:15.000Z</time>
      </trkpt>
      <trkpt lat="47.32763" lon="-2.49438">
        <ele>10</ele>
        <time>2021-08-12T08:35:20.000Z</time>
      </trkpt>
      <trkpt lat="47.32735" lon="-2.49423">
        <ele>10</ele>
        <time>2021-08-12T08:35:26.000Z</time>
      </trkpt>
      <trkpt lat="47.32725" lon="-2.49417">
        <ele>10</ele>
        <time>2021-08-12T08:35:28.000Z</time>
      </trkpt>
      <trkpt lat="47.32713" lon="-2.49407">
        <ele>10</ele>
        <time>2021-08-12T08:35:31.000Z</time>
      </trkpt>
      <trkpt lat="47.32703" lon="-2.49402">
        <ele>10</ele>
        <time>2021-08-12T08:35:33.000Z</time>
      </trkpt>
      <trkpt lat="47.32692" lon="-2.49394">
        <ele>10</ele>
        <time>2021-08-12T08:35:35.000Z</time>
      </trkpt>
      <trkpt lat="47.32688" lon="-2.4939">
        <ele>10</ele>
        <time>2021-08-12T08:35:36.000Z</time>
      </trkpt>
      <trkpt lat="47.32676" lon="-2.49375">
        <ele>10</ele>
        <time>2021-08-12T08:35:39.000Z</time>
      </trkpt>
      <trkpt lat="47.32669" lon="-2.49363">
        <ele>10</ele>
        <time>2021-08-12T08:35:41.000Z</time>
      </trkpt>
      <trkpt lat="47.32664" lon="-2.4935">
        <ele>10</ele>
        <time>2021-08-12T08:35:43.000Z</time>
      </trkpt>
      <trkpt lat="47.32661" lon="-2.49336">
        <ele>10</ele>
        <time>2021-08-12T08:35:45.000Z</time>
      </trkpt>
      <trkpt lat="47.32661" lon="-2.49329">
        <ele>10</ele>
        <time>2021-08-12T08:35:46.000Z</time>
      </trkpt>
      <trkpt lat="47.32657" lon="-2.49307">
        <ele>10</ele>
        <time>2021-08-12T08:35:49.000Z</time>
      </trkpt>
      <trkpt lat="47.32654" lon="-2.49302">
        <ele>10</ele>
        <time>2021-08-12T08:35:50.000Z</time>
      </trkpt>
      <trkpt lat="47.32644" lon="-2.49288">
        <ele>10</ele>
        <time>2021-08-12T08:35:53.000Z</time>
      </trkpt>
      <trkpt lat="47.32641" lon="-2.49282">
        <ele>10</ele>
        <time>2021-08-12T08:35:54.000Z</time>
      </trkpt>
      <trkpt lat="47.32638" lon="-2.49276">
        <ele>10</ele>
        <time>2021-08-12T08:35:55.000Z</time>
      </trkpt>
      <trkpt lat="47.32622" lon="-2.49242">
        <ele>10</ele>
        <time>2021-08-12T08:36:01.000Z</time>
      </trkpt>
      <trkpt lat="47.32612" lon="-2.49228">
        <ele>10</ele>
        <time>2021-08-12T08:36:05.000Z</time>
      </trkpt>
      <trkpt lat="47.32608" lon="-2.4923">
        <ele>10</ele>
        <time>2021-08-12T08:36:06.000Z</time>
      </trkpt>
      <trkpt lat="47.32598" lon="-2.49239">
        <ele>10</ele>
        <time>2021-08-12T08:36:09.000Z</time>
      </trkpt>
      <trkpt lat="47.32592" lon="-2.49246">
        <ele>10</ele>
        <time>2021-08-12T08:36:11.000Z</time>
      </trkpt>
      <trkpt lat="47.32581" lon="-2.49263">
        <ele>10</ele>
        <time>2021-08-12T08:36:15.000Z</time>
      </trkpt>
      <trkpt lat="47.32575" lon="-2.4927">
        <ele>10</ele>
        <time>2021-08-12T08:36:17.000Z</time>
      </trkpt>
      <trkpt lat="47.32551" lon="-2.49288">
        <ele>10</ele>
        <time>2021-08-12T08:36:24.000Z</time>
      </trkpt>
      <trkpt lat="47.32535" lon="-2.49305">
        <ele>10</ele>
        <time>2021-08-12T08:36:29.000Z</time>
      </trkpt>
      <trkpt lat="47.32528" lon="-2.49311">
        <ele>10</ele>
        <time>2021-08-12T08:36:31.000Z</time>
      </trkpt>
      <trkpt lat="47.32524" lon="-2.49312">
        <ele>10</ele>
        <time>2021-08-12T08:36:32.000Z</time>
      </trkpt>
      <trkpt lat="47.32513" lon="-2.49308">
        <ele>10</ele>
        <time>2021-08-12T08:36:35.000Z</time>
      </trkpt>
      <trkpt lat="47.3251" lon="-2.49306">
        <ele>10</ele>
        <time>2021-08-12T08:36:36.000Z</time>
      </trkpt>
      <trkpt lat="47.32491" lon="-2.49293">
        <ele>10</ele>
        <time>2021-08-12T08:36:40.000Z</time>
      </trkpt>
      <trkpt lat="47.32437" lon="-2.4926">
        <ele>10</ele>
        <time>2021-08-12T08:36:50.000Z</time>
      </trkpt>
      <trkpt lat="47.32395" lon="-2.49236">
        <ele>10</ele>
        <time>2021-08-12T08:36:57.000Z</time>
      </trkpt>
      <trkpt lat="47.32338" lon="-2.49206">
        <ele>10</ele>
        <time>2021-08-12T08:37:06.000Z</time>
      </trkpt>
      <trkpt lat="47.32295" lon="-2.49186">
        <ele>10</ele>
        <time>2021-08-12T08:37:13.000Z</time>
      </trkpt>
      <trkpt lat="47.32274" lon="-2.4918">
        <ele>10</ele>
        <time>2021-08-12T08:37:17.000Z</time>
      </trkpt>
      <trkpt lat="47.3227" lon="-2.49182">
        <ele>10</ele>
        <time>2021-08-12T08:37:18.000Z</time>
      </trkpt>
      <trkpt lat="47.32259" lon="-2.49181">
        <ele>10</ele>
        <time>2021-08-12T08:37:20.000Z</time>
      </trkpt>
      <trkpt lat="47.32248" lon="-2.49177">
        <ele>10</ele>
        <time>2021-08-12T08:37:22.000Z</time>
      </trkpt>
      <trkpt lat="47.32208" lon="-2.49163">
        <ele>10</ele>
        <time>2021-08-12T08:37:28.000Z</time>
      </trkpt>
      <trkpt lat="47.32162" lon="-2.49151">
        <ele>10</ele>
        <time>2021-08-12T08:37:36.000Z</time>
      </trkpt>
      <trkpt lat="47.32156" lon="-2.49143">
        <ele>10</ele>
        <time>2021-08-12T08:37:39.000Z</time>
      </trkpt>
      <trkpt lat="47.3216" lon="-2.49129">
        <ele>10</ele>
        <time>2021-08-12T08:37:42.000Z</time>
      </trkpt>
      <trkpt lat="47.32166" lon="-2.49105">
        <ele>10</ele>
        <time>2021-08-12T08:37:48.000Z</time>
      </trkpt>
      <trkpt lat="47.32166" lon="-2.49099">
        <ele>10</ele>
        <time>2021-08-12T08:37:49.000Z</time>
      </trkpt>
      <trkpt lat="47.32165" lon="-2.49087">
        <ele>10</ele>
        <time>2021-08-12T08:37:51.000Z</time>
      </trkpt>
      <trkpt lat="47.32167" lon="-2.49057">
        <ele>10</ele>
        <time>2021-08-12T08:37:56.000Z</time>
      </trkpt>
      <trkpt lat="47.32165" lon="-2.49053">
        <ele>10</ele>
        <time>2021-08-12T08:37:57.000Z</time>
      </trkpt>
      <trkpt lat="47.32158" lon="-2.49049">
        <ele>10</ele>
        <time>2021-08-12T08:37:59.000Z</time>
      </trkpt>
      <trkpt lat="47.32143" lon="-2.49046">
        <ele>10</ele>
        <time>2021-08-12T08:38:04.000Z</time>
      </trkpt>
      <trkpt lat="47.32138" lon="-2.49039">
        <ele>10</ele>
        <time>2021-08-12T08:38:08.000Z</time>
      </trkpt>
      <trkpt lat="47.32138" lon="-2.49031">
        <ele>10</ele>
        <time>2021-08-12T08:38:10.000Z</time>
      </trkpt>
      <trkpt lat="47.32139" lon="-2.49019">
        <ele>10</ele>
        <time>2021-08-12T08:38:12.000Z</time>
      </trkpt>
      <trkpt lat="47.3214" lon="-2.49">
        <ele>10</ele>
        <time>2021-08-12T08:38:15.000Z</time>
      </trkpt>
      <trkpt lat="47.32139" lon="-2.48993">
        <ele>10</ele>
        <time>2021-08-12T08:38:16.000Z</time>
      </trkpt>
      <trkpt lat="47.32136" lon="-2.48969">
        <ele>10</ele>
        <time>2021-08-12T08:38:19.000Z</time>
      </trkpt>
      <trkpt lat="47.32135" lon="-2.48961">
        <ele>10</ele>
        <time>2021-08-12T08:38:20.000Z</time>
      </trkpt>
      <trkpt lat="47.32137" lon="-2.48936">
        <ele>10</ele>
        <time>2021-08-12T08:38:23.000Z</time>
      </trkpt>
      <trkpt lat="47.32141" lon="-2.4892">
        <ele>10</ele>
        <time>2021-08-12T08:38:25.000Z</time>
      </trkpt>
      <trkpt lat="47.32143" lon="-2.48913">
        <ele>10</ele>
        <time>2021-08-12T08:38:26.000Z</time>
      </trkpt>
      <trkpt lat="47.32153" lon="-2.48892">
        <ele>10</ele>
        <time>2021-08-12T08:38:29.000Z</time>
      </trkpt>
      <trkpt lat="47.32185" lon="-2.48832">
        <ele>10</ele>
        <time>2021-08-12T08:38:38.000Z</time>
      </trkpt>
      <trkpt lat="47.32211" lon="-2.48792">
        <ele>10</ele>
        <time>2021-08-12T08:38:44.000Z</time>
      </trkpt>
      <trkpt lat="47.32214" lon="-2.48784">
        <ele>10</ele>
        <time>2021-08-12T08:38:45.000Z</time>
      </trkpt>
      <trkpt lat="47.32231" lon="-2.48743">
        <ele>10</ele>
        <time>2021-08-12T08:38:50.000Z</time>
      </trkpt>
      <trkpt lat="47.32233" lon="-2.48734">
        <ele>10</ele>
        <time>2021-08-12T08:38:51.000Z</time>
      </trkpt>
      <trkpt lat="47.32245" lon="-2.48683">
        <ele>10</ele>
        <time>2021-08-12T08:38:57.000Z</time>
      </trkpt>
      <trkpt lat="47.32249" lon="-2.48675">
        <ele>10</ele>
        <time>2021-08-12T08:38:58.000Z</time>
      </trkpt>
      <trkpt lat="47.32258" lon="-2.48662">
        <ele>10</ele>
        <time>2021-08-12T08:39:00.000Z</time>
      </trkpt>
      <trkpt lat="47.32279" lon="-2.48641">
        <ele>10</ele>
        <time>2021-08-12T08:39:04.000Z</time>
      </trkpt>
      <trkpt lat="47.32285" lon="-2.48637">
        <ele>10</ele>
        <time>2021-08-12T08:39:05.000Z</time>
      </trkpt>
      <trkpt lat="47.32323" lon="-2.48609">
        <ele>10</ele>
        <time>2021-08-12T08:39:12.000Z</time>
      </trkpt>
      <trkpt lat="47.32368" lon="-2.48578">
        <ele>10</ele>
        <time>2021-08-12T08:39:20.000Z</time>
      </trkpt>
      <trkpt lat="47.32392" lon="-2.48568">
        <ele>10</ele>
        <time>2021-08-12T08:39:24.000Z</time>
      </trkpt>
      <trkpt lat="47.32398" lon="-2.48567">
        <ele>10</ele>
        <time>2021-08-12T08:39:25.000Z</time>
      </trkpt>
      <trkpt lat="47.32435" lon="-2.48571">
        <ele>10</ele>
        <time>2021-08-12T08:39:31.000Z</time>
      </trkpt>
      <trkpt lat="47.32471" lon="-2.48586">
        <ele>10</ele>
        <time>2021-08-12T08:39:37.000Z</time>
      </trkpt>
      <trkpt lat="47.32477" lon="-2.4859">
        <ele>10</ele>
        <time>2021-08-12T08:39:38.000Z</time>
      </trkpt>
      <trkpt lat="47.32511" lon="-2.48623">
        <ele>10</ele>
        <time>2021-08-12T08:39:44.000Z</time>
      </trkpt>
      <trkpt lat="47.32552" lon="-2.48661">
        <ele>10</ele>
        <time>2021-08-12T08:39:51.000Z</time>
      </trkpt>
      <trkpt lat="47.32579" lon="-2.48674">
        <ele>10</ele>
        <time>2021-08-12T08:39:55.000Z</time>
      </trkpt>
      <trkpt lat="47.32585" lon="-2.48675">
        <ele>10</ele>
        <time>2021-08-12T08:39:56.000Z</time>
      </trkpt>
      <trkpt lat="47.3262" lon="-2.4867">
        <ele>10</ele>
        <time>2021-08-12T08:40:01.000Z</time>
      </trkpt>
      <trkpt lat="47.32666" lon="-2.4865">
        <ele>10</ele>
        <time>2021-08-12T08:40:08.000Z</time>
      </trkpt>
      <trkpt lat="47.32705" lon="-2.48628">
        <ele>10</ele>
        <time>2021-08-12T08:40:14.000Z</time>
      </trkpt>
      <trkpt lat="47.32759" lon="-2.48598">
        <ele>10</ele>
        <time>2021-08-12T08:40:22.000Z</time>
      </trkpt>
      <trkpt lat="47.32766" lon="-2.48595">
        <ele>10</ele>
        <time>2021-08-12T08:40:23.000Z</time>
      </trkpt>
      <trkpt lat="47.328" lon="-2.4859">
        <ele>10</ele>
        <time>2021-08-12T08:40:28.000Z</time>
      </trkpt>
      <trkpt lat="47.32857" lon="-2.48591">
        <ele>10</ele>
        <time>2021-08-12T08:40:36.000Z</time>
      </trkpt>
      <trkpt lat="47.32886" lon="-2.48588">
        <ele>10</ele>
        <time>2021-08-12T08:40:40.000Z</time>
      </trkpt>
      <trkpt lat="47.32893" lon="-2.48585">
        <ele>10</ele>
        <time>2021-08-12T08:40:41.000Z</time>
      </trkpt>
      <trkpt lat="47.32911" lon="-2.4857">
        <ele>10</ele>
        <time>2021-08-12T08:40:44.000Z</time>
      </trkpt>
      <trkpt lat="47.32917" lon="-2.48563">
        <ele>10</ele>
        <time>2021-08-12T08:40:45.000Z</time>
      </trkpt>
      <trkpt lat="47.32949" lon="-2.48523">
        <ele>10</ele>
        <time>2021-08-12T08:40:51.000Z</time>
      </trkpt>
      <trkpt lat="47.32986" lon="-2.4849">
        <ele>10</ele>
        <time>2021-08-12T08:40:57.000Z</time>
      </trkpt>
      <trkpt lat="47.33025" lon="-2.48465">
        <ele>10</ele>
        <time>2021-08-12T08:41:03.000Z</time>
      </trkpt>
      <trkpt lat="47.33068" lon="-2.48437">
        <ele>10</ele>
        <time>2021-08-12T08:41:10.000Z</time>
      </trkpt>
      <trkpt lat="47.33103" lon="-2.48415">
        <ele>10</ele>
        <time>2021-08-12T08:41:16.000Z</time>
      </trkpt>
      <trkpt lat="47.33117" lon="-2.48405">
        <ele>10</ele>
        <time>2021-08-12T08:41:19.000Z</time>
      </trkpt>
      <trkpt lat="47.33121" lon="-2.48397">
        <ele>10</ele>
        <time>2021-08-12T08:41:21.000Z</time>
      </trkpt>
      <trkpt lat="47.33121" lon="-2.48376">
        <ele>10</ele>
        <time>2021-08-12T08:41:26.000Z</time>
      </trkpt>
      <trkpt lat="47.33114" lon="-2.48361">
        <ele>10</ele>
        <time>2021-08-12T08:41:31.000Z</time>
      </trkpt>
      <trkpt lat="47.3311" lon="-2.48351">
        <ele>10</ele>
        <time>2021-08-12T08:41:36.000Z</time>
      </trkpt>
      <trkpt lat="47.33107" lon="-2.48334">
        <ele>10</ele>
        <time>2021-08-12T08:41:41.000Z</time>
      </trkpt>
      <trkpt lat="47.33102" lon="-2.48326">
        <ele>10</ele>
        <time>2021-08-12T08:41:47.000Z</time>
      </trkpt>
      <trkpt lat="47.33109" lon="-2.48325">
        <ele>10</ele>
        <time>2021-08-12T08:53:52.000Z</time>
      </trkpt>
      <trkpt lat="47.33121" lon="-2.48334">
        <ele>10</ele>
        <time>2021-08-12T08:54:00.000Z</time>
      </trkpt>
      <trkpt lat="47.3313" lon="-2.48347">
        <ele>10</ele>
        <time>2021-08-12T08:54:06.000Z</time>
      </trkpt>
      <trkpt lat="47.33135" lon="-2.48351">
        <ele>10</ele>
        <time>2021-08-12T08:54:08.000Z</time>
      </trkpt>
      <trkpt lat="47.3314" lon="-2.48349">
        <ele>10</ele>
        <time>2021-08-12T08:54:10.000Z</time>
      </trkpt>
      <trkpt lat="47.33143" lon="-2.48337">
        <ele>10</ele>
        <time>2021-08-12T08:54:13.000Z</time>
      </trkpt>
      <trkpt lat="47.33143" lon="-2.48331">
        <ele>10</ele>
        <time>2021-08-12T08:54:14.000Z</time>
      </trkpt>
      <trkpt lat="47.33144" lon="-2.48301">
        <ele>10</ele>
        <time>2021-08-12T08:54:18.000Z</time>
      </trkpt>
      <trkpt lat="47.33142" lon="-2.4823">
        <ele>10</ele>
        <time>2021-08-12T08:54:27.000Z</time>
      </trkpt>
      <trkpt lat="47.3314" lon="-2.48185">
        <ele>10</ele>
        <time>2021-08-12T08:54:33.000Z</time>
      </trkpt>
      <trkpt lat="47.33142" lon="-2.48125">
        <ele>10</ele>
        <time>2021-08-12T08:54:40.000Z</time>
      </trkpt>
      <trkpt lat="47.33144" lon="-2.4806">
        <ele>10</ele>
        <time>2021-08-12T08:54:47.000Z</time>
      </trkpt>
      <trkpt lat="47.33148" lon="-2.47988">
        <ele>10</ele>
        <time>2021-08-12T08:54:55.000Z</time>
      </trkpt>
      <trkpt lat="47.33151" lon="-2.47956">
        <ele>10</ele>
        <time>2021-08-12T08:54:59.000Z</time>
      </trkpt>
      <trkpt lat="47.33153" lon="-2.47942">
        <ele>10</ele>
        <time>2021-08-12T08:55:01.000Z</time>
      </trkpt>
      <trkpt lat="47.33156" lon="-2.4792">
        <ele>10</ele>
        <time>2021-08-12T08:55:05.000Z</time>
      </trkpt>
      <trkpt lat="47.33161" lon="-2.47909">
        <ele>10</ele>
        <time>2021-08-12T08:55:07.000Z</time>
      </trkpt>
      <trkpt lat="47.3317" lon="-2.47892">
        <ele>10</ele>
        <time>2021-08-12T08:55:10.000Z</time>
      </trkpt>
      <trkpt lat="47.33193" lon="-2.47857">
        <ele>10</ele>
        <time>2021-08-12T08:55:18.000Z</time>
      </trkpt>
      <trkpt lat="47.33212" lon="-2.47834">
        <ele>10</ele>
        <time>2021-08-12T08:55:24.000Z</time>
      </trkpt>
      <trkpt lat="47.3324" lon="-2.47803">
        <ele>10</ele>
        <time>2021-08-12T08:55:32.000Z</time>
      </trkpt>
      <trkpt lat="47.33268" lon="-2.47772">
        <ele>10</ele>
        <time>2021-08-12T08:55:40.000Z</time>
      </trkpt>
      <trkpt lat="47.33274" lon="-2.47765">
        <ele>10</ele>
        <time>2021-08-12T08:55:42.000Z</time>
      </trkpt>
      <trkpt lat="47.33289" lon="-2.47755">
        <ele>10</ele>
        <time>2021-08-12T08:55:46.000Z</time>
      </trkpt>
      <trkpt lat="47.3331" lon="-2.4774">
        <ele>10.39999961853</ele>
        <time>2021-08-12T08:55:52.000Z</time>
      </trkpt>
      <trkpt lat="47.33313" lon="-2.47737">
        <ele>11.199999809265</ele>
        <time>2021-08-12T08:55:53.000Z</time>
      </trkpt>
      <trkpt lat="47.33317" lon="-2.47735">
        <ele>11.800000190735</ele>
        <time>2021-08-12T08:55:54.000Z</time>
      </trkpt>
      <trkpt lat="47.33321" lon="-2.47732">
        <ele>12.199999809265</ele>
        <time>2021-08-12T08:55:55.000Z</time>
      </trkpt>
      <trkpt lat="47.33328" lon="-2.47726">
        <ele>12.199999809265</ele>
        <time>2021-08-12T08:55:57.000Z</time>
      </trkpt>
      <trkpt lat="47.33339" lon="-2.47718">
        <ele>12.199999809265</ele>
        <time>2021-08-12T08:56:00.000Z</time>
      </trkpt>
      <trkpt lat="47.33342" lon="-2.47715">
        <ele>12.199999809265</ele>
        <time>2021-08-12T08:56:01.000Z</time>
      </trkpt>
      <trkpt lat="47.33355" lon="-2.47702">
        <ele>12.199999809265</ele>
        <time>2021-08-12T08:56:06.000Z</time>
      </trkpt>
      <trkpt lat="47.33365" lon="-2.47693">
        <ele>12.199999809265</ele>
        <time>2021-08-12T08:56:11.000Z</time>
      </trkpt>
      <trkpt lat="47.33368" lon="-2.4769">
        <ele>12.60000038147</ele>
        <time>2021-08-12T08:56:13.000Z</time>
      </trkpt>
      <trkpt lat="47.3337" lon="-2.47688">
        <ele>13</ele>
        <time>2021-08-12T08:56:14.000Z</time>
      </trkpt>
      <trkpt lat="47.33373" lon="-2.47686">
        <ele>13.39999961853</ele>
        <time>2021-08-12T08:56:15.000Z</time>
      </trkpt>
      <trkpt lat="47.33375" lon="-2.47684">
        <ele>13.800000190735</ele>
        <time>2021-08-12T08:56:16.000Z</time>
      </trkpt>
      <trkpt lat="47.33377" lon="-2.47682">
        <ele>14.199999809265</ele>
        <time>2021-08-12T08:56:17.000Z</time>
      </trkpt>
      <trkpt lat="47.33389" lon="-2.47675">
        <ele>14.199999809265</ele>
        <time>2021-08-12T08:56:23.000Z</time>
      </trkpt>
      <trkpt lat="47.33393" lon="-2.47669">
        <ele>14.199999809265</ele>
        <time>2021-08-12T08:56:28.000Z</time>
      </trkpt>
      <trkpt lat="47.33394" lon="-2.47669">
        <ele>14.199999809265</ele>
        <time>2021-08-12T08:56:29.000Z</time>
      </trkpt>
      <trkpt lat="47.3341" lon="-2.47651">
        <ele>14.199999809265</ele>
        <time>2021-08-12T08:57:11.000Z</time>
      </trkpt>
      <trkpt lat="47.33415" lon="-2.47648">
        <ele>14.199999809265</ele>
        <time>2021-08-12T08:57:14.000Z</time>
      </trkpt>
      <trkpt lat="47.33416" lon="-2.47646">
        <ele>14.199999809265</ele>
        <time>2021-08-12T08:57:16.000Z</time>
      </trkpt>
      <trkpt lat="47.33427" lon="-2.47636">
        <ele>15.39999961853</ele>
        <time>2021-08-12T08:57:37.000Z</time>
      </trkpt>
      <trkpt lat="47.33429" lon="-2.47636">
        <ele>15.800000190735</ele>
        <time>2021-08-12T08:57:38.000Z</time>
      </trkpt>
      <trkpt lat="47.33431" lon="-2.47635">
        <ele>16.200000762939</ele>
        <time>2021-08-12T08:57:39.000Z</time>
      </trkpt>
      <trkpt lat="47.33438" lon="-2.47632">
        <ele>16.799999237061</ele>
        <time>2021-08-12T08:57:43.000Z</time>
      </trkpt>
      <trkpt lat="47.33439" lon="-2.47631">
        <ele>17.200000762939</ele>
        <time>2021-08-12T08:57:44.000Z</time>
      </trkpt>
      <trkpt lat="47.3344" lon="-2.4763">
        <ele>17.60000038147</ele>
        <time>2021-08-12T08:57:45.000Z</time>
      </trkpt>
      <trkpt lat="47.33442" lon="-2.47631">
        <ele>18</ele>
        <time>2021-08-12T08:57:46.000Z</time>
      </trkpt>
      <trkpt lat="47.33443" lon="-2.47631">
        <ele>18.60000038147</ele>
        <time>2021-08-12T08:57:47.000Z</time>
      </trkpt>
      <trkpt lat="47.33443" lon="-2.4763">
        <ele>19</ele>
        <time>2021-08-12T08:57:48.000Z</time>
      </trkpt>
      <trkpt lat="47.33444" lon="-2.4763">
        <ele>19.39999961853</ele>
        <time>2021-08-12T08:57:49.000Z</time>
      </trkpt>
      <trkpt lat="47.33447" lon="-2.47626">
        <ele>20.60000038147</ele>
        <time>2021-08-12T08:58:02.000Z</time>
      </trkpt>
      <trkpt lat="47.33452" lon="-2.47623">
        <ele>20.60000038147</ele>
        <time>2021-08-12T08:58:05.000Z</time>
      </trkpt>
      <trkpt lat="47.33456" lon="-2.4762">
        <ele>20.60000038147</ele>
        <time>2021-08-12T08:58:08.000Z</time>
      </trkpt>
      <trkpt lat="47.3346" lon="-2.47618">
        <ele>21</ele>
        <time>2021-08-12T08:58:10.000Z</time>
      </trkpt>
      <trkpt lat="47.33461" lon="-2.47617">
        <ele>21.60000038147</ele>
        <time>2021-08-12T08:58:11.000Z</time>
      </trkpt>
      <trkpt lat="47.33463" lon="-2.47616">
        <ele>22</ele>
        <time>2021-08-12T08:58:12.000Z</time>
      </trkpt>
      <trkpt lat="47.33465" lon="-2.47615">
        <ele>22.39999961853</ele>
        <time>2021-08-12T08:58:13.000Z</time>
      </trkpt>
      <trkpt lat="47.33467" lon="-2.47614">
        <ele>22.799999237061</ele>
        <time>2021-08-12T08:58:14.000Z</time>
      </trkpt>
      <trkpt lat="47.33475" lon="-2.47609">
        <ele>22.799999237061</ele>
        <time>2021-08-12T08:58:19.000Z</time>
      </trkpt>
      <trkpt lat="47.3348" lon="-2.47607">
        <ele>22.799999237061</ele>
        <time>2021-08-12T08:58:22.000Z</time>
      </trkpt>
      <trkpt lat="47.33481" lon="-2.47604">
        <ele>22.799999237061</ele>
        <time>2021-08-12T08:58:24.000Z</time>
      </trkpt>
      <trkpt lat="47.33479" lon="-2.47598">
        <ele>23.200000762939</ele>
        <time>2021-08-12T08:58:27.000Z</time>
      </trkpt>
      <trkpt lat="47.33478" lon="-2.47596">
        <ele>23.60000038147</ele>
        <time>2021-08-12T08:58:28.000Z</time>
      </trkpt>
      <trkpt lat="47.33477" lon="-2.47594">
        <ele>24</ele>
        <time>2021-08-12T08:58:29.000Z</time>
      </trkpt>
      <trkpt lat="47.33476" lon="-2.47592">
        <ele>24.39999961853</ele>
        <time>2021-08-12T08:58:30.000Z</time>
      </trkpt>
      <trkpt lat="47.33475" lon="-2.4759">
        <ele>24.799999237061</ele>
        <time>2021-08-12T08:58:31.000Z</time>
      </trkpt>
      <trkpt lat="47.33468" lon="-2.47574">
        <ele>24.799999237061</ele>
        <time>2021-08-12T08:58:37.000Z</time>
      </trkpt>
      <trkpt lat="47.3346" lon="-2.47558">
        <ele>24.799999237061</ele>
        <time>2021-08-12T08:58:42.000Z</time>
      </trkpt>
      <trkpt lat="47.3345" lon="-2.47538">
        <ele>25.200000762939</ele>
        <time>2021-08-12T08:58:47.000Z</time>
      </trkpt>
      <trkpt lat="47.33448" lon="-2.47534">
        <ele>25.60000038147</ele>
        <time>2021-08-12T08:58:48.000Z</time>
      </trkpt>
      <trkpt lat="47.33446" lon="-2.47529">
        <ele>26</ele>
        <time>2021-08-12T08:58:49.000Z</time>
      </trkpt>
      <trkpt lat="47.33444" lon="-2.47524">
        <ele>26.39999961853</ele>
        <time>2021-08-12T08:58:50.000Z</time>
      </trkpt>
      <trkpt lat="47.33442" lon="-2.4752">
        <ele>26.799999237061</ele>
        <time>2021-08-12T08:58:51.000Z</time>
      </trkpt>
      <trkpt lat="47.33431" lon="-2.47494">
        <ele>26.799999237061</ele>
        <time>2021-08-12T08:58:57.000Z</time>
      </trkpt>
      <trkpt lat="47.33426" lon="-2.47478">
        <ele>26.799999237061</ele>
        <time>2021-08-12T08:59:00.000Z</time>
      </trkpt>
      <trkpt lat="47.33421" lon="-2.47461">
        <ele>26.799999237061</ele>
        <time>2021-08-12T08:59:03.000Z</time>
      </trkpt>
      <trkpt lat="47.33412" lon="-2.47422">
        <ele>26.799999237061</ele>
        <time>2021-08-12T08:59:09.000Z</time>
      </trkpt>
      <trkpt lat="47.33404" lon="-2.47392">
        <ele>26.799999237061</ele>
        <time>2021-08-12T08:59:13.000Z</time>
      </trkpt>
      <trkpt lat="47.33399" lon="-2.47372">
        <ele>26.799999237061</ele>
        <time>2021-08-12T08:59:16.000Z</time>
      </trkpt>
      <trkpt lat="47.33389" lon="-2.4733">
        <ele>26.799999237061</ele>
        <time>2021-08-12T08:59:22.000Z</time>
      </trkpt>
      <trkpt lat="47.33383" lon="-2.47278">
        <ele>26.799999237061</ele>
        <time>2021-08-12T08:59:28.000Z</time>
      </trkpt>
      <trkpt lat="47.33375" lon="-2.47217">
        <ele>26.799999237061</ele>
        <time>2021-08-12T08:59:36.000Z</time>
      </trkpt>
      <trkpt lat="47.3337" lon="-2.47176">
        <ele>26.799999237061</ele>
        <time>2021-08-12T08:59:41.000Z</time>
      </trkpt>
      <trkpt lat="47.33369" lon="-2.47163">
        <ele>26.799999237061</ele>
        <time>2021-08-12T08:59:43.000Z</time>
      </trkpt>
      <trkpt lat="47.33376" lon="-2.47148">
        <ele>26.799999237061</ele>
        <time>2021-08-12T08:59:46.000Z</time>
      </trkpt>
      <trkpt lat="47.33378" lon="-2.47143">
        <ele>26.799999237061</ele>
        <time>2021-08-12T08:59:47.000Z</time>
      </trkpt>
      <trkpt lat="47.33388" lon="-2.47121">
        <ele>26.799999237061</ele>
        <time>2021-08-12T08:59:51.000Z</time>
      </trkpt>
      <trkpt lat="47.33391" lon="-2.47107">
        <ele>26.799999237061</ele>
        <time>2021-08-12T08:59:53.000Z</time>
      </trkpt>
      <trkpt lat="47.33392" lon="-2.471">
        <ele>26.799999237061</ele>
        <time>2021-08-12T08:59:54.000Z</time>
      </trkpt>
      <trkpt lat="47.33398" lon="-2.47073">
        <ele>26.799999237061</ele>
        <time>2021-08-12T08:59:58.000Z</time>
      </trkpt>
      <trkpt lat="47.334" lon="-2.47067">
        <ele>26.799999237061</ele>
        <time>2021-08-12T08:59:59.000Z</time>
      </trkpt>
      <trkpt lat="47.33409" lon="-2.47043">
        <ele>26.799999237061</ele>
        <time>2021-08-12T09:00:03.000Z</time>
      </trkpt>
      <trkpt lat="47.33416" lon="-2.47026">
        <ele>26.799999237061</ele>
        <time>2021-08-12T09:00:06.000Z</time>
      </trkpt>
      <trkpt lat="47.33423" lon="-2.47015">
        <ele>26.799999237061</ele>
        <time>2021-08-12T09:00:08.000Z</time>
      </trkpt>
      <trkpt lat="47.33433" lon="-2.47001">
        <ele>26.799999237061</ele>
        <time>2021-08-12T09:00:11.000Z</time>
      </trkpt>
      <trkpt lat="47.33436" lon="-2.46996">
        <ele>26.799999237061</ele>
        <time>2021-08-12T09:00:12.000Z</time>
      </trkpt>
      <trkpt lat="47.33439" lon="-2.46991">
        <ele>27.200000762939</ele>
        <time>2021-08-12T09:00:13.000Z</time>
      </trkpt>
      <trkpt lat="47.33443" lon="-2.46986">
        <ele>27.60000038147</ele>
        <time>2021-08-12T09:00:14.000Z</time>
      </trkpt>
      <trkpt lat="47.33446" lon="-2.46981">
        <ele>28</ele>
        <time>2021-08-12T09:00:15.000Z</time>
      </trkpt>
      <trkpt lat="47.3345" lon="-2.46976">
        <ele>28.39999961853</ele>
        <time>2021-08-12T09:00:16.000Z</time>
      </trkpt>
      <trkpt lat="47.33454" lon="-2.46971">
        <ele>28.799999237061</ele>
        <time>2021-08-12T09:00:17.000Z</time>
      </trkpt>
      <trkpt lat="47.33471" lon="-2.46943">
        <ele>28.799999237061</ele>
        <time>2021-08-12T09:00:23.000Z</time>
      </trkpt>
      <trkpt lat="47.33494" lon="-2.46916">
        <ele>28.799999237061</ele>
        <time>2021-08-12T09:00:31.000Z</time>
      </trkpt>
      <trkpt lat="47.33503" lon="-2.4691">
        <ele>29.200000762939</ele>
        <time>2021-08-12T09:00:34.000Z</time>
      </trkpt>
      <trkpt lat="47.33505" lon="-2.46907">
        <ele>29.60000038147</ele>
        <time>2021-08-12T09:00:35.000Z</time>
      </trkpt>
      <trkpt lat="47.33507" lon="-2.46904">
        <ele>30</ele>
        <time>2021-08-12T09:00:36.000Z</time>
      </trkpt>
      <trkpt lat="47.3351" lon="-2.46901">
        <ele>30.39999961853</ele>
        <time>2021-08-12T09:00:37.000Z</time>
      </trkpt>
      <trkpt lat="47.33512" lon="-2.46899">
        <ele>30.799999237061</ele>
        <time>2021-08-12T09:00:38.000Z</time>
      </trkpt>
      <trkpt lat="47.33523" lon="-2.4689">
        <ele>30.799999237061</ele>
        <time>2021-08-12T09:00:42.000Z</time>
      </trkpt>
      <trkpt lat="47.33531" lon="-2.46878">
        <ele>31.39999961853</ele>
        <time>2021-08-12T09:00:46.000Z</time>
      </trkpt>
      <trkpt lat="47.33533" lon="-2.46874">
        <ele>31.799999237061</ele>
        <time>2021-08-12T09:00:47.000Z</time>
      </trkpt>
      <trkpt lat="47.33534" lon="-2.46871">
        <ele>32.200000762939</ele>
        <time>2021-08-12T09:00:48.000Z</time>
      </trkpt>
      <trkpt lat="47.33535" lon="-2.46869">
        <ele>32.599998474121</ele>
        <time>2021-08-12T09:00:49.000Z</time>
      </trkpt>
      <trkpt lat="47.33535" lon="-2.46865">
        <ele>33</ele>
        <time>2021-08-12T09:00:50.000Z</time>
      </trkpt>
      <trkpt lat="47.33534" lon="-2.46853">
        <ele>33</ele>
        <time>2021-08-12T09:00:53.000Z</time>
      </trkpt>
      <trkpt lat="47.33535" lon="-2.46845">
        <ele>33.400001525879</ele>
        <time>2021-08-12T09:00:55.000Z</time>
      </trkpt>
      <trkpt lat="47.33536" lon="-2.46842">
        <ele>33.799999237061</ele>
        <time>2021-08-12T09:00:56.000Z</time>
      </trkpt>
      <trkpt lat="47.33538" lon="-2.46839">
        <ele>34.200000762939</ele>
        <time>2021-08-12T09:00:57.000Z</time>
      </trkpt>
      <trkpt lat="47.3354" lon="-2.46836">
        <ele>34.599998474121</ele>
        <time>2021-08-12T09:00:58.000Z</time>
      </trkpt>
      <trkpt lat="47.33542" lon="-2.46834">
        <ele>35</ele>
        <time>2021-08-12T09:00:59.000Z</time>
      </trkpt>
      <trkpt lat="47.33556" lon="-2.4682">
        <ele>35</ele>
        <time>2021-08-12T09:01:04.000Z</time>
      </trkpt>
      <trkpt lat="47.33567" lon="-2.4681">
        <ele>35.400001525879</ele>
        <time>2021-08-12T09:01:08.000Z</time>
      </trkpt>
      <trkpt lat="47.33569" lon="-2.46808">
        <ele>36.400001525879</ele>
        <time>2021-08-12T09:01:09.000Z</time>
      </trkpt>
      <trkpt lat="47.33572" lon="-2.46806">
        <ele>36.799999237061</ele>
        <time>2021-08-12T09:01:10.000Z</time>
      </trkpt>
      <trkpt lat="47.33574" lon="-2.46804">
        <ele>37.200000762939</ele>
        <time>2021-08-12T09:01:11.000Z</time>
      </trkpt>
      <trkpt lat="47.33581" lon="-2.46795">
        <ele>37.599998474121</ele>
        <time>2021-08-12T09:01:14.000Z</time>
      </trkpt>
      <trkpt lat="47.33584" lon="-2.46792">
        <ele>38</ele>
        <time>2021-08-12T09:01:15.000Z</time>
      </trkpt>
      <trkpt lat="47.33586" lon="-2.46789">
        <ele>38.400001525879</ele>
        <time>2021-08-12T09:01:16.000Z</time>
      </trkpt>
      <trkpt lat="47.33588" lon="-2.46785">
        <ele>38.799999237061</ele>
        <time>2021-08-12T09:01:17.000Z</time>
      </trkpt>
      <trkpt lat="47.3359" lon="-2.46781">
        <ele>39.200000762939</ele>
        <time>2021-08-12T09:01:18.000Z</time>
      </trkpt>
      <trkpt lat="47.33594" lon="-2.46775">
        <ele>39.599998474121</ele>
        <time>2021-08-12T09:01:20.000Z</time>
      </trkpt>
      <trkpt lat="47.33597" lon="-2.46773">
        <ele>40</ele>
        <time>2021-08-12T09:01:21.000Z</time>
      </trkpt>
      <trkpt lat="47.336" lon="-2.46771">
        <ele>40.400001525879</ele>
        <time>2021-08-12T09:01:22.000Z</time>
      </trkpt>
      <trkpt lat="47.33603" lon="-2.46768">
        <ele>40.799999237061</ele>
        <time>2021-08-12T09:01:23.000Z</time>
      </trkpt>
      <trkpt lat="47.33606" lon="-2.46766">
        <ele>41.200000762939</ele>
        <time>2021-08-12T09:01:24.000Z</time>
      </trkpt>
      <trkpt lat="47.33615" lon="-2.46759">
        <ele>41.599998474121</ele>
        <time>2021-08-12T09:01:27.000Z</time>
      </trkpt>
      <trkpt lat="47.33617" lon="-2.46756">
        <ele>42</ele>
        <time>2021-08-12T09:01:28.000Z</time>
      </trkpt>
      <trkpt lat="47.3362" lon="-2.46752">
        <ele>42.400001525879</ele>
        <time>2021-08-12T09:01:29.000Z</time>
      </trkpt>
      <trkpt lat="47.33621" lon="-2.46748">
        <ele>42.799999237061</ele>
        <time>2021-08-12T09:01:30.000Z</time>
      </trkpt>
      <trkpt lat="47.33622" lon="-2.46743">
        <ele>43.200000762939</ele>
        <time>2021-08-12T09:01:31.000Z</time>
      </trkpt>
      <trkpt lat="47.3362" lon="-2.46728">
        <ele>43.200000762939</ele>
        <time>2021-08-12T09:01:34.000Z</time>
      </trkpt>
      <trkpt lat="47.33618" lon="-2.46723">
        <ele>43.200000762939</ele>
        <time>2021-08-12T09:01:35.000Z</time>
      </trkpt>
      <trkpt lat="47.33604" lon="-2.4669">
        <ele>43.200000762939</ele>
        <time>2021-08-12T09:01:41.000Z</time>
      </trkpt>
      <trkpt lat="47.33588" lon="-2.4665">
        <ele>43.200000762939</ele>
        <time>2021-08-12T09:01:48.000Z</time>
      </trkpt>
      <trkpt lat="47.33574" lon="-2.46608">
        <ele>43.799999237061</ele>
        <time>2021-08-12T09:01:55.000Z</time>
      </trkpt>
      <trkpt lat="47.33572" lon="-2.46603">
        <ele>44.200000762939</ele>
        <time>2021-08-12T09:01:56.000Z</time>
      </trkpt>
      <trkpt lat="47.33569" lon="-2.46598">
        <ele>44.599998474121</ele>
        <time>2021-08-12T09:01:57.000Z</time>
      </trkpt>
      <trkpt lat="47.33566" lon="-2.46594">
        <ele>45</ele>
        <time>2021-08-12T09:01:58.000Z</time>
      </trkpt>
      <trkpt lat="47.33563" lon="-2.46592">
        <ele>45.400001525879</ele>
        <time>2021-08-12T09:01:59.000Z</time>
      </trkpt>
      <trkpt lat="47.3356" lon="-2.46591">
        <ele>45.400001525879</ele>
        <time>2021-08-12T09:02:00.000Z</time>
      </trkpt>
      <trkpt lat="47.33553" lon="-2.46573">
        <ele>45.400001525879</ele>
        <time>2021-08-12T09:02:05.000Z</time>
      </trkpt>
      <trkpt lat="47.33549" lon="-2.46562">
        <ele>45.400001525879</ele>
        <time>2021-08-12T09:02:07.000Z</time>
      </trkpt>
      <trkpt lat="47.33547" lon="-2.4655">
        <ele>45.400001525879</ele>
        <time>2021-08-12T09:02:09.000Z</time>
      </trkpt>
      <trkpt lat="47.33546" lon="-2.46543">
        <ele>45.400001525879</ele>
        <time>2021-08-12T09:02:10.000Z</time>
      </trkpt>
      <trkpt lat="47.33542" lon="-2.46516">
        <ele>45.400001525879</ele>
        <time>2021-08-12T09:02:14.000Z</time>
      </trkpt>
      <trkpt lat="47.3354" lon="-2.465">
        <ele>45.400001525879</ele>
        <time>2021-08-12T09:02:16.000Z</time>
      </trkpt>
      <trkpt lat="47.33535" lon="-2.46491">
        <ele>45.799999237061</ele>
        <time>2021-08-12T09:02:19.000Z</time>
      </trkpt>
      <trkpt lat="47.33533" lon="-2.46491">
        <ele>46.200000762939</ele>
        <time>2021-08-12T09:02:20.000Z</time>
      </trkpt>
      <trkpt lat="47.3353" lon="-2.4649">
        <ele>46.599998474121</ele>
        <time>2021-08-12T09:02:21.000Z</time>
      </trkpt>
      <trkpt lat="47.33528" lon="-2.46485">
        <ele>47.200000762939</ele>
        <time>2021-08-12T09:02:22.000Z</time>
      </trkpt>
      <trkpt lat="47.33528" lon="-2.4648">
        <ele>47.599998474121</ele>
        <time>2021-08-12T09:02:23.000Z</time>
      </trkpt>
      <trkpt lat="47.33527" lon="-2.46476">
        <ele>47.599998474121</ele>
        <time>2021-08-12T09:02:24.000Z</time>
      </trkpt>
      <trkpt lat="47.33524" lon="-2.46475">
        <ele>47.599998474121</ele>
        <time>2021-08-12T09:02:27.000Z</time>
      </trkpt>
      <trkpt lat="47.33523" lon="-2.46486">
        <ele>47.599998474121</ele>
        <time>2021-08-12T09:02:31.000Z</time>
      </trkpt>
      <trkpt lat="47.33516" lon="-2.46503">
        <ele>47.599998474121</ele>
        <time>2021-08-12T09:02:35.000Z</time>
      </trkpt>
      <trkpt lat="47.33512" lon="-2.46508">
        <ele>47.599998474121</ele>
        <time>2021-08-12T09:02:36.000Z</time>
      </trkpt>
      <trkpt lat="47.33498" lon="-2.46522">
        <ele>47.599998474121</ele>
        <time>2021-08-12T09:02:39.000Z</time>
      </trkpt>
      <trkpt lat="47.33485" lon="-2.46536">
        <ele>47.200000762939</ele>
        <time>2021-08-12T09:02:42.000Z</time>
      </trkpt>
      <trkpt lat="47.33481" lon="-2.46539">
        <ele>46.599998474121</ele>
        <time>2021-08-12T09:02:43.000Z</time>
      </trkpt>
      <trkpt lat="47.33476" lon="-2.46544">
        <ele>46.200000762939</ele>
        <time>2021-08-12T09:02:44.000Z</time>
      </trkpt>
      <trkpt lat="47.33472" lon="-2.46549">
        <ele>45.799999237061</ele>
        <time>2021-08-12T09:02:45.000Z</time>
      </trkpt>
      <trkpt lat="47.33467" lon="-2.46555">
        <ele>45.400001525879</ele>
        <time>2021-08-12T09:02:46.000Z</time>
      </trkpt>
      <trkpt lat="47.33452" lon="-2.46572">
        <ele>45.400001525879</ele>
        <time>2021-08-12T09:02:49.000Z</time>
      </trkpt>
      <trkpt lat="47.33441" lon="-2.46581">
        <ele>44.799999237061</ele>
        <time>2021-08-12T09:02:51.000Z</time>
      </trkpt>
      <trkpt lat="47.33436" lon="-2.46584">
        <ele>44.400001525879</ele>
        <time>2021-08-12T09:02:52.000Z</time>
      </trkpt>
      <trkpt lat="47.3343" lon="-2.46587">
        <ele>44</ele>
        <time>2021-08-12T09:02:53.000Z</time>
      </trkpt>
      <trkpt lat="47.33425" lon="-2.46591">
        <ele>43.400001525879</ele>
        <time>2021-08-12T09:02:54.000Z</time>
      </trkpt>
      <trkpt lat="47.3342" lon="-2.46594">
        <ele>43</ele>
        <time>2021-08-12T09:02:55.000Z</time>
      </trkpt>
      <trkpt lat="47.33415" lon="-2.46598">
        <ele>42.400001525879</ele>
        <time>2021-08-12T09:02:56.000Z</time>
      </trkpt>
      <trkpt lat="47.33411" lon="-2.46601">
        <ele>42</ele>
        <time>2021-08-12T09:02:57.000Z</time>
      </trkpt>
      <trkpt lat="47.33406" lon="-2.46606">
        <ele>41.400001525879</ele>
        <time>2021-08-12T09:02:58.000Z</time>
      </trkpt>
      <trkpt lat="47.33401" lon="-2.4661">
        <ele>41</ele>
        <time>2021-08-12T09:02:59.000Z</time>
      </trkpt>
      <trkpt lat="47.33396" lon="-2.46615">
        <ele>40.400001525879</ele>
        <time>2021-08-12T09:03:00.000Z</time>
      </trkpt>
      <trkpt lat="47.33392" lon="-2.46621">
        <ele>40.400001525879</ele>
        <time>2021-08-12T09:03:01.000Z</time>
      </trkpt>
      <trkpt lat="47.33387" lon="-2.46626">
        <ele>40</ele>
        <time>2021-08-12T09:03:02.000Z</time>
      </trkpt>
      <trkpt lat="47.33383" lon="-2.46632">
        <ele>39.599998474121</ele>
        <time>2021-08-12T09:03:03.000Z</time>
      </trkpt>
      <trkpt lat="47.33378" lon="-2.46637">
        <ele>39.200000762939</ele>
        <time>2021-08-12T09:03:04.000Z</time>
      </trkpt>
      <trkpt lat="47.33374" lon="-2.46641">
        <ele>38.599998474121</ele>
        <time>2021-08-12T09:03:05.000Z</time>
      </trkpt>
      <trkpt lat="47.33368" lon="-2.46645">
        <ele>38.200000762939</ele>
        <time>2021-08-12T09:03:06.000Z</time>
      </trkpt>
      <trkpt lat="47.33356" lon="-2.4665">
        <ele>38.200000762939</ele>
        <time>2021-08-12T09:03:08.000Z</time>
      </trkpt>
      <trkpt lat="47.33344" lon="-2.46655">
        <ele>37.799999237061</ele>
        <time>2021-08-12T09:03:10.000Z</time>
      </trkpt>
      <trkpt lat="47.3334" lon="-2.46657">
        <ele>37.400001525879</ele>
        <time>2021-08-12T09:03:11.000Z</time>
      </trkpt>
      <trkpt lat="47.33336" lon="-2.46656">
        <ele>37</ele>
        <time>2021-08-12T09:03:12.000Z</time>
      </trkpt>
      <trkpt lat="47.33332" lon="-2.46657">
        <ele>36.200000762939</ele>
        <time>2021-08-12T09:03:13.000Z</time>
      </trkpt>
      <trkpt lat="47.33328" lon="-2.46647">
        <ele>36.200000762939</ele>
        <time>2021-08-12T09:03:16.000Z</time>
      </trkpt>
      <trkpt lat="47.3333" lon="-2.46639">
        <ele>36.200000762939</ele>
        <time>2021-08-12T09:03:18.000Z</time>
      </trkpt>
      <trkpt lat="47.33329" lon="-2.4663">
        <ele>36.200000762939</ele>
        <time>2021-08-12T09:03:20.000Z</time>
      </trkpt>
      <trkpt lat="47.33318" lon="-2.46611">
        <ele>36.200000762939</ele>
        <time>2021-08-12T09:03:25.000Z</time>
      </trkpt>
      <trkpt lat="47.33301" lon="-2.46589">
        <ele>36.200000762939</ele>
        <time>2021-08-12T09:03:30.000Z</time>
      </trkpt>
      <trkpt lat="47.33299" lon="-2.46582">
        <ele>36.200000762939</ele>
        <time>2021-08-12T09:03:31.000Z</time>
      </trkpt>
      <trkpt lat="47.33294" lon="-2.46563">
        <ele>36.200000762939</ele>
        <time>2021-08-12T09:03:34.000Z</time>
      </trkpt>
      <trkpt lat="47.33292" lon="-2.46542">
        <ele>36.200000762939</ele>
        <time>2021-08-12T09:03:37.000Z</time>
      </trkpt>
      <trkpt lat="47.33286" lon="-2.46498">
        <ele>36.200000762939</ele>
        <time>2021-08-12T09:03:44.000Z</time>
      </trkpt>
      <trkpt lat="47.33286" lon="-2.46492">
        <ele>36.599998474121</ele>
        <time>2021-08-12T09:03:45.000Z</time>
      </trkpt>
      <trkpt lat="47.33286" lon="-2.46486">
        <ele>37</ele>
        <time>2021-08-12T09:03:46.000Z</time>
      </trkpt>
      <trkpt lat="47.33285" lon="-2.4648">
        <ele>37.400001525879</ele>
        <time>2021-08-12T09:03:47.000Z</time>
      </trkpt>
      <trkpt lat="47.33285" lon="-2.46475">
        <ele>37.799999237061</ele>
        <time>2021-08-12T09:03:48.000Z</time>
      </trkpt>
      <trkpt lat="47.33285" lon="-2.46469">
        <ele>38.200000762939</ele>
        <time>2021-08-12T09:03:49.000Z</time>
      </trkpt>
      <trkpt lat="47.33283" lon="-2.46459">
        <ele>38.200000762939</ele>
        <time>2021-08-12T09:03:51.000Z</time>
      </trkpt>
      <trkpt lat="47.33281" lon="-2.46453">
        <ele>38.200000762939</ele>
        <time>2021-08-12T09:03:52.000Z</time>
      </trkpt>
      <trkpt lat="47.33273" lon="-2.46433">
        <ele>38.200000762939</ele>
        <time>2021-08-12T09:03:56.000Z</time>
      </trkpt>
      <trkpt lat="47.33269" lon="-2.46429">
        <ele>38.200000762939</ele>
        <time>2021-08-12T09:03:57.000Z</time>
      </trkpt>
      <trkpt lat="47.33261" lon="-2.46427">
        <ele>38.200000762939</ele>
        <time>2021-08-12T09:03:59.000Z</time>
      </trkpt>
      <trkpt lat="47.33252" lon="-2.46429">
        <ele>38.200000762939</ele>
        <time>2021-08-12T09:04:01.000Z</time>
      </trkpt>
      <trkpt lat="47.33247" lon="-2.46431">
        <ele>38.200000762939</ele>
        <time>2021-08-12T09:04:02.000Z</time>
      </trkpt>
      <trkpt lat="47.33242" lon="-2.46435">
        <ele>38.200000762939</ele>
        <time>2021-08-12T09:04:03.000Z</time>
      </trkpt>
      <trkpt lat="47.33226" lon="-2.46462">
        <ele>38.200000762939</ele>
        <time>2021-08-12T09:04:07.000Z</time>
      </trkpt>
      <trkpt lat="47.33223" lon="-2.46469">
        <ele>38.200000762939</ele>
        <time>2021-08-12T09:04:08.000Z</time>
      </trkpt>
      <trkpt lat="47.33218" lon="-2.46472">
        <ele>38.200000762939</ele>
        <time>2021-08-12T09:04:09.000Z</time>
      </trkpt>
      <trkpt lat="47.3321" lon="-2.46474">
        <ele>37.799999237061</ele>
        <time>2021-08-12T09:04:11.000Z</time>
      </trkpt>
      <trkpt lat="47.33206" lon="-2.46476">
        <ele>37.400001525879</ele>
        <time>2021-08-12T09:04:12.000Z</time>
      </trkpt>
      <trkpt lat="47.33201" lon="-2.46475">
        <ele>37</ele>
        <time>2021-08-12T09:04:13.000Z</time>
      </trkpt>
      <trkpt lat="47.33197" lon="-2.46476">
        <ele>36.400001525879</ele>
        <time>2021-08-12T09:04:14.000Z</time>
      </trkpt>
      <trkpt lat="47.33192" lon="-2.46476">
        <ele>36</ele>
        <time>2021-08-12T09:04:15.000Z</time>
      </trkpt>
      <trkpt lat="47.33185" lon="-2.46479">
        <ele>36</ele>
        <time>2021-08-12T09:04:16.000Z</time>
      </trkpt>
      <trkpt lat="47.33179" lon="-2.46483">
        <ele>35.599998474121</ele>
        <time>2021-08-12T09:04:17.000Z</time>
      </trkpt>
      <trkpt lat="47.33173" lon="-2.46487">
        <ele>35.200000762939</ele>
        <time>2021-08-12T09:04:18.000Z</time>
      </trkpt>
      <trkpt lat="47.33167" lon="-2.46491">
        <ele>34.799999237061</ele>
        <time>2021-08-12T09:04:19.000Z</time>
      </trkpt>
      <trkpt lat="47.33161" lon="-2.46493">
        <ele>34.200000762939</ele>
        <time>2021-08-12T09:04:20.000Z</time>
      </trkpt>
      <trkpt lat="47.33155" lon="-2.46495">
        <ele>33.799999237061</ele>
        <time>2021-08-12T09:04:21.000Z</time>
      </trkpt>
      <trkpt lat="47.33149" lon="-2.46496">
        <ele>33.400001525879</ele>
        <time>2021-08-12T09:04:22.000Z</time>
      </trkpt>
      <trkpt lat="47.33142" lon="-2.46497">
        <ele>33</ele>
        <time>2021-08-12T09:04:23.000Z</time>
      </trkpt>
      <trkpt lat="47.33136" lon="-2.46498">
        <ele>32.599998474121</ele>
        <time>2021-08-12T09:04:24.000Z</time>
      </trkpt>
      <trkpt lat="47.3313" lon="-2.46499">
        <ele>32</ele>
        <time>2021-08-12T09:04:25.000Z</time>
      </trkpt>
      <trkpt lat="47.33125" lon="-2.465">
        <ele>31.60000038147</ele>
        <time>2021-08-12T09:04:26.000Z</time>
      </trkpt>
      <trkpt lat="47.33122" lon="-2.46501">
        <ele>30.799999237061</ele>
        <time>2021-08-12T09:04:27.000Z</time>
      </trkpt>
      <trkpt lat="47.33118" lon="-2.46502">
        <ele>30.39999961853</ele>
        <time>2021-08-12T09:04:28.000Z</time>
      </trkpt>
      <trkpt lat="47.33115" lon="-2.46504">
        <ele>30</ele>
        <time>2021-08-12T09:04:29.000Z</time>
      </trkpt>
      <trkpt lat="47.33113" lon="-2.46505">
        <ele>29.39999961853</ele>
        <time>2021-08-12T09:04:30.000Z</time>
      </trkpt>
      <trkpt lat="47.331" lon="-2.46513">
        <ele>29</ele>
        <time>2021-08-12T09:04:34.000Z</time>
      </trkpt>
      <trkpt lat="47.33097" lon="-2.46515">
        <ele>28.60000038147</ele>
        <time>2021-08-12T09:04:35.000Z</time>
      </trkpt>
      <trkpt lat="47.33092" lon="-2.46517">
        <ele>28.200000762939</ele>
        <time>2021-08-12T09:04:36.000Z</time>
      </trkpt>
      <trkpt lat="47.33087" lon="-2.4652">
        <ele>27.799999237061</ele>
        <time>2021-08-12T09:04:37.000Z</time>
      </trkpt>
      <trkpt lat="47.33082" lon="-2.46522">
        <ele>27.39999961853</ele>
        <time>2021-08-12T09:04:38.000Z</time>
      </trkpt>
      <trkpt lat="47.33078" lon="-2.46525">
        <ele>27.39999961853</ele>
        <time>2021-08-12T09:04:39.000Z</time>
      </trkpt>
      <trkpt lat="47.33072" lon="-2.46528">
        <ele>26.799999237061</ele>
        <time>2021-08-12T09:04:40.000Z</time>
      </trkpt>
      <trkpt lat="47.33066" lon="-2.4653">
        <ele>26.39999961853</ele>
        <time>2021-08-12T09:04:41.000Z</time>
      </trkpt>
      <trkpt lat="47.3306" lon="-2.46531">
        <ele>26</ele>
        <time>2021-08-12T09:04:42.000Z</time>
      </trkpt>
      <trkpt lat="47.33054" lon="-2.46534">
        <ele>25.60000038147</ele>
        <time>2021-08-12T09:04:43.000Z</time>
      </trkpt>
      <trkpt lat="47.33047" lon="-2.46537">
        <ele>25</ele>
        <time>2021-08-12T09:04:44.000Z</time>
      </trkpt>
      <trkpt lat="47.33034" lon="-2.46541">
        <ele>25</ele>
        <time>2021-08-12T09:04:46.000Z</time>
      </trkpt>
      <trkpt lat="47.3302" lon="-2.4654">
        <ele>24.60000038147</ele>
        <time>2021-08-12T09:04:48.000Z</time>
      </trkpt>
      <trkpt lat="47.33014" lon="-2.46542">
        <ele>24.200000762939</ele>
        <time>2021-08-12T09:04:49.000Z</time>
      </trkpt>
      <trkpt lat="47.33008" lon="-2.46546">
        <ele>23.799999237061</ele>
        <time>2021-08-12T09:04:50.000Z</time>
      </trkpt>
      <trkpt lat="47.33002" lon="-2.46549">
        <ele>22.799999237061</ele>
        <time>2021-08-12T09:04:51.000Z</time>
      </trkpt>
      <trkpt lat="47.32976" lon="-2.46561">
        <ele>22.39999961853</ele>
        <time>2021-08-12T09:04:55.000Z</time>
      </trkpt>
      <trkpt lat="47.32972" lon="-2.46563">
        <ele>21.799999237061</ele>
        <time>2021-08-12T09:04:56.000Z</time>
      </trkpt>
      <trkpt lat="47.32968" lon="-2.46565">
        <ele>21.200000762939</ele>
        <time>2021-08-12T09:04:57.000Z</time>
      </trkpt>
      <trkpt lat="47.32964" lon="-2.46567">
        <ele>20.39999961853</ele>
        <time>2021-08-12T09:04:58.000Z</time>
      </trkpt>
      <trkpt lat="47.32961" lon="-2.46567">
        <ele>19.799999237061</ele>
        <time>2021-08-12T09:04:59.000Z</time>
      </trkpt>
      <trkpt lat="47.32959" lon="-2.46567">
        <ele>19</ele>
        <time>2021-08-12T09:05:00.000Z</time>
      </trkpt>
      <trkpt lat="47.32958" lon="-2.46565">
        <ele>18.39999961853</ele>
        <time>2021-08-12T09:05:01.000Z</time>
      </trkpt>
      <trkpt lat="47.32955" lon="-2.46562">
        <ele>17.60000038147</ele>
        <time>2021-08-12T09:05:02.000Z</time>
      </trkpt>
      <trkpt lat="47.32955" lon="-2.46554">
        <ele>17.200000762939</ele>
        <time>2021-08-12T09:05:03.000Z</time>
      </trkpt>
      <trkpt lat="47.32955" lon="-2.46548">
        <ele>16.799999237061</ele>
        <time>2021-08-12T09:05:04.000Z</time>
      </trkpt>
      <trkpt lat="47.32956" lon="-2.46541">
        <ele>16.39999961853</ele>
        <time>2021-08-12T09:05:05.000Z</time>
      </trkpt>
      <trkpt lat="47.32956" lon="-2.46532">
        <ele>16</ele>
        <time>2021-08-12T09:05:06.000Z</time>
      </trkpt>
      <trkpt lat="47.32956" lon="-2.46525">
        <ele>15.60000038147</ele>
        <time>2021-08-12T09:05:07.000Z</time>
      </trkpt>
      <trkpt lat="47.32958" lon="-2.46501">
        <ele>15.60000038147</ele>
        <time>2021-08-12T09:05:10.000Z</time>
      </trkpt>
      <trkpt lat="47.32958" lon="-2.46472">
        <ele>16.39999961853</ele>
        <time>2021-08-12T09:05:14.000Z</time>
      </trkpt>
      <trkpt lat="47.32959" lon="-2.46459">
        <ele>17.200000762939</ele>
        <time>2021-08-12T09:05:16.000Z</time>
      </trkpt>
      <trkpt lat="47.32959" lon="-2.46453">
        <ele>17.60000038147</ele>
        <time>2021-08-12T09:05:17.000Z</time>
      </trkpt>
      <trkpt lat="47.32959" lon="-2.46446">
        <ele>17.60000038147</ele>
        <time>2021-08-12T09:05:18.000Z</time>
      </trkpt>
      <trkpt lat="47.3296" lon="-2.4644">
        <ele>18.200000762939</ele>
        <time>2021-08-12T09:05:19.000Z</time>
      </trkpt>
      <trkpt lat="47.3296" lon="-2.46434">
        <ele>18.60000038147</ele>
        <time>2021-08-12T09:05:20.000Z</time>
      </trkpt>
      <trkpt lat="47.3296" lon="-2.46429">
        <ele>19</ele>
        <time>2021-08-12T09:05:21.000Z</time>
      </trkpt>
      <trkpt lat="47.32961" lon="-2.46422">
        <ele>19.39999961853</ele>
        <time>2021-08-12T09:05:22.000Z</time>
      </trkpt>
      <trkpt lat="47.32961" lon="-2.46417">
        <ele>19.799999237061</ele>
        <time>2021-08-12T09:05:23.000Z</time>
      </trkpt>
      <trkpt lat="47.32961" lon="-2.46401">
        <ele>20.200000762939</ele>
        <time>2021-08-12T09:05:26.000Z</time>
      </trkpt>
      <trkpt lat="47.32962" lon="-2.46396">
        <ele>20.799999237061</ele>
        <time>2021-08-12T09:05:27.000Z</time>
      </trkpt>
      <trkpt lat="47.32962" lon="-2.46391">
        <ele>21.200000762939</ele>
        <time>2021-08-12T09:05:28.000Z</time>
      </trkpt>
      <trkpt lat="47.32961" lon="-2.46385">
        <ele>21.60000038147</ele>
        <time>2021-08-12T09:05:29.000Z</time>
      </trkpt>
      <trkpt lat="47.32961" lon="-2.4638">
        <ele>22.200000762939</ele>
        <time>2021-08-12T09:05:30.000Z</time>
      </trkpt>
      <trkpt lat="47.3296" lon="-2.46364">
        <ele>22.60000038147</ele>
        <time>2021-08-12T09:05:33.000Z</time>
      </trkpt>
      <trkpt lat="47.32959" lon="-2.46359">
        <ele>23.200000762939</ele>
        <time>2021-08-12T09:05:34.000Z</time>
      </trkpt>
      <trkpt lat="47.32958" lon="-2.46354">
        <ele>23.60000038147</ele>
        <time>2021-08-12T09:05:35.000Z</time>
      </trkpt>
      <trkpt lat="47.32957" lon="-2.46349">
        <ele>24</ele>
        <time>2021-08-12T09:05:36.000Z</time>
      </trkpt>
      <trkpt lat="47.32957" lon="-2.46344">
        <ele>24.60000038147</ele>
        <time>2021-08-12T09:05:37.000Z</time>
      </trkpt>
      <trkpt lat="47.32955" lon="-2.46338">
        <ele>25</ele>
        <time>2021-08-12T09:05:38.000Z</time>
      </trkpt>
      <trkpt lat="47.32954" lon="-2.46333">
        <ele>25.39999961853</ele>
        <time>2021-08-12T09:05:39.000Z</time>
      </trkpt>
      <trkpt lat="47.32952" lon="-2.46328">
        <ele>25.799999237061</ele>
        <time>2021-08-12T09:05:40.000Z</time>
      </trkpt>
      <trkpt lat="47.3295" lon="-2.46323">
        <ele>26.200000762939</ele>
        <time>2021-08-12T09:05:41.000Z</time>
      </trkpt>
      <trkpt lat="47.32948" lon="-2.46318">
        <ele>26.799999237061</ele>
        <time>2021-08-12T09:05:42.000Z</time>
      </trkpt>
      <trkpt lat="47.32943" lon="-2.46303">
        <ele>27.200000762939</ele>
        <time>2021-08-12T09:05:45.000Z</time>
      </trkpt>
      <trkpt lat="47.32942" lon="-2.46298">
        <ele>27.60000038147</ele>
        <time>2021-08-12T09:05:46.000Z</time>
      </trkpt>
      <trkpt lat="47.32941" lon="-2.46294">
        <ele>28</ele>
        <time>2021-08-12T09:05:47.000Z</time>
      </trkpt>
      <trkpt lat="47.32939" lon="-2.46288">
        <ele>28.39999961853</ele>
        <time>2021-08-12T09:05:48.000Z</time>
      </trkpt>
      <trkpt lat="47.32938" lon="-2.46282">
        <ele>29</ele>
        <time>2021-08-12T09:05:49.000Z</time>
      </trkpt>
      <trkpt lat="47.32923" lon="-2.4623">
        <ele>29</ele>
        <time>2021-08-12T09:05:57.000Z</time>
      </trkpt>
      <trkpt lat="47.32905" lon="-2.46165">
        <ele>29.39999961853</ele>
        <time>2021-08-12T09:06:07.000Z</time>
      </trkpt>
      <trkpt lat="47.32904" lon="-2.46159">
        <ele>29.799999237061</ele>
        <time>2021-08-12T09:06:08.000Z</time>
      </trkpt>
      <trkpt lat="47.32902" lon="-2.46154">
        <ele>30.200000762939</ele>
        <time>2021-08-12T09:06:09.000Z</time>
      </trkpt>
      <trkpt lat="47.32899" lon="-2.4615">
        <ele>30.799999237061</ele>
        <time>2021-08-12T09:06:10.000Z</time>
      </trkpt>
      <trkpt lat="47.32895" lon="-2.46151">
        <ele>31.200000762939</ele>
        <time>2021-08-12T09:06:11.000Z</time>
      </trkpt>
      <trkpt lat="47.32882" lon="-2.46157">
        <ele>31.200000762939</ele>
        <time>2021-08-12T09:06:14.000Z</time>
      </trkpt>
      <trkpt lat="47.32855" lon="-2.46175">
        <ele>30.799999237061</ele>
        <time>2021-08-12T09:06:19.000Z</time>
      </trkpt>
      <trkpt lat="47.3285" lon="-2.46179">
        <ele>30.200000762939</ele>
        <time>2021-08-12T09:06:20.000Z</time>
      </trkpt>
      <trkpt lat="47.32844" lon="-2.46182">
        <ele>29.799999237061</ele>
        <time>2021-08-12T09:06:21.000Z</time>
      </trkpt>
      <trkpt lat="47.32839" lon="-2.46185">
        <ele>29.39999961853</ele>
        <time>2021-08-12T09:06:22.000Z</time>
      </trkpt>
      <trkpt lat="47.32833" lon="-2.46187">
        <ele>28.799999237061</ele>
        <time>2021-08-12T09:06:23.000Z</time>
      </trkpt>
      <trkpt lat="47.32827" lon="-2.4619">
        <ele>28.200000762939</ele>
        <time>2021-08-12T09:06:24.000Z</time>
      </trkpt>
      <trkpt lat="47.32822" lon="-2.46191">
        <ele>27.60000038147</ele>
        <time>2021-08-12T09:06:25.000Z</time>
      </trkpt>
      <trkpt lat="47.32816" lon="-2.46192">
        <ele>27</ele>
        <time>2021-08-12T09:06:26.000Z</time>
      </trkpt>
      <trkpt lat="47.32811" lon="-2.46191">
        <ele>26.39999961853</ele>
        <time>2021-08-12T09:06:27.000Z</time>
      </trkpt>
      <trkpt lat="47.328" lon="-2.46188">
        <ele>26</ele>
        <time>2021-08-12T09:06:29.000Z</time>
      </trkpt>
      <trkpt lat="47.32795" lon="-2.46186">
        <ele>25.60000038147</ele>
        <time>2021-08-12T09:06:30.000Z</time>
      </trkpt>
      <trkpt lat="47.3279" lon="-2.46183">
        <ele>25.200000762939</ele>
        <time>2021-08-12T09:06:31.000Z</time>
      </trkpt>
      <trkpt lat="47.32786" lon="-2.4618">
        <ele>24.799999237061</ele>
        <time>2021-08-12T09:06:32.000Z</time>
      </trkpt>
      <trkpt lat="47.32782" lon="-2.46177">
        <ele>24.39999961853</ele>
        <time>2021-08-12T09:06:33.000Z</time>
      </trkpt>
      <trkpt lat="47.32778" lon="-2.46173">
        <ele>24.39999961853</ele>
        <time>2021-08-12T09:06:34.000Z</time>
      </trkpt>
      <trkpt lat="47.32766" lon="-2.46151">
        <ele>24.39999961853</ele>
        <time>2021-08-12T09:06:38.000Z</time>
      </trkpt>
      <trkpt lat="47.32764" lon="-2.46138">
        <ele>23.799999237061</ele>
        <time>2021-08-12T09:06:40.000Z</time>
      </trkpt>
      <trkpt lat="47.32763" lon="-2.46132">
        <ele>23.39999961853</ele>
        <time>2021-08-12T09:06:41.000Z</time>
      </trkpt>
      <trkpt lat="47.32762" lon="-2.46125">
        <ele>23</ele>
        <time>2021-08-12T09:06:42.000Z</time>
      </trkpt>
      <trkpt lat="47.3276" lon="-2.46119">
        <ele>22.60000038147</ele>
        <time>2021-08-12T09:06:43.000Z</time>
      </trkpt>
      <trkpt lat="47.32758" lon="-2.46112">
        <ele>22</ele>
        <time>2021-08-12T09:06:44.000Z</time>
      </trkpt>
      <trkpt lat="47.32752" lon="-2.461">
        <ele>22</ele>
        <time>2021-08-12T09:06:46.000Z</time>
      </trkpt>
      <trkpt lat="47.32749" lon="-2.46093">
        <ele>22</ele>
        <time>2021-08-12T09:06:47.000Z</time>
      </trkpt>
      <trkpt lat="47.32746" lon="-2.46087">
        <ele>22</ele>
        <time>2021-08-12T09:06:48.000Z</time>
      </trkpt>
      <trkpt lat="47.3274" lon="-2.46079">
        <ele>21.60000038147</ele>
        <time>2021-08-12T09:06:50.000Z</time>
      </trkpt>
      <trkpt lat="47.32737" lon="-2.46076">
        <ele>21.200000762939</ele>
        <time>2021-08-12T09:06:51.000Z</time>
      </trkpt>
      <trkpt lat="47.32734" lon="-2.46073">
        <ele>20.799999237061</ele>
        <time>2021-08-12T09:06:52.000Z</time>
      </trkpt>
      <trkpt lat="47.32731" lon="-2.46069">
        <ele>20.39999961853</ele>
        <time>2021-08-12T09:06:53.000Z</time>
      </trkpt>
      <trkpt lat="47.32728" lon="-2.46063">
        <ele>20</ele>
        <time>2021-08-12T09:06:54.000Z</time>
      </trkpt>
      <trkpt lat="47.32725" lon="-2.46059">
        <ele>20</ele>
        <time>2021-08-12T09:06:55.000Z</time>
      </trkpt>
      <trkpt lat="47.32714" lon="-2.46047">
        <ele>20</ele>
        <time>2021-08-12T09:06:58.000Z</time>
      </trkpt>
      <trkpt lat="47.32707" lon="-2.46039">
        <ele>20</ele>
        <time>2021-08-12T09:07:00.000Z</time>
      </trkpt>
      <trkpt lat="47.32704" lon="-2.46034">
        <ele>19.60000038147</ele>
        <time>2021-08-12T09:07:01.000Z</time>
      </trkpt>
      <trkpt lat="47.32701" lon="-2.46029">
        <ele>19.200000762939</ele>
        <time>2021-08-12T09:07:02.000Z</time>
      </trkpt>
      <trkpt lat="47.32698" lon="-2.46025">
        <ele>18.799999237061</ele>
        <time>2021-08-12T09:07:03.000Z</time>
      </trkpt>
      <trkpt lat="47.32694" lon="-2.46021">
        <ele>18.39999961853</ele>
        <time>2021-08-12T09:07:04.000Z</time>
      </trkpt>
      <trkpt lat="47.32691" lon="-2.46016">
        <ele>18</ele>
        <time>2021-08-12T09:07:05.000Z</time>
      </trkpt>
      <trkpt lat="47.32688" lon="-2.46011">
        <ele>18</ele>
        <time>2021-08-12T09:07:06.000Z</time>
      </trkpt>
      <trkpt lat="47.32678" lon="-2.45995">
        <ele>18</ele>
        <time>2021-08-12T09:07:10.000Z</time>
      </trkpt>
      <trkpt lat="47.32664" lon="-2.45983">
        <ele>18</ele>
        <time>2021-08-12T09:07:13.000Z</time>
      </trkpt>
      <trkpt lat="47.32659" lon="-2.45978">
        <ele>18</ele>
        <time>2021-08-12T09:07:14.000Z</time>
      </trkpt>
      <trkpt lat="47.3264" lon="-2.45961">
        <ele>18</ele>
        <time>2021-08-12T09:07:18.000Z</time>
      </trkpt>
      <trkpt lat="47.32631" lon="-2.45949">
        <ele>18</ele>
        <time>2021-08-12T09:07:20.000Z</time>
      </trkpt>
      <trkpt lat="47.32605" lon="-2.4591">
        <ele>18</ele>
        <time>2021-08-12T09:07:26.000Z</time>
      </trkpt>
      <trkpt lat="47.32569" lon="-2.45862">
        <ele>18</ele>
        <time>2021-08-12T09:07:34.000Z</time>
      </trkpt>
      <trkpt lat="47.32565" lon="-2.45854">
        <ele>18</ele>
        <time>2021-08-12T09:07:35.000Z</time>
      </trkpt>
      <trkpt lat="47.32558" lon="-2.45839">
        <ele>18</ele>
        <time>2021-08-12T09:07:37.000Z</time>
      </trkpt>
      <trkpt lat="47.32554" lon="-2.45832">
        <ele>18</ele>
        <time>2021-08-12T09:07:38.000Z</time>
      </trkpt>
      <trkpt lat="47.32531" lon="-2.45801">
        <ele>18</ele>
        <time>2021-08-12T09:07:43.000Z</time>
      </trkpt>
      <trkpt lat="47.32527" lon="-2.45794">
        <ele>18</ele>
        <time>2021-08-12T09:07:44.000Z</time>
      </trkpt>
      <trkpt lat="47.32501" lon="-2.45747">
        <ele>18</ele>
        <time>2021-08-12T09:07:50.000Z</time>
      </trkpt>
      <trkpt lat="47.32473" lon="-2.45696">
        <ele>18</ele>
        <time>2021-08-12T09:07:57.000Z</time>
      </trkpt>
      <trkpt lat="47.32457" lon="-2.45671">
        <ele>17.60000038147</ele>
        <time>2021-08-12T09:08:01.000Z</time>
      </trkpt>
      <trkpt lat="47.32453" lon="-2.45666">
        <ele>17.200000762939</ele>
        <time>2021-08-12T09:08:02.000Z</time>
      </trkpt>
      <trkpt lat="47.32446" lon="-2.45655">
        <ele>16.39999961853</ele>
        <time>2021-08-12T09:08:03.000Z</time>
      </trkpt>
      <trkpt lat="47.32446" lon="-2.45655">
        <ele>16.39999961853</ele>
        <time>2021-08-12T09:08:04.000Z</time>
      </trkpt>
      <trkpt lat="47.32442" lon="-2.45649">
        <ele>16</ele>
        <time>2021-08-12T09:08:05.000Z</time>
      </trkpt>
      <trkpt lat="47.32423" lon="-2.45617">
        <ele>16</ele>
        <time>2021-08-12T09:08:11.000Z</time>
      </trkpt>
      <trkpt lat="47.32412" lon="-2.45594">
        <ele>16</ele>
        <time>2021-08-12T09:08:17.000Z</time>
      </trkpt>
      <trkpt lat="47.32411" lon="-2.45593">
        <ele>16</ele>
        <time>2021-08-12T09:08:25.000Z</time>
      </trkpt>
      <trkpt lat="47.32409" lon="-2.45589">
        <ele>16</ele>
        <time>2021-08-12T09:08:27.000Z</time>
      </trkpt>
      <trkpt lat="47.324" lon="-2.45571">
        <ele>16</ele>
        <time>2021-08-12T09:08:32.000Z</time>
      </trkpt>
      <trkpt lat="47.32389" lon="-2.45547">
        <ele>16</ele>
        <time>2021-08-12T09:08:37.000Z</time>
      </trkpt>
      <trkpt lat="47.32376" lon="-2.4552">
        <ele>16</ele>
        <time>2021-08-12T09:08:42.000Z</time>
      </trkpt>
      <trkpt lat="47.3237" lon="-2.45509">
        <ele>16</ele>
        <time>2021-08-12T09:08:44.000Z</time>
      </trkpt>
      <trkpt lat="47.32363" lon="-2.45497">
        <ele>16</ele>
        <time>2021-08-12T09:08:46.000Z</time>
      </trkpt>
      <trkpt lat="47.32351" lon="-2.45482">
        <ele>16</ele>
        <time>2021-08-12T09:08:49.000Z</time>
      </trkpt>
      <trkpt lat="47.32333" lon="-2.45456">
        <ele>16</ele>
        <time>2021-08-12T09:08:54.000Z</time>
      </trkpt>
      <trkpt lat="47.32327" lon="-2.45445">
        <ele>16</ele>
        <time>2021-08-12T09:08:56.000Z</time>
      </trkpt>
      <trkpt lat="47.32312" lon="-2.45423">
        <ele>16</ele>
        <time>2021-08-12T09:09:00.000Z</time>
      </trkpt>
      <trkpt lat="47.32311" lon="-2.45406">
        <ele>16</ele>
        <time>2021-08-12T09:09:03.000Z</time>
      </trkpt>
      <trkpt lat="47.32316" lon="-2.45397">
        <ele>16</ele>
        <time>2021-08-12T09:09:05.000Z</time>
      </trkpt>
      <trkpt lat="47.32319" lon="-2.45389">
        <ele>16</ele>
        <time>2021-08-12T09:09:07.000Z</time>
      </trkpt>
      <trkpt lat="47.32318" lon="-2.45361">
        <ele>16</ele>
        <time>2021-08-12T09:09:13.000Z</time>
      </trkpt>
      <trkpt lat="47.32318" lon="-2.45341">
        <ele>16.39999961853</ele>
        <time>2021-08-12T09:09:17.000Z</time>
      </trkpt>
      <trkpt lat="47.32318" lon="-2.45336">
        <ele>16.799999237061</ele>
        <time>2021-08-12T09:09:18.000Z</time>
      </trkpt>
      <trkpt lat="47.32318" lon="-2.45332">
        <ele>17.39999961853</ele>
        <time>2021-08-12T09:09:19.000Z</time>
      </trkpt>
      <trkpt lat="47.32318" lon="-2.45328">
        <ele>17.799999237061</ele>
        <time>2021-08-12T09:09:20.000Z</time>
      </trkpt>
      <trkpt lat="47.32318" lon="-2.45324">
        <ele>18.39999961853</ele>
        <time>2021-08-12T09:09:21.000Z</time>
      </trkpt>
      <trkpt lat="47.32316" lon="-2.45307">
        <ele>18.39999961853</ele>
        <time>2021-08-12T09:09:25.000Z</time>
      </trkpt>
      <trkpt lat="47.32309" lon="-2.45281">
        <ele>18.39999961853</ele>
        <time>2021-08-12T09:09:31.000Z</time>
      </trkpt>
      <trkpt lat="47.32295" lon="-2.45242">
        <ele>18.39999961853</ele>
        <time>2021-08-12T09:09:37.000Z</time>
      </trkpt>
      <trkpt lat="47.32276" lon="-2.45202">
        <ele>18.39999961853</ele>
        <time>2021-08-12T09:09:42.000Z</time>
      </trkpt>
      <trkpt lat="47.3227" lon="-2.45188">
        <ele>18.39999961853</ele>
        <time>2021-08-12T09:09:44.000Z</time>
      </trkpt>
      <trkpt lat="47.32266" lon="-2.45174">
        <ele>18.39999961853</ele>
        <time>2021-08-12T09:09:46.000Z</time>
      </trkpt>
      <trkpt lat="47.32264" lon="-2.45161">
        <ele>18.39999961853</ele>
        <time>2021-08-12T09:09:48.000Z</time>
      </trkpt>
      <trkpt lat="47.3226" lon="-2.45141">
        <ele>18.39999961853</ele>
        <time>2021-08-12T09:09:51.000Z</time>
      </trkpt>
      <trkpt lat="47.32258" lon="-2.45134">
        <ele>18.39999961853</ele>
        <time>2021-08-12T09:09:52.000Z</time>
      </trkpt>
      <trkpt lat="47.32253" lon="-2.45121">
        <ele>18.799999237061</ele>
        <time>2021-08-12T09:09:54.000Z</time>
      </trkpt>
      <trkpt lat="47.32251" lon="-2.45114">
        <ele>19.200000762939</ele>
        <time>2021-08-12T09:09:55.000Z</time>
      </trkpt>
      <trkpt lat="47.32248" lon="-2.45108">
        <ele>19.60000038147</ele>
        <time>2021-08-12T09:09:56.000Z</time>
      </trkpt>
      <trkpt lat="47.32246" lon="-2.45102">
        <ele>20.200000762939</ele>
        <time>2021-08-12T09:09:57.000Z</time>
      </trkpt>
      <trkpt lat="47.32244" lon="-2.45096">
        <ele>20.60000038147</ele>
        <time>2021-08-12T09:09:58.000Z</time>
      </trkpt>
      <trkpt lat="47.32224" lon="-2.45054">
        <ele>20.60000038147</ele>
        <time>2021-08-12T09:10:06.000Z</time>
      </trkpt>
      <trkpt lat="47.32211" lon="-2.45027">
        <ele>20.60000038147</ele>
        <time>2021-08-12T09:10:12.000Z</time>
      </trkpt>
      <trkpt lat="47.322" lon="-2.45003">
        <ele>20.60000038147</ele>
        <time>2021-08-12T09:10:18.000Z</time>
      </trkpt>
      <trkpt lat="47.32193" lon="-2.44989">
        <ele>20.60000038147</ele>
        <time>2021-08-12T09:10:21.000Z</time>
      </trkpt>
      <trkpt lat="47.32186" lon="-2.4498">
        <ele>20.60000038147</ele>
        <time>2021-08-12T09:10:23.000Z</time>
      </trkpt>
      <trkpt lat="47.32178" lon="-2.44972">
        <ele>20.60000038147</ele>
        <time>2021-08-12T09:10:25.000Z</time>
      </trkpt>
      <trkpt lat="47.32164" lon="-2.4496">
        <ele>20.60000038147</ele>
        <time>2021-08-12T09:10:28.000Z</time>
      </trkpt>
      <trkpt lat="47.32145" lon="-2.44942">
        <ele>20.60000038147</ele>
        <time>2021-08-12T09:10:32.000Z</time>
      </trkpt>
      <trkpt lat="47.32135" lon="-2.44931">
        <ele>20.60000038147</ele>
        <time>2021-08-12T09:10:34.000Z</time>
      </trkpt>
      <trkpt lat="47.32122" lon="-2.44909">
        <ele>20.60000038147</ele>
        <time>2021-08-12T09:10:37.000Z</time>
      </trkpt>
      <trkpt lat="47.32115" lon="-2.44893">
        <ele>20.200000762939</ele>
        <time>2021-08-12T09:10:39.000Z</time>
      </trkpt>
      <trkpt lat="47.32111" lon="-2.44885">
        <ele>19.799999237061</ele>
        <time>2021-08-12T09:10:40.000Z</time>
      </trkpt>
      <trkpt lat="47.32108" lon="-2.44877">
        <ele>19.39999961853</ele>
        <time>2021-08-12T09:10:41.000Z</time>
      </trkpt>
      <trkpt lat="47.32105" lon="-2.44868">
        <ele>19</ele>
        <time>2021-08-12T09:10:42.000Z</time>
      </trkpt>
      <trkpt lat="47.32101" lon="-2.4486">
        <ele>18.39999961853</ele>
        <time>2021-08-12T09:10:43.000Z</time>
      </trkpt>
      <trkpt lat="47.32088" lon="-2.44828">
        <ele>18.39999961853</ele>
        <time>2021-08-12T09:10:47.000Z</time>
      </trkpt>
      <trkpt lat="47.32064" lon="-2.44774">
        <ele>18.39999961853</ele>
        <time>2021-08-12T09:10:54.000Z</time>
      </trkpt>
      <trkpt lat="47.32039" lon="-2.44732">
        <ele>18.39999961853</ele>
        <time>2021-08-12T09:11:00.000Z</time>
      </trkpt>
      <trkpt lat="47.32007" lon="-2.44686">
        <ele>18.39999961853</ele>
        <time>2021-08-12T09:11:07.000Z</time>
      </trkpt>
      <trkpt lat="47.31982" lon="-2.44654">
        <ele>18</ele>
        <time>2021-08-12T09:11:12.000Z</time>
      </trkpt>
      <trkpt lat="47.31977" lon="-2.44648">
        <ele>17.60000038147</ele>
        <time>2021-08-12T09:11:13.000Z</time>
      </trkpt>
      <trkpt lat="47.31972" lon="-2.44642">
        <ele>17.200000762939</ele>
        <time>2021-08-12T09:11:14.000Z</time>
      </trkpt>
      <trkpt lat="47.31967" lon="-2.44636">
        <ele>16.799999237061</ele>
        <time>2021-08-12T09:11:15.000Z</time>
      </trkpt>
      <trkpt lat="47.31962" lon="-2.4463">
        <ele>16.39999961853</ele>
        <time>2021-08-12T09:11:16.000Z</time>
      </trkpt>
      <trkpt lat="47.31933" lon="-2.44598">
        <ele>16.39999961853</ele>
        <time>2021-08-12T09:11:22.000Z</time>
      </trkpt>
      <trkpt lat="47.3191" lon="-2.44569">
        <ele>16.39999961853</ele>
        <time>2021-08-12T09:11:27.000Z</time>
      </trkpt>
      <trkpt lat="47.31906" lon="-2.44555">
        <ele>16.39999961853</ele>
        <time>2021-08-12T09:11:29.000Z</time>
      </trkpt>
      <trkpt lat="47.3191" lon="-2.44533">
        <ele>16.39999961853</ele>
        <time>2021-08-12T09:11:32.000Z</time>
      </trkpt>
      <trkpt lat="47.31912" lon="-2.44526">
        <ele>16.39999961853</ele>
        <time>2021-08-12T09:11:33.000Z</time>
      </trkpt>
      <trkpt lat="47.31929" lon="-2.4449">
        <ele>16.39999961853</ele>
        <time>2021-08-12T09:11:38.000Z</time>
      </trkpt>
      <trkpt lat="47.3195" lon="-2.44444">
        <ele>16.39999961853</ele>
        <time>2021-08-12T09:11:44.000Z</time>
      </trkpt>
      <trkpt lat="47.31965" lon="-2.44403">
        <ele>16.39999961853</ele>
        <time>2021-08-12T09:11:50.000Z</time>
      </trkpt>
      <trkpt lat="47.31974" lon="-2.44376">
        <ele>16.39999961853</ele>
        <time>2021-08-12T09:11:54.000Z</time>
      </trkpt>
      <trkpt lat="47.31979" lon="-2.44364">
        <ele>16.39999961853</ele>
        <time>2021-08-12T09:11:56.000Z</time>
      </trkpt>
      <trkpt lat="47.31985" lon="-2.44353">
        <ele>16.39999961853</ele>
        <time>2021-08-12T09:11:58.000Z</time>
      </trkpt>
      <trkpt lat="47.31995" lon="-2.44341">
        <ele>16.39999961853</ele>
        <time>2021-08-12T09:12:01.000Z</time>
      </trkpt>
      <trkpt lat="47.32008" lon="-2.44323">
        <ele>16.39999961853</ele>
        <time>2021-08-12T09:12:05.000Z</time>
      </trkpt>
      <trkpt lat="47.32015" lon="-2.44313">
        <ele>16.39999961853</ele>
        <time>2021-08-12T09:12:07.000Z</time>
      </trkpt>
      <trkpt lat="47.32037" lon="-2.44278">
        <ele>16.799999237061</ele>
        <time>2021-08-12T09:12:14.000Z</time>
      </trkpt>
      <trkpt lat="47.3204" lon="-2.44274">
        <ele>17.200000762939</ele>
        <time>2021-08-12T09:12:15.000Z</time>
      </trkpt>
      <trkpt lat="47.32043" lon="-2.44269">
        <ele>18</ele>
        <time>2021-08-12T09:12:16.000Z</time>
      </trkpt>
      <trkpt lat="47.32046" lon="-2.44265">
        <ele>18.39999961853</ele>
        <time>2021-08-12T09:12:17.000Z</time>
      </trkpt>
      <trkpt lat="47.32055" lon="-2.44251">
        <ele>18.799999237061</ele>
        <time>2021-08-12T09:12:20.000Z</time>
      </trkpt>
      <trkpt lat="47.32058" lon="-2.44246">
        <ele>19.200000762939</ele>
        <time>2021-08-12T09:12:21.000Z</time>
      </trkpt>
      <trkpt lat="47.32061" lon="-2.44242">
        <ele>19.60000038147</ele>
        <time>2021-08-12T09:12:22.000Z</time>
      </trkpt>
      <trkpt lat="47.32064" lon="-2.44238">
        <ele>20</ele>
        <time>2021-08-12T09:12:23.000Z</time>
      </trkpt>
      <trkpt lat="47.32067" lon="-2.44234">
        <ele>20.39999961853</ele>
        <time>2021-08-12T09:12:24.000Z</time>
      </trkpt>
      <trkpt lat="47.32077" lon="-2.44222">
        <ele>20.39999961853</ele>
        <time>2021-08-12T09:12:27.000Z</time>
      </trkpt>
      <trkpt lat="47.3208" lon="-2.44217">
        <ele>20.799999237061</ele>
        <time>2021-08-12T09:12:28.000Z</time>
      </trkpt>
      <trkpt lat="47.32083" lon="-2.44213">
        <ele>21.200000762939</ele>
        <time>2021-08-12T09:12:29.000Z</time>
      </trkpt>
      <trkpt lat="47.32086" lon="-2.44209">
        <ele>21.799999237061</ele>
        <time>2021-08-12T09:12:30.000Z</time>
      </trkpt>
      <trkpt lat="47.32089" lon="-2.44205">
        <ele>22.200000762939</ele>
        <time>2021-08-12T09:12:31.000Z</time>
      </trkpt>
      <trkpt lat="47.32092" lon="-2.44201">
        <ele>22.60000038147</ele>
        <time>2021-08-12T09:12:32.000Z</time>
      </trkpt>
      <trkpt lat="47.32105" lon="-2.44185">
        <ele>22.60000038147</ele>
        <time>2021-08-12T09:12:36.000Z</time>
      </trkpt>
      <trkpt lat="47.32108" lon="-2.44182">
        <ele>23</ele>
        <time>2021-08-12T09:12:37.000Z</time>
      </trkpt>
      <trkpt lat="47.32112" lon="-2.44178">
        <ele>23.60000038147</ele>
        <time>2021-08-12T09:12:38.000Z</time>
      </trkpt>
      <trkpt lat="47.32115" lon="-2.44174">
        <ele>24</ele>
        <time>2021-08-12T09:12:39.000Z</time>
      </trkpt>
      <trkpt lat="47.32118" lon="-2.4417">
        <ele>24.39999961853</ele>
        <time>2021-08-12T09:12:40.000Z</time>
      </trkpt>
      <trkpt lat="47.32121" lon="-2.44167">
        <ele>24.799999237061</ele>
        <time>2021-08-12T09:12:41.000Z</time>
      </trkpt>
      <trkpt lat="47.32124" lon="-2.44163">
        <ele>25.39999961853</ele>
        <time>2021-08-12T09:12:42.000Z</time>
      </trkpt>
      <trkpt lat="47.32128" lon="-2.44159">
        <ele>25.799999237061</ele>
        <time>2021-08-12T09:12:43.000Z</time>
      </trkpt>
      <trkpt lat="47.32131" lon="-2.44155">
        <ele>26.200000762939</ele>
        <time>2021-08-12T09:12:44.000Z</time>
      </trkpt>
      <trkpt lat="47.32133" lon="-2.44151">
        <ele>26.60000038147</ele>
        <time>2021-08-12T09:12:45.000Z</time>
      </trkpt>
      <trkpt lat="47.32136" lon="-2.44147">
        <ele>27</ele>
        <time>2021-08-12T09:12:46.000Z</time>
      </trkpt>
      <trkpt lat="47.32145" lon="-2.44137">
        <ele>27.60000038147</ele>
        <time>2021-08-12T09:12:49.000Z</time>
      </trkpt>
      <trkpt lat="47.32148" lon="-2.44133">
        <ele>28</ele>
        <time>2021-08-12T09:12:50.000Z</time>
      </trkpt>
      <trkpt lat="47.32151" lon="-2.44129">
        <ele>28.39999961853</ele>
        <time>2021-08-12T09:12:51.000Z</time>
      </trkpt>
      <trkpt lat="47.32154" lon="-2.44125">
        <ele>29</ele>
        <time>2021-08-12T09:12:52.000Z</time>
      </trkpt>
      <trkpt lat="47.32157" lon="-2.44121">
        <ele>29.39999961853</ele>
        <time>2021-08-12T09:12:53.000Z</time>
      </trkpt>
      <trkpt lat="47.32169" lon="-2.44107">
        <ele>29.799999237061</ele>
        <time>2021-08-12T09:12:57.000Z</time>
      </trkpt>
      <trkpt lat="47.32172" lon="-2.44105">
        <ele>30.200000762939</ele>
        <time>2021-08-12T09:12:58.000Z</time>
      </trkpt>
      <trkpt lat="47.32175" lon="-2.44102">
        <ele>30.60000038147</ele>
        <time>2021-08-12T09:12:59.000Z</time>
      </trkpt>
      <trkpt lat="47.32178" lon="-2.44099">
        <ele>31</ele>
        <time>2021-08-12T09:13:00.000Z</time>
      </trkpt>
      <trkpt lat="47.32181" lon="-2.44096">
        <ele>31.39999961853</ele>
        <time>2021-08-12T09:13:01.000Z</time>
      </trkpt>
      <trkpt lat="47.32195" lon="-2.44081">
        <ele>32</ele>
        <time>2021-08-12T09:13:06.000Z</time>
      </trkpt>
      <trkpt lat="47.32198" lon="-2.44078">
        <ele>32.400001525879</ele>
        <time>2021-08-12T09:13:07.000Z</time>
      </trkpt>
      <trkpt lat="47.32201" lon="-2.44076">
        <ele>32.799999237061</ele>
        <time>2021-08-12T09:13:08.000Z</time>
      </trkpt>
      <trkpt lat="47.32204" lon="-2.44074">
        <ele>33.200000762939</ele>
        <time>2021-08-12T09:13:09.000Z</time>
      </trkpt>
      <trkpt lat="47.32207" lon="-2.44071">
        <ele>33.599998474121</ele>
        <time>2021-08-12T09:13:10.000Z</time>
      </trkpt>
      <trkpt lat="47.32221" lon="-2.44059">
        <ele>33.599998474121</ele>
        <time>2021-08-12T09:13:15.000Z</time>
      </trkpt>
      <trkpt lat="47.32224" lon="-2.44052">
        <ele>34</ele>
        <time>2021-08-12T09:13:17.000Z</time>
      </trkpt>
      <trkpt lat="47.32223" lon="-2.44047">
        <ele>34.400001525879</ele>
        <time>2021-08-12T09:13:18.000Z</time>
      </trkpt>
      <trkpt lat="47.32222" lon="-2.44043">
        <ele>34.799999237061</ele>
        <time>2021-08-12T09:13:19.000Z</time>
      </trkpt>
      <trkpt lat="47.32219" lon="-2.44039">
        <ele>35.200000762939</ele>
        <time>2021-08-12T09:13:20.000Z</time>
      </trkpt>
      <trkpt lat="47.32216" lon="-2.44035">
        <ele>35.799999237061</ele>
        <time>2021-08-12T09:13:21.000Z</time>
      </trkpt>
      <trkpt lat="47.32188" lon="-2.44001">
        <ele>35.799999237061</ele>
        <time>2021-08-12T09:13:29.000Z</time>
      </trkpt>
      <trkpt lat="47.3216" lon="-2.43964">
        <ele>35.799999237061</ele>
        <time>2021-08-12T09:13:36.000Z</time>
      </trkpt>
      <trkpt lat="47.32132" lon="-2.43924">
        <ele>35.799999237061</ele>
        <time>2021-08-12T09:13:42.000Z</time>
      </trkpt>
      <trkpt lat="47.32127" lon="-2.43919">
        <ele>35.799999237061</ele>
        <time>2021-08-12T09:13:43.000Z</time>
      </trkpt>
      <trkpt lat="47.32121" lon="-2.43914">
        <ele>35.200000762939</ele>
        <time>2021-08-12T09:13:44.000Z</time>
      </trkpt>
      <trkpt lat="47.32115" lon="-2.4391">
        <ele>34.799999237061</ele>
        <time>2021-08-12T09:13:45.000Z</time>
      </trkpt>
      <trkpt lat="47.32108" lon="-2.43907">
        <ele>34.200000762939</ele>
        <time>2021-08-12T09:13:46.000Z</time>
      </trkpt>
      <trkpt lat="47.32101" lon="-2.43904">
        <ele>33.799999237061</ele>
        <time>2021-08-12T09:13:47.000Z</time>
      </trkpt>
      <trkpt lat="47.32094" lon="-2.439">
        <ele>33.200000762939</ele>
        <time>2021-08-12T09:13:48.000Z</time>
      </trkpt>
      <trkpt lat="47.32087" lon="-2.43895">
        <ele>32.799999237061</ele>
        <time>2021-08-12T09:13:49.000Z</time>
      </trkpt>
      <trkpt lat="47.32081" lon="-2.4389">
        <ele>32.200000762939</ele>
        <time>2021-08-12T09:13:50.000Z</time>
      </trkpt>
      <trkpt lat="47.32076" lon="-2.43883">
        <ele>31.60000038147</ele>
        <time>2021-08-12T09:13:51.000Z</time>
      </trkpt>
      <trkpt lat="47.32071" lon="-2.43875">
        <ele>31.200000762939</ele>
        <time>2021-08-12T09:13:52.000Z</time>
      </trkpt>
      <trkpt lat="47.3205" lon="-2.43835">
        <ele>31.200000762939</ele>
        <time>2021-08-12T09:13:57.000Z</time>
      </trkpt>
      <trkpt lat="47.32046" lon="-2.43826">
        <ele>30.799999237061</ele>
        <time>2021-08-12T09:13:58.000Z</time>
      </trkpt>
      <trkpt lat="47.32042" lon="-2.43818">
        <ele>30.39999961853</ele>
        <time>2021-08-12T09:13:59.000Z</time>
      </trkpt>
      <trkpt lat="47.32039" lon="-2.43812">
        <ele>30</ele>
        <time>2021-08-12T09:14:00.000Z</time>
      </trkpt>
      <trkpt lat="47.32037" lon="-2.43807">
        <ele>29.60000038147</ele>
        <time>2021-08-12T09:14:01.000Z</time>
      </trkpt>
      <trkpt lat="47.32036" lon="-2.43802">
        <ele>29</ele>
        <time>2021-08-12T09:14:02.000Z</time>
      </trkpt>
      <trkpt lat="47.32036" lon="-2.43798">
        <ele>29</ele>
        <time>2021-08-12T09:14:03.000Z</time>
      </trkpt>
      <trkpt lat="47.3204" lon="-2.43793">
        <ele>29</ele>
        <time>2021-08-12T09:14:05.000Z</time>
      </trkpt>
      <trkpt lat="47.32051" lon="-2.43784">
        <ele>29</ele>
        <time>2021-08-12T09:14:10.000Z</time>
      </trkpt>
      <trkpt lat="47.32054" lon="-2.43782">
        <ele>29</ele>
        <time>2021-08-12T09:14:11.000Z</time>
      </trkpt>
      <trkpt lat="47.32068" lon="-2.4377">
        <ele>29</ele>
        <time>2021-08-12T09:14:16.000Z</time>
      </trkpt>
      <trkpt lat="47.3209" lon="-2.43746">
        <ele>29.39999961853</ele>
        <time>2021-08-12T09:14:24.000Z</time>
      </trkpt>
      <trkpt lat="47.32093" lon="-2.43743">
        <ele>29.799999237061</ele>
        <time>2021-08-12T09:14:25.000Z</time>
      </trkpt>
      <trkpt lat="47.32096" lon="-2.4374">
        <ele>30.200000762939</ele>
        <time>2021-08-12T09:14:26.000Z</time>
      </trkpt>
      <trkpt lat="47.32099" lon="-2.43737">
        <ele>30.60000038147</ele>
        <time>2021-08-12T09:14:27.000Z</time>
      </trkpt>
      <trkpt lat="47.32102" lon="-2.43734">
        <ele>31</ele>
        <time>2021-08-12T09:14:28.000Z</time>
      </trkpt>
      <trkpt lat="47.32111" lon="-2.43725">
        <ele>31.60000038147</ele>
        <time>2021-08-12T09:14:31.000Z</time>
      </trkpt>
      <trkpt lat="47.32114" lon="-2.43721">
        <ele>32</ele>
        <time>2021-08-12T09:14:32.000Z</time>
      </trkpt>
      <trkpt lat="47.32117" lon="-2.43718">
        <ele>32.400001525879</ele>
        <time>2021-08-12T09:14:33.000Z</time>
      </trkpt>
      <trkpt lat="47.3212" lon="-2.43714">
        <ele>32.799999237061</ele>
        <time>2021-08-12T09:14:34.000Z</time>
      </trkpt>
      <trkpt lat="47.32123" lon="-2.43711">
        <ele>33.200000762939</ele>
        <time>2021-08-12T09:14:35.000Z</time>
      </trkpt>
      <trkpt lat="47.32127" lon="-2.43706">
        <ele>33.200000762939</ele>
        <time>2021-08-12T09:14:37.000Z</time>
      </trkpt>
      <trkpt lat="47.32136" lon="-2.43696">
        <ele>33.599998474121</ele>
        <time>2021-08-12T09:14:41.000Z</time>
      </trkpt>
      <trkpt lat="47.32139" lon="-2.43694">
        <ele>34</ele>
        <time>2021-08-12T09:14:42.000Z</time>
      </trkpt>
      <trkpt lat="47.32141" lon="-2.43691">
        <ele>34.400001525879</ele>
        <time>2021-08-12T09:14:43.000Z</time>
      </trkpt>
      <trkpt lat="47.32144" lon="-2.43689">
        <ele>34.799999237061</ele>
        <time>2021-08-12T09:14:44.000Z</time>
      </trkpt>
      <trkpt lat="47.32147" lon="-2.43686">
        <ele>35.200000762939</ele>
        <time>2021-08-12T09:14:45.000Z</time>
      </trkpt>
      <trkpt lat="47.32167" lon="-2.4367">
        <ele>35.200000762939</ele>
        <time>2021-08-12T09:14:51.000Z</time>
      </trkpt>
      <trkpt lat="47.3219" lon="-2.43658">
        <ele>35.200000762939</ele>
        <time>2021-08-12T09:14:57.000Z</time>
      </trkpt>
      <trkpt lat="47.32215" lon="-2.43647">
        <ele>35.200000762939</ele>
        <time>2021-08-12T09:15:03.000Z</time>
      </trkpt>
      <trkpt lat="47.3222" lon="-2.43645">
        <ele>35.200000762939</ele>
        <time>2021-08-12T09:15:04.000Z</time>
      </trkpt>
      <trkpt lat="47.32233" lon="-2.4364">
        <ele>35.599998474121</ele>
        <time>2021-08-12T09:15:07.000Z</time>
      </trkpt>
      <trkpt lat="47.32238" lon="-2.43639">
        <ele>36</ele>
        <time>2021-08-12T09:15:08.000Z</time>
      </trkpt>
      <trkpt lat="47.32242" lon="-2.43637">
        <ele>36.400001525879</ele>
        <time>2021-08-12T09:15:09.000Z</time>
      </trkpt>
      <trkpt lat="47.32247" lon="-2.43635">
        <ele>37.400001525879</ele>
        <time>2021-08-12T09:15:10.000Z</time>
      </trkpt>
      <trkpt lat="47.32256" lon="-2.43633">
        <ele>37.400001525879</ele>
        <time>2021-08-12T09:15:12.000Z</time>
      </trkpt>
      <trkpt lat="47.32265" lon="-2.43631">
        <ele>37.400001525879</ele>
        <time>2021-08-12T09:15:14.000Z</time>
      </trkpt>
      <trkpt lat="47.32269" lon="-2.4363">
        <ele>37.400001525879</ele>
        <time>2021-08-12T09:15:15.000Z</time>
      </trkpt>
      <trkpt lat="47.32277" lon="-2.43626">
        <ele>37.400001525879</ele>
        <time>2021-08-12T09:15:17.000Z</time>
      </trkpt>
      <trkpt lat="47.3229" lon="-2.43618">
        <ele>37.400001525879</ele>
        <time>2021-08-12T09:15:20.000Z</time>
      </trkpt>
      <trkpt lat="47.32301" lon="-2.43611">
        <ele>37.799999237061</ele>
        <time>2021-08-12T09:15:23.000Z</time>
      </trkpt>
      <trkpt lat="47.32305" lon="-2.4361">
        <ele>38.200000762939</ele>
        <time>2021-08-12T09:15:24.000Z</time>
      </trkpt>
      <trkpt lat="47.32309" lon="-2.43608">
        <ele>38.599998474121</ele>
        <time>2021-08-12T09:15:25.000Z</time>
      </trkpt>
      <trkpt lat="47.32313" lon="-2.43606">
        <ele>39.200000762939</ele>
        <time>2021-08-12T09:15:26.000Z</time>
      </trkpt>
      <trkpt lat="47.32317" lon="-2.43604">
        <ele>39.599998474121</ele>
        <time>2021-08-12T09:15:27.000Z</time>
      </trkpt>
      <trkpt lat="47.32328" lon="-2.43599">
        <ele>39.599998474121</ele>
        <time>2021-08-12T09:15:30.000Z</time>
      </trkpt>
      <trkpt lat="47.32333" lon="-2.43597">
        <ele>40</ele>
        <time>2021-08-12T09:15:31.000Z</time>
      </trkpt>
      <trkpt lat="47.32337" lon="-2.43595">
        <ele>40.400001525879</ele>
        <time>2021-08-12T09:15:32.000Z</time>
      </trkpt>
      <trkpt lat="47.32341" lon="-2.43593">
        <ele>40.799999237061</ele>
        <time>2021-08-12T09:15:33.000Z</time>
      </trkpt>
      <trkpt lat="47.32345" lon="-2.43591">
        <ele>41.599998474121</ele>
        <time>2021-08-12T09:15:34.000Z</time>
      </trkpt>
      <trkpt lat="47.32349" lon="-2.43589">
        <ele>41.599998474121</ele>
        <time>2021-08-12T09:15:35.000Z</time>
      </trkpt>
      <trkpt lat="47.32365" lon="-2.43579">
        <ele>41.599998474121</ele>
        <time>2021-08-12T09:15:39.000Z</time>
      </trkpt>
      <trkpt lat="47.32381" lon="-2.43566">
        <ele>42</ele>
        <time>2021-08-12T09:15:43.000Z</time>
      </trkpt>
      <trkpt lat="47.32385" lon="-2.43562">
        <ele>42.400001525879</ele>
        <time>2021-08-12T09:15:44.000Z</time>
      </trkpt>
      <trkpt lat="47.32389" lon="-2.43559">
        <ele>42.799999237061</ele>
        <time>2021-08-12T09:15:45.000Z</time>
      </trkpt>
      <trkpt lat="47.32392" lon="-2.43555">
        <ele>43.200000762939</ele>
        <time>2021-08-12T09:15:46.000Z</time>
      </trkpt>
      <trkpt lat="47.32396" lon="-2.43552">
        <ele>43.599998474121</ele>
        <time>2021-08-12T09:15:47.000Z</time>
      </trkpt>
      <trkpt lat="47.32426" lon="-2.43522">
        <ele>43.599998474121</ele>
        <time>2021-08-12T09:15:55.000Z</time>
      </trkpt>
      <trkpt lat="47.32453" lon="-2.43495">
        <ele>43.599998474121</ele>
        <time>2021-08-12T09:16:03.000Z</time>
      </trkpt>
      <trkpt lat="47.32457" lon="-2.43491">
        <ele>44</ele>
        <time>2021-08-12T09:16:04.000Z</time>
      </trkpt>
      <trkpt lat="47.3246" lon="-2.43488">
        <ele>44.400001525879</ele>
        <time>2021-08-12T09:16:05.000Z</time>
      </trkpt>
      <trkpt lat="47.32464" lon="-2.43484">
        <ele>44.799999237061</ele>
        <time>2021-08-12T09:16:06.000Z</time>
      </trkpt>
      <trkpt lat="47.32467" lon="-2.43481">
        <ele>45.200000762939</ele>
        <time>2021-08-12T09:16:07.000Z</time>
      </trkpt>
      <trkpt lat="47.3247" lon="-2.43477">
        <ele>45.599998474121</ele>
        <time>2021-08-12T09:16:08.000Z</time>
      </trkpt>
      <trkpt lat="47.32484" lon="-2.43462">
        <ele>45.599998474121</ele>
        <time>2021-08-12T09:16:12.000Z</time>
      </trkpt>
      <trkpt lat="47.32491" lon="-2.43455">
        <ele>45.599998474121</ele>
        <time>2021-08-12T09:16:14.000Z</time>
      </trkpt>
      <trkpt lat="47.32498" lon="-2.4344">
        <ele>45.599998474121</ele>
        <time>2021-08-12T09:16:17.000Z</time>
      </trkpt>
      <trkpt lat="47.325" lon="-2.43435">
        <ele>45.599998474121</ele>
        <time>2021-08-12T09:16:18.000Z</time>
      </trkpt>
      <trkpt lat="47.32502" lon="-2.43429">
        <ele>45.599998474121</ele>
        <time>2021-08-12T09:16:19.000Z</time>
      </trkpt>
      <trkpt lat="47.3251" lon="-2.43417">
        <ele>45.599998474121</ele>
        <time>2021-08-12T09:16:22.000Z</time>
      </trkpt>
      <trkpt lat="47.32518" lon="-2.43415">
        <ele>45.599998474121</ele>
        <time>2021-08-12T09:16:24.000Z</time>
      </trkpt>
      <trkpt lat="47.32526" lon="-2.43409">
        <ele>45.599998474121</ele>
        <time>2021-08-12T09:16:27.000Z</time>
      </trkpt>
      <trkpt lat="47.3253" lon="-2.43401">
        <ele>45.599998474121</ele>
        <time>2021-08-12T09:16:30.000Z</time>
      </trkpt>
      <trkpt lat="47.32533" lon="-2.43394">
        <ele>45.599998474121</ele>
        <time>2021-08-12T09:16:32.000Z</time>
      </trkpt>
      <trkpt lat="47.32539" lon="-2.43366">
        <ele>45.599998474121</ele>
        <time>2021-08-12T09:16:39.000Z</time>
      </trkpt>
      <trkpt lat="47.32543" lon="-2.43341">
        <ele>45.599998474121</ele>
        <time>2021-08-12T09:16:45.000Z</time>
      </trkpt>
      <trkpt lat="47.32545" lon="-2.43324">
        <ele>46</ele>
        <time>2021-08-12T09:16:49.000Z</time>
      </trkpt>
      <trkpt lat="47.32546" lon="-2.4332">
        <ele>46.599998474121</ele>
        <time>2021-08-12T09:16:50.000Z</time>
      </trkpt>
      <trkpt lat="47.32547" lon="-2.43316">
        <ele>47</ele>
        <time>2021-08-12T09:16:51.000Z</time>
      </trkpt>
      <trkpt lat="47.32548" lon="-2.43311">
        <ele>47.400001525879</ele>
        <time>2021-08-12T09:16:52.000Z</time>
      </trkpt>
      <trkpt lat="47.32549" lon="-2.43306">
        <ele>47.799999237061</ele>
        <time>2021-08-12T09:16:53.000Z</time>
      </trkpt>
      <trkpt lat="47.32558" lon="-2.43277">
        <ele>47.799999237061</ele>
        <time>2021-08-12T09:17:00.000Z</time>
      </trkpt>
      <trkpt lat="47.32569" lon="-2.43247">
        <ele>47.799999237061</ele>
        <time>2021-08-12T09:17:07.000Z</time>
      </trkpt>
      <trkpt lat="47.32589" lon="-2.43223">
        <ele>48.200000762939</ele>
        <time>2021-08-12T09:17:15.000Z</time>
      </trkpt>
      <trkpt lat="47.32591" lon="-2.4322">
        <ele>48.599998474121</ele>
        <time>2021-08-12T09:17:16.000Z</time>
      </trkpt>
      <trkpt lat="47.32594" lon="-2.43217">
        <ele>49</ele>
        <time>2021-08-12T09:17:17.000Z</time>
      </trkpt>
      <trkpt lat="47.32596" lon="-2.43215">
        <ele>49.400001525879</ele>
        <time>2021-08-12T09:17:18.000Z</time>
      </trkpt>
      <trkpt lat="47.32599" lon="-2.43213">
        <ele>49.799999237061</ele>
        <time>2021-08-12T09:17:19.000Z</time>
      </trkpt>
      <trkpt lat="47.32605" lon="-2.43209">
        <ele>49.799999237061</ele>
        <time>2021-08-12T09:17:21.000Z</time>
      </trkpt>
      <trkpt lat="47.3262" lon="-2.432">
        <ele>49.799999237061</ele>
        <time>2021-08-12T09:17:27.000Z</time>
      </trkpt>
      <trkpt lat="47.32627" lon="-2.43197">
        <ele>50.200000762939</ele>
        <time>2021-08-12T09:17:30.000Z</time>
      </trkpt>
      <trkpt lat="47.32629" lon="-2.43196">
        <ele>50.599998474121</ele>
        <time>2021-08-12T09:17:31.000Z</time>
      </trkpt>
      <trkpt lat="47.3263" lon="-2.43195">
        <ele>51.200000762939</ele>
        <time>2021-08-12T09:17:32.000Z</time>
      </trkpt>
      <trkpt lat="47.32632" lon="-2.43195">
        <ele>51.599998474121</ele>
        <time>2021-08-12T09:17:33.000Z</time>
      </trkpt>
      <trkpt lat="47.32634" lon="-2.43194">
        <ele>52</ele>
        <time>2021-08-12T09:17:34.000Z</time>
      </trkpt>
      <trkpt lat="47.32638" lon="-2.43189">
        <ele>52</ele>
        <time>2021-08-12T09:17:38.000Z</time>
      </trkpt>
      <trkpt lat="47.3264" lon="-2.43186">
        <ele>52</ele>
        <time>2021-08-12T09:17:40.000Z</time>
      </trkpt>
      <trkpt lat="47.3264" lon="-2.43175">
        <ele>52</ele>
        <time>2021-08-12T09:17:45.000Z</time>
      </trkpt>
      <trkpt lat="47.3264" lon="-2.43173">
        <ele>52</ele>
        <time>2021-08-12T09:17:46.000Z</time>
      </trkpt>
      <trkpt lat="47.32641" lon="-2.43168">
        <ele>52</ele>
        <time>2021-08-12T09:17:50.000Z</time>
      </trkpt>
      <trkpt lat="47.32641" lon="-2.43167">
        <ele>52</ele>
        <time>2021-08-12T09:17:51.000Z</time>
      </trkpt>
      <trkpt lat="47.3264" lon="-2.43167">
        <ele>52</ele>
        <time>2021-08-12T09:18:26.000Z</time>
      </trkpt>
      <trkpt lat="47.32638" lon="-2.43163">
        <ele>52</ele>
        <time>2021-08-12T09:18:28.000Z</time>
      </trkpt>
      <trkpt lat="47.32637" lon="-2.43158">
        <ele>52</ele>
        <time>2021-08-12T09:18:30.000Z</time>
      </trkpt>
      <trkpt lat="47.32635" lon="-2.43152">
        <ele>52</ele>
        <time>2021-08-12T09:18:33.000Z</time>
      </trkpt>
      <trkpt lat="47.32632" lon="-2.43136">
        <ele>52</ele>
        <time>2021-08-12T09:18:37.000Z</time>
      </trkpt>
      <trkpt lat="47.32629" lon="-2.43122">
        <ele>52.400001525879</ele>
        <time>2021-08-12T09:18:40.000Z</time>
      </trkpt>
      <trkpt lat="47.32628" lon="-2.43117">
        <ele>52.799999237061</ele>
        <time>2021-08-12T09:18:41.000Z</time>
      </trkpt>
      <trkpt lat="47.32627" lon="-2.43113">
        <ele>53.200000762939</ele>
        <time>2021-08-12T09:18:42.000Z</time>
      </trkpt>
      <trkpt lat="47.32626" lon="-2.43109">
        <ele>53.599998474121</ele>
        <time>2021-08-12T09:18:43.000Z</time>
      </trkpt>
      <trkpt lat="47.32625" lon="-2.43105">
        <ele>54</ele>
        <time>2021-08-12T09:18:44.000Z</time>
      </trkpt>
      <trkpt lat="47.32624" lon="-2.43101">
        <ele>54</ele>
        <time>2021-08-12T09:18:45.000Z</time>
      </trkpt>
      <trkpt lat="47.32617" lon="-2.43082">
        <ele>54</ele>
        <time>2021-08-12T09:18:49.000Z</time>
      </trkpt>
      <trkpt lat="47.32614" lon="-2.43076">
        <ele>54</ele>
        <time>2021-08-12T09:18:50.000Z</time>
      </trkpt>
      <trkpt lat="47.32609" lon="-2.43046">
        <ele>54</ele>
        <time>2021-08-12T09:18:54.000Z</time>
      </trkpt>
      <trkpt lat="47.32607" lon="-2.43001">
        <ele>54.400001525879</ele>
        <time>2021-08-12T09:19:00.000Z</time>
      </trkpt>
      <trkpt lat="47.32607" lon="-2.42995">
        <ele>54.799999237061</ele>
        <time>2021-08-12T09:19:01.000Z</time>
      </trkpt>
      <trkpt lat="47.32608" lon="-2.42988">
        <ele>55.200000762939</ele>
        <time>2021-08-12T09:19:02.000Z</time>
      </trkpt>
      <trkpt lat="47.32609" lon="-2.42981">
        <ele>55.599998474121</ele>
        <time>2021-08-12T09:19:03.000Z</time>
      </trkpt>
      <trkpt lat="47.3261" lon="-2.42974">
        <ele>56</ele>
        <time>2021-08-12T09:19:04.000Z</time>
      </trkpt>
      <trkpt lat="47.32615" lon="-2.42953">
        <ele>56</ele>
        <time>2021-08-12T09:19:07.000Z</time>
      </trkpt>
      <trkpt lat="47.32628" lon="-2.42911">
        <ele>56</ele>
        <time>2021-08-12T09:19:14.000Z</time>
      </trkpt>
      <trkpt lat="47.32633" lon="-2.4288">
        <ele>56</ele>
        <time>2021-08-12T09:19:20.000Z</time>
      </trkpt>
      <trkpt lat="47.32644" lon="-2.42828">
        <ele>56</ele>
        <time>2021-08-12T09:19:29.000Z</time>
      </trkpt>
      <trkpt lat="47.32653" lon="-2.42798">
        <ele>56</ele>
        <time>2021-08-12T09:19:35.000Z</time>
      </trkpt>
      <trkpt lat="47.32663" lon="-2.42776">
        <ele>56</ele>
        <time>2021-08-12T09:19:41.000Z</time>
      </trkpt>
      <trkpt lat="47.32674" lon="-2.42754">
        <ele>56</ele>
        <time>2021-08-12T09:19:47.000Z</time>
      </trkpt>
      <trkpt lat="47.32687" lon="-2.42732">
        <ele>56</ele>
        <time>2021-08-12T09:19:53.000Z</time>
      </trkpt>
      <trkpt lat="47.32706" lon="-2.427">
        <ele>56</ele>
        <time>2021-08-12T09:20:00.000Z</time>
      </trkpt>
      <trkpt lat="47.32712" lon="-2.42688">
        <ele>56</ele>
        <time>2021-08-12T09:20:03.000Z</time>
      </trkpt>
      <trkpt lat="47.32713" lon="-2.42685">
        <ele>56</ele>
        <time>2021-08-12T09:20:04.000Z</time>
      </trkpt>
      <trkpt lat="47.3271" lon="-2.42671">
        <ele>56</ele>
        <time>2021-08-12T09:20:08.000Z</time>
      </trkpt>
      <trkpt lat="47.3271" lon="-2.42655">
        <ele>56</ele>
        <time>2021-08-12T09:20:12.000Z</time>
      </trkpt>
      <trkpt lat="47.327" lon="-2.42626">
        <ele>56</ele>
        <time>2021-08-12T09:20:18.000Z</time>
      </trkpt>
      <trkpt lat="47.32688" lon="-2.42584">
        <ele>56</ele>
        <time>2021-08-12T09:20:26.000Z</time>
      </trkpt>
      <trkpt lat="47.32674" lon="-2.4254">
        <ele>56</ele>
        <time>2021-08-12T09:20:33.000Z</time>
      </trkpt>
      <trkpt lat="47.32663" lon="-2.42506">
        <ele>56</ele>
        <time>2021-08-12T09:20:38.000Z</time>
      </trkpt>
      <trkpt lat="47.32658" lon="-2.42492">
        <ele>56</ele>
        <time>2021-08-12T09:20:40.000Z</time>
      </trkpt>
      <trkpt lat="47.3264" lon="-2.42445">
        <ele>56</ele>
        <time>2021-08-12T09:20:47.000Z</time>
      </trkpt>
      <trkpt lat="47.32624" lon="-2.42408">
        <ele>56</ele>
        <time>2021-08-12T09:20:53.000Z</time>
      </trkpt>
      <trkpt lat="47.32608" lon="-2.42374">
        <ele>56</ele>
        <time>2021-08-12T09:20:59.000Z</time>
      </trkpt>
      <trkpt lat="47.32603" lon="-2.42366">
        <ele>56</ele>
        <time>2021-08-12T09:21:02.000Z</time>
      </trkpt>
      <trkpt lat="47.32597" lon="-2.42356">
        <ele>56</ele>
        <time>2021-08-12T09:21:09.000Z</time>
      </trkpt>
      <trkpt lat="47.3259" lon="-2.42347">
        <ele>56</ele>
        <time>2021-08-12T09:21:15.000Z</time>
      </trkpt>
      <trkpt lat="47.32578" lon="-2.42327">
        <ele>56</ele>
        <time>2021-08-12T09:21:22.000Z</time>
      </trkpt>
      <trkpt lat="47.3256" lon="-2.42293">
        <ele>56</ele>
        <time>2021-08-12T09:21:30.000Z</time>
      </trkpt>
      <trkpt lat="47.3255" lon="-2.42273">
        <ele>56</ele>
        <time>2021-08-12T09:21:34.000Z</time>
      </trkpt>
      <trkpt lat="47.32545" lon="-2.42263">
        <ele>56</ele>
        <time>2021-08-12T09:21:36.000Z</time>
      </trkpt>
      <trkpt lat="47.32526" lon="-2.42231">
        <ele>56.400001525879</ele>
        <time>2021-08-12T09:21:43.000Z</time>
      </trkpt>
      <trkpt lat="47.32523" lon="-2.42225">
        <ele>56.799999237061</ele>
        <time>2021-08-12T09:21:44.000Z</time>
      </trkpt>
      <trkpt lat="47.3252" lon="-2.4222">
        <ele>57.599998474121</ele>
        <time>2021-08-12T09:21:45.000Z</time>
      </trkpt>
      <trkpt lat="47.32517" lon="-2.42215">
        <ele>58</ele>
        <time>2021-08-12T09:21:46.000Z</time>
      </trkpt>
      <trkpt lat="47.32511" lon="-2.42205">
        <ele>58</ele>
        <time>2021-08-12T09:21:48.000Z</time>
      </trkpt>
      <trkpt lat="47.32508" lon="-2.422">
        <ele>58</ele>
        <time>2021-08-12T09:21:49.000Z</time>
      </trkpt>
      <trkpt lat="47.32499" lon="-2.42185">
        <ele>58</ele>
        <time>2021-08-12T09:21:52.000Z</time>
      </trkpt>
      <trkpt lat="47.32494" lon="-2.42176">
        <ele>58</ele>
        <time>2021-08-12T09:21:54.000Z</time>
      </trkpt>
      <trkpt lat="47.32492" lon="-2.42171">
        <ele>58.400001525879</ele>
        <time>2021-08-12T09:21:55.000Z</time>
      </trkpt>
      <trkpt lat="47.32489" lon="-2.42166">
        <ele>58.799999237061</ele>
        <time>2021-08-12T09:21:56.000Z</time>
      </trkpt>
      <trkpt lat="47.32487" lon="-2.42161">
        <ele>59.200000762939</ele>
        <time>2021-08-12T09:21:57.000Z</time>
      </trkpt>
      <trkpt lat="47.32484" lon="-2.42157">
        <ele>59.799999237061</ele>
        <time>2021-08-12T09:21:58.000Z</time>
      </trkpt>
      <trkpt lat="47.32481" lon="-2.42153">
        <ele>60.200000762939</ele>
        <time>2021-08-12T09:21:59.000Z</time>
      </trkpt>
      <trkpt lat="47.32478" lon="-2.42148">
        <ele>60.200000762939</ele>
        <time>2021-08-12T09:22:00.000Z</time>
      </trkpt>
      <trkpt lat="47.32471" lon="-2.42141">
        <ele>60.200000762939</ele>
        <time>2021-08-12T09:22:02.000Z</time>
      </trkpt>
      <trkpt lat="47.3245" lon="-2.42123">
        <ele>60.200000762939</ele>
        <time>2021-08-12T09:22:08.000Z</time>
      </trkpt>
      <trkpt lat="47.32446" lon="-2.42119">
        <ele>60.599998474121</ele>
        <time>2021-08-12T09:22:09.000Z</time>
      </trkpt>
      <trkpt lat="47.32441" lon="-2.42115">
        <ele>61.400001525879</ele>
        <time>2021-08-12T09:22:10.000Z</time>
      </trkpt>
      <trkpt lat="47.32437" lon="-2.42111">
        <ele>61.799999237061</ele>
        <time>2021-08-12T09:22:11.000Z</time>
      </trkpt>
      <trkpt lat="47.32433" lon="-2.42107">
        <ele>62.200000762939</ele>
        <time>2021-08-12T09:22:12.000Z</time>
      </trkpt>
      <trkpt lat="47.3242" lon="-2.42094">
        <ele>62.200000762939</ele>
        <time>2021-08-12T09:22:15.000Z</time>
      </trkpt>
      <trkpt lat="47.32386" lon="-2.42054">
        <ele>62.200000762939</ele>
        <time>2021-08-12T09:22:22.000Z</time>
      </trkpt>
      <trkpt lat="47.32375" lon="-2.42042">
        <ele>61.799999237061</ele>
        <time>2021-08-12T09:22:24.000Z</time>
      </trkpt>
      <trkpt lat="47.3237" lon="-2.42036">
        <ele>61.400001525879</ele>
        <time>2021-08-12T09:22:25.000Z</time>
      </trkpt>
      <trkpt lat="47.32364" lon="-2.4203">
        <ele>61</ele>
        <time>2021-08-12T09:22:26.000Z</time>
      </trkpt>
      <trkpt lat="47.32359" lon="-2.42024">
        <ele>60.400001525879</ele>
        <time>2021-08-12T09:22:27.000Z</time>
      </trkpt>
      <trkpt lat="47.32354" lon="-2.42017">
        <ele>60</ele>
        <time>2021-08-12T09:22:28.000Z</time>
      </trkpt>
      <trkpt lat="47.32345" lon="-2.42004">
        <ele>60</ele>
        <time>2021-08-12T09:22:30.000Z</time>
      </trkpt>
      <trkpt lat="47.32328" lon="-2.41989">
        <ele>60</ele>
        <time>2021-08-12T09:22:33.000Z</time>
      </trkpt>
      <trkpt lat="47.32297" lon="-2.41959">
        <ele>59.599998474121</ele>
        <time>2021-08-12T09:22:39.000Z</time>
      </trkpt>
      <trkpt lat="47.32293" lon="-2.41954">
        <ele>59.200000762939</ele>
        <time>2021-08-12T09:22:40.000Z</time>
      </trkpt>
      <trkpt lat="47.32291" lon="-2.4195">
        <ele>58.799999237061</ele>
        <time>2021-08-12T09:22:41.000Z</time>
      </trkpt>
      <trkpt lat="47.32289" lon="-2.41946">
        <ele>58.400001525879</ele>
        <time>2021-08-12T09:22:42.000Z</time>
      </trkpt>
      <trkpt lat="47.32288" lon="-2.41943">
        <ele>58</ele>
        <time>2021-08-12T09:22:43.000Z</time>
      </trkpt>
      <trkpt lat="47.32278" lon="-2.41924">
        <ele>58</ele>
        <time>2021-08-12T09:22:49.000Z</time>
      </trkpt>
      <trkpt lat="47.32263" lon="-2.41903">
        <ele>58</ele>
        <time>2021-08-12T09:22:54.000Z</time>
      </trkpt>
      <trkpt lat="47.32252" lon="-2.41881">
        <ele>58</ele>
        <time>2021-08-12T09:22:59.000Z</time>
      </trkpt>
      <trkpt lat="47.32246" lon="-2.41861">
        <ele>58</ele>
        <time>2021-08-12T09:23:03.000Z</time>
      </trkpt>
      <trkpt lat="47.32252" lon="-2.41841">
        <ele>58</ele>
        <time>2021-08-12T09:23:06.000Z</time>
      </trkpt>
      <trkpt lat="47.32259" lon="-2.41829">
        <ele>58</ele>
        <time>2021-08-12T09:23:08.000Z</time>
      </trkpt>
      <trkpt lat="47.32272" lon="-2.41801">
        <ele>58</ele>
        <time>2021-08-12T09:23:12.000Z</time>
      </trkpt>
      <trkpt lat="47.32278" lon="-2.41787">
        <ele>58</ele>
        <time>2021-08-12T09:23:14.000Z</time>
      </trkpt>
      <trkpt lat="47.32282" lon="-2.41765">
        <ele>58</ele>
        <time>2021-08-12T09:23:17.000Z</time>
      </trkpt>
      <trkpt lat="47.32284" lon="-2.41751">
        <ele>58</ele>
        <time>2021-08-12T09:23:19.000Z</time>
      </trkpt>
      <trkpt lat="47.32289" lon="-2.41738">
        <ele>58</ele>
        <time>2021-08-12T09:23:21.000Z</time>
      </trkpt>
      <trkpt lat="47.32299" lon="-2.4171">
        <ele>58</ele>
        <time>2021-08-12T09:23:25.000Z</time>
      </trkpt>
      <trkpt lat="47.323" lon="-2.41689">
        <ele>58</ele>
        <time>2021-08-12T09:23:28.000Z</time>
      </trkpt>
      <trkpt lat="47.323" lon="-2.41682">
        <ele>58</ele>
        <time>2021-08-12T09:23:29.000Z</time>
      </trkpt>
      <trkpt lat="47.323" lon="-2.41665">
        <ele>58.400001525879</ele>
        <time>2021-08-12T09:23:32.000Z</time>
      </trkpt>
      <trkpt lat="47.323" lon="-2.41659">
        <ele>58.799999237061</ele>
        <time>2021-08-12T09:23:33.000Z</time>
      </trkpt>
      <trkpt lat="47.32301" lon="-2.41653">
        <ele>59.200000762939</ele>
        <time>2021-08-12T09:23:34.000Z</time>
      </trkpt>
      <trkpt lat="47.32302" lon="-2.41648">
        <ele>59.799999237061</ele>
        <time>2021-08-12T09:23:35.000Z</time>
      </trkpt>
      <trkpt lat="47.32303" lon="-2.41642">
        <ele>60.200000762939</ele>
        <time>2021-08-12T09:23:36.000Z</time>
      </trkpt>
      <trkpt lat="47.32311" lon="-2.41624">
        <ele>60.200000762939</ele>
        <time>2021-08-12T09:23:39.000Z</time>
      </trkpt>
      <trkpt lat="47.32313" lon="-2.41617">
        <ele>60.200000762939</ele>
        <time>2021-08-12T09:23:40.000Z</time>
      </trkpt>
      <trkpt lat="47.32323" lon="-2.41578">
        <ele>60.200000762939</ele>
        <time>2021-08-12T09:23:46.000Z</time>
      </trkpt>
      <trkpt lat="47.3234" lon="-2.41554">
        <ele>60.200000762939</ele>
        <time>2021-08-12T09:23:51.000Z</time>
      </trkpt>
      <trkpt lat="47.32344" lon="-2.4155">
        <ele>60.200000762939</ele>
        <time>2021-08-12T09:23:52.000Z</time>
      </trkpt>
      <trkpt lat="47.32349" lon="-2.41548">
        <ele>60.200000762939</ele>
        <time>2021-08-12T09:23:53.000Z</time>
      </trkpt>
      <trkpt lat="47.32365" lon="-2.41546">
        <ele>60.200000762939</ele>
        <time>2021-08-12T09:23:56.000Z</time>
      </trkpt>
      <trkpt lat="47.3237" lon="-2.41547">
        <ele>60.200000762939</ele>
        <time>2021-08-12T09:23:57.000Z</time>
      </trkpt>
      <trkpt lat="47.32381" lon="-2.41552">
        <ele>60.200000762939</ele>
        <time>2021-08-12T09:23:59.000Z</time>
      </trkpt>
      <trkpt lat="47.32391" lon="-2.41558">
        <ele>60.200000762939</ele>
        <time>2021-08-12T09:24:01.000Z</time>
      </trkpt>
      <trkpt lat="47.32396" lon="-2.41561">
        <ele>60.200000762939</ele>
        <time>2021-08-12T09:24:02.000Z</time>
      </trkpt>
      <trkpt lat="47.3241" lon="-2.41567">
        <ele>60.200000762939</ele>
        <time>2021-08-12T09:24:05.000Z</time>
      </trkpt>
      <trkpt lat="47.32421" lon="-2.41567">
        <ele>60.200000762939</ele>
        <time>2021-08-12T09:24:07.000Z</time>
      </trkpt>
      <trkpt lat="47.3246" lon="-2.41572">
        <ele>60.200000762939</ele>
        <time>2021-08-12T09:24:14.000Z</time>
      </trkpt>
      <trkpt lat="47.32492" lon="-2.41585">
        <ele>60.200000762939</ele>
        <time>2021-08-12T09:24:20.000Z</time>
      </trkpt>
      <trkpt lat="47.32513" lon="-2.41588">
        <ele>60.200000762939</ele>
        <time>2021-08-12T09:24:24.000Z</time>
      </trkpt>
      <trkpt lat="47.32519" lon="-2.41586">
        <ele>60.200000762939</ele>
        <time>2021-08-12T09:24:25.000Z</time>
      </trkpt>
      <trkpt lat="47.32534" lon="-2.41581">
        <ele>60.200000762939</ele>
        <time>2021-08-12T09:24:28.000Z</time>
      </trkpt>
      <trkpt lat="47.32548" lon="-2.41577">
        <ele>60.200000762939</ele>
        <time>2021-08-12T09:24:31.000Z</time>
      </trkpt>
      <trkpt lat="47.32553" lon="-2.41578">
        <ele>60.200000762939</ele>
        <time>2021-08-12T09:24:32.000Z</time>
      </trkpt>
      <trkpt lat="47.32567" lon="-2.41586">
        <ele>60.200000762939</ele>
        <time>2021-08-12T09:24:35.000Z</time>
      </trkpt>
      <trkpt lat="47.32572" lon="-2.41589">
        <ele>60.200000762939</ele>
        <time>2021-08-12T09:24:36.000Z</time>
      </trkpt>
      <trkpt lat="47.32593" lon="-2.41607">
        <ele>60.200000762939</ele>
        <time>2021-08-12T09:24:41.000Z</time>
      </trkpt>
      <trkpt lat="47.32607" lon="-2.41604">
        <ele>60.200000762939</ele>
        <time>2021-08-12T09:24:44.000Z</time>
      </trkpt>
      <trkpt lat="47.32621" lon="-2.41604">
        <ele>60.200000762939</ele>
        <time>2021-08-12T09:24:47.000Z</time>
      </trkpt>
      <trkpt lat="47.3263" lon="-2.41607">
        <ele>60.200000762939</ele>
        <time>2021-08-12T09:24:49.000Z</time>
      </trkpt>
      <trkpt lat="47.32664" lon="-2.41619">
        <ele>60.200000762939</ele>
        <time>2021-08-12T09:24:55.000Z</time>
      </trkpt>
      <trkpt lat="47.3267" lon="-2.41621">
        <ele>59.799999237061</ele>
        <time>2021-08-12T09:24:56.000Z</time>
      </trkpt>
      <trkpt lat="47.32676" lon="-2.41623">
        <ele>59.400001525879</ele>
        <time>2021-08-12T09:24:57.000Z</time>
      </trkpt>
      <trkpt lat="47.32681" lon="-2.41625">
        <ele>59</ele>
        <time>2021-08-12T09:24:58.000Z</time>
      </trkpt>
      <trkpt lat="47.32686" lon="-2.41626">
        <ele>58.599998474121</ele>
        <time>2021-08-12T09:24:59.000Z</time>
      </trkpt>
      <trkpt lat="47.3269" lon="-2.41624">
        <ele>58</ele>
        <time>2021-08-12T09:25:00.000Z</time>
      </trkpt>
      <trkpt lat="47.32693" lon="-2.4162">
        <ele>58</ele>
        <time>2021-08-12T09:25:01.000Z</time>
      </trkpt>
      <trkpt lat="47.32698" lon="-2.41609">
        <ele>57.599998474121</ele>
        <time>2021-08-12T09:25:05.000Z</time>
      </trkpt>
      <trkpt lat="47.32698" lon="-2.41608">
        <ele>57.200000762939</ele>
        <time>2021-08-12T09:25:06.000Z</time>
      </trkpt>
      <trkpt lat="47.32699" lon="-2.41607">
        <ele>56.799999237061</ele>
        <time>2021-08-12T09:25:07.000Z</time>
      </trkpt>
      <trkpt lat="47.32699" lon="-2.41606">
        <ele>56.400001525879</ele>
        <time>2021-08-12T09:25:08.000Z</time>
      </trkpt>
      <trkpt lat="47.32699" lon="-2.41604">
        <ele>56</ele>
        <time>2021-08-12T09:25:09.000Z</time>
      </trkpt>
      <trkpt lat="47.32701" lon="-2.41598">
        <ele>56</ele>
        <time>2021-08-12T09:25:12.000Z</time>
      </trkpt>
      <trkpt lat="47.32702" lon="-2.41597">
        <ele>56</ele>
        <time>2021-08-12T09:25:14.000Z</time>
      </trkpt>
      <trkpt lat="47.32704" lon="-2.41594">
        <ele>56</ele>
        <time>2021-08-12T09:25:16.000Z</time>
      </trkpt>
      <trkpt lat="47.32705" lon="-2.41582">
        <ele>56</ele>
        <time>2021-08-12T09:25:19.000Z</time>
      </trkpt>
      <trkpt lat="47.32702" lon="-2.41577">
        <ele>56</ele>
        <time>2021-08-12T09:25:22.000Z</time>
      </trkpt>
      <trkpt lat="47.32704" lon="-2.41564">
        <ele>56</ele>
        <time>2021-08-12T09:25:25.000Z</time>
      </trkpt>
      <trkpt lat="47.32704" lon="-2.4155">
        <ele>56</ele>
        <time>2021-08-12T09:25:28.000Z</time>
      </trkpt>
      <trkpt lat="47.32703" lon="-2.41547">
        <ele>56</ele>
        <time>2021-08-12T09:25:29.000Z</time>
      </trkpt>
      <trkpt lat="47.32699" lon="-2.41543">
        <ele>56</ele>
        <time>2021-08-12T09:25:32.000Z</time>
      </trkpt>
      <trkpt lat="47.32698" lon="-2.41543">
        <ele>56</ele>
        <time>2021-08-12T09:25:33.000Z</time>
      </trkpt>
      <trkpt lat="47.32696" lon="-2.41543">
        <ele>56</ele>
        <time>2021-08-12T09:25:36.000Z</time>
      </trkpt>
      <trkpt lat="47.32691" lon="-2.41542">
        <ele>56</ele>
        <time>2021-08-12T09:25:39.000Z</time>
      </trkpt>
      <trkpt lat="47.3268" lon="-2.41538">
        <ele>56</ele>
        <time>2021-08-12T09:25:45.000Z</time>
      </trkpt>
      <trkpt lat="47.32669" lon="-2.41535">
        <ele>56</ele>
        <time>2021-08-12T09:25:50.000Z</time>
      </trkpt>
      <trkpt lat="47.32652" lon="-2.41531">
        <ele>56</ele>
        <time>2021-08-12T09:25:55.000Z</time>
      </trkpt>
      <trkpt lat="47.32627" lon="-2.41527">
        <ele>56</ele>
        <time>2021-08-12T09:26:01.000Z</time>
      </trkpt>
      <trkpt lat="47.32618" lon="-2.41525">
        <ele>56.400001525879</ele>
        <time>2021-08-12T09:26:03.000Z</time>
      </trkpt>
      <trkpt lat="47.32614" lon="-2.41524">
        <ele>56.799999237061</ele>
        <time>2021-08-12T09:26:04.000Z</time>
      </trkpt>
      <trkpt lat="47.3261" lon="-2.41523">
        <ele>57.200000762939</ele>
        <time>2021-08-12T09:26:05.000Z</time>
      </trkpt>
      <trkpt lat="47.32606" lon="-2.41523">
        <ele>57.599998474121</ele>
        <time>2021-08-12T09:26:06.000Z</time>
      </trkpt>
      <trkpt lat="47.32601" lon="-2.41521">
        <ele>58</ele>
        <time>2021-08-12T09:26:07.000Z</time>
      </trkpt>
      <trkpt lat="47.32589" lon="-2.41519">
        <ele>58</ele>
        <time>2021-08-12T09:26:10.000Z</time>
      </trkpt>
      <trkpt lat="47.32582" lon="-2.41515">
        <ele>58</ele>
        <time>2021-08-12T09:26:12.000Z</time>
      </trkpt>
      <trkpt lat="47.32578" lon="-2.41508">
        <ele>58</ele>
        <time>2021-08-12T09:26:14.000Z</time>
      </trkpt>
      <trkpt lat="47.32573" lon="-2.41487">
        <ele>58</ele>
        <time>2021-08-12T09:26:18.000Z</time>
      </trkpt>
      <trkpt lat="47.32565" lon="-2.41457">
        <ele>58</ele>
        <time>2021-08-12T09:26:24.000Z</time>
      </trkpt>
      <trkpt lat="47.32559" lon="-2.4145">
        <ele>58</ele>
        <time>2021-08-12T09:26:26.000Z</time>
      </trkpt>
      <trkpt lat="47.32558" lon="-2.41445">
        <ele>58</ele>
        <time>2021-08-12T09:26:27.000Z</time>
      </trkpt>
      <trkpt lat="47.32544" lon="-2.41419">
        <ele>58</ele>
        <time>2021-08-12T09:26:32.000Z</time>
      </trkpt>
      <trkpt lat="47.32541" lon="-2.41414">
        <ele>58.400001525879</ele>
        <time>2021-08-12T09:26:33.000Z</time>
      </trkpt>
      <trkpt lat="47.32538" lon="-2.41408">
        <ele>58.799999237061</ele>
        <time>2021-08-12T09:26:34.000Z</time>
      </trkpt>
      <trkpt lat="47.32536" lon="-2.41403">
        <ele>59.400001525879</ele>
        <time>2021-08-12T09:26:35.000Z</time>
      </trkpt>
      <trkpt lat="47.32533" lon="-2.41397">
        <ele>59.799999237061</ele>
        <time>2021-08-12T09:26:36.000Z</time>
      </trkpt>
      <trkpt lat="47.3253" lon="-2.41391">
        <ele>60.200000762939</ele>
        <time>2021-08-12T09:26:37.000Z</time>
      </trkpt>
      <trkpt lat="47.32522" lon="-2.41373">
        <ele>60.200000762939</ele>
        <time>2021-08-12T09:26:40.000Z</time>
      </trkpt>
      <trkpt lat="47.32496" lon="-2.41326">
        <ele>60.200000762939</ele>
        <time>2021-08-12T09:26:48.000Z</time>
      </trkpt>
      <trkpt lat="47.32471" lon="-2.41281">
        <ele>60.200000762939</ele>
        <time>2021-08-12T09:26:56.000Z</time>
      </trkpt>
      <trkpt lat="47.3246" lon="-2.41257">
        <ele>60.200000762939</ele>
        <time>2021-08-12T09:27:01.000Z</time>
      </trkpt>
      <trkpt lat="47.32436" lon="-2.41213">
        <ele>60.200000762939</ele>
        <time>2021-08-12T09:27:09.000Z</time>
      </trkpt>
      <trkpt lat="47.32433" lon="-2.41207">
        <ele>60.599998474121</ele>
        <time>2021-08-12T09:27:10.000Z</time>
      </trkpt>
      <trkpt lat="47.32431" lon="-2.41202">
        <ele>61</ele>
        <time>2021-08-12T09:27:11.000Z</time>
      </trkpt>
      <trkpt lat="47.32429" lon="-2.41196">
        <ele>61.400001525879</ele>
        <time>2021-08-12T09:27:12.000Z</time>
      </trkpt>
      <trkpt lat="47.32426" lon="-2.41192">
        <ele>61.799999237061</ele>
        <time>2021-08-12T09:27:13.000Z</time>
      </trkpt>
      <trkpt lat="47.32423" lon="-2.41188">
        <ele>62.200000762939</ele>
        <time>2021-08-12T09:27:14.000Z</time>
      </trkpt>
      <trkpt lat="47.32416" lon="-2.41171">
        <ele>62.200000762939</ele>
        <time>2021-08-12T09:27:18.000Z</time>
      </trkpt>
      <trkpt lat="47.32403" lon="-2.41148">
        <ele>62.200000762939</ele>
        <time>2021-08-12T09:27:23.000Z</time>
      </trkpt>
      <trkpt lat="47.324" lon="-2.41143">
        <ele>62.200000762939</ele>
        <time>2021-08-12T09:27:24.000Z</time>
      </trkpt>
      <trkpt lat="47.32382" lon="-2.41106">
        <ele>62.200000762939</ele>
        <time>2021-08-12T09:27:30.000Z</time>
      </trkpt>
      <trkpt lat="47.32373" lon="-2.41088">
        <ele>62.200000762939</ele>
        <time>2021-08-12T09:27:33.000Z</time>
      </trkpt>
      <trkpt lat="47.32365" lon="-2.4107">
        <ele>62.200000762939</ele>
        <time>2021-08-12T09:27:36.000Z</time>
      </trkpt>
      <trkpt lat="47.32349" lon="-2.41047">
        <ele>62.200000762939</ele>
        <time>2021-08-12T09:27:40.000Z</time>
      </trkpt>
      <trkpt lat="47.32346" lon="-2.4104">
        <ele>62.200000762939</ele>
        <time>2021-08-12T09:27:41.000Z</time>
      </trkpt>
      <trkpt lat="47.32317" lon="-2.40988">
        <ele>62.200000762939</ele>
        <time>2021-08-12T09:27:49.000Z</time>
      </trkpt>
      <trkpt lat="47.32289" lon="-2.40935">
        <ele>62.200000762939</ele>
        <time>2021-08-12T09:27:56.000Z</time>
      </trkpt>
      <trkpt lat="47.32255" lon="-2.40872">
        <ele>62.200000762939</ele>
        <time>2021-08-12T09:28:04.000Z</time>
      </trkpt>
      <trkpt lat="47.32251" lon="-2.40865">
        <ele>61.799999237061</ele>
        <time>2021-08-12T09:28:05.000Z</time>
      </trkpt>
      <trkpt lat="47.32246" lon="-2.40858">
        <ele>61.400001525879</ele>
        <time>2021-08-12T09:28:06.000Z</time>
      </trkpt>
      <trkpt lat="47.32242" lon="-2.40851">
        <ele>61</ele>
        <time>2021-08-12T09:28:07.000Z</time>
      </trkpt>
      <trkpt lat="47.32239" lon="-2.40844">
        <ele>60.599998474121</ele>
        <time>2021-08-12T09:28:08.000Z</time>
      </trkpt>
      <trkpt lat="47.32236" lon="-2.4084">
        <ele>60.200000762939</ele>
        <time>2021-08-12T09:28:09.000Z</time>
      </trkpt>
      <trkpt lat="47.32234" lon="-2.40836">
        <ele>60.200000762939</ele>
        <time>2021-08-12T09:28:10.000Z</time>
      </trkpt>
      <trkpt lat="47.32223" lon="-2.40818">
        <ele>60.200000762939</ele>
        <time>2021-08-12T09:28:15.000Z</time>
      </trkpt>
      <trkpt lat="47.3222" lon="-2.40816">
        <ele>60.200000762939</ele>
        <time>2021-08-12T09:28:16.000Z</time>
      </trkpt>
      <trkpt lat="47.32214" lon="-2.4081">
        <ele>60.200000762939</ele>
        <time>2021-08-12T09:28:18.000Z</time>
      </trkpt>
      <trkpt lat="47.32208" lon="-2.40798">
        <ele>60.200000762939</ele>
        <time>2021-08-12T09:28:21.000Z</time>
      </trkpt>
      <trkpt lat="47.32203" lon="-2.40791">
        <ele>59.799999237061</ele>
        <time>2021-08-12T09:28:23.000Z</time>
      </trkpt>
      <trkpt lat="47.32201" lon="-2.40789">
        <ele>59.400001525879</ele>
        <time>2021-08-12T09:28:24.000Z</time>
      </trkpt>
      <trkpt lat="47.32198" lon="-2.40786">
        <ele>59</ele>
        <time>2021-08-12T09:28:25.000Z</time>
      </trkpt>
      <trkpt lat="47.32196" lon="-2.40783">
        <ele>58.599998474121</ele>
        <time>2021-08-12T09:28:26.000Z</time>
      </trkpt>
      <trkpt lat="47.32194" lon="-2.40778">
        <ele>58.200000762939</ele>
        <time>2021-08-12T09:28:27.000Z</time>
      </trkpt>
      <trkpt lat="47.32178" lon="-2.40754">
        <ele>58.200000762939</ele>
        <time>2021-08-12T09:28:32.000Z</time>
      </trkpt>
      <trkpt lat="47.3215" lon="-2.40721">
        <ele>58.200000762939</ele>
        <time>2021-08-12T09:28:38.000Z</time>
      </trkpt>
      <trkpt lat="47.32118" lon="-2.40685">
        <ele>58.200000762939</ele>
        <time>2021-08-12T09:28:44.000Z</time>
      </trkpt>
      <trkpt lat="47.3208" lon="-2.40646">
        <ele>58.200000762939</ele>
        <time>2021-08-12T09:28:51.000Z</time>
      </trkpt>
      <trkpt lat="47.32056" lon="-2.40621">
        <ele>58.200000762939</ele>
        <time>2021-08-12T09:28:56.000Z</time>
      </trkpt>
      <trkpt lat="47.32051" lon="-2.40616">
        <ele>58.200000762939</ele>
        <time>2021-08-12T09:28:57.000Z</time>
      </trkpt>
      <trkpt lat="47.32022" lon="-2.40591">
        <ele>58.200000762939</ele>
        <time>2021-08-12T09:29:03.000Z</time>
      </trkpt>
      <trkpt lat="47.31994" lon="-2.40569">
        <ele>57.799999237061</ele>
        <time>2021-08-12T09:29:09.000Z</time>
      </trkpt>
      <trkpt lat="47.3199" lon="-2.40566">
        <ele>57.400001525879</ele>
        <time>2021-08-12T09:29:10.000Z</time>
      </trkpt>
      <trkpt lat="47.31985" lon="-2.40562">
        <ele>56.799999237061</ele>
        <time>2021-08-12T09:29:11.000Z</time>
      </trkpt>
      <trkpt lat="47.3198" lon="-2.40559">
        <ele>56.400001525879</ele>
        <time>2021-08-12T09:29:12.000Z</time>
      </trkpt>
      <trkpt lat="47.31975" lon="-2.40554">
        <ele>56</ele>
        <time>2021-08-12T09:29:13.000Z</time>
      </trkpt>
      <trkpt lat="47.31954" lon="-2.40538">
        <ele>56</ele>
        <time>2021-08-12T09:29:17.000Z</time>
      </trkpt>
      <trkpt lat="47.3194" lon="-2.40528">
        <ele>56</ele>
        <time>2021-08-12T09:29:20.000Z</time>
      </trkpt>
      <trkpt lat="47.31931" lon="-2.4052">
        <ele>56</ele>
        <time>2021-08-12T09:29:22.000Z</time>
      </trkpt>
      <trkpt lat="47.31895" lon="-2.40493">
        <ele>56</ele>
        <time>2021-08-12T09:29:29.000Z</time>
      </trkpt>
      <trkpt lat="47.3189" lon="-2.4049">
        <ele>55.599998474121</ele>
        <time>2021-08-12T09:29:30.000Z</time>
      </trkpt>
      <trkpt lat="47.31885" lon="-2.40486">
        <ele>55.200000762939</ele>
        <time>2021-08-12T09:29:31.000Z</time>
      </trkpt>
      <trkpt lat="47.31881" lon="-2.40482">
        <ele>54.799999237061</ele>
        <time>2021-08-12T09:29:32.000Z</time>
      </trkpt>
      <trkpt lat="47.31876" lon="-2.40479">
        <ele>54.400001525879</ele>
        <time>2021-08-12T09:29:33.000Z</time>
      </trkpt>
      <trkpt lat="47.31872" lon="-2.40475">
        <ele>54</ele>
        <time>2021-08-12T09:29:34.000Z</time>
      </trkpt>
      <trkpt lat="47.31857" lon="-2.40463">
        <ele>54</ele>
        <time>2021-08-12T09:29:37.000Z</time>
      </trkpt>
      <trkpt lat="47.31828" lon="-2.40441">
        <ele>54</ele>
        <time>2021-08-12T09:29:43.000Z</time>
      </trkpt>
      <trkpt lat="47.31792" lon="-2.40415">
        <ele>54</ele>
        <time>2021-08-12T09:29:50.000Z</time>
      </trkpt>
      <trkpt lat="47.31761" lon="-2.40391">
        <ele>53.599998474121</ele>
        <time>2021-08-12T09:29:56.000Z</time>
      </trkpt>
      <trkpt lat="47.31756" lon="-2.40387">
        <ele>53.200000762939</ele>
        <time>2021-08-12T09:29:57.000Z</time>
      </trkpt>
      <trkpt lat="47.31751" lon="-2.40383">
        <ele>52.799999237061</ele>
        <time>2021-08-12T09:29:58.000Z</time>
      </trkpt>
      <trkpt lat="47.31745" lon="-2.40379">
        <ele>51.799999237061</ele>
        <time>2021-08-12T09:29:59.000Z</time>
      </trkpt>
      <trkpt lat="47.3173" lon="-2.40368">
        <ele>51.799999237061</ele>
        <time>2021-08-12T09:30:02.000Z</time>
      </trkpt>
      <trkpt lat="47.31704" lon="-2.40348">
        <ele>51.799999237061</ele>
        <time>2021-08-12T09:30:07.000Z</time>
      </trkpt>
      <trkpt lat="47.31698" lon="-2.40343">
        <ele>51.799999237061</ele>
        <time>2021-08-12T09:30:08.000Z</time>
      </trkpt>
      <trkpt lat="47.31684" lon="-2.40332">
        <ele>51.799999237061</ele>
        <time>2021-08-12T09:30:12.000Z</time>
      </trkpt>
      <trkpt lat="47.31683" lon="-2.40328">
        <ele>51.799999237061</ele>
        <time>2021-08-12T09:30:13.000Z</time>
      </trkpt>
      <trkpt lat="47.31685" lon="-2.40318">
        <ele>51.799999237061</ele>
        <time>2021-08-12T09:30:15.000Z</time>
      </trkpt>
      <trkpt lat="47.31688" lon="-2.40308">
        <ele>51.799999237061</ele>
        <time>2021-08-12T09:30:17.000Z</time>
      </trkpt>
      <trkpt lat="47.31697" lon="-2.40293">
        <ele>51.799999237061</ele>
        <time>2021-08-12T09:30:20.000Z</time>
      </trkpt>
      <trkpt lat="47.31733" lon="-2.40247">
        <ele>51.799999237061</ele>
        <time>2021-08-12T09:30:28.000Z</time>
      </trkpt>
      <trkpt lat="47.31741" lon="-2.40233">
        <ele>51.799999237061</ele>
        <time>2021-08-12T09:30:30.000Z</time>
      </trkpt>
      <trkpt lat="47.31757" lon="-2.40202">
        <ele>51.799999237061</ele>
        <time>2021-08-12T09:30:34.000Z</time>
      </trkpt>
      <trkpt lat="47.31786" lon="-2.40156">
        <ele>51.799999237061</ele>
        <time>2021-08-12T09:30:41.000Z</time>
      </trkpt>
      <trkpt lat="47.31813" lon="-2.40121">
        <ele>51.799999237061</ele>
        <time>2021-08-12T09:30:47.000Z</time>
      </trkpt>
      <trkpt lat="47.31849" lon="-2.40068">
        <ele>51.799999237061</ele>
        <time>2021-08-12T09:30:55.000Z</time>
      </trkpt>
      <trkpt lat="47.31884" lon="-2.40021">
        <ele>51.799999237061</ele>
        <time>2021-08-12T09:31:02.000Z</time>
      </trkpt>
      <trkpt lat="47.31908" lon="-2.39987">
        <ele>51.799999237061</ele>
        <time>2021-08-12T09:31:08.000Z</time>
      </trkpt>
      <trkpt lat="47.31933" lon="-2.39956">
        <ele>51.799999237061</ele>
        <time>2021-08-12T09:31:14.000Z</time>
      </trkpt>
      <trkpt lat="47.31938" lon="-2.39952">
        <ele>51.799999237061</ele>
        <time>2021-08-12T09:31:15.000Z</time>
      </trkpt>
      <trkpt lat="47.31965" lon="-2.39926">
        <ele>51.799999237061</ele>
        <time>2021-08-12T09:31:21.000Z</time>
      </trkpt>
      <trkpt lat="47.32" lon="-2.39894">
        <ele>52.400001525879</ele>
        <time>2021-08-12T09:31:28.000Z</time>
      </trkpt>
      <trkpt lat="47.32005" lon="-2.3989">
        <ele>52.799999237061</ele>
        <time>2021-08-12T09:31:29.000Z</time>
      </trkpt>
      <trkpt lat="47.3201" lon="-2.39886">
        <ele>53.200000762939</ele>
        <time>2021-08-12T09:31:30.000Z</time>
      </trkpt>
      <trkpt lat="47.32015" lon="-2.39882">
        <ele>53.599998474121</ele>
        <time>2021-08-12T09:31:31.000Z</time>
      </trkpt>
      <trkpt lat="47.3202" lon="-2.39877">
        <ele>54</ele>
        <time>2021-08-12T09:31:32.000Z</time>
      </trkpt>
      <trkpt lat="47.32029" lon="-2.39869">
        <ele>54</ele>
        <time>2021-08-12T09:31:34.000Z</time>
      </trkpt>
      <trkpt lat="47.32048" lon="-2.39851">
        <ele>54.799999237061</ele>
        <time>2021-08-12T09:31:38.000Z</time>
      </trkpt>
      <trkpt lat="47.32053" lon="-2.39847">
        <ele>55.200000762939</ele>
        <time>2021-08-12T09:31:39.000Z</time>
      </trkpt>
      <trkpt lat="47.32058" lon="-2.39844">
        <ele>55.599998474121</ele>
        <time>2021-08-12T09:31:40.000Z</time>
      </trkpt>
      <trkpt lat="47.32062" lon="-2.39839">
        <ele>56</ele>
        <time>2021-08-12T09:31:41.000Z</time>
      </trkpt>
      <trkpt lat="47.32081" lon="-2.39824">
        <ele>56</ele>
        <time>2021-08-12T09:31:45.000Z</time>
      </trkpt>
      <trkpt lat="47.32083" lon="-2.39818">
        <ele>56</ele>
        <time>2021-08-12T09:31:46.000Z</time>
      </trkpt>
      <trkpt lat="47.32085" lon="-2.39795">
        <ele>56</ele>
        <time>2021-08-12T09:31:49.000Z</time>
      </trkpt>
      <trkpt lat="47.32078" lon="-2.39772">
        <ele>56</ele>
        <time>2021-08-12T09:31:52.000Z</time>
      </trkpt>
      <trkpt lat="47.32069" lon="-2.39739">
        <ele>56</ele>
        <time>2021-08-12T09:31:56.000Z</time>
      </trkpt>
      <trkpt lat="47.32052" lon="-2.39671">
        <ele>56</ele>
        <time>2021-08-12T09:32:04.000Z</time>
      </trkpt>
      <trkpt lat="47.32038" lon="-2.39614">
        <ele>56</ele>
        <time>2021-08-12T09:32:10.000Z</time>
      </trkpt>
      <trkpt lat="47.32023" lon="-2.39554">
        <ele>56</ele>
        <time>2021-08-12T09:32:16.000Z</time>
      </trkpt>
      <trkpt lat="47.32012" lon="-2.39506">
        <ele>56</ele>
        <time>2021-08-12T09:32:21.000Z</time>
      </trkpt>
      <trkpt lat="47.31992" lon="-2.39422">
        <ele>56</ele>
        <time>2021-08-12T09:32:29.000Z</time>
      </trkpt>
      <trkpt lat="47.3198" lon="-2.39365">
        <ele>55.599998474121</ele>
        <time>2021-08-12T09:32:34.000Z</time>
      </trkpt>
      <trkpt lat="47.31977" lon="-2.39354">
        <ele>55.200000762939</ele>
        <time>2021-08-12T09:32:35.000Z</time>
      </trkpt>
      <trkpt lat="47.31974" lon="-2.39343">
        <ele>54.799999237061</ele>
        <time>2021-08-12T09:32:36.000Z</time>
      </trkpt>
      <trkpt lat="47.3197" lon="-2.39333">
        <ele>54.400001525879</ele>
        <time>2021-08-12T09:32:37.000Z</time>
      </trkpt>
      <trkpt lat="47.31967" lon="-2.39321">
        <ele>53.799999237061</ele>
        <time>2021-08-12T09:32:38.000Z</time>
      </trkpt>
      <trkpt lat="47.31962" lon="-2.39298">
        <ele>53.799999237061</ele>
        <time>2021-08-12T09:32:40.000Z</time>
      </trkpt>
      <trkpt lat="47.3194" lon="-2.39222">
        <ele>53.799999237061</ele>
        <time>2021-08-12T09:32:47.000Z</time>
      </trkpt>
      <trkpt lat="47.31937" lon="-2.39211">
        <ele>53.400001525879</ele>
        <time>2021-08-12T09:32:48.000Z</time>
      </trkpt>
      <trkpt lat="47.31933" lon="-2.39201">
        <ele>53</ele>
        <time>2021-08-12T09:32:49.000Z</time>
      </trkpt>
      <trkpt lat="47.3193" lon="-2.39191">
        <ele>52.599998474121</ele>
        <time>2021-08-12T09:32:50.000Z</time>
      </trkpt>
      <trkpt lat="47.31927" lon="-2.39181">
        <ele>52</ele>
        <time>2021-08-12T09:32:51.000Z</time>
      </trkpt>
      <trkpt lat="47.31924" lon="-2.3917">
        <ele>51.599998474121</ele>
        <time>2021-08-12T09:32:52.000Z</time>
      </trkpt>
      <trkpt lat="47.31921" lon="-2.39158">
        <ele>51.599998474121</ele>
        <time>2021-08-12T09:32:53.000Z</time>
      </trkpt>
      <trkpt lat="47.31901" lon="-2.39098">
        <ele>51.599998474121</ele>
        <time>2021-08-12T09:32:59.000Z</time>
      </trkpt>
      <trkpt lat="47.31884" lon="-2.39038">
        <ele>51.200000762939</ele>
        <time>2021-08-12T09:33:05.000Z</time>
      </trkpt>
      <trkpt lat="47.31881" lon="-2.39028">
        <ele>50.799999237061</ele>
        <time>2021-08-12T09:33:06.000Z</time>
      </trkpt>
      <trkpt lat="47.31879" lon="-2.39018">
        <ele>50.400001525879</ele>
        <time>2021-08-12T09:33:07.000Z</time>
      </trkpt>
      <trkpt lat="47.31875" lon="-2.39008">
        <ele>50</ele>
        <time>2021-08-12T09:33:08.000Z</time>
      </trkpt>
      <trkpt lat="47.31872" lon="-2.38998">
        <ele>49.599998474121</ele>
        <time>2021-08-12T09:33:09.000Z</time>
      </trkpt>
      <trkpt lat="47.31861" lon="-2.3897">
        <ele>49.599998474121</ele>
        <time>2021-08-12T09:33:12.000Z</time>
      </trkpt>
      <trkpt lat="47.31847" lon="-2.38923">
        <ele>49.599998474121</ele>
        <time>2021-08-12T09:33:17.000Z</time>
      </trkpt>
      <trkpt lat="47.31837" lon="-2.38877">
        <ele>49.599998474121</ele>
        <time>2021-08-12T09:33:22.000Z</time>
      </trkpt>
      <trkpt lat="47.31824" lon="-2.38814">
        <ele>49.599998474121</ele>
        <time>2021-08-12T09:33:29.000Z</time>
      </trkpt>
      <trkpt lat="47.31822" lon="-2.38785">
        <ele>49.599998474121</ele>
        <time>2021-08-12T09:33:32.000Z</time>
      </trkpt>
      <trkpt lat="47.31821" lon="-2.38756">
        <ele>49.599998474121</ele>
        <time>2021-08-12T09:33:35.000Z</time>
      </trkpt>
      <trkpt lat="47.31819" lon="-2.38687">
        <ele>49.599998474121</ele>
        <time>2021-08-12T09:33:42.000Z</time>
      </trkpt>
      <trkpt lat="47.31814" lon="-2.38616">
        <ele>49.599998474121</ele>
        <time>2021-08-12T09:33:50.000Z</time>
      </trkpt>
      <trkpt lat="47.31811" lon="-2.38532">
        <ele>49.599998474121</ele>
        <time>2021-08-12T09:33:59.000Z</time>
      </trkpt>
      <trkpt lat="47.31811" lon="-2.38453">
        <ele>49.599998474121</ele>
        <time>2021-08-12T09:34:07.000Z</time>
      </trkpt>
      <trkpt lat="47.31811" lon="-2.38372">
        <ele>49.599998474121</ele>
        <time>2021-08-12T09:34:15.000Z</time>
      </trkpt>
      <trkpt lat="47.31811" lon="-2.38299">
        <ele>49.599998474121</ele>
        <time>2021-08-12T09:34:22.000Z</time>
      </trkpt>
      <trkpt lat="47.31811" lon="-2.38277">
        <ele>49.200000762939</ele>
        <time>2021-08-12T09:34:24.000Z</time>
      </trkpt>
      <trkpt lat="47.31811" lon="-2.38267">
        <ele>48.799999237061</ele>
        <time>2021-08-12T09:34:25.000Z</time>
      </trkpt>
      <trkpt lat="47.3181" lon="-2.38256">
        <ele>48.400001525879</ele>
        <time>2021-08-12T09:34:26.000Z</time>
      </trkpt>
      <trkpt lat="47.3181" lon="-2.38245">
        <ele>48</ele>
        <time>2021-08-12T09:34:27.000Z</time>
      </trkpt>
      <trkpt lat="47.31809" lon="-2.38234">
        <ele>47.400001525879</ele>
        <time>2021-08-12T09:34:28.000Z</time>
      </trkpt>
      <trkpt lat="47.31808" lon="-2.38211">
        <ele>47</ele>
        <time>2021-08-12T09:34:30.000Z</time>
      </trkpt>
      <trkpt lat="47.31807" lon="-2.38199">
        <ele>46.200000762939</ele>
        <time>2021-08-12T09:34:31.000Z</time>
      </trkpt>
      <trkpt lat="47.31806" lon="-2.38187">
        <ele>45.799999237061</ele>
        <time>2021-08-12T09:34:32.000Z</time>
      </trkpt>
      <trkpt lat="47.31806" lon="-2.38176">
        <ele>45.400001525879</ele>
        <time>2021-08-12T09:34:33.000Z</time>
      </trkpt>
      <trkpt lat="47.31804" lon="-2.38131">
        <ele>45.400001525879</ele>
        <time>2021-08-12T09:34:37.000Z</time>
      </trkpt>
      <trkpt lat="47.31802" lon="-2.38097">
        <ele>45</ele>
        <time>2021-08-12T09:34:40.000Z</time>
      </trkpt>
      <trkpt lat="47.31802" lon="-2.38086">
        <ele>44.599998474121</ele>
        <time>2021-08-12T09:34:41.000Z</time>
      </trkpt>
      <trkpt lat="47.31801" lon="-2.38075">
        <ele>44.200000762939</ele>
        <time>2021-08-12T09:34:42.000Z</time>
      </trkpt>
      <trkpt lat="47.31801" lon="-2.38064">
        <ele>43.799999237061</ele>
        <time>2021-08-12T09:34:43.000Z</time>
      </trkpt>
      <trkpt lat="47.318" lon="-2.38054">
        <ele>43.400001525879</ele>
        <time>2021-08-12T09:34:44.000Z</time>
      </trkpt>
      <trkpt lat="47.31798" lon="-2.38032">
        <ele>43.400001525879</ele>
        <time>2021-08-12T09:34:46.000Z</time>
      </trkpt>
      <trkpt lat="47.31796" lon="-2.37968">
        <ele>43.400001525879</ele>
        <time>2021-08-12T09:34:52.000Z</time>
      </trkpt>
      <trkpt lat="47.31798" lon="-2.37916">
        <ele>43.400001525879</ele>
        <time>2021-08-12T09:34:58.000Z</time>
      </trkpt>
      <trkpt lat="47.31801" lon="-2.3788">
        <ele>43.799999237061</ele>
        <time>2021-08-12T09:35:02.000Z</time>
      </trkpt>
      <trkpt lat="47.31801" lon="-2.37871">
        <ele>44.200000762939</ele>
        <time>2021-08-12T09:35:03.000Z</time>
      </trkpt>
      <trkpt lat="47.31802" lon="-2.37862">
        <ele>44.599998474121</ele>
        <time>2021-08-12T09:35:04.000Z</time>
      </trkpt>
      <trkpt lat="47.31803" lon="-2.37853">
        <ele>45</ele>
        <time>2021-08-12T09:35:05.000Z</time>
      </trkpt>
      <trkpt lat="47.31804" lon="-2.37844">
        <ele>45.400001525879</ele>
        <time>2021-08-12T09:35:06.000Z</time>
      </trkpt>
      <trkpt lat="47.3181" lon="-2.37791">
        <ele>45.400001525879</ele>
        <time>2021-08-12T09:35:12.000Z</time>
      </trkpt>
      <trkpt lat="47.31814" lon="-2.37749">
        <ele>45.799999237061</ele>
        <time>2021-08-12T09:35:17.000Z</time>
      </trkpt>
      <trkpt lat="47.31814" lon="-2.37741">
        <ele>46.200000762939</ele>
        <time>2021-08-12T09:35:18.000Z</time>
      </trkpt>
      <trkpt lat="47.31815" lon="-2.37733">
        <ele>46.799999237061</ele>
        <time>2021-08-12T09:35:19.000Z</time>
      </trkpt>
      <trkpt lat="47.31815" lon="-2.37726">
        <ele>47.599998474121</ele>
        <time>2021-08-12T09:35:20.000Z</time>
      </trkpt>
      <trkpt lat="47.31818" lon="-2.3771">
        <ele>47.599998474121</ele>
        <time>2021-08-12T09:35:22.000Z</time>
      </trkpt>
      <trkpt lat="47.31823" lon="-2.37679">
        <ele>47.599998474121</ele>
        <time>2021-08-12T09:35:26.000Z</time>
      </trkpt>
      <trkpt lat="47.31824" lon="-2.37665">
        <ele>47.599998474121</ele>
        <time>2021-08-12T09:35:28.000Z</time>
      </trkpt>
      <trkpt lat="47.3182" lon="-2.37653">
        <ele>47.599998474121</ele>
        <time>2021-08-12T09:35:30.000Z</time>
      </trkpt>
      <trkpt lat="47.3181" lon="-2.37653">
        <ele>47.599998474121</ele>
        <time>2021-08-12T09:35:32.000Z</time>
      </trkpt>
      <trkpt lat="47.31801" lon="-2.37659">
        <ele>47.599998474121</ele>
        <time>2021-08-12T09:35:34.000Z</time>
      </trkpt>
      <trkpt lat="47.31791" lon="-2.37666">
        <ele>47.599998474121</ele>
        <time>2021-08-12T09:35:36.000Z</time>
      </trkpt>
      <trkpt lat="47.31762" lon="-2.37695">
        <ele>47.599998474121</ele>
        <time>2021-08-12T09:35:42.000Z</time>
      </trkpt>
      <trkpt lat="47.31733" lon="-2.37714">
        <ele>47.599998474121</ele>
        <time>2021-08-12T09:35:48.000Z</time>
      </trkpt>
      <trkpt lat="47.31722" lon="-2.37718">
        <ele>47.599998474121</ele>
        <time>2021-08-12T09:35:50.000Z</time>
      </trkpt>
      <trkpt lat="47.317" lon="-2.37717">
        <ele>47.599998474121</ele>
        <time>2021-08-12T09:35:54.000Z</time>
      </trkpt>
      <trkpt lat="47.31676" lon="-2.37698">
        <ele>47.599998474121</ele>
        <time>2021-08-12T09:35:59.000Z</time>
      </trkpt>
      <trkpt lat="47.31667" lon="-2.37687">
        <ele>47.599998474121</ele>
        <time>2021-08-12T09:36:01.000Z</time>
      </trkpt>
      <trkpt lat="47.31653" lon="-2.37672">
        <ele>47.599998474121</ele>
        <time>2021-08-12T09:36:04.000Z</time>
      </trkpt>
      <trkpt lat="47.31648" lon="-2.37668">
        <ele>47.599998474121</ele>
        <time>2021-08-12T09:36:05.000Z</time>
      </trkpt>
      <trkpt lat="47.31622" lon="-2.37648">
        <ele>47.599998474121</ele>
        <time>2021-08-12T09:36:10.000Z</time>
      </trkpt>
      <trkpt lat="47.31618" lon="-2.37642">
        <ele>47.599998474121</ele>
        <time>2021-08-12T09:36:11.000Z</time>
      </trkpt>
      <trkpt lat="47.31613" lon="-2.37617">
        <ele>47.599998474121</ele>
        <time>2021-08-12T09:36:14.000Z</time>
      </trkpt>
      <trkpt lat="47.31612" lon="-2.37599">
        <ele>47.599998474121</ele>
        <time>2021-08-12T09:36:16.000Z</time>
      </trkpt>
      <trkpt lat="47.31614" lon="-2.37581">
        <ele>47.599998474121</ele>
        <time>2021-08-12T09:36:18.000Z</time>
      </trkpt>
      <trkpt lat="47.31615" lon="-2.37571">
        <ele>47.599998474121</ele>
        <time>2021-08-12T09:36:19.000Z</time>
      </trkpt>
      <trkpt lat="47.31617" lon="-2.37562">
        <ele>48</ele>
        <time>2021-08-12T09:36:20.000Z</time>
      </trkpt>
      <trkpt lat="47.31618" lon="-2.37553">
        <ele>48.400001525879</ele>
        <time>2021-08-12T09:36:21.000Z</time>
      </trkpt>
      <trkpt lat="47.3162" lon="-2.37543">
        <ele>48.799999237061</ele>
        <time>2021-08-12T09:36:22.000Z</time>
      </trkpt>
      <trkpt lat="47.31624" lon="-2.37534">
        <ele>49.400001525879</ele>
        <time>2021-08-12T09:36:23.000Z</time>
      </trkpt>
      <trkpt lat="47.31627" lon="-2.37525">
        <ele>49.799999237061</ele>
        <time>2021-08-12T09:36:24.000Z</time>
      </trkpt>
      <trkpt lat="47.31635" lon="-2.37497">
        <ele>49.799999237061</ele>
        <time>2021-08-12T09:36:27.000Z</time>
      </trkpt>
      <trkpt lat="47.31637" lon="-2.37477">
        <ele>49.799999237061</ele>
        <time>2021-08-12T09:36:29.000Z</time>
      </trkpt>
      <trkpt lat="47.31635" lon="-2.37448">
        <ele>49.799999237061</ele>
        <time>2021-08-12T09:36:32.000Z</time>
      </trkpt>
      <trkpt lat="47.31635" lon="-2.3743">
        <ele>49.799999237061</ele>
        <time>2021-08-12T09:36:34.000Z</time>
      </trkpt>
      <trkpt lat="47.31634" lon="-2.37411">
        <ele>49.799999237061</ele>
        <time>2021-08-12T09:36:36.000Z</time>
      </trkpt>
      <trkpt lat="47.31631" lon="-2.37384">
        <ele>49.799999237061</ele>
        <time>2021-08-12T09:36:39.000Z</time>
      </trkpt>
      <trkpt lat="47.31619" lon="-2.37328">
        <ele>49.799999237061</ele>
        <time>2021-08-12T09:36:45.000Z</time>
      </trkpt>
      <trkpt lat="47.31618" lon="-2.37308">
        <ele>49.799999237061</ele>
        <time>2021-08-12T09:36:47.000Z</time>
      </trkpt>
      <trkpt lat="47.31621" lon="-2.37288">
        <ele>49.799999237061</ele>
        <time>2021-08-12T09:36:49.000Z</time>
      </trkpt>
      <trkpt lat="47.31635" lon="-2.37268">
        <ele>49.799999237061</ele>
        <time>2021-08-12T09:36:52.000Z</time>
      </trkpt>
      <trkpt lat="47.31653" lon="-2.37253">
        <ele>49.799999237061</ele>
        <time>2021-08-12T09:36:55.000Z</time>
      </trkpt>
      <trkpt lat="47.31665" lon="-2.37244">
        <ele>49.799999237061</ele>
        <time>2021-08-12T09:36:57.000Z</time>
      </trkpt>
      <trkpt lat="47.31681" lon="-2.37226">
        <ele>49.799999237061</ele>
        <time>2021-08-12T09:37:00.000Z</time>
      </trkpt>
      <trkpt lat="47.31685" lon="-2.37218">
        <ele>50.200000762939</ele>
        <time>2021-08-12T09:37:01.000Z</time>
      </trkpt>
      <trkpt lat="47.31688" lon="-2.3721">
        <ele>50.599998474121</ele>
        <time>2021-08-12T09:37:02.000Z</time>
      </trkpt>
      <trkpt lat="47.31689" lon="-2.372">
        <ele>51.200000762939</ele>
        <time>2021-08-12T09:37:03.000Z</time>
      </trkpt>
      <trkpt lat="47.31689" lon="-2.37189">
        <ele>51.599998474121</ele>
        <time>2021-08-12T09:37:04.000Z</time>
      </trkpt>
      <trkpt lat="47.31687" lon="-2.37179">
        <ele>52</ele>
        <time>2021-08-12T09:37:05.000Z</time>
      </trkpt>
      <trkpt lat="47.31677" lon="-2.37154">
        <ele>52</ele>
        <time>2021-08-12T09:37:08.000Z</time>
      </trkpt>
      <trkpt lat="47.31673" lon="-2.37147">
        <ele>52</ele>
        <time>2021-08-12T09:37:09.000Z</time>
      </trkpt>
      <trkpt lat="47.31654" lon="-2.37109">
        <ele>52</ele>
        <time>2021-08-12T09:37:14.000Z</time>
      </trkpt>
      <trkpt lat="47.31624" lon="-2.37048">
        <ele>52</ele>
        <time>2021-08-12T09:37:21.000Z</time>
      </trkpt>
      <trkpt lat="47.31607" lon="-2.36996">
        <ele>52</ele>
        <time>2021-08-12T09:37:26.000Z</time>
      </trkpt>
      <trkpt lat="47.31581" lon="-2.36918">
        <ele>51.599998474121</ele>
        <time>2021-08-12T09:37:33.000Z</time>
      </trkpt>
      <trkpt lat="47.31577" lon="-2.36906">
        <ele>51.200000762939</ele>
        <time>2021-08-12T09:37:34.000Z</time>
      </trkpt>
      <trkpt lat="47.31573" lon="-2.36894">
        <ele>50.599998474121</ele>
        <time>2021-08-12T09:37:35.000Z</time>
      </trkpt>
      <trkpt lat="47.31569" lon="-2.36882">
        <ele>50.200000762939</ele>
        <time>2021-08-12T09:37:36.000Z</time>
      </trkpt>
      <trkpt lat="47.31565" lon="-2.3687">
        <ele>49.799999237061</ele>
        <time>2021-08-12T09:37:37.000Z</time>
      </trkpt>
      <trkpt lat="47.31558" lon="-2.36845">
        <ele>49.400001525879</ele>
        <time>2021-08-12T09:37:39.000Z</time>
      </trkpt>
      <trkpt lat="47.31555" lon="-2.36833">
        <ele>49</ele>
        <time>2021-08-12T09:37:40.000Z</time>
      </trkpt>
      <trkpt lat="47.31551" lon="-2.36821">
        <ele>48.599998474121</ele>
        <time>2021-08-12T09:37:41.000Z</time>
      </trkpt>
      <trkpt lat="47.31549" lon="-2.3681">
        <ele>48.200000762939</ele>
        <time>2021-08-12T09:37:42.000Z</time>
      </trkpt>
      <trkpt lat="47.31546" lon="-2.36799">
        <ele>47.599998474121</ele>
        <time>2021-08-12T09:37:43.000Z</time>
      </trkpt>
      <trkpt lat="47.31544" lon="-2.36788">
        <ele>47</ele>
        <time>2021-08-12T09:37:44.000Z</time>
      </trkpt>
      <trkpt lat="47.31541" lon="-2.36776">
        <ele>46.400001525879</ele>
        <time>2021-08-12T09:37:45.000Z</time>
      </trkpt>
      <trkpt lat="47.31538" lon="-2.36764">
        <ele>45.799999237061</ele>
        <time>2021-08-12T09:37:46.000Z</time>
      </trkpt>
      <trkpt lat="47.31535" lon="-2.36753">
        <ele>45.400001525879</ele>
        <time>2021-08-12T09:37:47.000Z</time>
      </trkpt>
      <trkpt lat="47.3153" lon="-2.36729">
        <ele>45</ele>
        <time>2021-08-12T09:37:49.000Z</time>
      </trkpt>
      <trkpt lat="47.31527" lon="-2.36717">
        <ele>44.400001525879</ele>
        <time>2021-08-12T09:37:50.000Z</time>
      </trkpt>
      <trkpt lat="47.31524" lon="-2.36706">
        <ele>44</ele>
        <time>2021-08-12T09:37:51.000Z</time>
      </trkpt>
      <trkpt lat="47.31522" lon="-2.36695">
        <ele>43.599998474121</ele>
        <time>2021-08-12T09:37:52.000Z</time>
      </trkpt>
      <trkpt lat="47.3152" lon="-2.36684">
        <ele>43.200000762939</ele>
        <time>2021-08-12T09:37:53.000Z</time>
      </trkpt>
      <trkpt lat="47.31516" lon="-2.36662">
        <ele>43.200000762939</ele>
        <time>2021-08-12T09:37:55.000Z</time>
      </trkpt>
      <trkpt lat="47.31511" lon="-2.3664">
        <ele>42.799999237061</ele>
        <time>2021-08-12T09:37:57.000Z</time>
      </trkpt>
      <trkpt lat="47.31508" lon="-2.3663">
        <ele>42.400001525879</ele>
        <time>2021-08-12T09:37:58.000Z</time>
      </trkpt>
      <trkpt lat="47.31506" lon="-2.36621">
        <ele>41.799999237061</ele>
        <time>2021-08-12T09:37:59.000Z</time>
      </trkpt>
      <trkpt lat="47.31504" lon="-2.36613">
        <ele>41.400001525879</ele>
        <time>2021-08-12T09:38:00.000Z</time>
      </trkpt>
      <trkpt lat="47.31501" lon="-2.36605">
        <ele>41</ele>
        <time>2021-08-12T09:38:01.000Z</time>
      </trkpt>
      <trkpt lat="47.31498" lon="-2.3658">
        <ele>41</ele>
        <time>2021-08-12T09:38:04.000Z</time>
      </trkpt>
      <trkpt lat="47.31499" lon="-2.36574">
        <ele>41</ele>
        <time>2021-08-12T09:38:05.000Z</time>
      </trkpt>
      <trkpt lat="47.315" lon="-2.3655">
        <ele>41</ele>
        <time>2021-08-12T09:38:09.000Z</time>
      </trkpt>
      <trkpt lat="47.31499" lon="-2.36531">
        <ele>40.599998474121</ele>
        <time>2021-08-12T09:38:12.000Z</time>
      </trkpt>
      <trkpt lat="47.31499" lon="-2.36525">
        <ele>39.799999237061</ele>
        <time>2021-08-12T09:38:13.000Z</time>
      </trkpt>
      <trkpt lat="47.31499" lon="-2.36519">
        <ele>39.400001525879</ele>
        <time>2021-08-12T09:38:14.000Z</time>
      </trkpt>
      <trkpt lat="47.31499" lon="-2.36513">
        <ele>39</ele>
        <time>2021-08-12T09:38:15.000Z</time>
      </trkpt>
      <trkpt lat="47.31499" lon="-2.365">
        <ele>39</ele>
        <time>2021-08-12T09:38:17.000Z</time>
      </trkpt>
      <trkpt lat="47.31499" lon="-2.36471">
        <ele>39</ele>
        <time>2021-08-12T09:38:21.000Z</time>
      </trkpt>
      <trkpt lat="47.31498" lon="-2.36463">
        <ele>39</ele>
        <time>2021-08-12T09:38:22.000Z</time>
      </trkpt>
      <trkpt lat="47.31496" lon="-2.3644">
        <ele>39.400001525879</ele>
        <time>2021-08-12T09:38:25.000Z</time>
      </trkpt>
      <trkpt lat="47.31495" lon="-2.36433">
        <ele>39.799999237061</ele>
        <time>2021-08-12T09:38:26.000Z</time>
      </trkpt>
      <trkpt lat="47.31495" lon="-2.36426">
        <ele>40.200000762939</ele>
        <time>2021-08-12T09:38:27.000Z</time>
      </trkpt>
      <trkpt lat="47.31494" lon="-2.36418">
        <ele>40.599998474121</ele>
        <time>2021-08-12T09:38:28.000Z</time>
      </trkpt>
      <trkpt lat="47.31493" lon="-2.36412">
        <ele>41.200000762939</ele>
        <time>2021-08-12T09:38:29.000Z</time>
      </trkpt>
      <trkpt lat="47.31492" lon="-2.36389">
        <ele>41.200000762939</ele>
        <time>2021-08-12T09:38:33.000Z</time>
      </trkpt>
      <trkpt lat="47.31491" lon="-2.3637">
        <ele>41.599998474121</ele>
        <time>2021-08-12T09:38:37.000Z</time>
      </trkpt>
      <trkpt lat="47.31492" lon="-2.36365">
        <ele>42</ele>
        <time>2021-08-12T09:38:38.000Z</time>
      </trkpt>
      <trkpt lat="47.31492" lon="-2.36359">
        <ele>42.400001525879</ele>
        <time>2021-08-12T09:38:39.000Z</time>
      </trkpt>
      <trkpt lat="47.31493" lon="-2.36353">
        <ele>42.799999237061</ele>
        <time>2021-08-12T09:38:40.000Z</time>
      </trkpt>
      <trkpt lat="47.31493" lon="-2.36347">
        <ele>43.200000762939</ele>
        <time>2021-08-12T09:38:41.000Z</time>
      </trkpt>
      <trkpt lat="47.31492" lon="-2.36337">
        <ele>43.200000762939</ele>
        <time>2021-08-12T09:38:43.000Z</time>
      </trkpt>
      <trkpt lat="47.31487" lon="-2.36302">
        <ele>43.200000762939</ele>
        <time>2021-08-12T09:38:49.000Z</time>
      </trkpt>
      <trkpt lat="47.31484" lon="-2.3629">
        <ele>43.599998474121</ele>
        <time>2021-08-12T09:38:51.000Z</time>
      </trkpt>
      <trkpt lat="47.31483" lon="-2.36284">
        <ele>44</ele>
        <time>2021-08-12T09:38:52.000Z</time>
      </trkpt>
      <trkpt lat="47.31482" lon="-2.36278">
        <ele>44.400001525879</ele>
        <time>2021-08-12T09:38:53.000Z</time>
      </trkpt>
      <trkpt lat="47.31481" lon="-2.36273">
        <ele>44.799999237061</ele>
        <time>2021-08-12T09:38:54.000Z</time>
      </trkpt>
      <trkpt lat="47.3148" lon="-2.36267">
        <ele>45.200000762939</ele>
        <time>2021-08-12T09:38:55.000Z</time>
      </trkpt>
      <trkpt lat="47.31474" lon="-2.36235">
        <ele>45.200000762939</ele>
        <time>2021-08-12T09:39:01.000Z</time>
      </trkpt>
      <trkpt lat="47.31467" lon="-2.36203">
        <ele>45.200000762939</ele>
        <time>2021-08-12T09:39:08.000Z</time>
      </trkpt>
      <trkpt lat="47.31465" lon="-2.36193">
        <ele>45.599998474121</ele>
        <time>2021-08-12T09:39:10.000Z</time>
      </trkpt>
      <trkpt lat="47.31464" lon="-2.36188">
        <ele>46</ele>
        <time>2021-08-12T09:39:11.000Z</time>
      </trkpt>
      <trkpt lat="47.31464" lon="-2.36183">
        <ele>46.400001525879</ele>
        <time>2021-08-12T09:39:12.000Z</time>
      </trkpt>
      <trkpt lat="47.31463" lon="-2.36178">
        <ele>46.799999237061</ele>
        <time>2021-08-12T09:39:13.000Z</time>
      </trkpt>
      <trkpt lat="47.31462" lon="-2.36171">
        <ele>47.400001525879</ele>
        <time>2021-08-12T09:39:14.000Z</time>
      </trkpt>
      <trkpt lat="47.31456" lon="-2.36158">
        <ele>47.400001525879</ele>
        <time>2021-08-12T09:39:16.000Z</time>
      </trkpt>
      <trkpt lat="47.31452" lon="-2.36145">
        <ele>47.400001525879</ele>
        <time>2021-08-12T09:39:18.000Z</time>
      </trkpt>
      <trkpt lat="47.31451" lon="-2.36138">
        <ele>47.400001525879</ele>
        <time>2021-08-12T09:39:19.000Z</time>
      </trkpt>
      <trkpt lat="47.31445" lon="-2.36117">
        <ele>47.400001525879</ele>
        <time>2021-08-12T09:39:23.000Z</time>
      </trkpt>
      <trkpt lat="47.31435" lon="-2.36085">
        <ele>47.400001525879</ele>
        <time>2021-08-12T09:39:28.000Z</time>
      </trkpt>
      <trkpt lat="47.31422" lon="-2.36049">
        <ele>47.400001525879</ele>
        <time>2021-08-12T09:39:33.000Z</time>
      </trkpt>
      <trkpt lat="47.31413" lon="-2.36022">
        <ele>47.400001525879</ele>
        <time>2021-08-12T09:39:36.000Z</time>
      </trkpt>
      <trkpt lat="47.31403" lon="-2.35994">
        <ele>47.400001525879</ele>
        <time>2021-08-12T09:39:39.000Z</time>
      </trkpt>
      <trkpt lat="47.314" lon="-2.35984">
        <ele>47.400001525879</ele>
        <time>2021-08-12T09:39:40.000Z</time>
      </trkpt>
      <trkpt lat="47.31397" lon="-2.35974">
        <ele>46.799999237061</ele>
        <time>2021-08-12T09:39:41.000Z</time>
      </trkpt>
      <trkpt lat="47.31394" lon="-2.35965">
        <ele>46.400001525879</ele>
        <time>2021-08-12T09:39:42.000Z</time>
      </trkpt>
      <trkpt lat="47.3139" lon="-2.35957">
        <ele>46</ele>
        <time>2021-08-12T09:39:43.000Z</time>
      </trkpt>
      <trkpt lat="47.31385" lon="-2.35948">
        <ele>45.400001525879</ele>
        <time>2021-08-12T09:39:44.000Z</time>
      </trkpt>
      <trkpt lat="47.3138" lon="-2.3594">
        <ele>45</ele>
        <time>2021-08-12T09:39:45.000Z</time>
      </trkpt>
      <trkpt lat="47.31372" lon="-2.35925">
        <ele>45</ele>
        <time>2021-08-12T09:39:47.000Z</time>
      </trkpt>
      <trkpt lat="47.31368" lon="-2.35917">
        <ele>45</ele>
        <time>2021-08-12T09:39:48.000Z</time>
      </trkpt>
      <trkpt lat="47.31349" lon="-2.35878">
        <ele>45</ele>
        <time>2021-08-12T09:39:54.000Z</time>
      </trkpt>
      <trkpt lat="47.31344" lon="-2.35866">
        <ele>45</ele>
        <time>2021-08-12T09:39:56.000Z</time>
      </trkpt>
      <trkpt lat="47.31341" lon="-2.35843">
        <ele>45</ele>
        <time>2021-08-12T09:39:59.000Z</time>
      </trkpt>
      <trkpt lat="47.3134" lon="-2.35826">
        <ele>45</ele>
        <time>2021-08-12T09:40:01.000Z</time>
      </trkpt>
      <trkpt lat="47.31338" lon="-2.358">
        <ele>45</ele>
        <time>2021-08-12T09:40:04.000Z</time>
      </trkpt>
      <trkpt lat="47.31334" lon="-2.35743">
        <ele>45</ele>
        <time>2021-08-12T09:40:11.000Z</time>
      </trkpt>
      <trkpt lat="47.31334" lon="-2.35726">
        <ele>45</ele>
        <time>2021-08-12T09:40:13.000Z</time>
      </trkpt>
      <trkpt lat="47.31334" lon="-2.35689">
        <ele>45</ele>
        <time>2021-08-12T09:40:17.000Z</time>
      </trkpt>
      <trkpt lat="47.31334" lon="-2.35637">
        <ele>45</ele>
        <time>2021-08-12T09:40:23.000Z</time>
      </trkpt>
      <trkpt lat="47.31331" lon="-2.35583">
        <ele>45</ele>
        <time>2021-08-12T09:40:29.000Z</time>
      </trkpt>
      <trkpt lat="47.31331" lon="-2.35564">
        <ele>45</ele>
        <time>2021-08-12T09:40:31.000Z</time>
      </trkpt>
      <trkpt lat="47.31334" lon="-2.35526">
        <ele>45</ele>
        <time>2021-08-12T09:40:35.000Z</time>
      </trkpt>
      <trkpt lat="47.31336" lon="-2.35462">
        <ele>45</ele>
        <time>2021-08-12T09:40:41.000Z</time>
      </trkpt>
      <trkpt lat="47.3134" lon="-2.35386">
        <ele>45</ele>
        <time>2021-08-12T09:40:48.000Z</time>
      </trkpt>
      <trkpt lat="47.31344" lon="-2.35313">
        <ele>45</ele>
        <time>2021-08-12T09:40:55.000Z</time>
      </trkpt>
      <trkpt lat="47.31347" lon="-2.35228">
        <ele>45</ele>
        <time>2021-08-12T09:41:03.000Z</time>
      </trkpt>
      <trkpt lat="47.31346" lon="-2.35156">
        <ele>45</ele>
        <time>2021-08-12T09:41:10.000Z</time>
      </trkpt>
      <trkpt lat="47.31346" lon="-2.35077">
        <ele>45</ele>
        <time>2021-08-12T09:41:18.000Z</time>
      </trkpt>
      <trkpt lat="47.31344" lon="-2.3503">
        <ele>45</ele>
        <time>2021-08-12T09:41:23.000Z</time>
      </trkpt>
      <trkpt lat="47.31342" lon="-2.34991">
        <ele>45</ele>
        <time>2021-08-12T09:41:27.000Z</time>
      </trkpt>
      <trkpt lat="47.31339" lon="-2.34971">
        <ele>45</ele>
        <time>2021-08-12T09:41:29.000Z</time>
      </trkpt>
      <trkpt lat="47.31323" lon="-2.34916">
        <ele>45</ele>
        <time>2021-08-12T09:41:35.000Z</time>
      </trkpt>
      <trkpt lat="47.31304" lon="-2.34851">
        <ele>45</ele>
        <time>2021-08-12T09:41:43.000Z</time>
      </trkpt>
      <trkpt lat="47.31293" lon="-2.34793">
        <ele>45</ele>
        <time>2021-08-12T09:41:50.000Z</time>
      </trkpt>
      <trkpt lat="47.31281" lon="-2.34733">
        <ele>45</ele>
        <time>2021-08-12T09:41:58.000Z</time>
      </trkpt>
      <trkpt lat="47.31277" lon="-2.34715">
        <ele>45</ele>
        <time>2021-08-12T09:42:02.000Z</time>
      </trkpt>
      <trkpt lat="47.31276" lon="-2.3471">
        <ele>44.599998474121</ele>
        <time>2021-08-12T09:42:05.000Z</time>
      </trkpt>
      <trkpt lat="47.31277" lon="-2.3471">
        <ele>44.200000762939</ele>
        <time>2021-08-12T09:42:06.000Z</time>
      </trkpt>
      <trkpt lat="47.31277" lon="-2.34706">
        <ele>43</ele>
        <time>2021-08-12T09:42:13.000Z</time>
      </trkpt>
      <trkpt lat="47.31283" lon="-2.34687">
        <ele>43</ele>
        <time>2021-08-12T09:42:17.000Z</time>
      </trkpt>
      <trkpt lat="47.31286" lon="-2.34679">
        <ele>43</ele>
        <time>2021-08-12T09:42:18.000Z</time>
      </trkpt>
      <trkpt lat="47.31292" lon="-2.34667">
        <ele>43</ele>
        <time>2021-08-12T09:42:20.000Z</time>
      </trkpt>
      <trkpt lat="47.31294" lon="-2.34659">
        <ele>43</ele>
        <time>2021-08-12T09:42:21.000Z</time>
      </trkpt>
      <trkpt lat="47.31293" lon="-2.34642">
        <ele>43</ele>
        <time>2021-08-12T09:42:23.000Z</time>
      </trkpt>
      <trkpt lat="47.31291" lon="-2.34622">
        <ele>43</ele>
        <time>2021-08-12T09:42:25.000Z</time>
      </trkpt>
      <trkpt lat="47.3129" lon="-2.34588">
        <ele>43</ele>
        <time>2021-08-12T09:42:28.000Z</time>
      </trkpt>
      <trkpt lat="47.31288" lon="-2.34577">
        <ele>42.599998474121</ele>
        <time>2021-08-12T09:42:29.000Z</time>
      </trkpt>
      <trkpt lat="47.31287" lon="-2.34565">
        <ele>42.200000762939</ele>
        <time>2021-08-12T09:42:30.000Z</time>
      </trkpt>
      <trkpt lat="47.31285" lon="-2.34552">
        <ele>41.799999237061</ele>
        <time>2021-08-12T09:42:31.000Z</time>
      </trkpt>
      <trkpt lat="47.31284" lon="-2.34539">
        <ele>41.200000762939</ele>
        <time>2021-08-12T09:42:32.000Z</time>
      </trkpt>
      <trkpt lat="47.31283" lon="-2.34526">
        <ele>40.799999237061</ele>
        <time>2021-08-12T09:42:33.000Z</time>
      </trkpt>
      <trkpt lat="47.31275" lon="-2.34453">
        <ele>40.400001525879</ele>
        <time>2021-08-12T09:42:39.000Z</time>
      </trkpt>
      <trkpt lat="47.31273" lon="-2.3444">
        <ele>40</ele>
        <time>2021-08-12T09:42:40.000Z</time>
      </trkpt>
      <trkpt lat="47.31272" lon="-2.34427">
        <ele>39.599998474121</ele>
        <time>2021-08-12T09:42:41.000Z</time>
      </trkpt>
      <trkpt lat="47.3127" lon="-2.34415">
        <ele>39.200000762939</ele>
        <time>2021-08-12T09:42:42.000Z</time>
      </trkpt>
      <trkpt lat="47.31268" lon="-2.34402">
        <ele>38.799999237061</ele>
        <time>2021-08-12T09:42:43.000Z</time>
      </trkpt>
      <trkpt lat="47.31264" lon="-2.34376">
        <ele>38.400001525879</ele>
        <time>2021-08-12T09:42:45.000Z</time>
      </trkpt>
      <trkpt lat="47.31261" lon="-2.34364">
        <ele>38</ele>
        <time>2021-08-12T09:42:46.000Z</time>
      </trkpt>
      <trkpt lat="47.31257" lon="-2.34352">
        <ele>37.599998474121</ele>
        <time>2021-08-12T09:42:47.000Z</time>
      </trkpt>
      <trkpt lat="47.31254" lon="-2.34343">
        <ele>37.200000762939</ele>
        <time>2021-08-12T09:42:48.000Z</time>
      </trkpt>
      <trkpt lat="47.31251" lon="-2.34335">
        <ele>36.599998474121</ele>
        <time>2021-08-12T09:42:49.000Z</time>
      </trkpt>
      <trkpt lat="47.31245" lon="-2.3433">
        <ele>36.599998474121</ele>
        <time>2021-08-12T09:42:50.000Z</time>
      </trkpt>
      <trkpt lat="47.31236" lon="-2.34328">
        <ele>36.599998474121</ele>
        <time>2021-08-12T09:42:51.000Z</time>
      </trkpt>
      <trkpt lat="47.31209" lon="-2.34314">
        <ele>36.200000762939</ele>
        <time>2021-08-12T09:42:54.000Z</time>
      </trkpt>
      <trkpt lat="47.31201" lon="-2.34305">
        <ele>35.799999237061</ele>
        <time>2021-08-12T09:42:55.000Z</time>
      </trkpt>
      <trkpt lat="47.31195" lon="-2.34295">
        <ele>35.400001525879</ele>
        <time>2021-08-12T09:42:56.000Z</time>
      </trkpt>
      <trkpt lat="47.3119" lon="-2.34284">
        <ele>35</ele>
        <time>2021-08-12T09:42:57.000Z</time>
      </trkpt>
      <trkpt lat="47.31186" lon="-2.34273">
        <ele>34.599998474121</ele>
        <time>2021-08-12T09:42:58.000Z</time>
      </trkpt>
      <trkpt lat="47.31182" lon="-2.34263">
        <ele>34.599998474121</ele>
        <time>2021-08-12T09:42:59.000Z</time>
      </trkpt>
      <trkpt lat="47.31149" lon="-2.34209">
        <ele>34.599998474121</ele>
        <time>2021-08-12T09:43:05.000Z</time>
      </trkpt>
      <trkpt lat="47.31117" lon="-2.34157">
        <ele>35.200000762939</ele>
        <time>2021-08-12T09:43:12.000Z</time>
      </trkpt>
      <trkpt lat="47.31114" lon="-2.3415">
        <ele>35.599998474121</ele>
        <time>2021-08-12T09:43:13.000Z</time>
      </trkpt>
      <trkpt lat="47.3111" lon="-2.34142">
        <ele>36</ele>
        <time>2021-08-12T09:43:14.000Z</time>
      </trkpt>
      <trkpt lat="47.31106" lon="-2.34134">
        <ele>36.400001525879</ele>
        <time>2021-08-12T09:43:15.000Z</time>
      </trkpt>
      <trkpt lat="47.31102" lon="-2.34127">
        <ele>37</ele>
        <time>2021-08-12T09:43:16.000Z</time>
      </trkpt>
      <trkpt lat="47.3109" lon="-2.34105">
        <ele>37.400001525879</ele>
        <time>2021-08-12T09:43:19.000Z</time>
      </trkpt>
      <trkpt lat="47.31087" lon="-2.34098">
        <ele>37.799999237061</ele>
        <time>2021-08-12T09:43:20.000Z</time>
      </trkpt>
      <trkpt lat="47.31083" lon="-2.3409">
        <ele>38.400001525879</ele>
        <time>2021-08-12T09:43:21.000Z</time>
      </trkpt>
      <trkpt lat="47.3108" lon="-2.34082">
        <ele>38.799999237061</ele>
        <time>2021-08-12T09:43:22.000Z</time>
      </trkpt>
      <trkpt lat="47.31077" lon="-2.34075">
        <ele>39.200000762939</ele>
        <time>2021-08-12T09:43:23.000Z</time>
      </trkpt>
      <trkpt lat="47.31072" lon="-2.34058">
        <ele>39.200000762939</ele>
        <time>2021-08-12T09:43:25.000Z</time>
      </trkpt>
      <trkpt lat="47.31068" lon="-2.34042">
        <ele>39.599998474121</ele>
        <time>2021-08-12T09:43:27.000Z</time>
      </trkpt>
      <trkpt lat="47.31067" lon="-2.34033">
        <ele>40.200000762939</ele>
        <time>2021-08-12T09:43:28.000Z</time>
      </trkpt>
      <trkpt lat="47.31066" lon="-2.34024">
        <ele>40.599998474121</ele>
        <time>2021-08-12T09:43:29.000Z</time>
      </trkpt>
      <trkpt lat="47.31065" lon="-2.34016">
        <ele>41</ele>
        <time>2021-08-12T09:43:30.000Z</time>
      </trkpt>
      <trkpt lat="47.31064" lon="-2.34007">
        <ele>41.400001525879</ele>
        <time>2021-08-12T09:43:31.000Z</time>
      </trkpt>
      <trkpt lat="47.31062" lon="-2.3396">
        <ele>41.400001525879</ele>
        <time>2021-08-12T09:43:36.000Z</time>
      </trkpt>
      <trkpt lat="47.31061" lon="-2.33951">
        <ele>41.400001525879</ele>
        <time>2021-08-12T09:43:37.000Z</time>
      </trkpt>
      <trkpt lat="47.31058" lon="-2.33945">
        <ele>41.400001525879</ele>
        <time>2021-08-12T09:43:38.000Z</time>
      </trkpt>
      <trkpt lat="47.31047" lon="-2.33941">
        <ele>41.400001525879</ele>
        <time>2021-08-12T09:43:40.000Z</time>
      </trkpt>
      <trkpt lat="47.31035" lon="-2.33946">
        <ele>41.400001525879</ele>
        <time>2021-08-12T09:43:42.000Z</time>
      </trkpt>
      <trkpt lat="47.31029" lon="-2.33947">
        <ele>41.400001525879</ele>
        <time>2021-08-12T09:43:43.000Z</time>
      </trkpt>
      <trkpt lat="47.31018" lon="-2.3395">
        <ele>41.400001525879</ele>
        <time>2021-08-12T09:43:45.000Z</time>
      </trkpt>
      <trkpt lat="47.31006" lon="-2.33953">
        <ele>41.400001525879</ele>
        <time>2021-08-12T09:43:47.000Z</time>
      </trkpt>
      <trkpt lat="47.30995" lon="-2.33953">
        <ele>41.400001525879</ele>
        <time>2021-08-12T09:43:49.000Z</time>
      </trkpt>
      <trkpt lat="47.30984" lon="-2.33954">
        <ele>41.799999237061</ele>
        <time>2021-08-12T09:43:51.000Z</time>
      </trkpt>
      <trkpt lat="47.30979" lon="-2.33955">
        <ele>42.200000762939</ele>
        <time>2021-08-12T09:43:52.000Z</time>
      </trkpt>
      <trkpt lat="47.30973" lon="-2.33956">
        <ele>42.599998474121</ele>
        <time>2021-08-12T09:43:53.000Z</time>
      </trkpt>
      <trkpt lat="47.30968" lon="-2.33955">
        <ele>43</ele>
        <time>2021-08-12T09:43:54.000Z</time>
      </trkpt>
      <trkpt lat="47.30963" lon="-2.33955">
        <ele>43.400001525879</ele>
        <time>2021-08-12T09:43:55.000Z</time>
      </trkpt>
      <trkpt lat="47.30957" lon="-2.33953">
        <ele>43.400001525879</ele>
        <time>2021-08-12T09:43:56.000Z</time>
      </trkpt>
      <trkpt lat="47.30917" lon="-2.33948">
        <ele>43.400001525879</ele>
        <time>2021-08-12T09:44:03.000Z</time>
      </trkpt>
      <trkpt lat="47.30878" lon="-2.33951">
        <ele>43.400001525879</ele>
        <time>2021-08-12T09:44:10.000Z</time>
      </trkpt>
      <trkpt lat="47.30822" lon="-2.33961">
        <ele>43.400001525879</ele>
        <time>2021-08-12T09:44:20.000Z</time>
      </trkpt>
      <trkpt lat="47.30805" lon="-2.33965">
        <ele>43.400001525879</ele>
        <time>2021-08-12T09:44:23.000Z</time>
      </trkpt>
      <trkpt lat="47.30794" lon="-2.33968">
        <ele>43.400001525879</ele>
        <time>2021-08-12T09:44:25.000Z</time>
      </trkpt>
      <trkpt lat="47.30785" lon="-2.33972">
        <ele>43.400001525879</ele>
        <time>2021-08-12T09:44:27.000Z</time>
      </trkpt>
      <trkpt lat="47.30782" lon="-2.33977">
        <ele>43.400001525879</ele>
        <time>2021-08-12T09:44:28.000Z</time>
      </trkpt>
      <trkpt lat="47.3078" lon="-2.33991">
        <ele>43.400001525879</ele>
        <time>2021-08-12T09:44:31.000Z</time>
      </trkpt>
      <trkpt lat="47.30781" lon="-2.34007">
        <ele>43.400001525879</ele>
        <time>2021-08-12T09:44:35.000Z</time>
      </trkpt>
      <trkpt lat="47.30781" lon="-2.34018">
        <ele>43.400001525879</ele>
        <time>2021-08-12T09:44:37.000Z</time>
      </trkpt>
      <trkpt lat="47.30781" lon="-2.34031">
        <ele>43.400001525879</ele>
        <time>2021-08-12T09:44:39.000Z</time>
      </trkpt>
      <trkpt lat="47.30781" lon="-2.34038">
        <ele>43.400001525879</ele>
        <time>2021-08-12T09:44:40.000Z</time>
      </trkpt>
      <trkpt lat="47.30781" lon="-2.34058">
        <ele>43.400001525879</ele>
        <time>2021-08-12T09:44:43.000Z</time>
      </trkpt>
      <trkpt lat="47.30783" lon="-2.34071">
        <ele>43.400001525879</ele>
        <time>2021-08-12T09:44:45.000Z</time>
      </trkpt>
      <trkpt lat="47.30781" lon="-2.34117">
        <ele>43.400001525879</ele>
        <time>2021-08-12T09:44:52.000Z</time>
      </trkpt>
      <trkpt lat="47.3078" lon="-2.34131">
        <ele>43.400001525879</ele>
        <time>2021-08-12T09:44:54.000Z</time>
      </trkpt>
      <trkpt lat="47.30777" lon="-2.34153">
        <ele>43.400001525879</ele>
        <time>2021-08-12T09:44:57.000Z</time>
      </trkpt>
      <trkpt lat="47.30777" lon="-2.34161">
        <ele>43.799999237061</ele>
        <time>2021-08-12T09:44:58.000Z</time>
      </trkpt>
      <trkpt lat="47.30776" lon="-2.34169">
        <ele>44.200000762939</ele>
        <time>2021-08-12T09:44:59.000Z</time>
      </trkpt>
      <trkpt lat="47.30776" lon="-2.34177">
        <ele>44.599998474121</ele>
        <time>2021-08-12T09:45:00.000Z</time>
      </trkpt>
      <trkpt lat="47.30775" lon="-2.34185">
        <ele>45.200000762939</ele>
        <time>2021-08-12T09:45:01.000Z</time>
      </trkpt>
      <trkpt lat="47.30774" lon="-2.34193">
        <ele>45.599998474121</ele>
        <time>2021-08-12T09:45:02.000Z</time>
      </trkpt>
      <trkpt lat="47.30772" lon="-2.34209">
        <ele>45.599998474121</ele>
        <time>2021-08-12T09:45:04.000Z</time>
      </trkpt>
      <trkpt lat="47.30764" lon="-2.34216">
        <ele>45.599998474121</ele>
        <time>2021-08-12T09:45:06.000Z</time>
      </trkpt>
      <trkpt lat="47.30752" lon="-2.34219">
        <ele>45.599998474121</ele>
        <time>2021-08-12T09:45:08.000Z</time>
      </trkpt>
      <trkpt lat="47.30741" lon="-2.34222">
        <ele>45.599998474121</ele>
        <time>2021-08-12T09:45:10.000Z</time>
      </trkpt>
      <trkpt lat="47.30737" lon="-2.34226">
        <ele>45.599998474121</ele>
        <time>2021-08-12T09:45:11.000Z</time>
      </trkpt>
      <trkpt lat="47.30734" lon="-2.34243">
        <ele>45.599998474121</ele>
        <time>2021-08-12T09:45:14.000Z</time>
      </trkpt>
      <trkpt lat="47.30734" lon="-2.34262">
        <ele>45.599998474121</ele>
        <time>2021-08-12T09:45:17.000Z</time>
      </trkpt>
      <trkpt lat="47.30732" lon="-2.34268">
        <ele>45.599998474121</ele>
        <time>2021-08-12T09:45:18.000Z</time>
      </trkpt>
      <trkpt lat="47.3073" lon="-2.34275">
        <ele>45.599998474121</ele>
        <time>2021-08-12T09:45:19.000Z</time>
      </trkpt>
      <trkpt lat="47.3071" lon="-2.34322">
        <ele>45.599998474121</ele>
        <time>2021-08-12T09:45:26.000Z</time>
      </trkpt>
      <trkpt lat="47.30704" lon="-2.34335">
        <ele>45.599998474121</ele>
        <time>2021-08-12T09:45:28.000Z</time>
      </trkpt>
      <trkpt lat="47.30689" lon="-2.34364">
        <ele>45.599998474121</ele>
        <time>2021-08-12T09:45:32.000Z</time>
      </trkpt>
      <trkpt lat="47.30658" lon="-2.34408">
        <ele>45.599998474121</ele>
        <time>2021-08-12T09:45:39.000Z</time>
      </trkpt>
      <trkpt lat="47.30624" lon="-2.34448">
        <ele>45.599998474121</ele>
        <time>2021-08-12T09:45:46.000Z</time>
      </trkpt>
      <trkpt lat="47.30615" lon="-2.34461">
        <ele>46</ele>
        <time>2021-08-12T09:45:48.000Z</time>
      </trkpt>
      <trkpt lat="47.30612" lon="-2.34468">
        <ele>46.400001525879</ele>
        <time>2021-08-12T09:45:49.000Z</time>
      </trkpt>
      <trkpt lat="47.30608" lon="-2.34474">
        <ele>46.799999237061</ele>
        <time>2021-08-12T09:45:50.000Z</time>
      </trkpt>
      <trkpt lat="47.30604" lon="-2.34482">
        <ele>47.200000762939</ele>
        <time>2021-08-12T09:45:51.000Z</time>
      </trkpt>
      <trkpt lat="47.306" lon="-2.34489">
        <ele>47.599998474121</ele>
        <time>2021-08-12T09:45:52.000Z</time>
      </trkpt>
      <trkpt lat="47.30597" lon="-2.34496">
        <ele>47.599998474121</ele>
        <time>2021-08-12T09:45:53.000Z</time>
      </trkpt>
      <trkpt lat="47.30582" lon="-2.34526">
        <ele>47.599998474121</ele>
        <time>2021-08-12T09:45:57.000Z</time>
      </trkpt>
      <trkpt lat="47.30569" lon="-2.34551">
        <ele>47.599998474121</ele>
        <time>2021-08-12T09:46:00.000Z</time>
      </trkpt>
      <trkpt lat="47.30553" lon="-2.34575">
        <ele>47.599998474121</ele>
        <time>2021-08-12T09:46:03.000Z</time>
      </trkpt>
      <trkpt lat="47.30547" lon="-2.34583">
        <ele>47.200000762939</ele>
        <time>2021-08-12T09:46:04.000Z</time>
      </trkpt>
      <trkpt lat="47.30541" lon="-2.34592">
        <ele>46.599998474121</ele>
        <time>2021-08-12T09:46:05.000Z</time>
      </trkpt>
      <trkpt lat="47.30536" lon="-2.34599">
        <ele>46.200000762939</ele>
        <time>2021-08-12T09:46:06.000Z</time>
      </trkpt>
      <trkpt lat="47.3053" lon="-2.34605">
        <ele>45.799999237061</ele>
        <time>2021-08-12T09:46:07.000Z</time>
      </trkpt>
      <trkpt lat="47.30525" lon="-2.34611">
        <ele>45.400001525879</ele>
        <time>2021-08-12T09:46:08.000Z</time>
      </trkpt>
      <trkpt lat="47.30521" lon="-2.34618">
        <ele>45.400001525879</ele>
        <time>2021-08-12T09:46:09.000Z</time>
      </trkpt>
      <trkpt lat="47.30496" lon="-2.34658">
        <ele>45.400001525879</ele>
        <time>2021-08-12T09:46:14.000Z</time>
      </trkpt>
      <trkpt lat="47.3049" lon="-2.34665">
        <ele>45.400001525879</ele>
        <time>2021-08-12T09:46:15.000Z</time>
      </trkpt>
      <trkpt lat="47.30457" lon="-2.34694">
        <ele>45.400001525879</ele>
        <time>2021-08-12T09:46:20.000Z</time>
      </trkpt>
      <trkpt lat="47.30452" lon="-2.34699">
        <ele>45.400001525879</ele>
        <time>2021-08-12T09:46:21.000Z</time>
      </trkpt>
      <trkpt lat="47.30431" lon="-2.34719">
        <ele>45.400001525879</ele>
        <time>2021-08-12T09:46:25.000Z</time>
      </trkpt>
      <trkpt lat="47.30414" lon="-2.3473">
        <ele>45.400001525879</ele>
        <time>2021-08-12T09:46:28.000Z</time>
      </trkpt>
      <trkpt lat="47.30402" lon="-2.34738">
        <ele>45.400001525879</ele>
        <time>2021-08-12T09:46:30.000Z</time>
      </trkpt>
      <trkpt lat="47.30372" lon="-2.34757">
        <ele>45.400001525879</ele>
        <time>2021-08-12T09:46:35.000Z</time>
      </trkpt>
      <trkpt lat="47.30346" lon="-2.34777">
        <ele>45.400001525879</ele>
        <time>2021-08-12T09:46:39.000Z</time>
      </trkpt>
      <trkpt lat="47.30341" lon="-2.34783">
        <ele>45.400001525879</ele>
        <time>2021-08-12T09:46:40.000Z</time>
      </trkpt>
      <trkpt lat="47.30323" lon="-2.34816">
        <ele>45.400001525879</ele>
        <time>2021-08-12T09:46:44.000Z</time>
      </trkpt>
      <trkpt lat="47.30307" lon="-2.34838">
        <ele>45.400001525879</ele>
        <time>2021-08-12T09:46:47.000Z</time>
      </trkpt>
      <trkpt lat="47.30302" lon="-2.34844">
        <ele>45.400001525879</ele>
        <time>2021-08-12T09:46:48.000Z</time>
      </trkpt>
      <trkpt lat="47.30296" lon="-2.3485">
        <ele>45.400001525879</ele>
        <time>2021-08-12T09:46:49.000Z</time>
      </trkpt>
      <trkpt lat="47.30269" lon="-2.34865">
        <ele>45.400001525879</ele>
        <time>2021-08-12T09:46:53.000Z</time>
      </trkpt>
      <trkpt lat="47.30263" lon="-2.34869">
        <ele>45.400001525879</ele>
        <time>2021-08-12T09:46:54.000Z</time>
      </trkpt>
      <trkpt lat="47.30235" lon="-2.34887">
        <ele>45.400001525879</ele>
        <time>2021-08-12T09:46:58.000Z</time>
      </trkpt>
      <trkpt lat="47.30223" lon="-2.34897">
        <ele>45.400001525879</ele>
        <time>2021-08-12T09:47:00.000Z</time>
      </trkpt>
      <trkpt lat="47.30218" lon="-2.34902">
        <ele>45.400001525879</ele>
        <time>2021-08-12T09:47:01.000Z</time>
      </trkpt>
      <trkpt lat="47.3021" lon="-2.34917">
        <ele>45.400001525879</ele>
        <time>2021-08-12T09:47:03.000Z</time>
      </trkpt>
      <trkpt lat="47.30206" lon="-2.34947">
        <ele>45.400001525879</ele>
        <time>2021-08-12T09:47:06.000Z</time>
      </trkpt>
      <trkpt lat="47.30207" lon="-2.35028">
        <ele>45.400001525879</ele>
        <time>2021-08-12T09:47:13.000Z</time>
      </trkpt>
      <trkpt lat="47.30208" lon="-2.35062">
        <ele>45</ele>
        <time>2021-08-12T09:47:16.000Z</time>
      </trkpt>
      <trkpt lat="47.30208" lon="-2.35073">
        <ele>44.599998474121</ele>
        <time>2021-08-12T09:47:17.000Z</time>
      </trkpt>
      <trkpt lat="47.30208" lon="-2.35084">
        <ele>44.200000762939</ele>
        <time>2021-08-12T09:47:18.000Z</time>
      </trkpt>
      <trkpt lat="47.30208" lon="-2.35094">
        <ele>43.599998474121</ele>
        <time>2021-08-12T09:47:19.000Z</time>
      </trkpt>
      <trkpt lat="47.30208" lon="-2.35105">
        <ele>43.200000762939</ele>
        <time>2021-08-12T09:47:20.000Z</time>
      </trkpt>
      <trkpt lat="47.30207" lon="-2.35137">
        <ele>43.200000762939</ele>
        <time>2021-08-12T09:47:23.000Z</time>
      </trkpt>
      <trkpt lat="47.30207" lon="-2.35157">
        <ele>42.799999237061</ele>
        <time>2021-08-12T09:47:25.000Z</time>
      </trkpt>
      <trkpt lat="47.30205" lon="-2.35166">
        <ele>42.400001525879</ele>
        <time>2021-08-12T09:47:26.000Z</time>
      </trkpt>
      <trkpt lat="47.30202" lon="-2.35171">
        <ele>42</ele>
        <time>2021-08-12T09:47:27.000Z</time>
      </trkpt>
      <trkpt lat="47.30199" lon="-2.35174">
        <ele>41.599998474121</ele>
        <time>2021-08-12T09:47:28.000Z</time>
      </trkpt>
      <trkpt lat="47.30193" lon="-2.35174">
        <ele>41.200000762939</ele>
        <time>2021-08-12T09:47:29.000Z</time>
      </trkpt>
      <trkpt lat="47.30188" lon="-2.35176">
        <ele>41.200000762939</ele>
        <time>2021-08-12T09:47:30.000Z</time>
      </trkpt>
      <trkpt lat="47.30178" lon="-2.35178">
        <ele>41.200000762939</ele>
        <time>2021-08-12T09:47:32.000Z</time>
      </trkpt>
      <trkpt lat="47.30172" lon="-2.3518">
        <ele>41.200000762939</ele>
        <time>2021-08-12T09:47:33.000Z</time>
      </trkpt>
      <trkpt lat="47.30163" lon="-2.35186">
        <ele>41.200000762939</ele>
        <time>2021-08-12T09:47:35.000Z</time>
      </trkpt>
      <trkpt lat="47.30152" lon="-2.35195">
        <ele>41.200000762939</ele>
        <time>2021-08-12T09:47:38.000Z</time>
      </trkpt>
      <trkpt lat="47.30148" lon="-2.35195">
        <ele>40.799999237061</ele>
        <time>2021-08-12T09:47:39.000Z</time>
      </trkpt>
      <trkpt lat="47.30145" lon="-2.35195">
        <ele>40.200000762939</ele>
        <time>2021-08-12T09:47:40.000Z</time>
      </trkpt>
      <trkpt lat="47.30141" lon="-2.35195">
        <ele>39.400001525879</ele>
        <time>2021-08-12T09:47:41.000Z</time>
      </trkpt>
      <trkpt lat="47.30137" lon="-2.35195">
        <ele>39</ele>
        <time>2021-08-12T09:47:42.000Z</time>
      </trkpt>
      <trkpt lat="47.30122" lon="-2.35199">
        <ele>39</ele>
        <time>2021-08-12T09:47:45.000Z</time>
      </trkpt>
      <trkpt lat="47.30116" lon="-2.35202">
        <ele>39</ele>
        <time>2021-08-12T09:47:46.000Z</time>
      </trkpt>
      <trkpt lat="47.30105" lon="-2.35207">
        <ele>39</ele>
        <time>2021-08-12T09:47:48.000Z</time>
      </trkpt>
      <trkpt lat="47.30087" lon="-2.35214">
        <ele>39</ele>
        <time>2021-08-12T09:47:51.000Z</time>
      </trkpt>
      <trkpt lat="47.30081" lon="-2.35216">
        <ele>39</ele>
        <time>2021-08-12T09:47:52.000Z</time>
      </trkpt>
      <trkpt lat="47.30075" lon="-2.35219">
        <ele>39</ele>
        <time>2021-08-12T09:47:53.000Z</time>
      </trkpt>
      <trkpt lat="47.30059" lon="-2.35229">
        <ele>39</ele>
        <time>2021-08-12T09:47:56.000Z</time>
      </trkpt>
      <trkpt lat="47.30032" lon="-2.35244">
        <ele>39</ele>
        <time>2021-08-12T09:48:01.000Z</time>
      </trkpt>
      <trkpt lat="47.30026" lon="-2.35248">
        <ele>39</ele>
        <time>2021-08-12T09:48:03.000Z</time>
      </trkpt>
      <trkpt lat="47.30023" lon="-2.35248">
        <ele>39</ele>
        <time>2021-08-12T09:48:04.000Z</time>
      </trkpt>
      <trkpt lat="47.30012" lon="-2.35256">
        <ele>39</ele>
        <time>2021-08-12T09:48:09.000Z</time>
      </trkpt>
      <trkpt lat="47.3001" lon="-2.35257">
        <ele>39</ele>
        <time>2021-08-12T09:48:13.000Z</time>
      </trkpt>
      <trkpt lat="47.30003" lon="-2.35258">
        <ele>39</ele>
        <time>2021-08-12T09:48:17.000Z</time>
      </trkpt>
      <trkpt lat="47.30002" lon="-2.35259">
        <ele>39</ele>
        <time>2021-08-12T09:48:18.000Z</time>
      </trkpt>
      <trkpt lat="47.30001" lon="-2.3526">
        <ele>39</ele>
        <time>2021-08-12T09:48:19.000Z</time>
      </trkpt>
      <trkpt lat="47.3" lon="-2.35262">
        <ele>39</ele>
        <time>2021-08-12T09:49:57.000Z</time>
      </trkpt>
      <trkpt lat="47.29989" lon="-2.35276">
        <ele>39</ele>
        <time>2021-08-12T09:50:02.000Z</time>
      </trkpt>
      <trkpt lat="47.29967" lon="-2.353">
        <ele>39</ele>
        <time>2021-08-12T09:50:10.000Z</time>
      </trkpt>
      <trkpt lat="47.29945" lon="-2.35328">
        <ele>39</ele>
        <time>2021-08-12T09:50:17.000Z</time>
      </trkpt>
      <trkpt lat="47.29915" lon="-2.35366">
        <ele>39</ele>
        <time>2021-08-12T09:50:25.000Z</time>
      </trkpt>
      <trkpt lat="47.29886" lon="-2.35399">
        <ele>39</ele>
        <time>2021-08-12T09:50:32.000Z</time>
      </trkpt>
      <trkpt lat="47.29856" lon="-2.35428">
        <ele>39</ele>
        <time>2021-08-12T09:50:39.000Z</time>
      </trkpt>
      <trkpt lat="47.2983" lon="-2.3546">
        <ele>39</ele>
        <time>2021-08-12T09:50:46.000Z</time>
      </trkpt>
      <trkpt lat="47.2983" lon="-2.35479">
        <ele>39</ele>
        <time>2021-08-12T09:50:49.000Z</time>
      </trkpt>
      <trkpt lat="47.29832" lon="-2.35485">
        <ele>39</ele>
        <time>2021-08-12T09:50:50.000Z</time>
      </trkpt>
      <trkpt lat="47.2984" lon="-2.35512">
        <ele>39.400001525879</ele>
        <time>2021-08-12T09:50:55.000Z</time>
      </trkpt>
      <trkpt lat="47.29842" lon="-2.35519">
        <ele>39.799999237061</ele>
        <time>2021-08-12T09:50:56.000Z</time>
      </trkpt>
      <trkpt lat="47.29844" lon="-2.35525">
        <ele>40.200000762939</ele>
        <time>2021-08-12T09:50:57.000Z</time>
      </trkpt>
      <trkpt lat="47.29846" lon="-2.35532">
        <ele>41</ele>
        <time>2021-08-12T09:50:58.000Z</time>
      </trkpt>
      <trkpt lat="47.29853" lon="-2.35558">
        <ele>41</ele>
        <time>2021-08-12T09:51:02.000Z</time>
      </trkpt>
      <trkpt lat="47.29867" lon="-2.35606">
        <ele>41</ele>
        <time>2021-08-12T09:51:09.000Z</time>
      </trkpt>
      <trkpt lat="47.2987" lon="-2.35621">
        <ele>41.400001525879</ele>
        <time>2021-08-12T09:51:11.000Z</time>
      </trkpt>
      <trkpt lat="47.29872" lon="-2.35628">
        <ele>41.799999237061</ele>
        <time>2021-08-12T09:51:12.000Z</time>
      </trkpt>
      <trkpt lat="47.29873" lon="-2.35634">
        <ele>42.200000762939</ele>
        <time>2021-08-12T09:51:13.000Z</time>
      </trkpt>
      <trkpt lat="47.29874" lon="-2.35641">
        <ele>42.599998474121</ele>
        <time>2021-08-12T09:51:14.000Z</time>
      </trkpt>
      <trkpt lat="47.29876" lon="-2.35648">
        <ele>43</ele>
        <time>2021-08-12T09:51:15.000Z</time>
      </trkpt>
      <trkpt lat="47.29877" lon="-2.35656">
        <ele>43</ele>
        <time>2021-08-12T09:51:16.000Z</time>
      </trkpt>
      <trkpt lat="47.29883" lon="-2.35697">
        <ele>43</ele>
        <time>2021-08-12T09:51:22.000Z</time>
      </trkpt>
      <trkpt lat="47.29887" lon="-2.35708">
        <ele>43</ele>
        <time>2021-08-12T09:51:24.000Z</time>
      </trkpt>
      <trkpt lat="47.29895" lon="-2.3575">
        <ele>43</ele>
        <time>2021-08-12T09:51:32.000Z</time>
      </trkpt>
      <trkpt lat="47.29895" lon="-2.35753">
        <ele>43</ele>
        <time>2021-08-12T09:51:33.000Z</time>
      </trkpt>
      <trkpt lat="47.29892" lon="-2.3576">
        <ele>43</ele>
        <time>2021-08-12T09:51:35.000Z</time>
      </trkpt>
      <trkpt lat="47.29881" lon="-2.3577">
        <ele>43</ele>
        <time>2021-08-12T09:51:38.000Z</time>
      </trkpt>
      <trkpt lat="47.29876" lon="-2.35772">
        <ele>43</ele>
        <time>2021-08-12T09:51:39.000Z</time>
      </trkpt>
      <trkpt lat="47.29841" lon="-2.35785">
        <ele>43</ele>
        <time>2021-08-12T09:51:45.000Z</time>
      </trkpt>
      <trkpt lat="47.29826" lon="-2.3579">
        <ele>43.599998474121</ele>
        <time>2021-08-12T09:51:48.000Z</time>
      </trkpt>
      <trkpt lat="47.29821" lon="-2.35792">
        <ele>44</ele>
        <time>2021-08-12T09:51:49.000Z</time>
      </trkpt>
      <trkpt lat="47.29816" lon="-2.35794">
        <ele>44.400001525879</ele>
        <time>2021-08-12T09:51:50.000Z</time>
      </trkpt>
      <trkpt lat="47.29811" lon="-2.35795">
        <ele>44.799999237061</ele>
        <time>2021-08-12T09:51:51.000Z</time>
      </trkpt>
      <trkpt lat="47.29806" lon="-2.35796">
        <ele>45.200000762939</ele>
        <time>2021-08-12T09:51:52.000Z</time>
      </trkpt>
      <trkpt lat="47.29777" lon="-2.35806">
        <ele>45.200000762939</ele>
        <time>2021-08-12T09:51:58.000Z</time>
      </trkpt>
      <trkpt lat="47.29753" lon="-2.35813">
        <ele>45.200000762939</ele>
        <time>2021-08-12T09:52:03.000Z</time>
      </trkpt>
      <trkpt lat="47.29723" lon="-2.35829">
        <ele>45.200000762939</ele>
        <time>2021-08-12T09:52:08.000Z</time>
      </trkpt>
      <trkpt lat="47.29681" lon="-2.35848">
        <ele>45.200000762939</ele>
        <time>2021-08-12T09:52:14.000Z</time>
      </trkpt>
      <trkpt lat="47.29675" lon="-2.35851">
        <ele>45.200000762939</ele>
        <time>2021-08-12T09:52:15.000Z</time>
      </trkpt>
      <trkpt lat="47.29658" lon="-2.35864">
        <ele>45.200000762939</ele>
        <time>2021-08-12T09:52:18.000Z</time>
      </trkpt>
      <trkpt lat="47.2962" lon="-2.35885">
        <ele>45.200000762939</ele>
        <time>2021-08-12T09:52:24.000Z</time>
      </trkpt>
      <trkpt lat="47.2958" lon="-2.3591">
        <ele>45.200000762939</ele>
        <time>2021-08-12T09:52:31.000Z</time>
      </trkpt>
      <trkpt lat="47.29563" lon="-2.35919">
        <ele>44.799999237061</ele>
        <time>2021-08-12T09:52:34.000Z</time>
      </trkpt>
      <trkpt lat="47.29558" lon="-2.35921">
        <ele>44.400001525879</ele>
        <time>2021-08-12T09:52:35.000Z</time>
      </trkpt>
      <trkpt lat="47.29553" lon="-2.35924">
        <ele>44</ele>
        <time>2021-08-12T09:52:36.000Z</time>
      </trkpt>
      <trkpt lat="47.29548" lon="-2.35927">
        <ele>43.200000762939</ele>
        <time>2021-08-12T09:52:37.000Z</time>
      </trkpt>
      <trkpt lat="47.29538" lon="-2.35933">
        <ele>43.200000762939</ele>
        <time>2021-08-12T09:52:39.000Z</time>
      </trkpt>
      <trkpt lat="47.29528" lon="-2.35939">
        <ele>43.200000762939</ele>
        <time>2021-08-12T09:52:41.000Z</time>
      </trkpt>
      <trkpt lat="47.29518" lon="-2.35943">
        <ele>43.200000762939</ele>
        <time>2021-08-12T09:52:43.000Z</time>
      </trkpt>
      <trkpt lat="47.29506" lon="-2.35935">
        <ele>43.200000762939</ele>
        <time>2021-08-12T09:52:46.000Z</time>
      </trkpt>
      <trkpt lat="47.29504" lon="-2.3593">
        <ele>43.200000762939</ele>
        <time>2021-08-12T09:52:47.000Z</time>
      </trkpt>
      <trkpt lat="47.29502" lon="-2.35924">
        <ele>43.200000762939</ele>
        <time>2021-08-12T09:52:48.000Z</time>
      </trkpt>
      <trkpt lat="47.29497" lon="-2.35906">
        <ele>43.200000762939</ele>
        <time>2021-08-12T09:52:51.000Z</time>
      </trkpt>
      <trkpt lat="47.29486" lon="-2.35901">
        <ele>43.200000762939</ele>
        <time>2021-08-12T09:52:54.000Z</time>
      </trkpt>
      <trkpt lat="47.29472" lon="-2.35904">
        <ele>43.200000762939</ele>
        <time>2021-08-12T09:52:57.000Z</time>
      </trkpt>
      <trkpt lat="47.29468" lon="-2.35904">
        <ele>43.200000762939</ele>
        <time>2021-08-12T09:52:58.000Z</time>
      </trkpt>
      <trkpt lat="47.29465" lon="-2.35902">
        <ele>43.200000762939</ele>
        <time>2021-08-12T09:52:59.000Z</time>
      </trkpt>
      <trkpt lat="47.29458" lon="-2.35902">
        <ele>43.200000762939</ele>
        <time>2021-08-12T09:53:01.000Z</time>
      </trkpt>
      <trkpt lat="47.29449" lon="-2.35906">
        <ele>43.200000762939</ele>
        <time>2021-08-12T09:53:05.000Z</time>
      </trkpt>
      <trkpt lat="47.29447" lon="-2.35909">
        <ele>43.200000762939</ele>
        <time>2021-08-12T09:53:10.000Z</time>
      </trkpt>
      <trkpt lat="47.29446" lon="-2.35911">
        <ele>43.200000762939</ele>
        <time>2021-08-12T09:53:11.000Z</time>
      </trkpt>
      <trkpt lat="47.2944" lon="-2.35913">
        <ele>43.200000762939</ele>
        <time>2021-08-12T09:53:13.000Z</time>
      </trkpt>
      <trkpt lat="47.29435" lon="-2.35905">
        <ele>43.200000762939</ele>
        <time>2021-08-12T09:53:15.000Z</time>
      </trkpt>
      <trkpt lat="47.29431" lon="-2.35901">
        <ele>43.200000762939</ele>
        <time>2021-08-12T09:53:16.000Z</time>
      </trkpt>
      <trkpt lat="47.29411" lon="-2.35874">
        <ele>43.200000762939</ele>
        <time>2021-08-12T09:53:21.000Z</time>
      </trkpt>
      <trkpt lat="47.29384" lon="-2.35845">
        <ele>43.200000762939</ele>
        <time>2021-08-12T09:53:27.000Z</time>
      </trkpt>
      <trkpt lat="47.29354" lon="-2.35816">
        <ele>43.200000762939</ele>
        <time>2021-08-12T09:53:33.000Z</time>
      </trkpt>
      <trkpt lat="47.29312" lon="-2.35782">
        <ele>43.200000762939</ele>
        <time>2021-08-12T09:53:41.000Z</time>
      </trkpt>
      <trkpt lat="47.29271" lon="-2.35744">
        <ele>43.200000762939</ele>
        <time>2021-08-12T09:53:49.000Z</time>
      </trkpt>
      <trkpt lat="47.29262" lon="-2.35736">
        <ele>43.200000762939</ele>
        <time>2021-08-12T09:53:51.000Z</time>
      </trkpt>
      <trkpt lat="47.29253" lon="-2.35741">
        <ele>43.200000762939</ele>
        <time>2021-08-12T09:53:53.000Z</time>
      </trkpt>
      <trkpt lat="47.29245" lon="-2.35753">
        <ele>43.200000762939</ele>
        <time>2021-08-12T09:53:55.000Z</time>
      </trkpt>
      <trkpt lat="47.29241" lon="-2.35759">
        <ele>43.200000762939</ele>
        <time>2021-08-12T09:53:56.000Z</time>
      </trkpt>
      <trkpt lat="47.29232" lon="-2.3577">
        <ele>43.200000762939</ele>
        <time>2021-08-12T09:53:58.000Z</time>
      </trkpt>
      <trkpt lat="47.29196" lon="-2.35805">
        <ele>43.200000762939</ele>
        <time>2021-08-12T09:54:05.000Z</time>
      </trkpt>
      <trkpt lat="47.2919" lon="-2.35809">
        <ele>43.200000762939</ele>
        <time>2021-08-12T09:54:06.000Z</time>
      </trkpt>
      <trkpt lat="47.29156" lon="-2.35831">
        <ele>43.200000762939</ele>
        <time>2021-08-12T09:54:12.000Z</time>
      </trkpt>
      <trkpt lat="47.29144" lon="-2.35842">
        <ele>43.200000762939</ele>
        <time>2021-08-12T09:54:14.000Z</time>
      </trkpt>
      <trkpt lat="47.29107" lon="-2.35883">
        <ele>43.200000762939</ele>
        <time>2021-08-12T09:54:21.000Z</time>
      </trkpt>
      <trkpt lat="47.29065" lon="-2.35933">
        <ele>43.200000762939</ele>
        <time>2021-08-12T09:54:29.000Z</time>
      </trkpt>
      <trkpt lat="47.29023" lon="-2.35981">
        <ele>43.200000762939</ele>
        <time>2021-08-12T09:54:37.000Z</time>
      </trkpt>
      <trkpt lat="47.28984" lon="-2.36019">
        <ele>43.200000762939</ele>
        <time>2021-08-12T09:54:44.000Z</time>
      </trkpt>
      <trkpt lat="47.28962" lon="-2.3604">
        <ele>43.200000762939</ele>
        <time>2021-08-12T09:54:48.000Z</time>
      </trkpt>
      <trkpt lat="47.2895" lon="-2.36047">
        <ele>43.200000762939</ele>
        <time>2021-08-12T09:54:50.000Z</time>
      </trkpt>
      <trkpt lat="47.28918" lon="-2.36067">
        <ele>43.200000762939</ele>
        <time>2021-08-12T09:54:55.000Z</time>
      </trkpt>
      <trkpt lat="47.28912" lon="-2.36073">
        <ele>43.200000762939</ele>
        <time>2021-08-12T09:54:56.000Z</time>
      </trkpt>
      <trkpt lat="47.28877" lon="-2.36108">
        <ele>43.200000762939</ele>
        <time>2021-08-12T09:55:02.000Z</time>
      </trkpt>
      <trkpt lat="47.28833" lon="-2.36157">
        <ele>43.200000762939</ele>
        <time>2021-08-12T09:55:10.000Z</time>
      </trkpt>
      <trkpt lat="47.28818" lon="-2.36176">
        <ele>43.200000762939</ele>
        <time>2021-08-12T09:55:13.000Z</time>
      </trkpt>
      <trkpt lat="47.28806" lon="-2.36185">
        <ele>43.200000762939</ele>
        <time>2021-08-12T09:55:15.000Z</time>
      </trkpt>
      <trkpt lat="47.28775" lon="-2.36207">
        <ele>43.200000762939</ele>
        <time>2021-08-12T09:55:21.000Z</time>
      </trkpt>
      <trkpt lat="47.28749" lon="-2.36227">
        <ele>43.200000762939</ele>
        <time>2021-08-12T09:55:27.000Z</time>
      </trkpt>
      <trkpt lat="47.28736" lon="-2.36237">
        <ele>43.200000762939</ele>
        <time>2021-08-12T09:55:31.000Z</time>
      </trkpt>
      <trkpt lat="47.28726" lon="-2.36252">
        <ele>43.200000762939</ele>
        <time>2021-08-12T09:55:36.000Z</time>
      </trkpt>
      <trkpt lat="47.28718" lon="-2.36269">
        <ele>43.200000762939</ele>
        <time>2021-08-12T09:55:42.000Z</time>
      </trkpt>
      <trkpt lat="47.28716" lon="-2.36271">
        <ele>43.599998474121</ele>
        <time>2021-08-12T09:55:43.000Z</time>
      </trkpt>
      <trkpt lat="47.28714" lon="-2.36273">
        <ele>44</ele>
        <time>2021-08-12T09:55:44.000Z</time>
      </trkpt>
      <trkpt lat="47.28711" lon="-2.36276">
        <ele>44.400001525879</ele>
        <time>2021-08-12T09:55:45.000Z</time>
      </trkpt>
      <trkpt lat="47.28708" lon="-2.36278">
        <ele>45</ele>
        <time>2021-08-12T09:55:46.000Z</time>
      </trkpt>
      <trkpt lat="47.28705" lon="-2.36279">
        <ele>45.400001525879</ele>
        <time>2021-08-12T09:55:47.000Z</time>
      </trkpt>
      <trkpt lat="47.28688" lon="-2.36282">
        <ele>45.799999237061</ele>
        <time>2021-08-12T09:55:51.000Z</time>
      </trkpt>
      <trkpt lat="47.28684" lon="-2.3628">
        <ele>46.200000762939</ele>
        <time>2021-08-12T09:55:52.000Z</time>
      </trkpt>
      <trkpt lat="47.28681" lon="-2.36279">
        <ele>46.599998474121</ele>
        <time>2021-08-12T09:55:53.000Z</time>
      </trkpt>
      <trkpt lat="47.28678" lon="-2.36277">
        <ele>47.400001525879</ele>
        <time>2021-08-12T09:55:54.000Z</time>
      </trkpt>
      <trkpt lat="47.28676" lon="-2.36275">
        <ele>47.400001525879</ele>
        <time>2021-08-12T09:55:55.000Z</time>
      </trkpt>
      <trkpt lat="47.28674" lon="-2.36266">
        <ele>47.400001525879</ele>
        <time>2021-08-12T09:55:57.000Z</time>
      </trkpt>
      <trkpt lat="47.28672" lon="-2.36256">
        <ele>47.400001525879</ele>
        <time>2021-08-12T09:55:59.000Z</time>
      </trkpt>
      <trkpt lat="47.28671" lon="-2.36239">
        <ele>47.799999237061</ele>
        <time>2021-08-12T09:56:02.000Z</time>
      </trkpt>
      <trkpt lat="47.28671" lon="-2.36234">
        <ele>48.200000762939</ele>
        <time>2021-08-12T09:56:03.000Z</time>
      </trkpt>
      <trkpt lat="47.28671" lon="-2.36229">
        <ele>48.599998474121</ele>
        <time>2021-08-12T09:56:04.000Z</time>
      </trkpt>
      <trkpt lat="47.28671" lon="-2.36223">
        <ele>49</ele>
        <time>2021-08-12T09:56:05.000Z</time>
      </trkpt>
      <trkpt lat="47.28671" lon="-2.36218">
        <ele>49.400001525879</ele>
        <time>2021-08-12T09:56:06.000Z</time>
      </trkpt>
      <trkpt lat="47.28668" lon="-2.36202">
        <ele>49.400001525879</ele>
        <time>2021-08-12T09:56:09.000Z</time>
      </trkpt>
      <trkpt lat="47.28655" lon="-2.36179">
        <ele>49.400001525879</ele>
        <time>2021-08-12T09:56:14.000Z</time>
      </trkpt>
      <trkpt lat="47.28646" lon="-2.36166">
        <ele>50</ele>
        <time>2021-08-12T09:56:18.000Z</time>
      </trkpt>
      <trkpt lat="47.28643" lon="-2.36163">
        <ele>50.799999237061</ele>
        <time>2021-08-12T09:56:19.000Z</time>
      </trkpt>
      <trkpt lat="47.28641" lon="-2.36158">
        <ele>51.200000762939</ele>
        <time>2021-08-12T09:56:20.000Z</time>
      </trkpt>
      <trkpt lat="47.28639" lon="-2.36154">
        <ele>51.599998474121</ele>
        <time>2021-08-12T09:56:21.000Z</time>
      </trkpt>
      <trkpt lat="47.28624" lon="-2.36149">
        <ele>51.599998474121</ele>
        <time>2021-08-12T09:56:25.000Z</time>
      </trkpt>
      <trkpt lat="47.2862" lon="-2.3615">
        <ele>52</ele>
        <time>2021-08-12T09:56:26.000Z</time>
      </trkpt>
      <trkpt lat="47.28617" lon="-2.36152">
        <ele>52.400001525879</ele>
        <time>2021-08-12T09:56:27.000Z</time>
      </trkpt>
      <trkpt lat="47.28614" lon="-2.36155">
        <ele>52.799999237061</ele>
        <time>2021-08-12T09:56:28.000Z</time>
      </trkpt>
      <trkpt lat="47.28611" lon="-2.36157">
        <ele>53.200000762939</ele>
        <time>2021-08-12T09:56:29.000Z</time>
      </trkpt>
      <trkpt lat="47.28607" lon="-2.36159">
        <ele>53.599998474121</ele>
        <time>2021-08-12T09:56:30.000Z</time>
      </trkpt>
      <trkpt lat="47.28593" lon="-2.3616">
        <ele>53.599998474121</ele>
        <time>2021-08-12T09:56:35.000Z</time>
      </trkpt>
      <trkpt lat="47.28575" lon="-2.36154">
        <ele>53.599998474121</ele>
        <time>2021-08-12T09:56:39.000Z</time>
      </trkpt>
      <trkpt lat="47.2857" lon="-2.36155">
        <ele>53.599998474121</ele>
        <time>2021-08-12T09:56:40.000Z</time>
      </trkpt>
      <trkpt lat="47.28553" lon="-2.36157">
        <ele>53.200000762939</ele>
        <time>2021-08-12T09:56:43.000Z</time>
      </trkpt>
      <trkpt lat="47.28549" lon="-2.36153">
        <ele>52.200000762939</ele>
        <time>2021-08-12T09:56:44.000Z</time>
      </trkpt>
      <trkpt lat="47.28546" lon="-2.36147">
        <ele>51.799999237061</ele>
        <time>2021-08-12T09:56:45.000Z</time>
      </trkpt>
      <trkpt lat="47.28543" lon="-2.36141">
        <ele>51.400001525879</ele>
        <time>2021-08-12T09:56:46.000Z</time>
      </trkpt>
      <trkpt lat="47.2854" lon="-2.36135">
        <ele>51.400001525879</ele>
        <time>2021-08-12T09:56:47.000Z</time>
      </trkpt>
      <trkpt lat="47.28533" lon="-2.36108">
        <ele>51.400001525879</ele>
        <time>2021-08-12T09:56:51.000Z</time>
      </trkpt>
      <trkpt lat="47.28529" lon="-2.36089">
        <ele>51.400001525879</ele>
        <time>2021-08-12T09:56:55.000Z</time>
      </trkpt>
      <trkpt lat="47.28526" lon="-2.36084">
        <ele>51.400001525879</ele>
        <time>2021-08-12T09:56:56.000Z</time>
      </trkpt>
      <trkpt lat="47.28517" lon="-2.36071">
        <ele>51.400001525879</ele>
        <time>2021-08-12T09:56:59.000Z</time>
      </trkpt>
      <trkpt lat="47.28513" lon="-2.36065">
        <ele>51.400001525879</ele>
        <time>2021-08-12T09:57:00.000Z</time>
      </trkpt>
      <trkpt lat="47.28503" lon="-2.36048">
        <ele>51.400001525879</ele>
        <time>2021-08-12T09:57:03.000Z</time>
      </trkpt>
      <trkpt lat="47.28498" lon="-2.36044">
        <ele>51.400001525879</ele>
        <time>2021-08-12T09:57:04.000Z</time>
      </trkpt>
      <trkpt lat="47.28485" lon="-2.36035">
        <ele>51.400001525879</ele>
        <time>2021-08-12T09:57:07.000Z</time>
      </trkpt>
      <trkpt lat="47.28466" lon="-2.36025">
        <ele>51.400001525879</ele>
        <time>2021-08-12T09:57:11.000Z</time>
      </trkpt>
      <trkpt lat="47.2846" lon="-2.36016">
        <ele>51.400001525879</ele>
        <time>2021-08-12T09:57:13.000Z</time>
      </trkpt>
      <trkpt lat="47.28455" lon="-2.36005">
        <ele>51.400001525879</ele>
        <time>2021-08-12T09:57:15.000Z</time>
      </trkpt>
      <trkpt lat="47.28443" lon="-2.35992">
        <ele>51.400001525879</ele>
        <time>2021-08-12T09:57:19.000Z</time>
      </trkpt>
      <trkpt lat="47.2843" lon="-2.36001">
        <ele>51.400001525879</ele>
        <time>2021-08-12T09:57:23.000Z</time>
      </trkpt>
      <trkpt lat="47.28426" lon="-2.36004">
        <ele>51.400001525879</ele>
        <time>2021-08-12T09:57:24.000Z</time>
      </trkpt>
      <trkpt lat="47.28422" lon="-2.36008">
        <ele>51</ele>
        <time>2021-08-12T09:57:25.000Z</time>
      </trkpt>
      <trkpt lat="47.28418" lon="-2.36011">
        <ele>50.599998474121</ele>
        <time>2021-08-12T09:57:26.000Z</time>
      </trkpt>
      <trkpt lat="47.28415" lon="-2.36015">
        <ele>50</ele>
        <time>2021-08-12T09:57:27.000Z</time>
      </trkpt>
      <trkpt lat="47.28411" lon="-2.36017">
        <ele>49.599998474121</ele>
        <time>2021-08-12T09:57:28.000Z</time>
      </trkpt>
      <trkpt lat="47.28408" lon="-2.3602">
        <ele>49.200000762939</ele>
        <time>2021-08-12T09:57:29.000Z</time>
      </trkpt>
      <trkpt lat="47.28388" lon="-2.36023">
        <ele>49.200000762939</ele>
        <time>2021-08-12T09:57:33.000Z</time>
      </trkpt>
      <trkpt lat="47.28381" lon="-2.36022">
        <ele>49.200000762939</ele>
        <time>2021-08-12T09:57:34.000Z</time>
      </trkpt>
      <trkpt lat="47.28374" lon="-2.36023">
        <ele>48.799999237061</ele>
        <time>2021-08-12T09:57:35.000Z</time>
      </trkpt>
      <trkpt lat="47.28367" lon="-2.36023">
        <ele>48.200000762939</ele>
        <time>2021-08-12T09:57:36.000Z</time>
      </trkpt>
      <trkpt lat="47.28359" lon="-2.36025">
        <ele>47.799999237061</ele>
        <time>2021-08-12T09:57:37.000Z</time>
      </trkpt>
      <trkpt lat="47.28352" lon="-2.36027">
        <ele>47.200000762939</ele>
        <time>2021-08-12T09:57:38.000Z</time>
      </trkpt>
      <trkpt lat="47.28345" lon="-2.36031">
        <ele>46.599998474121</ele>
        <time>2021-08-12T09:57:39.000Z</time>
      </trkpt>
      <trkpt lat="47.28338" lon="-2.36036">
        <ele>46</ele>
        <time>2021-08-12T09:57:40.000Z</time>
      </trkpt>
      <trkpt lat="47.28332" lon="-2.36042">
        <ele>45.400001525879</ele>
        <time>2021-08-12T09:57:41.000Z</time>
      </trkpt>
      <trkpt lat="47.28326" lon="-2.36047">
        <ele>44.599998474121</ele>
        <time>2021-08-12T09:57:42.000Z</time>
      </trkpt>
      <trkpt lat="47.2832" lon="-2.36051">
        <ele>44.200000762939</ele>
        <time>2021-08-12T09:57:43.000Z</time>
      </trkpt>
      <trkpt lat="47.28315" lon="-2.36052">
        <ele>43.799999237061</ele>
        <time>2021-08-12T09:57:44.000Z</time>
      </trkpt>
      <trkpt lat="47.28309" lon="-2.3605">
        <ele>43.200000762939</ele>
        <time>2021-08-12T09:57:45.000Z</time>
      </trkpt>
      <trkpt lat="47.28303" lon="-2.36048">
        <ele>42.799999237061</ele>
        <time>2021-08-12T09:57:46.000Z</time>
      </trkpt>
      <trkpt lat="47.28298" lon="-2.36047">
        <ele>42.200000762939</ele>
        <time>2021-08-12T09:57:47.000Z</time>
      </trkpt>
      <trkpt lat="47.28289" lon="-2.36044">
        <ele>42.200000762939</ele>
        <time>2021-08-12T09:57:49.000Z</time>
      </trkpt>
      <trkpt lat="47.28282" lon="-2.36036">
        <ele>41.799999237061</ele>
        <time>2021-08-12T09:57:51.000Z</time>
      </trkpt>
      <trkpt lat="47.28278" lon="-2.3603">
        <ele>41.400001525879</ele>
        <time>2021-08-12T09:57:52.000Z</time>
      </trkpt>
      <trkpt lat="47.28275" lon="-2.36025">
        <ele>41</ele>
        <time>2021-08-12T09:57:53.000Z</time>
      </trkpt>
      <trkpt lat="47.28273" lon="-2.36019">
        <ele>40.200000762939</ele>
        <time>2021-08-12T09:57:54.000Z</time>
      </trkpt>
      <trkpt lat="47.28271" lon="-2.36014">
        <ele>39.400001525879</ele>
        <time>2021-08-12T09:57:55.000Z</time>
      </trkpt>
      <trkpt lat="47.2827" lon="-2.36007">
        <ele>38.599998474121</ele>
        <time>2021-08-12T09:57:56.000Z</time>
      </trkpt>
      <trkpt lat="47.2827" lon="-2.36">
        <ele>37.799999237061</ele>
        <time>2021-08-12T09:57:57.000Z</time>
      </trkpt>
      <trkpt lat="47.2827" lon="-2.35994">
        <ele>36.200000762939</ele>
        <time>2021-08-12T09:57:58.000Z</time>
      </trkpt>
      <trkpt lat="47.2827" lon="-2.35988">
        <ele>35.400001525879</ele>
        <time>2021-08-12T09:57:59.000Z</time>
      </trkpt>
      <trkpt lat="47.28271" lon="-2.35982">
        <ele>34.599998474121</ele>
        <time>2021-08-12T09:58:00.000Z</time>
      </trkpt>
      <trkpt lat="47.28272" lon="-2.35977">
        <ele>34.599998474121</ele>
        <time>2021-08-12T09:58:01.000Z</time>
      </trkpt>
      <trkpt lat="47.28267" lon="-2.35952">
        <ele>34.599998474121</ele>
        <time>2021-08-12T09:58:06.000Z</time>
      </trkpt>
      <trkpt lat="47.28258" lon="-2.3593">
        <ele>34.599998474121</ele>
        <time>2021-08-12T09:58:11.000Z</time>
      </trkpt>
      <trkpt lat="47.28249" lon="-2.35912">
        <ele>34.599998474121</ele>
        <time>2021-08-12T09:58:16.000Z</time>
      </trkpt>
      <trkpt lat="47.28246" lon="-2.35911">
        <ele>34.599998474121</ele>
        <time>2021-08-12T09:58:17.000Z</time>
      </trkpt>
      <trkpt lat="47.28235" lon="-2.35908">
        <ele>34.599998474121</ele>
        <time>2021-08-12T09:58:20.000Z</time>
      </trkpt>
      <trkpt lat="47.28231" lon="-2.35906">
        <ele>34.599998474121</ele>
        <time>2021-08-12T09:58:21.000Z</time>
      </trkpt>
      <trkpt lat="47.28215" lon="-2.359">
        <ele>34.599998474121</ele>
        <time>2021-08-12T09:58:25.000Z</time>
      </trkpt>
      <trkpt lat="47.2819" lon="-2.35898">
        <ele>34.599998474121</ele>
        <time>2021-08-12T09:58:32.000Z</time>
      </trkpt>
      <trkpt lat="47.28184" lon="-2.35893">
        <ele>34.599998474121</ele>
        <time>2021-08-12T09:58:34.000Z</time>
      </trkpt>
      <trkpt lat="47.28179" lon="-2.35882">
        <ele>34.599998474121</ele>
        <time>2021-08-12T09:58:37.000Z</time>
      </trkpt>
      <trkpt lat="47.28177" lon="-2.35877">
        <ele>34.599998474121</ele>
        <time>2021-08-12T09:58:38.000Z</time>
      </trkpt>
      <trkpt lat="47.2817" lon="-2.35857">
        <ele>34.599998474121</ele>
        <time>2021-08-12T09:58:42.000Z</time>
      </trkpt>
      <trkpt lat="47.28161" lon="-2.35837">
        <ele>34.599998474121</ele>
        <time>2021-08-12T09:58:47.000Z</time>
      </trkpt>
      <trkpt lat="47.28153" lon="-2.35827">
        <ele>34.599998474121</ele>
        <time>2021-08-12T09:58:49.000Z</time>
      </trkpt>
      <trkpt lat="47.2815" lon="-2.3582">
        <ele>34.599998474121</ele>
        <time>2021-08-12T09:58:50.000Z</time>
      </trkpt>
      <trkpt lat="47.2814" lon="-2.35788">
        <ele>34.599998474121</ele>
        <time>2021-08-12T09:58:55.000Z</time>
      </trkpt>
      <trkpt lat="47.28139" lon="-2.3578">
        <ele>34.599998474121</ele>
        <time>2021-08-12T09:58:56.000Z</time>
      </trkpt>
      <trkpt lat="47.28134" lon="-2.35756">
        <ele>34.599998474121</ele>
        <time>2021-08-12T09:59:00.000Z</time>
      </trkpt>
      <trkpt lat="47.2813" lon="-2.35754">
        <ele>34.599998474121</ele>
        <time>2021-08-12T09:59:01.000Z</time>
      </trkpt>
      <trkpt lat="47.28126" lon="-2.35753">
        <ele>34.200000762939</ele>
        <time>2021-08-12T09:59:02.000Z</time>
      </trkpt>
      <trkpt lat="47.28122" lon="-2.35753">
        <ele>33.799999237061</ele>
        <time>2021-08-12T09:59:03.000Z</time>
      </trkpt>
      <trkpt lat="47.28118" lon="-2.35754">
        <ele>33.400001525879</ele>
        <time>2021-08-12T09:59:04.000Z</time>
      </trkpt>
      <trkpt lat="47.28115" lon="-2.35757">
        <ele>33</ele>
        <time>2021-08-12T09:59:05.000Z</time>
      </trkpt>
      <trkpt lat="47.28111" lon="-2.35761">
        <ele>32.599998474121</ele>
        <time>2021-08-12T09:59:06.000Z</time>
      </trkpt>
      <trkpt lat="47.28107" lon="-2.35765">
        <ele>32.599998474121</ele>
        <time>2021-08-12T09:59:07.000Z</time>
      </trkpt>
      <trkpt lat="47.28104" lon="-2.3577">
        <ele>32.599998474121</ele>
        <time>2021-08-12T09:59:08.000Z</time>
      </trkpt>
      <trkpt lat="47.2809" lon="-2.35798">
        <ele>32.599998474121</ele>
        <time>2021-08-12T09:59:13.000Z</time>
      </trkpt>
      <trkpt lat="47.28079" lon="-2.35808">
        <ele>32.599998474121</ele>
        <time>2021-08-12T09:59:17.000Z</time>
      </trkpt>
      <trkpt lat="47.28077" lon="-2.35806">
        <ele>32.599998474121</ele>
        <time>2021-08-12T09:59:18.000Z</time>
      </trkpt>
      <trkpt lat="47.28074" lon="-2.35799">
        <ele>32.599998474121</ele>
        <time>2021-08-12T09:59:20.000Z</time>
      </trkpt>
      <trkpt lat="47.28074" lon="-2.35782">
        <ele>33</ele>
        <time>2021-08-12T09:59:23.000Z</time>
      </trkpt>
      <trkpt lat="47.28076" lon="-2.35777">
        <ele>33.400001525879</ele>
        <time>2021-08-12T09:59:24.000Z</time>
      </trkpt>
      <trkpt lat="47.28079" lon="-2.35769">
        <ele>33.799999237061</ele>
        <time>2021-08-12T09:59:25.000Z</time>
      </trkpt>
      <trkpt lat="47.28081" lon="-2.35761">
        <ele>34.200000762939</ele>
        <time>2021-08-12T09:59:26.000Z</time>
      </trkpt>
      <trkpt lat="47.28083" lon="-2.35753">
        <ele>34.599998474121</ele>
        <time>2021-08-12T09:59:27.000Z</time>
      </trkpt>
      <trkpt lat="47.28085" lon="-2.35746">
        <ele>34.599998474121</ele>
        <time>2021-08-12T09:59:28.000Z</time>
      </trkpt>
      <trkpt lat="47.28086" lon="-2.3574">
        <ele>34.599998474121</ele>
        <time>2021-08-12T09:59:29.000Z</time>
      </trkpt>
      <trkpt lat="47.28088" lon="-2.35725">
        <ele>35.200000762939</ele>
        <time>2021-08-12T09:59:32.000Z</time>
      </trkpt>
      <trkpt lat="47.28089" lon="-2.35721">
        <ele>35.599998474121</ele>
        <time>2021-08-12T09:59:33.000Z</time>
      </trkpt>
      <trkpt lat="47.2809" lon="-2.35715">
        <ele>36</ele>
        <time>2021-08-12T09:59:34.000Z</time>
      </trkpt>
      <trkpt lat="47.2809" lon="-2.3571">
        <ele>36.400001525879</ele>
        <time>2021-08-12T09:59:35.000Z</time>
      </trkpt>
      <trkpt lat="47.2809" lon="-2.35704">
        <ele>36.799999237061</ele>
        <time>2021-08-12T09:59:36.000Z</time>
      </trkpt>
      <trkpt lat="47.28089" lon="-2.35698">
        <ele>36.799999237061</ele>
        <time>2021-08-12T09:59:37.000Z</time>
      </trkpt>
      <trkpt lat="47.28081" lon="-2.35658">
        <ele>36.799999237061</ele>
        <time>2021-08-12T09:59:42.000Z</time>
      </trkpt>
      <trkpt lat="47.28077" lon="-2.35641">
        <ele>36.400001525879</ele>
        <time>2021-08-12T09:59:45.000Z</time>
      </trkpt>
      <trkpt lat="47.28076" lon="-2.35635">
        <ele>36</ele>
        <time>2021-08-12T09:59:46.000Z</time>
      </trkpt>
      <trkpt lat="47.28075" lon="-2.35629">
        <ele>35.400001525879</ele>
        <time>2021-08-12T09:59:47.000Z</time>
      </trkpt>
      <trkpt lat="47.28075" lon="-2.35623">
        <ele>35</ele>
        <time>2021-08-12T09:59:48.000Z</time>
      </trkpt>
      <trkpt lat="47.28075" lon="-2.35619">
        <ele>34.400001525879</ele>
        <time>2021-08-12T09:59:49.000Z</time>
      </trkpt>
      <trkpt lat="47.28076" lon="-2.35615">
        <ele>33.799999237061</ele>
        <time>2021-08-12T09:59:50.000Z</time>
      </trkpt>
      <trkpt lat="47.28078" lon="-2.35612">
        <ele>33.200000762939</ele>
        <time>2021-08-12T09:59:51.000Z</time>
      </trkpt>
      <trkpt lat="47.2808" lon="-2.35611">
        <ele>32.599998474121</ele>
        <time>2021-08-12T09:59:52.000Z</time>
      </trkpt>
      <trkpt lat="47.28082" lon="-2.35612">
        <ele>32</ele>
        <time>2021-08-12T09:59:53.000Z</time>
      </trkpt>
      <trkpt lat="47.28084" lon="-2.35613">
        <ele>32</ele>
        <time>2021-08-12T09:59:54.000Z</time>
      </trkpt>
      <trkpt lat="47.28086" lon="-2.35615">
        <ele>32</ele>
        <time>2021-08-12T09:59:56.000Z</time>
      </trkpt>
      <trkpt lat="47.28087" lon="-2.35615">
        <ele>32</ele>
        <time>2021-08-12T09:59:58.000Z</time>
      </trkpt>
      <trkpt lat="47.28079" lon="-2.35608">
        <ele>34</ele>
        <time>2021-08-12T10:16:17.000Z</time>
      </trkpt>
      <trkpt lat="47.28076" lon="-2.35604">
        <ele>34</ele>
        <time>2021-08-12T10:16:19.000Z</time>
      </trkpt>
      <trkpt lat="47.28066" lon="-2.35592">
        <ele>34</ele>
        <time>2021-08-12T10:16:25.000Z</time>
      </trkpt>
      <trkpt lat="47.28051" lon="-2.35583">
        <ele>34</ele>
        <time>2021-08-12T10:16:30.000Z</time>
      </trkpt>
      <trkpt lat="47.28033" lon="-2.35575">
        <ele>34</ele>
        <time>2021-08-12T10:16:36.000Z</time>
      </trkpt>
      <trkpt lat="47.28023" lon="-2.35564">
        <ele>34</ele>
        <time>2021-08-12T10:16:40.000Z</time>
      </trkpt>
      <trkpt lat="47.28013" lon="-2.35558">
        <ele>34</ele>
        <time>2021-08-12T10:16:43.000Z</time>
      </trkpt>
      <trkpt lat="47.28006" lon="-2.3556">
        <ele>34</ele>
        <time>2021-08-12T10:16:45.000Z</time>
      </trkpt>
      <trkpt lat="47.27983" lon="-2.35566">
        <ele>34</ele>
        <time>2021-08-12T10:16:52.000Z</time>
      </trkpt>
      <trkpt lat="47.27955" lon="-2.35578">
        <ele>34</ele>
        <time>2021-08-12T10:16:59.000Z</time>
      </trkpt>
      <trkpt lat="47.27921" lon="-2.35587">
        <ele>34</ele>
        <time>2021-08-12T10:17:06.000Z</time>
      </trkpt>
      <trkpt lat="47.27897" lon="-2.35593">
        <ele>33.599998474121</ele>
        <time>2021-08-12T10:17:11.000Z</time>
      </trkpt>
      <trkpt lat="47.27892" lon="-2.35595">
        <ele>33.200000762939</ele>
        <time>2021-08-12T10:17:12.000Z</time>
      </trkpt>
      <trkpt lat="47.27886" lon="-2.35596">
        <ele>32.799999237061</ele>
        <time>2021-08-12T10:17:13.000Z</time>
      </trkpt>
      <trkpt lat="47.2788" lon="-2.35598">
        <ele>32.400001525879</ele>
        <time>2021-08-12T10:17:14.000Z</time>
      </trkpt>
      <trkpt lat="47.27875" lon="-2.35599">
        <ele>31.799999237061</ele>
        <time>2021-08-12T10:17:15.000Z</time>
      </trkpt>
      <trkpt lat="47.27826" lon="-2.35613">
        <ele>31.799999237061</ele>
        <time>2021-08-12T10:17:23.000Z</time>
      </trkpt>
      <trkpt lat="47.2782" lon="-2.35615">
        <ele>31.39999961853</ele>
        <time>2021-08-12T10:17:24.000Z</time>
      </trkpt>
      <trkpt lat="47.27814" lon="-2.35616">
        <ele>31</ele>
        <time>2021-08-12T10:17:25.000Z</time>
      </trkpt>
      <trkpt lat="47.27807" lon="-2.35617">
        <ele>30.60000038147</ele>
        <time>2021-08-12T10:17:26.000Z</time>
      </trkpt>
      <trkpt lat="47.27801" lon="-2.3562">
        <ele>30.200000762939</ele>
        <time>2021-08-12T10:17:27.000Z</time>
      </trkpt>
      <trkpt lat="47.27796" lon="-2.35622">
        <ele>29.799999237061</ele>
        <time>2021-08-12T10:17:28.000Z</time>
      </trkpt>
      <trkpt lat="47.27786" lon="-2.35627">
        <ele>29.799999237061</ele>
        <time>2021-08-12T10:17:30.000Z</time>
      </trkpt>
      <trkpt lat="47.27776" lon="-2.35634">
        <ele>29.39999961853</ele>
        <time>2021-08-12T10:17:32.000Z</time>
      </trkpt>
      <trkpt lat="47.27772" lon="-2.35639">
        <ele>29</ele>
        <time>2021-08-12T10:17:33.000Z</time>
      </trkpt>
      <trkpt lat="47.27768" lon="-2.35643">
        <ele>28.60000038147</ele>
        <time>2021-08-12T10:17:34.000Z</time>
      </trkpt>
      <trkpt lat="47.27764" lon="-2.35648">
        <ele>28.200000762939</ele>
        <time>2021-08-12T10:17:35.000Z</time>
      </trkpt>
      <trkpt lat="47.2776" lon="-2.35652">
        <ele>27.799999237061</ele>
        <time>2021-08-12T10:17:36.000Z</time>
      </trkpt>
      <trkpt lat="47.27756" lon="-2.35658">
        <ele>27.799999237061</ele>
        <time>2021-08-12T10:17:37.000Z</time>
      </trkpt>
      <trkpt lat="47.27745" lon="-2.35674">
        <ele>27.799999237061</ele>
        <time>2021-08-12T10:17:40.000Z</time>
      </trkpt>
      <trkpt lat="47.27722" lon="-2.35706">
        <ele>27.799999237061</ele>
        <time>2021-08-12T10:17:46.000Z</time>
      </trkpt>
      <trkpt lat="47.27713" lon="-2.35716">
        <ele>27.799999237061</ele>
        <time>2021-08-12T10:17:48.000Z</time>
      </trkpt>
      <trkpt lat="47.27698" lon="-2.35729">
        <ele>27.39999961853</ele>
        <time>2021-08-12T10:17:51.000Z</time>
      </trkpt>
      <trkpt lat="47.27693" lon="-2.35733">
        <ele>27</ele>
        <time>2021-08-12T10:17:52.000Z</time>
      </trkpt>
      <trkpt lat="47.27688" lon="-2.35738">
        <ele>26.60000038147</ele>
        <time>2021-08-12T10:17:53.000Z</time>
      </trkpt>
      <trkpt lat="47.27683" lon="-2.35743">
        <ele>26.200000762939</ele>
        <time>2021-08-12T10:17:54.000Z</time>
      </trkpt>
      <trkpt lat="47.27678" lon="-2.35746">
        <ele>25.799999237061</ele>
        <time>2021-08-12T10:17:55.000Z</time>
      </trkpt>
      <trkpt lat="47.27668" lon="-2.35746">
        <ele>25.799999237061</ele>
        <time>2021-08-12T10:17:57.000Z</time>
      </trkpt>
      <trkpt lat="47.27656" lon="-2.35729">
        <ele>25.799999237061</ele>
        <time>2021-08-12T10:18:00.000Z</time>
      </trkpt>
      <trkpt lat="47.27634" lon="-2.35716">
        <ele>25.799999237061</ele>
        <time>2021-08-12T10:18:04.000Z</time>
      </trkpt>
      <trkpt lat="47.27628" lon="-2.35714">
        <ele>25.200000762939</ele>
        <time>2021-08-12T10:18:05.000Z</time>
      </trkpt>
      <trkpt lat="47.27621" lon="-2.35712">
        <ele>24.799999237061</ele>
        <time>2021-08-12T10:18:06.000Z</time>
      </trkpt>
      <trkpt lat="47.27615" lon="-2.35711">
        <ele>24.39999961853</ele>
        <time>2021-08-12T10:18:07.000Z</time>
      </trkpt>
      <trkpt lat="47.27608" lon="-2.3571">
        <ele>23.60000038147</ele>
        <time>2021-08-12T10:18:08.000Z</time>
      </trkpt>
      <trkpt lat="47.27596" lon="-2.35706">
        <ele>23.60000038147</ele>
        <time>2021-08-12T10:18:10.000Z</time>
      </trkpt>
      <trkpt lat="47.27544" lon="-2.35694">
        <ele>23.200000762939</ele>
        <time>2021-08-12T10:18:19.000Z</time>
      </trkpt>
      <trkpt lat="47.27538" lon="-2.35693">
        <ele>22.799999237061</ele>
        <time>2021-08-12T10:18:20.000Z</time>
      </trkpt>
      <trkpt lat="47.27533" lon="-2.35691">
        <ele>22.39999961853</ele>
        <time>2021-08-12T10:18:21.000Z</time>
      </trkpt>
      <trkpt lat="47.27527" lon="-2.35691">
        <ele>22</ele>
        <time>2021-08-12T10:18:22.000Z</time>
      </trkpt>
      <trkpt lat="47.27521" lon="-2.35689">
        <ele>21.60000038147</ele>
        <time>2021-08-12T10:18:23.000Z</time>
      </trkpt>
      <trkpt lat="47.27509" lon="-2.35686">
        <ele>21.60000038147</ele>
        <time>2021-08-12T10:18:25.000Z</time>
      </trkpt>
      <trkpt lat="47.27461" lon="-2.35676">
        <ele>21.60000038147</ele>
        <time>2021-08-12T10:18:33.000Z</time>
      </trkpt>
      <trkpt lat="47.27445" lon="-2.35673">
        <ele>21.60000038147</ele>
        <time>2021-08-12T10:18:36.000Z</time>
      </trkpt>
      <trkpt lat="47.27434" lon="-2.35669">
        <ele>21.200000762939</ele>
        <time>2021-08-12T10:18:38.000Z</time>
      </trkpt>
      <trkpt lat="47.27429" lon="-2.35668">
        <ele>20.799999237061</ele>
        <time>2021-08-12T10:18:39.000Z</time>
      </trkpt>
      <trkpt lat="47.27424" lon="-2.35667">
        <ele>20.39999961853</ele>
        <time>2021-08-12T10:18:40.000Z</time>
      </trkpt>
      <trkpt lat="47.27419" lon="-2.35666">
        <ele>20</ele>
        <time>2021-08-12T10:18:41.000Z</time>
      </trkpt>
      <trkpt lat="47.27413" lon="-2.35667">
        <ele>19.60000038147</ele>
        <time>2021-08-12T10:18:42.000Z</time>
      </trkpt>
      <trkpt lat="47.27402" lon="-2.3567">
        <ele>19.60000038147</ele>
        <time>2021-08-12T10:18:44.000Z</time>
      </trkpt>
      <trkpt lat="47.2738" lon="-2.35684">
        <ele>19.60000038147</ele>
        <time>2021-08-12T10:18:48.000Z</time>
      </trkpt>
      <trkpt lat="47.27344" lon="-2.35711">
        <ele>19.60000038147</ele>
        <time>2021-08-12T10:18:55.000Z</time>
      </trkpt>
      <trkpt lat="47.27327" lon="-2.35726">
        <ele>19.60000038147</ele>
        <time>2021-08-12T10:18:59.000Z</time>
      </trkpt>
      <trkpt lat="47.27325" lon="-2.35728">
        <ele>19.60000038147</ele>
        <time>2021-08-12T10:19:02.000Z</time>
      </trkpt>
      <trkpt lat="47.27325" lon="-2.35728">
        <ele>19.60000038147</ele>
        <time>2021-08-12T10:19:08.000Z</time>
      </trkpt>
      <trkpt lat="47.27317" lon="-2.35737">
        <ele>19.60000038147</ele>
        <time>2021-08-12T10:19:12.000Z</time>
      </trkpt>
      <trkpt lat="47.27313" lon="-2.35738">
        <ele>19.60000038147</ele>
        <time>2021-08-12T10:19:13.000Z</time>
      </trkpt>
      <trkpt lat="47.27306" lon="-2.35732">
        <ele>19.60000038147</ele>
        <time>2021-08-12T10:19:15.000Z</time>
      </trkpt>
      <trkpt lat="47.27298" lon="-2.35708">
        <ele>19.60000038147</ele>
        <time>2021-08-12T10:19:19.000Z</time>
      </trkpt>
      <trkpt lat="47.27284" lon="-2.3568">
        <ele>19.60000038147</ele>
        <time>2021-08-12T10:19:24.000Z</time>
      </trkpt>
      <trkpt lat="47.27281" lon="-2.35674">
        <ele>19.60000038147</ele>
        <time>2021-08-12T10:19:25.000Z</time>
      </trkpt>
      <trkpt lat="47.27255" lon="-2.35615">
        <ele>19.60000038147</ele>
        <time>2021-08-12T10:19:35.000Z</time>
      </trkpt>
      <trkpt lat="47.27234" lon="-2.35568">
        <ele>19.60000038147</ele>
        <time>2021-08-12T10:19:43.000Z</time>
      </trkpt>
      <trkpt lat="47.27207" lon="-2.35509">
        <ele>19.60000038147</ele>
        <time>2021-08-12T10:19:53.000Z</time>
      </trkpt>
      <trkpt lat="47.27183" lon="-2.3546">
        <ele>19.60000038147</ele>
        <time>2021-08-12T10:20:01.000Z</time>
      </trkpt>
      <trkpt lat="47.27155" lon="-2.35406">
        <ele>19.60000038147</ele>
        <time>2021-08-12T10:20:10.000Z</time>
      </trkpt>
      <trkpt lat="47.27129" lon="-2.3536">
        <ele>19.60000038147</ele>
        <time>2021-08-12T10:20:18.000Z</time>
      </trkpt>
      <trkpt lat="47.27097" lon="-2.35308">
        <ele>19.60000038147</ele>
        <time>2021-08-12T10:20:27.000Z</time>
      </trkpt>
      <trkpt lat="47.27061" lon="-2.35252">
        <ele>19.60000038147</ele>
        <time>2021-08-12T10:20:37.000Z</time>
      </trkpt>
      <trkpt lat="47.27029" lon="-2.35202">
        <ele>19.60000038147</ele>
        <time>2021-08-12T10:20:46.000Z</time>
      </trkpt>
      <trkpt lat="47.27001" lon="-2.35158">
        <ele>19.60000038147</ele>
        <time>2021-08-12T10:20:54.000Z</time>
      </trkpt>
      <trkpt lat="47.26976" lon="-2.35119">
        <ele>19.60000038147</ele>
        <time>2021-08-12T10:21:02.000Z</time>
      </trkpt>
      <trkpt lat="47.2695" lon="-2.35079">
        <ele>19.60000038147</ele>
        <time>2021-08-12T10:21:10.000Z</time>
      </trkpt>
      <trkpt lat="47.26919" lon="-2.35032">
        <ele>19.60000038147</ele>
        <time>2021-08-12T10:21:19.000Z</time>
      </trkpt>
      <trkpt lat="47.26887" lon="-2.34984">
        <ele>19.60000038147</ele>
        <time>2021-08-12T10:21:28.000Z</time>
      </trkpt>
      <trkpt lat="47.26863" lon="-2.34947">
        <ele>19.60000038147</ele>
        <time>2021-08-12T10:21:35.000Z</time>
      </trkpt>
      <trkpt lat="47.26833" lon="-2.34903">
        <ele>19.60000038147</ele>
        <time>2021-08-12T10:21:43.000Z</time>
      </trkpt>
      <trkpt lat="47.26805" lon="-2.3486">
        <ele>19.60000038147</ele>
        <time>2021-08-12T10:21:51.000Z</time>
      </trkpt>
      <trkpt lat="47.26776" lon="-2.34818">
        <ele>19.60000038147</ele>
        <time>2021-08-12T10:21:59.000Z</time>
      </trkpt>
      <trkpt lat="47.26772" lon="-2.34814">
        <ele>19.60000038147</ele>
        <time>2021-08-12T10:22:00.000Z</time>
      </trkpt>
      <trkpt lat="47.26765" lon="-2.34806">
        <ele>19.60000038147</ele>
        <time>2021-08-12T10:22:02.000Z</time>
      </trkpt>
      <trkpt lat="47.26759" lon="-2.34796">
        <ele>19.60000038147</ele>
        <time>2021-08-12T10:22:04.000Z</time>
      </trkpt>
      <trkpt lat="47.26731" lon="-2.3476">
        <ele>19.60000038147</ele>
        <time>2021-08-12T10:22:11.000Z</time>
      </trkpt>
      <trkpt lat="47.26704" lon="-2.34726">
        <ele>19.60000038147</ele>
        <time>2021-08-12T10:22:18.000Z</time>
      </trkpt>
      <trkpt lat="47.26673" lon="-2.34689">
        <ele>19.60000038147</ele>
        <time>2021-08-12T10:22:26.000Z</time>
      </trkpt>
      <trkpt lat="47.26637" lon="-2.34645">
        <ele>19.60000038147</ele>
        <time>2021-08-12T10:22:35.000Z</time>
      </trkpt>
      <trkpt lat="47.26608" lon="-2.3461">
        <ele>19.60000038147</ele>
        <time>2021-08-12T10:22:42.000Z</time>
      </trkpt>
      <trkpt lat="47.26571" lon="-2.34568">
        <ele>19.60000038147</ele>
        <time>2021-08-12T10:22:51.000Z</time>
      </trkpt>
      <trkpt lat="47.2654" lon="-2.34536">
        <ele>19.60000038147</ele>
        <time>2021-08-12T10:22:59.000Z</time>
      </trkpt>
      <trkpt lat="47.26526" lon="-2.34527">
        <ele>19.60000038147</ele>
        <time>2021-08-12T10:23:03.000Z</time>
      </trkpt>
      <trkpt lat="47.26524" lon="-2.34524">
        <ele>19.60000038147</ele>
        <time>2021-08-12T10:23:05.000Z</time>
      </trkpt>
      <trkpt lat="47.26515" lon="-2.34518">
        <ele>19.60000038147</ele>
        <time>2021-08-12T10:23:09.000Z</time>
      </trkpt>
      <trkpt lat="47.26495" lon="-2.34504">
        <ele>19.60000038147</ele>
        <time>2021-08-12T10:23:14.000Z</time>
      </trkpt>
      <trkpt lat="47.26463" lon="-2.34481">
        <ele>19.60000038147</ele>
        <time>2021-08-12T10:23:21.000Z</time>
      </trkpt>
      <trkpt lat="47.26421" lon="-2.3445">
        <ele>19.60000038147</ele>
        <time>2021-08-12T10:23:30.000Z</time>
      </trkpt>
      <trkpt lat="47.26383" lon="-2.34419">
        <ele>19.60000038147</ele>
        <time>2021-08-12T10:23:38.000Z</time>
      </trkpt>
      <trkpt lat="47.26351" lon="-2.3439">
        <ele>19.60000038147</ele>
        <time>2021-08-12T10:23:46.000Z</time>
      </trkpt>
      <trkpt lat="47.26343" lon="-2.34384">
        <ele>19.60000038147</ele>
        <time>2021-08-12T10:23:48.000Z</time>
      </trkpt>
      <trkpt lat="47.26332" lon="-2.34381">
        <ele>19.60000038147</ele>
        <time>2021-08-12T10:23:50.000Z</time>
      </trkpt>
      <trkpt lat="47.26319" lon="-2.34371">
        <ele>19.60000038147</ele>
        <time>2021-08-12T10:23:53.000Z</time>
      </trkpt>
      <trkpt lat="47.26312" lon="-2.34359">
        <ele>19.60000038147</ele>
        <time>2021-08-12T10:23:55.000Z</time>
      </trkpt>
      <trkpt lat="47.26304" lon="-2.34348">
        <ele>19.60000038147</ele>
        <time>2021-08-12T10:23:57.000Z</time>
      </trkpt>
      <trkpt lat="47.263" lon="-2.34343">
        <ele>19.60000038147</ele>
        <time>2021-08-12T10:23:58.000Z</time>
      </trkpt>
      <trkpt lat="47.26267" lon="-2.3431">
        <ele>19.60000038147</ele>
        <time>2021-08-12T10:24:06.000Z</time>
      </trkpt>
      <trkpt lat="47.26234" lon="-2.34273">
        <ele>19.60000038147</ele>
        <time>2021-08-12T10:24:15.000Z</time>
      </trkpt>
      <trkpt lat="47.26205" lon="-2.34241">
        <ele>19.60000038147</ele>
        <time>2021-08-12T10:24:23.000Z</time>
      </trkpt>
      <trkpt lat="47.26175" lon="-2.34211">
        <ele>19.60000038147</ele>
        <time>2021-08-12T10:24:30.000Z</time>
      </trkpt>
      <trkpt lat="47.26151" lon="-2.34188">
        <ele>19.60000038147</ele>
        <time>2021-08-12T10:24:36.000Z</time>
      </trkpt>
      <trkpt lat="47.26146" lon="-2.34186">
        <ele>19.60000038147</ele>
        <time>2021-08-12T10:24:37.000Z</time>
      </trkpt>
      <trkpt lat="47.26129" lon="-2.34177">
        <ele>19.60000038147</ele>
        <time>2021-08-12T10:24:41.000Z</time>
      </trkpt>
      <trkpt lat="47.26108" lon="-2.34159">
        <ele>19.60000038147</ele>
        <time>2021-08-12T10:24:46.000Z</time>
      </trkpt>
      <trkpt lat="47.26071" lon="-2.34139">
        <ele>19.60000038147</ele>
        <time>2021-08-12T10:24:54.000Z</time>
      </trkpt>
      <trkpt lat="47.26032" lon="-2.34119">
        <ele>19.60000038147</ele>
        <time>2021-08-12T10:25:02.000Z</time>
      </trkpt>
      <trkpt lat="47.25993" lon="-2.341">
        <ele>19.60000038147</ele>
        <time>2021-08-12T10:25:10.000Z</time>
      </trkpt>
      <trkpt lat="47.2596" lon="-2.34084">
        <ele>19.60000038147</ele>
        <time>2021-08-12T10:25:17.000Z</time>
      </trkpt>
      <trkpt lat="47.2594" lon="-2.34077">
        <ele>19.60000038147</ele>
        <time>2021-08-12T10:25:21.000Z</time>
      </trkpt>
      <trkpt lat="47.25936" lon="-2.34075">
        <ele>19.60000038147</ele>
        <time>2021-08-12T10:25:22.000Z</time>
      </trkpt>
      <trkpt lat="47.25928" lon="-2.34073">
        <ele>19.60000038147</ele>
        <time>2021-08-12T10:25:24.000Z</time>
      </trkpt>
      <trkpt lat="47.25914" lon="-2.34073">
        <ele>19.60000038147</ele>
        <time>2021-08-12T10:25:27.000Z</time>
      </trkpt>
      <trkpt lat="47.25902" lon="-2.34061">
        <ele>19.60000038147</ele>
        <time>2021-08-12T10:25:30.000Z</time>
      </trkpt>
      <trkpt lat="47.259" lon="-2.3404">
        <ele>19.60000038147</ele>
        <time>2021-08-12T10:25:33.000Z</time>
      </trkpt>
      <trkpt lat="47.25906" lon="-2.34021">
        <ele>19.60000038147</ele>
        <time>2021-08-12T10:25:36.000Z</time>
      </trkpt>
      <trkpt lat="47.25907" lon="-2.34015">
        <ele>19.60000038147</ele>
        <time>2021-08-12T10:25:37.000Z</time>
      </trkpt>
      <trkpt lat="47.25914" lon="-2.33986">
        <ele>19.60000038147</ele>
        <time>2021-08-12T10:25:42.000Z</time>
      </trkpt>
      <trkpt lat="47.25927" lon="-2.33953">
        <ele>19.60000038147</ele>
        <time>2021-08-12T10:25:47.000Z</time>
      </trkpt>
      <trkpt lat="47.25946" lon="-2.33918">
        <ele>19.60000038147</ele>
        <time>2021-08-12T10:25:53.000Z</time>
      </trkpt>
      <trkpt lat="47.2595" lon="-2.339">
        <ele>19.60000038147</ele>
        <time>2021-08-12T10:25:56.000Z</time>
      </trkpt>
      <trkpt lat="47.25952" lon="-2.33894">
        <ele>19.60000038147</ele>
        <time>2021-08-12T10:25:57.000Z</time>
      </trkpt>
      <trkpt lat="47.25954" lon="-2.33889">
        <ele>19</ele>
        <time>2021-08-12T10:25:58.000Z</time>
      </trkpt>
      <trkpt lat="47.25957" lon="-2.33883">
        <ele>18.60000038147</ele>
        <time>2021-08-12T10:25:59.000Z</time>
      </trkpt>
      <trkpt lat="47.25959" lon="-2.33878">
        <ele>18.200000762939</ele>
        <time>2021-08-12T10:26:00.000Z</time>
      </trkpt>
      <trkpt lat="47.25961" lon="-2.33871">
        <ele>17.799999237061</ele>
        <time>2021-08-12T10:26:01.000Z</time>
      </trkpt>
      <trkpt lat="47.25963" lon="-2.33865">
        <ele>17.39999961853</ele>
        <time>2021-08-12T10:26:02.000Z</time>
      </trkpt>
      <trkpt lat="47.25964" lon="-2.33858">
        <ele>17.39999961853</ele>
        <time>2021-08-12T10:26:03.000Z</time>
      </trkpt>
      <trkpt lat="47.2598" lon="-2.33808">
        <ele>17.39999961853</ele>
        <time>2021-08-12T10:26:10.000Z</time>
      </trkpt>
      <trkpt lat="47.26" lon="-2.3375">
        <ele>17.39999961853</ele>
        <time>2021-08-12T10:26:18.000Z</time>
      </trkpt>
      <trkpt lat="47.26013" lon="-2.33712">
        <ele>17.39999961853</ele>
        <time>2021-08-12T10:26:23.000Z</time>
      </trkpt>
      <trkpt lat="47.26017" lon="-2.33697">
        <ele>17.39999961853</ele>
        <time>2021-08-12T10:26:25.000Z</time>
      </trkpt>
      <trkpt lat="47.26024" lon="-2.3367">
        <ele>17.39999961853</ele>
        <time>2021-08-12T10:26:29.000Z</time>
      </trkpt>
      <trkpt lat="47.26027" lon="-2.33665">
        <ele>17.39999961853</ele>
        <time>2021-08-12T10:26:30.000Z</time>
      </trkpt>
      <trkpt lat="47.2604" lon="-2.33666">
        <ele>17.39999961853</ele>
        <time>2021-08-12T10:26:33.000Z</time>
      </trkpt>
      <trkpt lat="47.26048" lon="-2.33662">
        <ele>17.39999961853</ele>
        <time>2021-08-12T10:26:37.000Z</time>
      </trkpt>
      <trkpt lat="47.26051" lon="-2.33661">
        <ele>17.39999961853</ele>
        <time>2021-08-12T10:26:39.000Z</time>
      </trkpt>
      <trkpt lat="47.26056" lon="-2.33663">
        <ele>17.39999961853</ele>
        <time>2021-08-12T10:26:41.000Z</time>
      </trkpt>
      <trkpt lat="47.26059" lon="-2.33658">
        <ele>17.39999961853</ele>
        <time>2021-08-12T10:26:43.000Z</time>
      </trkpt>
      <trkpt lat="47.26061" lon="-2.33647">
        <ele>17.39999961853</ele>
        <time>2021-08-12T10:26:45.000Z</time>
      </trkpt>
      <trkpt lat="47.26064" lon="-2.33636">
        <ele>17.39999961853</ele>
        <time>2021-08-12T10:26:47.000Z</time>
      </trkpt>
      <trkpt lat="47.26066" lon="-2.3363">
        <ele>17.39999961853</ele>
        <time>2021-08-12T10:26:48.000Z</time>
      </trkpt>
      <trkpt lat="47.26079" lon="-2.33591">
        <ele>17.39999961853</ele>
        <time>2021-08-12T10:26:54.000Z</time>
      </trkpt>
      <trkpt lat="47.26096" lon="-2.3354">
        <ele>17.39999961853</ele>
        <time>2021-08-12T10:27:01.000Z</time>
      </trkpt>
      <trkpt lat="47.26114" lon="-2.3349">
        <ele>17.39999961853</ele>
        <time>2021-08-12T10:27:08.000Z</time>
      </trkpt>
      <trkpt lat="47.2613" lon="-2.33448">
        <ele>17.39999961853</ele>
        <time>2021-08-12T10:27:15.000Z</time>
      </trkpt>
      <trkpt lat="47.26135" lon="-2.3343">
        <ele>17.39999961853</ele>
        <time>2021-08-12T10:27:19.000Z</time>
      </trkpt>
      <trkpt lat="47.26135" lon="-2.33427">
        <ele>17.39999961853</ele>
        <time>2021-08-12T10:27:20.000Z</time>
      </trkpt>
      <trkpt lat="47.26123" lon="-2.33412">
        <ele>17.39999961853</ele>
        <time>2021-08-12T10:27:25.000Z</time>
      </trkpt>
      <trkpt lat="47.26115" lon="-2.33403">
        <ele>17.39999961853</ele>
        <time>2021-08-12T10:27:27.000Z</time>
      </trkpt>
      <trkpt lat="47.26104" lon="-2.33389">
        <ele>17.39999961853</ele>
        <time>2021-08-12T10:27:30.000Z</time>
      </trkpt>
      <trkpt lat="47.26093" lon="-2.33375">
        <ele>17.39999961853</ele>
        <time>2021-08-12T10:27:33.000Z</time>
      </trkpt>
      <trkpt lat="47.26085" lon="-2.33368">
        <ele>17.39999961853</ele>
        <time>2021-08-12T10:27:35.000Z</time>
      </trkpt>
      <trkpt lat="47.26077" lon="-2.33349">
        <ele>17.39999961853</ele>
        <time>2021-08-12T10:27:38.000Z</time>
      </trkpt>
      <trkpt lat="47.26061" lon="-2.33304">
        <ele>17.39999961853</ele>
        <time>2021-08-12T10:27:44.000Z</time>
      </trkpt>
      <trkpt lat="47.26036" lon="-2.33232">
        <ele>17.39999961853</ele>
        <time>2021-08-12T10:27:53.000Z</time>
      </trkpt>
      <trkpt lat="47.26033" lon="-2.33224">
        <ele>17.39999961853</ele>
        <time>2021-08-12T10:27:54.000Z</time>
      </trkpt>
      <trkpt lat="47.26005" lon="-2.33148">
        <ele>17.39999961853</ele>
        <time>2021-08-12T10:28:04.000Z</time>
      </trkpt>
      <trkpt lat="47.25994" lon="-2.33109">
        <ele>17.39999961853</ele>
        <time>2021-08-12T10:28:09.000Z</time>
      </trkpt>
      <trkpt lat="47.25993" lon="-2.33101">
        <ele>17.39999961853</ele>
        <time>2021-08-12T10:28:10.000Z</time>
      </trkpt>
      <trkpt lat="47.25989" lon="-2.33085">
        <ele>17.39999961853</ele>
        <time>2021-08-12T10:28:12.000Z</time>
      </trkpt>
      <trkpt lat="47.25983" lon="-2.3307">
        <ele>17.39999961853</ele>
        <time>2021-08-12T10:28:14.000Z</time>
      </trkpt>
      <trkpt lat="47.25966" lon="-2.33024">
        <ele>17.39999961853</ele>
        <time>2021-08-12T10:28:20.000Z</time>
      </trkpt>
      <trkpt lat="47.2595" lon="-2.32977">
        <ele>17.39999961853</ele>
        <time>2021-08-12T10:28:26.000Z</time>
      </trkpt>
      <trkpt lat="47.25933" lon="-2.32929">
        <ele>17.39999961853</ele>
        <time>2021-08-12T10:28:32.000Z</time>
      </trkpt>
      <trkpt lat="47.25913" lon="-2.32875">
        <ele>17.39999961853</ele>
        <time>2021-08-12T10:28:39.000Z</time>
      </trkpt>
      <trkpt lat="47.25894" lon="-2.3282">
        <ele>17.39999961853</ele>
        <time>2021-08-12T10:28:46.000Z</time>
      </trkpt>
      <trkpt lat="47.25872" lon="-2.32757">
        <ele>17.39999961853</ele>
        <time>2021-08-12T10:28:54.000Z</time>
      </trkpt>
      <trkpt lat="47.25865" lon="-2.32729">
        <ele>17.39999961853</ele>
        <time>2021-08-12T10:28:58.000Z</time>
      </trkpt>
      <trkpt lat="47.25865" lon="-2.32723">
        <ele>17.39999961853</ele>
        <time>2021-08-12T10:28:59.000Z</time>
      </trkpt>
      <trkpt lat="47.25858" lon="-2.32698">
        <ele>17.39999961853</ele>
        <time>2021-08-12T10:29:03.000Z</time>
      </trkpt>
      <trkpt lat="47.2585" lon="-2.32677">
        <ele>17.39999961853</ele>
        <time>2021-08-12T10:29:06.000Z</time>
      </trkpt>
      <trkpt lat="47.25847" lon="-2.32668">
        <ele>17.39999961853</ele>
        <time>2021-08-12T10:29:07.000Z</time>
      </trkpt>
      <trkpt lat="47.25833" lon="-2.32612">
        <ele>17.39999961853</ele>
        <time>2021-08-12T10:29:14.000Z</time>
      </trkpt>
      <trkpt lat="47.25831" lon="-2.32604">
        <ele>18.200000762939</ele>
        <time>2021-08-12T10:29:15.000Z</time>
      </trkpt>
      <trkpt lat="47.25829" lon="-2.32596">
        <ele>18.60000038147</ele>
        <time>2021-08-12T10:29:16.000Z</time>
      </trkpt>
      <trkpt lat="47.25827" lon="-2.32588">
        <ele>19</ele>
        <time>2021-08-12T10:29:17.000Z</time>
      </trkpt>
      <trkpt lat="47.25825" lon="-2.3258">
        <ele>19.39999961853</ele>
        <time>2021-08-12T10:29:18.000Z</time>
      </trkpt>
      <trkpt lat="47.25813" lon="-2.32532">
        <ele>19.39999961853</ele>
        <time>2021-08-12T10:29:24.000Z</time>
      </trkpt>
      <trkpt lat="47.25801" lon="-2.3248">
        <ele>19.39999961853</ele>
        <time>2021-08-12T10:29:31.000Z</time>
      </trkpt>
      <trkpt lat="47.25801" lon="-2.32469">
        <ele>19.39999961853</ele>
        <time>2021-08-12T10:29:33.000Z</time>
      </trkpt>
      <trkpt lat="47.25803" lon="-2.32465">
        <ele>19.39999961853</ele>
        <time>2021-08-12T10:29:34.000Z</time>
      </trkpt>
      <trkpt lat="47.25813" lon="-2.32453">
        <ele>19.39999961853</ele>
        <time>2021-08-12T10:29:38.000Z</time>
      </trkpt>
      <trkpt lat="47.25829" lon="-2.32461">
        <ele>19.39999961853</ele>
        <time>2021-08-12T10:29:42.000Z</time>
      </trkpt>
      <trkpt lat="47.25834" lon="-2.32464">
        <ele>19.39999961853</ele>
        <time>2021-08-12T10:29:43.000Z</time>
      </trkpt>
      <trkpt lat="47.25858" lon="-2.32469">
        <ele>19.39999961853</ele>
        <time>2021-08-12T10:29:48.000Z</time>
      </trkpt>
      <trkpt lat="47.25882" lon="-2.32465">
        <ele>19.39999961853</ele>
        <time>2021-08-12T10:29:53.000Z</time>
      </trkpt>
      <trkpt lat="47.25892" lon="-2.32461">
        <ele>19.39999961853</ele>
        <time>2021-08-12T10:29:55.000Z</time>
      </trkpt>
      <trkpt lat="47.25901" lon="-2.32452">
        <ele>19.39999961853</ele>
        <time>2021-08-12T10:29:57.000Z</time>
      </trkpt>
      <trkpt lat="47.25909" lon="-2.32441">
        <ele>19.39999961853</ele>
        <time>2021-08-12T10:29:59.000Z</time>
      </trkpt>
      <trkpt lat="47.25913" lon="-2.32436">
        <ele>19.39999961853</ele>
        <time>2021-08-12T10:30:00.000Z</time>
      </trkpt>
      <trkpt lat="47.25921" lon="-2.32426">
        <ele>19.39999961853</ele>
        <time>2021-08-12T10:30:02.000Z</time>
      </trkpt>
      <trkpt lat="47.25953" lon="-2.32385">
        <ele>19.39999961853</ele>
        <time>2021-08-12T10:30:10.000Z</time>
      </trkpt>
      <trkpt lat="47.25974" lon="-2.32359">
        <ele>19</ele>
        <time>2021-08-12T10:30:15.000Z</time>
      </trkpt>
      <trkpt lat="47.25978" lon="-2.32354">
        <ele>18.60000038147</ele>
        <time>2021-08-12T10:30:16.000Z</time>
      </trkpt>
      <trkpt lat="47.25982" lon="-2.32349">
        <ele>18.200000762939</ele>
        <time>2021-08-12T10:30:17.000Z</time>
      </trkpt>
      <trkpt lat="47.25986" lon="-2.32344">
        <ele>17.60000038147</ele>
        <time>2021-08-12T10:30:18.000Z</time>
      </trkpt>
      <trkpt lat="47.2599" lon="-2.32339">
        <ele>17.200000762939</ele>
        <time>2021-08-12T10:30:19.000Z</time>
      </trkpt>
      <trkpt lat="47.26022" lon="-2.32299">
        <ele>17.200000762939</ele>
        <time>2021-08-12T10:30:27.000Z</time>
      </trkpt>
      <trkpt lat="47.26055" lon="-2.32262">
        <ele>17.200000762939</ele>
        <time>2021-08-12T10:30:35.000Z</time>
      </trkpt>
      <trkpt lat="47.26086" lon="-2.32223">
        <ele>17.200000762939</ele>
        <time>2021-08-12T10:30:43.000Z</time>
      </trkpt>
      <trkpt lat="47.261" lon="-2.32201">
        <ele>17.200000762939</ele>
        <time>2021-08-12T10:30:47.000Z</time>
      </trkpt>
      <trkpt lat="47.26109" lon="-2.32181">
        <ele>17.200000762939</ele>
        <time>2021-08-12T10:30:50.000Z</time>
      </trkpt>
      <trkpt lat="47.26131" lon="-2.32127">
        <ele>17.200000762939</ele>
        <time>2021-08-12T10:30:58.000Z</time>
      </trkpt>
      <trkpt lat="47.26146" lon="-2.32077">
        <ele>17.200000762939</ele>
        <time>2021-08-12T10:31:05.000Z</time>
      </trkpt>
      <trkpt lat="47.2616" lon="-2.32029">
        <ele>17.200000762939</ele>
        <time>2021-08-12T10:31:12.000Z</time>
      </trkpt>
      <trkpt lat="47.2617" lon="-2.32017">
        <ele>17.200000762939</ele>
        <time>2021-08-12T10:31:15.000Z</time>
      </trkpt>
      <trkpt lat="47.26181" lon="-2.32019">
        <ele>17.200000762939</ele>
        <time>2021-08-12T10:31:18.000Z</time>
      </trkpt>
      <trkpt lat="47.26184" lon="-2.32021">
        <ele>17.200000762939</ele>
        <time>2021-08-12T10:31:19.000Z</time>
      </trkpt>
      <trkpt lat="47.26193" lon="-2.32023">
        <ele>17.200000762939</ele>
        <time>2021-08-12T10:31:23.000Z</time>
      </trkpt>
      <trkpt lat="47.26196" lon="-2.32021">
        <ele>17.200000762939</ele>
        <time>2021-08-12T10:31:25.000Z</time>
      </trkpt>
      <trkpt lat="47.26197" lon="-2.32015">
        <ele>17.200000762939</ele>
        <time>2021-08-12T10:31:27.000Z</time>
      </trkpt>
      <trkpt lat="47.262" lon="-2.32003">
        <ele>17.200000762939</ele>
        <time>2021-08-12T10:31:31.000Z</time>
      </trkpt>
      <trkpt lat="47.26214" lon="-2.31987">
        <ele>17.200000762939</ele>
        <time>2021-08-12T10:31:37.000Z</time>
      </trkpt>
      <trkpt lat="47.26229" lon="-2.31976">
        <ele>17.200000762939</ele>
        <time>2021-08-12T10:31:41.000Z</time>
      </trkpt>
      <trkpt lat="47.26233" lon="-2.31973">
        <ele>17.200000762939</ele>
        <time>2021-08-12T10:31:42.000Z</time>
      </trkpt>
      <trkpt lat="47.26239" lon="-2.31963">
        <ele>17.200000762939</ele>
        <time>2021-08-12T10:31:44.000Z</time>
      </trkpt>
      <trkpt lat="47.26244" lon="-2.31954">
        <ele>17.200000762939</ele>
        <time>2021-08-12T10:31:46.000Z</time>
      </trkpt>
      <trkpt lat="47.26252" lon="-2.31937">
        <ele>17.200000762939</ele>
        <time>2021-08-12T10:31:50.000Z</time>
      </trkpt>
      <trkpt lat="47.26265" lon="-2.31918">
        <ele>17.200000762939</ele>
        <time>2021-08-12T10:31:55.000Z</time>
      </trkpt>
      <trkpt lat="47.26283" lon="-2.31899">
        <ele>17.200000762939</ele>
        <time>2021-08-12T10:32:01.000Z</time>
      </trkpt>
      <trkpt lat="47.26295" lon="-2.3188">
        <ele>17.200000762939</ele>
        <time>2021-08-12T10:32:06.000Z</time>
      </trkpt>
      <trkpt lat="47.26298" lon="-2.31856">
        <ele>17.200000762939</ele>
        <time>2021-08-12T10:32:10.000Z</time>
      </trkpt>
      <trkpt lat="47.26301" lon="-2.31822">
        <ele>17.200000762939</ele>
        <time>2021-08-12T10:32:16.000Z</time>
      </trkpt>
      <trkpt lat="47.26305" lon="-2.31787">
        <ele>17.200000762939</ele>
        <time>2021-08-12T10:32:22.000Z</time>
      </trkpt>
      <trkpt lat="47.26303" lon="-2.3175">
        <ele>17.200000762939</ele>
        <time>2021-08-12T10:32:28.000Z</time>
      </trkpt>
      <trkpt lat="47.26302" lon="-2.31721">
        <ele>17.200000762939</ele>
        <time>2021-08-12T10:32:33.000Z</time>
      </trkpt>
      <trkpt lat="47.26306" lon="-2.31717">
        <ele>17.200000762939</ele>
        <time>2021-08-12T10:32:34.000Z</time>
      </trkpt>
      <trkpt lat="47.26316" lon="-2.3171">
        <ele>17.200000762939</ele>
        <time>2021-08-12T10:32:37.000Z</time>
      </trkpt>
      <trkpt lat="47.26323" lon="-2.31705">
        <ele>17.200000762939</ele>
        <time>2021-08-12T10:32:39.000Z</time>
      </trkpt>
      <trkpt lat="47.26332" lon="-2.31697">
        <ele>17.200000762939</ele>
        <time>2021-08-12T10:32:42.000Z</time>
      </trkpt>
      <trkpt lat="47.26334" lon="-2.31689">
        <ele>17.799999237061</ele>
        <time>2021-08-12T10:32:44.000Z</time>
      </trkpt>
      <trkpt lat="47.26336" lon="-2.31687">
        <ele>18.200000762939</ele>
        <time>2021-08-12T10:32:45.000Z</time>
      </trkpt>
      <trkpt lat="47.26339" lon="-2.31685">
        <ele>18.60000038147</ele>
        <time>2021-08-12T10:32:46.000Z</time>
      </trkpt>
      <trkpt lat="47.26341" lon="-2.31685">
        <ele>19</ele>
        <time>2021-08-12T10:32:47.000Z</time>
      </trkpt>
      <trkpt lat="47.26344" lon="-2.31684">
        <ele>19.39999961853</ele>
        <time>2021-08-12T10:32:48.000Z</time>
      </trkpt>
      <trkpt lat="47.26348" lon="-2.31683">
        <ele>19.39999961853</ele>
        <time>2021-08-12T10:32:49.000Z</time>
      </trkpt>
      <trkpt lat="47.26363" lon="-2.31676">
        <ele>19.39999961853</ele>
        <time>2021-08-12T10:32:54.000Z</time>
      </trkpt>
      <trkpt lat="47.26378" lon="-2.3167">
        <ele>19.799999237061</ele>
        <time>2021-08-12T10:32:59.000Z</time>
      </trkpt>
      <trkpt lat="47.26381" lon="-2.31668">
        <ele>20.200000762939</ele>
        <time>2021-08-12T10:33:00.000Z</time>
      </trkpt>
      <trkpt lat="47.26384" lon="-2.31666">
        <ele>20.60000038147</ele>
        <time>2021-08-12T10:33:01.000Z</time>
      </trkpt>
      <trkpt lat="47.26387" lon="-2.31663">
        <ele>21</ele>
        <time>2021-08-12T10:33:02.000Z</time>
      </trkpt>
      <trkpt lat="47.2639" lon="-2.31662">
        <ele>21.39999961853</ele>
        <time>2021-08-12T10:33:03.000Z</time>
      </trkpt>
      <trkpt lat="47.26393" lon="-2.31661">
        <ele>21.39999961853</ele>
        <time>2021-08-12T10:33:04.000Z</time>
      </trkpt>
      <trkpt lat="47.2641" lon="-2.31651">
        <ele>21.39999961853</ele>
        <time>2021-08-12T10:33:10.000Z</time>
      </trkpt>
      <trkpt lat="47.26411" lon="-2.31647">
        <ele>21.39999961853</ele>
        <time>2021-08-12T10:33:11.000Z</time>
      </trkpt>
      <trkpt lat="47.26411" lon="-2.31641">
        <ele>21.39999961853</ele>
        <time>2021-08-12T10:33:13.000Z</time>
      </trkpt>
      <trkpt lat="47.26411" lon="-2.31612">
        <ele>21.39999961853</ele>
        <time>2021-08-12T10:33:19.000Z</time>
      </trkpt>
      <trkpt lat="47.26412" lon="-2.31581">
        <ele>21.39999961853</ele>
        <time>2021-08-12T10:33:26.000Z</time>
      </trkpt>
      <trkpt lat="47.26412" lon="-2.31557">
        <ele>21.39999961853</ele>
        <time>2021-08-12T10:33:32.000Z</time>
      </trkpt>
      <trkpt lat="47.26414" lon="-2.31551">
        <ele>21.39999961853</ele>
        <time>2021-08-12T10:33:34.000Z</time>
      </trkpt>
      <trkpt lat="47.26417" lon="-2.31552">
        <ele>21.39999961853</ele>
        <time>2021-08-12T10:33:36.000Z</time>
      </trkpt>
      <trkpt lat="47.26417" lon="-2.31552">
        <ele>21.39999961853</ele>
        <time>2021-08-12T10:33:37.000Z</time>
      </trkpt>
    </trkseg>
  </trk>
</gpx>